<?xml version="1.0" encoding="UTF-8"?>
<gpx version="1.1" creator="https://www.youtrack.es" xsi:schemaLocation="http://www.topografix.com/GPX/1/1 http://www.topografix.com/GPX/1/1/gpx.xsd http://www.garmin.com/xmlschemas/GpxExtensions/v3 http://www.garmin.com/xmlschemas/GpxExtensionsv3.xsd http://www.garmin.com/xmlschemas/TrackPointExtension/v1 http://www.garmin.com/xmlschemas/TrackPointExtensionv1.xsd" xmlns:gpxtpx="http://www.garmin.com/xmlschemas/TrackPointExtension/v1" xmlns:gpxx="http://www.garmin.com/xmlschemas/GpxExtensions/v3" xmlns:xsi="http://www.w3.org/2001/XMLSchema-instance">
  <metadata>
    <author>
      <name>jose Ribeiro</name>
      <email id="jacribeiro1" domain="gmail.com"/>
    </author>
    <link href="https://www.youtrack.es">
      <text>YouTrack.es</text>
    </link>
    <time>2026-05-08T23:35:29Z</time>
  </metadata>
  <trk>
    <src>https://www.youtrack.es</src>
    <link href="https://www.youtrack.es/ruta/3363-grove-padre-sarmiento">
      <text>YouTrack.es</text>
    </link>
    <trkseg>
      <trkpt lat="42.572888" lon="-9.072160">
        <ele>59.089</ele>
        <time>2017-04-08T09:02:38Z</time>
      </trkpt>
      <trkpt lat="42.572899" lon="-9.072287">
        <ele>56.006</ele>
        <time>2017-04-08T09:04:14Z</time>
      </trkpt>
      <trkpt lat="42.572936" lon="-9.072401">
        <ele>52.026</ele>
        <time>2017-04-08T09:04:22Z</time>
      </trkpt>
      <trkpt lat="42.572992" lon="-9.072499">
        <ele>51.008</ele>
        <time>2017-04-08T09:04:32Z</time>
      </trkpt>
      <trkpt lat="42.573084" lon="-9.072522">
        <ele>54.049</ele>
        <time>2017-04-08T09:04:45Z</time>
      </trkpt>
      <trkpt lat="42.573166" lon="-9.072473">
        <ele>58.085</ele>
        <time>2017-04-08T09:04:52Z</time>
      </trkpt>
      <trkpt lat="42.573262" lon="-9.072493">
        <ele>55.063</ele>
        <time>2017-04-08T09:04:59Z</time>
      </trkpt>
      <trkpt lat="42.573358" lon="-9.072473">
        <ele>56.091</ele>
        <time>2017-04-08T09:05:07Z</time>
      </trkpt>
      <trkpt lat="42.573444" lon="-9.072424">
        <ele>57.055</ele>
        <time>2017-04-08T09:05:17Z</time>
      </trkpt>
      <trkpt lat="42.573543" lon="-9.072392">
        <ele>54.014</ele>
        <time>2017-04-08T09:05:25Z</time>
      </trkpt>
      <trkpt lat="42.573634" lon="-9.072336">
        <ele>59.083</ele>
        <time>2017-04-08T09:05:40Z</time>
      </trkpt>
      <trkpt lat="42.573716" lon="-9.072285">
        <ele>59.077</ele>
        <time>2017-04-08T09:05:46Z</time>
      </trkpt>
      <trkpt lat="42.573813" lon="-9.072255">
        <ele>58.035</ele>
        <time>2017-04-08T09:05:54Z</time>
      </trkpt>
      <trkpt lat="42.573912" lon="-9.072240">
        <ele>55.086</ele>
        <time>2017-04-08T09:06:02Z</time>
      </trkpt>
      <trkpt lat="42.573996" lon="-9.072170">
        <ele>52.014</ele>
        <time>2017-04-08T09:06:10Z</time>
      </trkpt>
      <trkpt lat="42.574028" lon="-9.072052">
        <ele>53.008</ele>
        <time>2017-04-08T09:06:16Z</time>
      </trkpt>
      <trkpt lat="42.574080" lon="-9.071936">
        <ele>57.094</ele>
        <time>2017-04-08T09:06:23Z</time>
      </trkpt>
      <trkpt lat="42.574152" lon="-9.071855">
        <ele>57.050</ele>
        <time>2017-04-08T09:06:28Z</time>
      </trkpt>
      <trkpt lat="42.574242" lon="-9.071804">
        <ele>57.078</ele>
        <time>2017-04-08T09:06:39Z</time>
      </trkpt>
      <trkpt lat="42.574323" lon="-9.071655">
        <ele>51.096</ele>
        <time>2017-04-08T09:06:46Z</time>
      </trkpt>
      <trkpt lat="42.574372" lon="-9.071549">
        <ele>52.070</ele>
        <time>2017-04-08T09:06:52Z</time>
      </trkpt>
      <trkpt lat="42.574455" lon="-9.071500">
        <ele>53.069</ele>
        <time>2017-04-08T09:06:58Z</time>
      </trkpt>
      <trkpt lat="42.574525" lon="-9.071414">
        <ele>55.018</ele>
        <time>2017-04-08T09:07:07Z</time>
      </trkpt>
      <trkpt lat="42.574599" lon="-9.071333">
        <ele>60.062</ele>
        <time>2017-04-08T09:07:21Z</time>
      </trkpt>
      <trkpt lat="42.574662" lon="-9.071177">
        <ele>60.058</ele>
        <time>2017-04-08T09:07:31Z</time>
      </trkpt>
      <trkpt lat="42.574714" lon="-9.071067">
        <ele>62.052</ele>
        <time>2017-04-08T09:07:38Z</time>
      </trkpt>
      <trkpt lat="42.574741" lon="-9.070938">
        <ele>62.017</ele>
        <time>2017-04-08T09:07:47Z</time>
      </trkpt>
      <trkpt lat="42.574749" lon="-9.070804">
        <ele>57.008</ele>
        <time>2017-04-08T09:07:54Z</time>
      </trkpt>
      <trkpt lat="42.574832" lon="-9.070716">
        <ele>52.036</ele>
        <time>2017-04-08T09:07:59Z</time>
      </trkpt>
      <trkpt lat="42.574918" lon="-9.070644">
        <ele>51.042</ele>
        <time>2017-04-08T09:08:06Z</time>
      </trkpt>
      <trkpt lat="42.575000" lon="-9.070590">
        <ele>43.060</ele>
        <time>2017-04-08T09:08:12Z</time>
      </trkpt>
      <trkpt lat="42.575077" lon="-9.070507">
        <ele>44.088</ele>
        <time>2017-04-08T09:08:21Z</time>
      </trkpt>
      <trkpt lat="42.575162" lon="-9.070453">
        <ele>51.032</ele>
        <time>2017-04-08T09:08:30Z</time>
      </trkpt>
      <trkpt lat="42.575242" lon="-9.070393">
        <ele>50.011</ele>
        <time>2017-04-08T09:08:36Z</time>
      </trkpt>
      <trkpt lat="42.575332" lon="-9.070358">
        <ele>50.090</ele>
        <time>2017-04-08T09:08:44Z</time>
      </trkpt>
      <trkpt lat="42.575380" lon="-9.070232">
        <ele>49.064</ele>
        <time>2017-04-08T09:08:48Z</time>
      </trkpt>
      <trkpt lat="42.575419" lon="-9.070113">
        <ele>51.051</ele>
        <time>2017-04-08T09:08:58Z</time>
      </trkpt>
      <trkpt lat="42.575487" lon="-9.070012">
        <ele>57.001</ele>
        <time>2017-04-08T09:09:06Z</time>
      </trkpt>
      <trkpt lat="42.575468" lon="-9.069890">
        <ele>61.011</ele>
        <time>2017-04-08T09:09:15Z</time>
      </trkpt>
      <trkpt lat="42.575497" lon="-9.069750">
        <ele>62.008</ele>
        <time>2017-04-08T09:09:23Z</time>
      </trkpt>
      <trkpt lat="42.575505" lon="-9.069623">
        <ele>63.026</ele>
        <time>2017-04-08T09:09:30Z</time>
      </trkpt>
      <trkpt lat="42.575539" lon="-9.069500">
        <ele>60.062</ele>
        <time>2017-04-08T09:09:37Z</time>
      </trkpt>
      <trkpt lat="42.575589" lon="-9.069391">
        <ele>59.080</ele>
        <time>2017-04-08T09:09:44Z</time>
      </trkpt>
      <trkpt lat="42.575625" lon="-9.069270">
        <ele>57.068</ele>
        <time>2017-04-08T09:09:51Z</time>
      </trkpt>
      <trkpt lat="42.575691" lon="-9.069171">
        <ele>53.062</ele>
        <time>2017-04-08T09:10:01Z</time>
      </trkpt>
      <trkpt lat="42.575733" lon="-9.069045">
        <ele>55.031</ele>
        <time>2017-04-08T09:10:07Z</time>
      </trkpt>
      <trkpt lat="42.575845" lon="-9.069018">
        <ele>56.080</ele>
        <time>2017-04-08T09:10:11Z</time>
      </trkpt>
      <trkpt lat="42.575880" lon="-9.068884">
        <ele>60.034</ele>
        <time>2017-04-08T09:10:17Z</time>
      </trkpt>
      <trkpt lat="42.575913" lon="-9.068748">
        <ele>63.013</ele>
        <time>2017-04-08T09:10:27Z</time>
      </trkpt>
      <trkpt lat="42.575921" lon="-9.068612">
        <ele>69.043</ele>
        <time>2017-04-08T09:10:34Z</time>
      </trkpt>
      <trkpt lat="42.576016" lon="-9.068608">
        <ele>54.007</ele>
        <time>2017-04-08T09:11:05Z</time>
      </trkpt>
      <trkpt lat="42.576101" lon="-9.068659">
        <ele>56.008</ele>
        <time>2017-04-08T09:11:11Z</time>
      </trkpt>
      <trkpt lat="42.576179" lon="-9.068585">
        <ele>54.022</ele>
        <time>2017-04-08T09:11:19Z</time>
      </trkpt>
      <trkpt lat="42.576248" lon="-9.068497">
        <ele>56.028</ele>
        <time>2017-04-08T09:11:26Z</time>
      </trkpt>
      <trkpt lat="42.576327" lon="-9.068389">
        <ele>62.016</ele>
        <time>2017-04-08T09:11:33Z</time>
      </trkpt>
      <trkpt lat="42.576363" lon="-9.068270">
        <ele>61.094</ele>
        <time>2017-04-08T09:11:41Z</time>
      </trkpt>
      <trkpt lat="42.576421" lon="-9.068158">
        <ele>60.068</ele>
        <time>2017-04-08T09:11:49Z</time>
      </trkpt>
      <trkpt lat="42.576478" lon="-9.068053">
        <ele>57.077</ele>
        <time>2017-04-08T09:11:58Z</time>
      </trkpt>
      <trkpt lat="42.576547" lon="-9.067969">
        <ele>61.096</ele>
        <time>2017-04-08T09:12:04Z</time>
      </trkpt>
      <trkpt lat="42.576608" lon="-9.067872">
        <ele>59.020</ele>
        <time>2017-04-08T09:12:11Z</time>
      </trkpt>
      <trkpt lat="42.576674" lon="-9.067767">
        <ele>60.066</ele>
        <time>2017-04-08T09:12:18Z</time>
      </trkpt>
      <trkpt lat="42.576727" lon="-9.067668">
        <ele>60.029</ele>
        <time>2017-04-08T09:12:26Z</time>
      </trkpt>
      <trkpt lat="42.576784" lon="-9.067571">
        <ele>59.021</ele>
        <time>2017-04-08T09:12:33Z</time>
      </trkpt>
      <trkpt lat="42.576852" lon="-9.067477">
        <ele>60.008</ele>
        <time>2017-04-08T09:12:40Z</time>
      </trkpt>
      <trkpt lat="42.576925" lon="-9.067390">
        <ele>61.097</ele>
        <time>2017-04-08T09:12:48Z</time>
      </trkpt>
      <trkpt lat="42.576965" lon="-9.067276">
        <ele>58.053</ele>
        <time>2017-04-08T09:12:57Z</time>
      </trkpt>
      <trkpt lat="42.577033" lon="-9.067177">
        <ele>58.081</ele>
        <time>2017-04-08T09:13:04Z</time>
      </trkpt>
      <trkpt lat="42.577100" lon="-9.067063">
        <ele>56.039</ele>
        <time>2017-04-08T09:13:11Z</time>
      </trkpt>
      <trkpt lat="42.577170" lon="-9.066982">
        <ele>55.033</ele>
        <time>2017-04-08T09:13:17Z</time>
      </trkpt>
      <trkpt lat="42.577222" lon="-9.066869">
        <ele>57.082</ele>
        <time>2017-04-08T09:13:28Z</time>
      </trkpt>
      <trkpt lat="42.577289" lon="-9.066782">
        <ele>58.021</ele>
        <time>2017-04-08T09:13:35Z</time>
      </trkpt>
      <trkpt lat="42.577363" lon="-9.066690">
        <ele>58.055</ele>
        <time>2017-04-08T09:13:42Z</time>
      </trkpt>
      <trkpt lat="42.577328" lon="-9.066576">
        <ele>58.048</ele>
        <time>2017-04-08T09:13:53Z</time>
      </trkpt>
      <trkpt lat="42.577265" lon="-9.066463">
        <ele>60.061</ele>
        <time>2017-04-08T09:14:02Z</time>
      </trkpt>
      <trkpt lat="42.577188" lon="-9.066379">
        <ele>60.017</ele>
        <time>2017-04-08T09:14:11Z</time>
      </trkpt>
      <trkpt lat="42.577115" lon="-9.066301">
        <ele>60.008</ele>
        <time>2017-04-08T09:14:18Z</time>
      </trkpt>
      <trkpt lat="42.577046" lon="-9.066217">
        <ele>58.095</ele>
        <time>2017-04-08T09:14:26Z</time>
      </trkpt>
      <trkpt lat="42.576990" lon="-9.066120">
        <ele>58.041</ele>
        <time>2017-04-08T09:14:34Z</time>
      </trkpt>
      <trkpt lat="42.576983" lon="-9.065987">
        <ele>58.099</ele>
        <time>2017-04-08T09:14:42Z</time>
      </trkpt>
      <trkpt lat="42.577006" lon="-9.065855">
        <ele>56.047</ele>
        <time>2017-04-08T09:14:50Z</time>
      </trkpt>
      <trkpt lat="42.577018" lon="-9.065725">
        <ele>58.051</ele>
        <time>2017-04-08T09:14:58Z</time>
      </trkpt>
      <trkpt lat="42.577036" lon="-9.065598">
        <ele>59.030</ele>
        <time>2017-04-08T09:15:05Z</time>
      </trkpt>
      <trkpt lat="42.577071" lon="-9.065484">
        <ele>59.019</ele>
        <time>2017-04-08T09:15:13Z</time>
      </trkpt>
      <trkpt lat="42.577102" lon="-9.065367">
        <ele>59.033</ele>
        <time>2017-04-08T09:15:20Z</time>
      </trkpt>
      <trkpt lat="42.577130" lon="-9.065244">
        <ele>57.028</ele>
        <time>2017-04-08T09:15:27Z</time>
      </trkpt>
      <trkpt lat="42.577172" lon="-9.065125">
        <ele>55.089</ele>
        <time>2017-04-08T09:15:35Z</time>
      </trkpt>
      <trkpt lat="42.577153" lon="-9.064992">
        <ele>55.017</ele>
        <time>2017-04-08T09:15:45Z</time>
      </trkpt>
      <trkpt lat="42.577144" lon="-9.064868">
        <ele>55.008</ele>
        <time>2017-04-08T09:16:00Z</time>
      </trkpt>
      <trkpt lat="42.577130" lon="-9.064730">
        <ele>55.073</ele>
        <time>2017-04-08T09:16:08Z</time>
      </trkpt>
      <trkpt lat="42.577126" lon="-9.064599">
        <ele>57.019</ele>
        <time>2017-04-08T09:16:16Z</time>
      </trkpt>
      <trkpt lat="42.577150" lon="-9.064468">
        <ele>56.057</ele>
        <time>2017-04-08T09:16:23Z</time>
      </trkpt>
      <trkpt lat="42.577175" lon="-9.064335">
        <ele>57.025</ele>
        <time>2017-04-08T09:16:35Z</time>
      </trkpt>
      <trkpt lat="42.577197" lon="-9.064202">
        <ele>59.029</ele>
        <time>2017-04-08T09:16:43Z</time>
      </trkpt>
      <trkpt lat="42.577249" lon="-9.064087">
        <ele>58.068</ele>
        <time>2017-04-08T09:16:50Z</time>
      </trkpt>
      <trkpt lat="42.577277" lon="-9.063961">
        <ele>58.057</ele>
        <time>2017-04-08T09:16:57Z</time>
      </trkpt>
      <trkpt lat="42.577307" lon="-9.063832">
        <ele>59.021</ele>
        <time>2017-04-08T09:17:04Z</time>
      </trkpt>
      <trkpt lat="42.577308" lon="-9.063706">
        <ele>61.058</ele>
        <time>2017-04-08T09:17:11Z</time>
      </trkpt>
      <trkpt lat="42.577325" lon="-9.063577">
        <ele>61.052</ele>
        <time>2017-04-08T09:17:18Z</time>
      </trkpt>
      <trkpt lat="42.577339" lon="-9.063435">
        <ele>63.017</ele>
        <time>2017-04-08T09:17:26Z</time>
      </trkpt>
      <trkpt lat="42.577356" lon="-9.063304">
        <ele>60.008</ele>
        <time>2017-04-08T09:17:35Z</time>
      </trkpt>
      <trkpt lat="42.577405" lon="-9.063185">
        <ele>56.056</ele>
        <time>2017-04-08T09:17:43Z</time>
      </trkpt>
      <trkpt lat="42.577396" lon="-9.063055">
        <ele>57.072</ele>
        <time>2017-04-08T09:17:50Z</time>
      </trkpt>
      <trkpt lat="42.577425" lon="-9.062938">
        <ele>56.070</ele>
        <time>2017-04-08T09:17:56Z</time>
      </trkpt>
      <trkpt lat="42.577452" lon="-9.062816">
        <ele>60.028</ele>
        <time>2017-04-08T09:18:03Z</time>
      </trkpt>
      <trkpt lat="42.577512" lon="-9.062715">
        <ele>60.022</ele>
        <time>2017-04-08T09:18:10Z</time>
      </trkpt>
      <trkpt lat="42.577585" lon="-9.062629">
        <ele>58.061</ele>
        <time>2017-04-08T09:18:17Z</time>
      </trkpt>
      <trkpt lat="42.577648" lon="-9.062539">
        <ele>58.090</ele>
        <time>2017-04-08T09:18:28Z</time>
      </trkpt>
      <trkpt lat="42.577699" lon="-9.062435">
        <ele>57.084</ele>
        <time>2017-04-08T09:18:36Z</time>
      </trkpt>
      <trkpt lat="42.577732" lon="-9.062316">
        <ele>58.031</ele>
        <time>2017-04-08T09:18:43Z</time>
      </trkpt>
      <trkpt lat="42.577783" lon="-9.062203">
        <ele>58.061</ele>
        <time>2017-04-08T09:18:53Z</time>
      </trkpt>
      <trkpt lat="42.577854" lon="-9.062109">
        <ele>55.007</ele>
        <time>2017-04-08T09:19:05Z</time>
      </trkpt>
      <trkpt lat="42.577930" lon="-9.062027">
        <ele>54.008</ele>
        <time>2017-04-08T09:19:13Z</time>
      </trkpt>
      <trkpt lat="42.578010" lon="-9.061939">
        <ele>53.044</ele>
        <time>2017-04-08T09:19:22Z</time>
      </trkpt>
      <trkpt lat="42.578059" lon="-9.061836">
        <ele>55.060</ele>
        <time>2017-04-08T09:19:29Z</time>
      </trkpt>
      <trkpt lat="42.578107" lon="-9.061716">
        <ele>57.038</ele>
        <time>2017-04-08T09:19:37Z</time>
      </trkpt>
      <trkpt lat="42.578072" lon="-9.061599">
        <ele>57.056</ele>
        <time>2017-04-08T09:19:46Z</time>
      </trkpt>
      <trkpt lat="42.578004" lon="-9.061492">
        <ele>57.060</ele>
        <time>2017-04-08T09:19:54Z</time>
      </trkpt>
      <trkpt lat="42.577947" lon="-9.061384">
        <ele>58.099</ele>
        <time>2017-04-08T09:20:02Z</time>
      </trkpt>
      <trkpt lat="42.577934" lon="-9.061258">
        <ele>57.098</ele>
        <time>2017-04-08T09:20:13Z</time>
      </trkpt>
      <trkpt lat="42.577936" lon="-9.061131">
        <ele>56.022</ele>
        <time>2017-04-08T09:20:20Z</time>
      </trkpt>
      <trkpt lat="42.577924" lon="-9.060993">
        <ele>54.039</ele>
        <time>2017-04-08T09:20:28Z</time>
      </trkpt>
      <trkpt lat="42.577904" lon="-9.060862">
        <ele>54.001</ele>
        <time>2017-04-08T09:20:36Z</time>
      </trkpt>
      <trkpt lat="42.577887" lon="-9.060731">
        <ele>53.021</ele>
        <time>2017-04-08T09:20:44Z</time>
      </trkpt>
      <trkpt lat="42.577875" lon="-9.060594">
        <ele>53.008</ele>
        <time>2017-04-08T09:20:52Z</time>
      </trkpt>
      <trkpt lat="42.577860" lon="-9.060468">
        <ele>53.074</ele>
        <time>2017-04-08T09:21:00Z</time>
      </trkpt>
      <trkpt lat="42.577852" lon="-9.060344">
        <ele>54.060</ele>
        <time>2017-04-08T09:21:08Z</time>
      </trkpt>
      <trkpt lat="42.577878" lon="-9.060218">
        <ele>53.088</ele>
        <time>2017-04-08T09:21:16Z</time>
      </trkpt>
      <trkpt lat="42.577880" lon="-9.060090">
        <ele>53.066</ele>
        <time>2017-04-08T09:21:24Z</time>
      </trkpt>
      <trkpt lat="42.577884" lon="-9.059961">
        <ele>54.050</ele>
        <time>2017-04-08T09:21:32Z</time>
      </trkpt>
      <trkpt lat="42.577900" lon="-9.059839">
        <ele>53.089</ele>
        <time>2017-04-08T09:21:41Z</time>
      </trkpt>
      <trkpt lat="42.577902" lon="-9.059705">
        <ele>53.068</ele>
        <time>2017-04-08T09:21:48Z</time>
      </trkpt>
      <trkpt lat="42.577906" lon="-9.059572">
        <ele>53.082</ele>
        <time>2017-04-08T09:21:56Z</time>
      </trkpt>
      <trkpt lat="42.577908" lon="-9.059447">
        <ele>53.019</ele>
        <time>2017-04-08T09:22:03Z</time>
      </trkpt>
      <trkpt lat="42.577900" lon="-9.059323">
        <ele>54.009</ele>
        <time>2017-04-08T09:22:10Z</time>
      </trkpt>
      <trkpt lat="42.577899" lon="-9.059194">
        <ele>53.019</ele>
        <time>2017-04-08T09:22:17Z</time>
      </trkpt>
      <trkpt lat="42.577899" lon="-9.059072">
        <ele>52.008</ele>
        <time>2017-04-08T09:22:24Z</time>
      </trkpt>
      <trkpt lat="42.577897" lon="-9.058934">
        <ele>52.042</ele>
        <time>2017-04-08T09:22:32Z</time>
      </trkpt>
      <trkpt lat="42.577886" lon="-9.058802">
        <ele>52.028</ele>
        <time>2017-04-08T09:22:41Z</time>
      </trkpt>
      <trkpt lat="42.577881" lon="-9.058663">
        <ele>52.096</ele>
        <time>2017-04-08T09:22:49Z</time>
      </trkpt>
      <trkpt lat="42.577883" lon="-9.058536">
        <ele>52.074</ele>
        <time>2017-04-08T09:22:57Z</time>
      </trkpt>
      <trkpt lat="42.577887" lon="-9.058405">
        <ele>51.078</ele>
        <time>2017-04-08T09:23:05Z</time>
      </trkpt>
      <trkpt lat="42.577873" lon="-9.058268">
        <ele>52.077</ele>
        <time>2017-04-08T09:23:13Z</time>
      </trkpt>
      <trkpt lat="42.577862" lon="-9.058129">
        <ele>52.096</ele>
        <time>2017-04-08T09:23:21Z</time>
      </trkpt>
      <trkpt lat="42.577834" lon="-9.058010">
        <ele>53.080</ele>
        <time>2017-04-08T09:23:27Z</time>
      </trkpt>
      <trkpt lat="42.577808" lon="-9.057892">
        <ele>53.051</ele>
        <time>2017-04-08T09:23:34Z</time>
      </trkpt>
      <trkpt lat="42.577793" lon="-9.057752">
        <ele>53.001</ele>
        <time>2017-04-08T09:23:42Z</time>
      </trkpt>
      <trkpt lat="42.577761" lon="-9.057615">
        <ele>54.011</ele>
        <time>2017-04-08T09:23:50Z</time>
      </trkpt>
      <trkpt lat="42.577736" lon="-9.057493">
        <ele>54.008</ele>
        <time>2017-04-08T09:23:57Z</time>
      </trkpt>
      <trkpt lat="42.577712" lon="-9.057364">
        <ele>55.056</ele>
        <time>2017-04-08T09:24:06Z</time>
      </trkpt>
      <trkpt lat="42.577691" lon="-9.057232">
        <ele>54.072</ele>
        <time>2017-04-08T09:24:14Z</time>
      </trkpt>
      <trkpt lat="42.577666" lon="-9.057098">
        <ele>52.060</ele>
        <time>2017-04-08T09:24:22Z</time>
      </trkpt>
      <trkpt lat="42.577629" lon="-9.056976">
        <ele>53.088</ele>
        <time>2017-04-08T09:24:30Z</time>
      </trkpt>
      <trkpt lat="42.577589" lon="-9.056852">
        <ele>53.062</ele>
        <time>2017-04-08T09:24:38Z</time>
      </trkpt>
      <trkpt lat="42.577557" lon="-9.056728">
        <ele>53.051</ele>
        <time>2017-04-08T09:24:46Z</time>
      </trkpt>
      <trkpt lat="42.577532" lon="-9.056610">
        <ele>53.030</ele>
        <time>2017-04-08T09:24:52Z</time>
      </trkpt>
      <trkpt lat="42.577506" lon="-9.056483">
        <ele>53.034</ele>
        <time>2017-04-08T09:25:00Z</time>
      </trkpt>
      <trkpt lat="42.577470" lon="-9.056357">
        <ele>54.078</ele>
        <time>2017-04-08T09:25:08Z</time>
      </trkpt>
      <trkpt lat="42.577413" lon="-9.056239">
        <ele>56.033</ele>
        <time>2017-04-08T09:25:15Z</time>
      </trkpt>
      <trkpt lat="42.577379" lon="-9.056125">
        <ele>57.026</ele>
        <time>2017-04-08T09:25:22Z</time>
      </trkpt>
      <trkpt lat="42.577337" lon="-9.056006">
        <ele>56.008</ele>
        <time>2017-04-08T09:25:29Z</time>
      </trkpt>
      <trkpt lat="42.577283" lon="-9.055886">
        <ele>57.048</ele>
        <time>2017-04-08T09:25:36Z</time>
      </trkpt>
      <trkpt lat="42.577248" lon="-9.055754">
        <ele>57.014</ele>
        <time>2017-04-08T09:25:44Z</time>
      </trkpt>
      <trkpt lat="42.577188" lon="-9.055646">
        <ele>56.072</ele>
        <time>2017-04-08T09:25:53Z</time>
      </trkpt>
      <trkpt lat="42.577129" lon="-9.055532">
        <ele>55.020</ele>
        <time>2017-04-08T09:26:01Z</time>
      </trkpt>
      <trkpt lat="42.577082" lon="-9.055408">
        <ele>56.054</ele>
        <time>2017-04-08T09:26:09Z</time>
      </trkpt>
      <trkpt lat="42.577037" lon="-9.055294">
        <ele>57.053</ele>
        <time>2017-04-08T09:26:15Z</time>
      </trkpt>
      <trkpt lat="42.576999" lon="-9.055177">
        <ele>55.022</ele>
        <time>2017-04-08T09:26:23Z</time>
      </trkpt>
      <trkpt lat="42.576969" lon="-9.055061">
        <ele>53.036</ele>
        <time>2017-04-08T09:26:30Z</time>
      </trkpt>
      <trkpt lat="42.576923" lon="-9.054945">
        <ele>54.065</ele>
        <time>2017-04-08T09:26:36Z</time>
      </trkpt>
      <trkpt lat="42.576874" lon="-9.054837">
        <ele>54.068</ele>
        <time>2017-04-08T09:26:43Z</time>
      </trkpt>
      <trkpt lat="42.576820" lon="-9.054726">
        <ele>54.014</ele>
        <time>2017-04-08T09:26:51Z</time>
      </trkpt>
      <trkpt lat="42.576783" lon="-9.054615">
        <ele>54.008</ele>
        <time>2017-04-08T09:26:59Z</time>
      </trkpt>
      <trkpt lat="42.576742" lon="-9.054487">
        <ele>53.097</ele>
        <time>2017-04-08T09:27:10Z</time>
      </trkpt>
      <trkpt lat="42.576691" lon="-9.054374">
        <ele>53.023</ele>
        <time>2017-04-08T09:27:17Z</time>
      </trkpt>
      <trkpt lat="42.576643" lon="-9.054251">
        <ele>53.061</ele>
        <time>2017-04-08T09:27:26Z</time>
      </trkpt>
      <trkpt lat="42.576595" lon="-9.054144">
        <ele>54.029</ele>
        <time>2017-04-08T09:27:33Z</time>
      </trkpt>
      <trkpt lat="42.576550" lon="-9.054033">
        <ele>54.063</ele>
        <time>2017-04-08T09:27:40Z</time>
      </trkpt>
      <trkpt lat="42.576523" lon="-9.053909">
        <ele>52.022</ele>
        <time>2017-04-08T09:27:48Z</time>
      </trkpt>
      <trkpt lat="42.576474" lon="-9.053805">
        <ele>52.031</ele>
        <time>2017-04-08T09:27:55Z</time>
      </trkpt>
      <trkpt lat="42.576423" lon="-9.053704">
        <ele>52.015</ele>
        <time>2017-04-08T09:28:02Z</time>
      </trkpt>
      <trkpt lat="42.576363" lon="-9.053607">
        <ele>53.026</ele>
        <time>2017-04-08T09:28:09Z</time>
      </trkpt>
      <trkpt lat="42.576314" lon="-9.053493">
        <ele>54.047</ele>
        <time>2017-04-08T09:28:15Z</time>
      </trkpt>
      <trkpt lat="42.576268" lon="-9.053385">
        <ele>55.011</ele>
        <time>2017-04-08T09:28:22Z</time>
      </trkpt>
      <trkpt lat="42.576225" lon="-9.053259">
        <ele>55.008</ele>
        <time>2017-04-08T09:28:30Z</time>
      </trkpt>
      <trkpt lat="42.576194" lon="-9.053131">
        <ele>54.023</ele>
        <time>2017-04-08T09:28:39Z</time>
      </trkpt>
      <trkpt lat="42.576150" lon="-9.053015">
        <ele>54.099</ele>
        <time>2017-04-08T09:28:47Z</time>
      </trkpt>
      <trkpt lat="42.576094" lon="-9.052906">
        <ele>53.077</ele>
        <time>2017-04-08T09:28:55Z</time>
      </trkpt>
      <trkpt lat="42.576046" lon="-9.052793">
        <ele>51.065</ele>
        <time>2017-04-08T09:29:03Z</time>
      </trkpt>
      <trkpt lat="42.575999" lon="-9.052670">
        <ele>50.029</ele>
        <time>2017-04-08T09:29:12Z</time>
      </trkpt>
      <trkpt lat="42.575950" lon="-9.052550">
        <ele>49.028</ele>
        <time>2017-04-08T09:29:20Z</time>
      </trkpt>
      <trkpt lat="42.575899" lon="-9.052443">
        <ele>50.097</ele>
        <time>2017-04-08T09:29:27Z</time>
      </trkpt>
      <trkpt lat="42.575850" lon="-9.052322">
        <ele>49.071</ele>
        <time>2017-04-08T09:29:35Z</time>
      </trkpt>
      <trkpt lat="42.575797" lon="-9.052218">
        <ele>50.034</ele>
        <time>2017-04-08T09:29:42Z</time>
      </trkpt>
      <trkpt lat="42.575725" lon="-9.052091">
        <ele>51.055</ele>
        <time>2017-04-08T09:29:50Z</time>
      </trkpt>
      <trkpt lat="42.575667" lon="-9.051985">
        <ele>53.010</ele>
        <time>2017-04-08T09:29:57Z</time>
      </trkpt>
      <trkpt lat="42.575615" lon="-9.051874">
        <ele>53.008</ele>
        <time>2017-04-08T09:30:04Z</time>
      </trkpt>
      <trkpt lat="42.575576" lon="-9.051752">
        <ele>53.024</ele>
        <time>2017-04-08T09:30:12Z</time>
      </trkpt>
      <trkpt lat="42.575531" lon="-9.051632">
        <ele>53.090</ele>
        <time>2017-04-08T09:30:21Z</time>
      </trkpt>
      <trkpt lat="42.575492" lon="-9.051505">
        <ele>53.078</ele>
        <time>2017-04-08T09:30:29Z</time>
      </trkpt>
      <trkpt lat="42.575439" lon="-9.051386">
        <ele>55.016</ele>
        <time>2017-04-08T09:30:37Z</time>
      </trkpt>
      <trkpt lat="42.575382" lon="-9.051282">
        <ele>56.060</ele>
        <time>2017-04-08T09:30:45Z</time>
      </trkpt>
      <trkpt lat="42.575330" lon="-9.051181">
        <ele>58.039</ele>
        <time>2017-04-08T09:30:52Z</time>
      </trkpt>
      <trkpt lat="42.575270" lon="-9.051067">
        <ele>58.088</ele>
        <time>2017-04-08T09:31:00Z</time>
      </trkpt>
      <trkpt lat="42.575219" lon="-9.050945">
        <ele>56.072</ele>
        <time>2017-04-08T09:31:08Z</time>
      </trkpt>
      <trkpt lat="42.575168" lon="-9.050835">
        <ele>57.028</ele>
        <time>2017-04-08T09:31:15Z</time>
      </trkpt>
      <trkpt lat="42.575116" lon="-9.050720">
        <ele>58.089</ele>
        <time>2017-04-08T09:31:23Z</time>
      </trkpt>
      <trkpt lat="42.575058" lon="-9.050618">
        <ele>59.017</ele>
        <time>2017-04-08T09:31:30Z</time>
      </trkpt>
      <trkpt lat="42.575010" lon="-9.050508">
        <ele>60.008</ele>
        <time>2017-04-08T09:31:37Z</time>
      </trkpt>
      <trkpt lat="42.574952" lon="-9.050401">
        <ele>60.083</ele>
        <time>2017-04-08T09:31:45Z</time>
      </trkpt>
      <trkpt lat="42.574894" lon="-9.050295">
        <ele>61.029</ele>
        <time>2017-04-08T09:31:53Z</time>
      </trkpt>
      <trkpt lat="42.574832" lon="-9.050203">
        <ele>63.027</ele>
        <time>2017-04-08T09:31:59Z</time>
      </trkpt>
      <trkpt lat="42.574790" lon="-9.050090">
        <ele>63.035</ele>
        <time>2017-04-08T09:32:06Z</time>
      </trkpt>
      <trkpt lat="42.574749" lon="-9.049962">
        <ele>62.049</ele>
        <time>2017-04-08T09:32:14Z</time>
      </trkpt>
      <trkpt lat="42.574727" lon="-9.049836">
        <ele>60.048</ele>
        <time>2017-04-08T09:32:22Z</time>
      </trkpt>
      <trkpt lat="42.574702" lon="-9.049714">
        <ele>59.087</ele>
        <time>2017-04-08T09:32:30Z</time>
      </trkpt>
      <trkpt lat="42.574646" lon="-9.049611">
        <ele>59.021</ele>
        <time>2017-04-08T09:32:38Z</time>
      </trkpt>
      <trkpt lat="42.574591" lon="-9.049513">
        <ele>58.093</ele>
        <time>2017-04-08T09:32:45Z</time>
      </trkpt>
      <trkpt lat="42.574534" lon="-9.049392">
        <ele>58.065</ele>
        <time>2017-04-08T09:32:53Z</time>
      </trkpt>
      <trkpt lat="42.574483" lon="-9.049290">
        <ele>58.021</ele>
        <time>2017-04-08T09:33:00Z</time>
      </trkpt>
      <trkpt lat="42.574421" lon="-9.049192">
        <ele>60.008</ele>
        <time>2017-04-08T09:33:07Z</time>
      </trkpt>
      <trkpt lat="42.574380" lon="-9.049069">
        <ele>58.020</ele>
        <time>2017-04-08T09:33:14Z</time>
      </trkpt>
      <trkpt lat="42.574335" lon="-9.048954">
        <ele>57.046</ele>
        <time>2017-04-08T09:33:21Z</time>
      </trkpt>
      <trkpt lat="42.574294" lon="-9.048838">
        <ele>55.094</ele>
        <time>2017-04-08T09:33:28Z</time>
      </trkpt>
      <trkpt lat="42.574236" lon="-9.048732">
        <ele>54.052</ele>
        <time>2017-04-08T09:33:36Z</time>
      </trkpt>
      <trkpt lat="42.574172" lon="-9.048642">
        <ele>56.086</ele>
        <time>2017-04-08T09:33:43Z</time>
      </trkpt>
      <trkpt lat="42.574109" lon="-9.048545">
        <ele>56.045</ele>
        <time>2017-04-08T09:33:50Z</time>
      </trkpt>
      <trkpt lat="42.574044" lon="-9.048444">
        <ele>56.014</ele>
        <time>2017-04-08T09:33:58Z</time>
      </trkpt>
      <trkpt lat="42.573970" lon="-9.048365">
        <ele>58.028</ele>
        <time>2017-04-08T09:34:05Z</time>
      </trkpt>
      <trkpt lat="42.573900" lon="-9.048287">
        <ele>59.018</ele>
        <time>2017-04-08T09:34:13Z</time>
      </trkpt>
      <trkpt lat="42.573839" lon="-9.048192">
        <ele>60.098</ele>
        <time>2017-04-08T09:34:23Z</time>
      </trkpt>
      <trkpt lat="42.573783" lon="-9.048095">
        <ele>60.017</ele>
        <time>2017-04-08T09:34:31Z</time>
      </trkpt>
      <trkpt lat="42.573746" lon="-9.047966">
        <ele>59.008</ele>
        <time>2017-04-08T09:34:39Z</time>
      </trkpt>
      <trkpt lat="42.573712" lon="-9.047843">
        <ele>56.022</ele>
        <time>2017-04-08T09:34:47Z</time>
      </trkpt>
      <trkpt lat="42.573662" lon="-9.047725">
        <ele>58.098</ele>
        <time>2017-04-08T09:34:55Z</time>
      </trkpt>
      <trkpt lat="42.573622" lon="-9.047598">
        <ele>57.086</ele>
        <time>2017-04-08T09:35:02Z</time>
      </trkpt>
      <trkpt lat="42.573612" lon="-9.047450">
        <ele>56.024</ele>
        <time>2017-04-08T09:35:11Z</time>
      </trkpt>
      <trkpt lat="42.573595" lon="-9.047330">
        <ele>56.018</ele>
        <time>2017-04-08T09:35:18Z</time>
      </trkpt>
      <trkpt lat="42.573582" lon="-9.047208">
        <ele>56.047</ele>
        <time>2017-04-08T09:35:25Z</time>
      </trkpt>
      <trkpt lat="42.573578" lon="-9.047078">
        <ele>56.076</ele>
        <time>2017-04-08T09:35:33Z</time>
      </trkpt>
      <trkpt lat="42.573584" lon="-9.046954">
        <ele>55.080</ele>
        <time>2017-04-08T09:35:40Z</time>
      </trkpt>
      <trkpt lat="42.573590" lon="-9.046824">
        <ele>55.074</ele>
        <time>2017-04-08T09:35:48Z</time>
      </trkpt>
      <trkpt lat="42.573581" lon="-9.046685">
        <ele>55.056</ele>
        <time>2017-04-08T09:35:57Z</time>
      </trkpt>
      <trkpt lat="42.573598" lon="-9.046562">
        <ele>55.021</ele>
        <time>2017-04-08T09:36:04Z</time>
      </trkpt>
      <trkpt lat="42.573640" lon="-9.046439">
        <ele>57.008</ele>
        <time>2017-04-08T09:36:12Z</time>
      </trkpt>
      <trkpt lat="42.573697" lon="-9.046339">
        <ele>56.078</ele>
        <time>2017-04-08T09:36:23Z</time>
      </trkpt>
      <trkpt lat="42.573737" lon="-9.046222">
        <ele>56.084</ele>
        <time>2017-04-08T09:36:31Z</time>
      </trkpt>
      <trkpt lat="42.573780" lon="-9.046103">
        <ele>57.062</ele>
        <time>2017-04-08T09:36:39Z</time>
      </trkpt>
      <trkpt lat="42.573829" lon="-9.045980">
        <ele>55.070</ele>
        <time>2017-04-08T09:36:46Z</time>
      </trkpt>
      <trkpt lat="42.573873" lon="-9.045865">
        <ele>56.064</ele>
        <time>2017-04-08T09:36:54Z</time>
      </trkpt>
      <trkpt lat="42.573926" lon="-9.045756">
        <ele>54.063</ele>
        <time>2017-04-08T09:37:02Z</time>
      </trkpt>
      <trkpt lat="42.573966" lon="-9.045632">
        <ele>55.042</ele>
        <time>2017-04-08T09:37:10Z</time>
      </trkpt>
      <trkpt lat="42.574002" lon="-9.045513">
        <ele>54.086</ele>
        <time>2017-04-08T09:37:18Z</time>
      </trkpt>
      <trkpt lat="42.574042" lon="-9.045398">
        <ele>54.069</ele>
        <time>2017-04-08T09:37:25Z</time>
      </trkpt>
      <trkpt lat="42.574062" lon="-9.045268">
        <ele>57.004</ele>
        <time>2017-04-08T09:37:34Z</time>
      </trkpt>
      <trkpt lat="42.574108" lon="-9.045155">
        <ele>56.024</ele>
        <time>2017-04-08T09:37:41Z</time>
      </trkpt>
      <trkpt lat="42.574193" lon="-9.045091">
        <ele>57.008</ele>
        <time>2017-04-08T09:37:49Z</time>
      </trkpt>
      <trkpt lat="42.574294" lon="-9.045076">
        <ele>57.067</ele>
        <time>2017-04-08T09:37:57Z</time>
      </trkpt>
      <trkpt lat="42.574387" lon="-9.045058">
        <ele>57.043</ele>
        <time>2017-04-08T09:38:05Z</time>
      </trkpt>
      <trkpt lat="42.574479" lon="-9.045043">
        <ele>56.031</ele>
        <time>2017-04-08T09:38:11Z</time>
      </trkpt>
      <trkpt lat="42.574569" lon="-9.045023">
        <ele>56.049</ele>
        <time>2017-04-08T09:38:19Z</time>
      </trkpt>
      <trkpt lat="42.574657" lon="-9.044987">
        <ele>56.063</ele>
        <time>2017-04-08T09:38:28Z</time>
      </trkpt>
      <trkpt lat="42.574754" lon="-9.044968">
        <ele>57.012</ele>
        <time>2017-04-08T09:38:39Z</time>
      </trkpt>
      <trkpt lat="42.574846" lon="-9.044930">
        <ele>57.011</ele>
        <time>2017-04-08T09:38:47Z</time>
      </trkpt>
      <trkpt lat="42.574936" lon="-9.044897">
        <ele>57.015</ele>
        <time>2017-04-08T09:38:55Z</time>
      </trkpt>
      <trkpt lat="42.575025" lon="-9.044850">
        <ele>56.025</ele>
        <time>2017-04-08T09:39:03Z</time>
      </trkpt>
      <trkpt lat="42.575114" lon="-9.044796">
        <ele>56.026</ele>
        <time>2017-04-08T09:39:13Z</time>
      </trkpt>
      <trkpt lat="42.575194" lon="-9.044713">
        <ele>57.008</ele>
        <time>2017-04-08T09:39:21Z</time>
      </trkpt>
      <trkpt lat="42.575267" lon="-9.044630">
        <ele>56.008</ele>
        <time>2017-04-08T09:39:29Z</time>
      </trkpt>
      <trkpt lat="42.575328" lon="-9.044516">
        <ele>56.043</ele>
        <time>2017-04-08T09:39:38Z</time>
      </trkpt>
      <trkpt lat="42.575366" lon="-9.044391">
        <ele>56.089</ele>
        <time>2017-04-08T09:39:45Z</time>
      </trkpt>
      <trkpt lat="42.575398" lon="-9.044259">
        <ele>56.067</ele>
        <time>2017-04-08T09:39:53Z</time>
      </trkpt>
      <trkpt lat="42.575430" lon="-9.044130">
        <ele>55.055</ele>
        <time>2017-04-08T09:40:01Z</time>
      </trkpt>
      <trkpt lat="42.575438" lon="-9.043995">
        <ele>55.079</ele>
        <time>2017-04-08T09:40:09Z</time>
      </trkpt>
      <trkpt lat="42.575433" lon="-9.043869">
        <ele>54.018</ele>
        <time>2017-04-08T09:40:16Z</time>
      </trkpt>
      <trkpt lat="42.575417" lon="-9.043749">
        <ele>52.087</ele>
        <time>2017-04-08T09:40:24Z</time>
      </trkpt>
      <trkpt lat="42.575384" lon="-9.043622">
        <ele>53.081</ele>
        <time>2017-04-08T09:40:32Z</time>
      </trkpt>
      <trkpt lat="42.575347" lon="-9.043493">
        <ele>53.069</ele>
        <time>2017-04-08T09:40:41Z</time>
      </trkpt>
      <trkpt lat="42.575342" lon="-9.043368">
        <ele>53.004</ele>
        <time>2017-04-08T09:40:49Z</time>
      </trkpt>
      <trkpt lat="42.575308" lon="-9.043255">
        <ele>54.024</ele>
        <time>2017-04-08T09:40:57Z</time>
      </trkpt>
      <trkpt lat="42.575272" lon="-9.043132">
        <ele>53.008</ele>
        <time>2017-04-08T09:41:05Z</time>
      </trkpt>
      <trkpt lat="42.575192" lon="-9.043040">
        <ele>54.027</ele>
        <time>2017-04-08T09:41:13Z</time>
      </trkpt>
      <trkpt lat="42.575123" lon="-9.042952">
        <ele>54.073</ele>
        <time>2017-04-08T09:41:19Z</time>
      </trkpt>
      <trkpt lat="42.575041" lon="-9.042879">
        <ele>55.051</ele>
        <time>2017-04-08T09:41:28Z</time>
      </trkpt>
      <trkpt lat="42.574988" lon="-9.042781">
        <ele>57.069</ele>
        <time>2017-04-08T09:41:38Z</time>
      </trkpt>
      <trkpt lat="42.574961" lon="-9.042654">
        <ele>59.043</ele>
        <time>2017-04-08T09:41:45Z</time>
      </trkpt>
      <trkpt lat="42.574905" lon="-9.042553">
        <ele>58.072</ele>
        <time>2017-04-08T09:41:53Z</time>
      </trkpt>
      <trkpt lat="42.574842" lon="-9.042453">
        <ele>57.071</ele>
        <time>2017-04-08T09:42:01Z</time>
      </trkpt>
      <trkpt lat="42.574778" lon="-9.042365">
        <ele>57.015</ele>
        <time>2017-04-08T09:42:16Z</time>
      </trkpt>
      <trkpt lat="42.574738" lon="-9.042241">
        <ele>58.057</ele>
        <time>2017-04-08T09:42:26Z</time>
      </trkpt>
      <trkpt lat="42.574663" lon="-9.042172">
        <ele>58.000</ele>
        <time>2017-04-08T09:42:32Z</time>
      </trkpt>
      <trkpt lat="42.574593" lon="-9.042087">
        <ele>57.020</ele>
        <time>2017-04-08T09:42:38Z</time>
      </trkpt>
      <trkpt lat="42.574524" lon="-9.042001">
        <ele>55.008</ele>
        <time>2017-04-08T09:42:46Z</time>
      </trkpt>
      <trkpt lat="42.574438" lon="-9.041935">
        <ele>56.076</ele>
        <time>2017-04-08T09:42:54Z</time>
      </trkpt>
      <trkpt lat="42.574370" lon="-9.041833">
        <ele>55.012</ele>
        <time>2017-04-08T09:43:01Z</time>
      </trkpt>
      <trkpt lat="42.574303" lon="-9.041738">
        <ele>55.090</ele>
        <time>2017-04-08T09:43:08Z</time>
      </trkpt>
      <trkpt lat="42.574236" lon="-9.041637">
        <ele>56.058</ele>
        <time>2017-04-08T09:43:18Z</time>
      </trkpt>
      <trkpt lat="42.574161" lon="-9.041538">
        <ele>56.062</ele>
        <time>2017-04-08T09:43:26Z</time>
      </trkpt>
      <trkpt lat="42.574092" lon="-9.041452">
        <ele>56.061</ele>
        <time>2017-04-08T09:43:33Z</time>
      </trkpt>
      <trkpt lat="42.574005" lon="-9.041376">
        <ele>56.040</ele>
        <time>2017-04-08T09:43:41Z</time>
      </trkpt>
      <trkpt lat="42.573919" lon="-9.041303">
        <ele>56.054</ele>
        <time>2017-04-08T09:43:49Z</time>
      </trkpt>
      <trkpt lat="42.573851" lon="-9.041219">
        <ele>58.067</ele>
        <time>2017-04-08T09:43:55Z</time>
      </trkpt>
      <trkpt lat="42.573806" lon="-9.041113">
        <ele>59.081</ele>
        <time>2017-04-08T09:44:03Z</time>
      </trkpt>
      <trkpt lat="42.573769" lon="-9.040996">
        <ele>58.019</ele>
        <time>2017-04-08T09:44:11Z</time>
      </trkpt>
      <trkpt lat="42.573718" lon="-9.040889">
        <ele>57.008</ele>
        <time>2017-04-08T09:44:18Z</time>
      </trkpt>
      <trkpt lat="42.573695" lon="-9.040764">
        <ele>56.077</ele>
        <time>2017-04-08T09:44:28Z</time>
      </trkpt>
      <trkpt lat="42.573668" lon="-9.040644">
        <ele>55.083</ele>
        <time>2017-04-08T09:44:36Z</time>
      </trkpt>
      <trkpt lat="42.573645" lon="-9.040512">
        <ele>56.051</ele>
        <time>2017-04-08T09:44:43Z</time>
      </trkpt>
      <trkpt lat="42.573645" lon="-9.040379">
        <ele>55.049</ele>
        <time>2017-04-08T09:44:50Z</time>
      </trkpt>
      <trkpt lat="42.573639" lon="-9.040246">
        <ele>55.053</ele>
        <time>2017-04-08T09:44:56Z</time>
      </trkpt>
      <trkpt lat="42.573646" lon="-9.040109">
        <ele>55.092</ele>
        <time>2017-04-08T09:45:03Z</time>
      </trkpt>
      <trkpt lat="42.573664" lon="-9.039983">
        <ele>57.021</ele>
        <time>2017-04-08T09:45:11Z</time>
      </trkpt>
      <trkpt lat="42.573714" lon="-9.039865">
        <ele>57.085</ele>
        <time>2017-04-08T09:45:21Z</time>
      </trkpt>
      <trkpt lat="42.573781" lon="-9.039782">
        <ele>57.047</ele>
        <time>2017-04-08T09:45:29Z</time>
      </trkpt>
      <trkpt lat="42.573858" lon="-9.039694">
        <ele>55.029</ele>
        <time>2017-04-08T09:45:38Z</time>
      </trkpt>
      <trkpt lat="42.573911" lon="-9.039571">
        <ele>55.021</ele>
        <time>2017-04-08T09:45:45Z</time>
      </trkpt>
      <trkpt lat="42.573935" lon="-9.039449">
        <ele>57.008</ele>
        <time>2017-04-08T09:45:53Z</time>
      </trkpt>
      <trkpt lat="42.573946" lon="-9.039325">
        <ele>58.045</ele>
        <time>2017-04-08T09:46:00Z</time>
      </trkpt>
      <trkpt lat="42.573949" lon="-9.039203">
        <ele>56.071</ele>
        <time>2017-04-08T09:46:07Z</time>
      </trkpt>
      <trkpt lat="42.573943" lon="-9.039061">
        <ele>56.069</ele>
        <time>2017-04-08T09:46:15Z</time>
      </trkpt>
      <trkpt lat="42.573930" lon="-9.038940">
        <ele>56.047</ele>
        <time>2017-04-08T09:46:22Z</time>
      </trkpt>
      <trkpt lat="42.573889" lon="-9.038820">
        <ele>56.061</ele>
        <time>2017-04-08T09:46:29Z</time>
      </trkpt>
      <trkpt lat="42.573842" lon="-9.038704">
        <ele>56.050</ele>
        <time>2017-04-08T09:46:36Z</time>
      </trkpt>
      <trkpt lat="42.573772" lon="-9.038604">
        <ele>56.039</ele>
        <time>2017-04-08T09:46:43Z</time>
      </trkpt>
      <trkpt lat="42.573711" lon="-9.038509">
        <ele>55.033</ele>
        <time>2017-04-08T09:46:50Z</time>
      </trkpt>
      <trkpt lat="42.573626" lon="-9.038436">
        <ele>54.031</ele>
        <time>2017-04-08T09:46:57Z</time>
      </trkpt>
      <trkpt lat="42.573541" lon="-9.038348">
        <ele>54.061</ele>
        <time>2017-04-08T09:47:05Z</time>
      </trkpt>
      <trkpt lat="42.573472" lon="-9.038249">
        <ele>55.007</ele>
        <time>2017-04-08T09:47:13Z</time>
      </trkpt>
      <trkpt lat="42.573423" lon="-9.038132">
        <ele>54.008</ele>
        <time>2017-04-08T09:47:20Z</time>
      </trkpt>
      <trkpt lat="42.573385" lon="-9.038014">
        <ele>53.024</ele>
        <time>2017-04-08T09:47:29Z</time>
      </trkpt>
      <trkpt lat="42.573352" lon="-9.037901">
        <ele>54.040</ele>
        <time>2017-04-08T09:47:36Z</time>
      </trkpt>
      <trkpt lat="42.573325" lon="-9.037780">
        <ele>52.028</ele>
        <time>2017-04-08T09:47:43Z</time>
      </trkpt>
      <trkpt lat="42.573283" lon="-9.037658">
        <ele>55.086</ele>
        <time>2017-04-08T09:47:51Z</time>
      </trkpt>
      <trkpt lat="42.573242" lon="-9.037538">
        <ele>56.050</ele>
        <time>2017-04-08T09:47:59Z</time>
      </trkpt>
      <trkpt lat="42.573203" lon="-9.037413">
        <ele>56.059</ele>
        <time>2017-04-08T09:48:06Z</time>
      </trkpt>
      <trkpt lat="42.573184" lon="-9.037291">
        <ele>55.098</ele>
        <time>2017-04-08T09:48:13Z</time>
      </trkpt>
      <trkpt lat="42.573156" lon="-9.037158">
        <ele>56.092</ele>
        <time>2017-04-08T09:48:21Z</time>
      </trkpt>
      <trkpt lat="42.573115" lon="-9.037048">
        <ele>56.069</ele>
        <time>2017-04-08T09:48:30Z</time>
      </trkpt>
      <trkpt lat="42.573210" lon="-9.036995">
        <ele>54.004</ele>
        <time>2017-04-08T09:48:37Z</time>
      </trkpt>
      <trkpt lat="42.573303" lon="-9.036944">
        <ele>52.024</ele>
        <time>2017-04-08T09:48:45Z</time>
      </trkpt>
      <trkpt lat="42.573394" lon="-9.036928">
        <ele>53.008</ele>
        <time>2017-04-08T09:48:52Z</time>
      </trkpt>
      <trkpt lat="42.573484" lon="-9.036894">
        <ele>53.047</ele>
        <time>2017-04-08T09:48:59Z</time>
      </trkpt>
      <trkpt lat="42.573576" lon="-9.036932">
        <ele>55.033</ele>
        <time>2017-04-08T09:49:24Z</time>
      </trkpt>
      <trkpt lat="42.573570" lon="-9.037072">
        <ele>54.091</ele>
        <time>2017-04-08T09:49:32Z</time>
      </trkpt>
      <trkpt lat="42.573653" lon="-9.036986">
        <ele>59.079</ele>
        <time>2017-04-08T09:49:53Z</time>
      </trkpt>
      <trkpt lat="42.573704" lon="-9.036885">
        <ele>59.083</ele>
        <time>2017-04-08T09:50:01Z</time>
      </trkpt>
      <trkpt lat="42.573762" lon="-9.036787">
        <ele>58.072</ele>
        <time>2017-04-08T09:50:09Z</time>
      </trkpt>
      <trkpt lat="42.573855" lon="-9.036796">
        <ele>56.081</ele>
        <time>2017-04-08T09:52:43Z</time>
      </trkpt>
      <trkpt lat="42.573945" lon="-9.036761">
        <ele>55.065</ele>
        <time>2017-04-08T09:52:50Z</time>
      </trkpt>
      <trkpt lat="42.574033" lon="-9.036723">
        <ele>54.021</ele>
        <time>2017-04-08T09:53:03Z</time>
      </trkpt>
      <trkpt lat="42.574123" lon="-9.036681">
        <ele>55.041</ele>
        <time>2017-04-08T09:53:10Z</time>
      </trkpt>
      <trkpt lat="42.574188" lon="-9.036587">
        <ele>55.005</ele>
        <time>2017-04-08T09:53:19Z</time>
      </trkpt>
      <trkpt lat="42.574265" lon="-9.036510">
        <ele>56.008</ele>
        <time>2017-04-08T09:53:26Z</time>
      </trkpt>
      <trkpt lat="42.574348" lon="-9.036449">
        <ele>55.053</ele>
        <time>2017-04-08T09:53:35Z</time>
      </trkpt>
      <trkpt lat="42.574402" lon="-9.036351">
        <ele>56.019</ele>
        <time>2017-04-08T09:53:44Z</time>
      </trkpt>
      <trkpt lat="42.574446" lon="-9.036229">
        <ele>54.067</ele>
        <time>2017-04-08T09:53:57Z</time>
      </trkpt>
      <trkpt lat="42.574465" lon="-9.036108">
        <ele>54.075</ele>
        <time>2017-04-08T09:54:06Z</time>
      </trkpt>
      <trkpt lat="42.574485" lon="-9.035988">
        <ele>55.019</ele>
        <time>2017-04-08T09:54:13Z</time>
      </trkpt>
      <trkpt lat="42.574524" lon="-9.035878">
        <ele>56.048</ele>
        <time>2017-04-08T09:54:21Z</time>
      </trkpt>
      <trkpt lat="42.574590" lon="-9.035791">
        <ele>54.027</ele>
        <time>2017-04-08T09:54:28Z</time>
      </trkpt>
      <trkpt lat="42.574645" lon="-9.035693">
        <ele>54.031</ele>
        <time>2017-04-08T09:54:35Z</time>
      </trkpt>
      <trkpt lat="42.574664" lon="-9.035566">
        <ele>54.095</ele>
        <time>2017-04-08T09:54:59Z</time>
      </trkpt>
      <trkpt lat="42.574635" lon="-9.035440">
        <ele>55.049</ele>
        <time>2017-04-08T09:55:09Z</time>
      </trkpt>
      <trkpt lat="42.574556" lon="-9.035365">
        <ele>56.023</ele>
        <time>2017-04-08T09:55:19Z</time>
      </trkpt>
      <trkpt lat="42.574494" lon="-9.035258">
        <ele>55.008</ele>
        <time>2017-04-08T09:55:29Z</time>
      </trkpt>
      <trkpt lat="42.574484" lon="-9.035131">
        <ele>55.060</ele>
        <time>2017-04-08T09:55:39Z</time>
      </trkpt>
      <trkpt lat="42.574461" lon="-9.035002">
        <ele>56.086</ele>
        <time>2017-04-08T09:55:48Z</time>
      </trkpt>
      <trkpt lat="42.574468" lon="-9.034881">
        <ele>55.054</ele>
        <time>2017-04-08T09:55:59Z</time>
      </trkpt>
      <trkpt lat="42.574509" lon="-9.034771">
        <ele>54.022</ele>
        <time>2017-04-08T09:56:10Z</time>
      </trkpt>
      <trkpt lat="42.574562" lon="-9.034673">
        <ele>56.046</ele>
        <time>2017-04-08T09:56:19Z</time>
      </trkpt>
      <trkpt lat="42.574598" lon="-9.034560">
        <ele>57.025</ele>
        <time>2017-04-08T09:56:34Z</time>
      </trkpt>
      <trkpt lat="42.574692" lon="-9.034559">
        <ele>55.024</ele>
        <time>2017-04-08T09:57:17Z</time>
      </trkpt>
      <trkpt lat="42.574727" lon="-9.034442">
        <ele>54.028</ele>
        <time>2017-04-08T09:57:37Z</time>
      </trkpt>
      <trkpt lat="42.574689" lon="-9.034331">
        <ele>54.099</ele>
        <time>2017-04-08T09:57:44Z</time>
      </trkpt>
      <trkpt lat="42.574713" lon="-9.034212">
        <ele>56.007</ele>
        <time>2017-04-08T09:57:55Z</time>
      </trkpt>
      <trkpt lat="42.574627" lon="-9.034137">
        <ele>54.027</ele>
        <time>2017-04-08T09:58:53Z</time>
      </trkpt>
      <trkpt lat="42.574542" lon="-9.034095">
        <ele>53.008</ele>
        <time>2017-04-08T09:59:10Z</time>
      </trkpt>
      <trkpt lat="42.574450" lon="-9.034056">
        <ele>52.040</ele>
        <time>2017-04-08T09:59:19Z</time>
      </trkpt>
      <trkpt lat="42.574533" lon="-9.034102">
        <ele>54.076</ele>
        <time>2017-04-08T09:59:34Z</time>
      </trkpt>
      <trkpt lat="42.574531" lon="-9.034225">
        <ele>53.014</ele>
        <time>2017-04-08T09:59:42Z</time>
      </trkpt>
      <trkpt lat="42.574521" lon="-9.034356">
        <ele>52.022</ele>
        <time>2017-04-08T09:59:51Z</time>
      </trkpt>
      <trkpt lat="42.574580" lon="-9.034451">
        <ele>54.036</ele>
        <time>2017-04-08T09:59:56Z</time>
      </trkpt>
      <trkpt lat="42.574655" lon="-9.034529">
        <ele>53.095</ele>
        <time>2017-04-08T10:00:02Z</time>
      </trkpt>
      <trkpt lat="42.574708" lon="-9.034429">
        <ele>53.094</ele>
        <time>2017-04-08T10:00:12Z</time>
      </trkpt>
      <trkpt lat="42.574680" lon="-9.034312">
        <ele>54.048</ele>
        <time>2017-04-08T10:00:19Z</time>
      </trkpt>
      <trkpt lat="42.574733" lon="-9.034199">
        <ele>57.089</ele>
        <time>2017-04-08T10:00:26Z</time>
      </trkpt>
      <trkpt lat="42.574779" lon="-9.034086">
        <ele>57.006</ele>
        <time>2017-04-08T10:00:36Z</time>
      </trkpt>
      <trkpt lat="42.574818" lon="-9.033972">
        <ele>55.026</ele>
        <time>2017-04-08T10:00:44Z</time>
      </trkpt>
      <trkpt lat="42.574880" lon="-9.033882">
        <ele>56.008</ele>
        <time>2017-04-08T10:00:57Z</time>
      </trkpt>
      <trkpt lat="42.574981" lon="-9.033895">
        <ele>56.039</ele>
        <time>2017-04-08T10:01:10Z</time>
      </trkpt>
      <trkpt lat="42.575066" lon="-9.033840">
        <ele>56.045</ele>
        <time>2017-04-08T10:01:16Z</time>
      </trkpt>
      <trkpt lat="42.575148" lon="-9.033785">
        <ele>56.073</ele>
        <time>2017-04-08T10:01:31Z</time>
      </trkpt>
      <trkpt lat="42.575071" lon="-9.033861">
        <ele>56.051</ele>
        <time>2017-04-08T10:02:27Z</time>
      </trkpt>
      <trkpt lat="42.574979" lon="-9.033882">
        <ele>55.095</ele>
        <time>2017-04-08T10:02:38Z</time>
      </trkpt>
      <trkpt lat="42.574924" lon="-9.033774">
        <ele>55.014</ele>
        <time>2017-04-08T10:03:00Z</time>
      </trkpt>
      <trkpt lat="42.574959" lon="-9.033659">
        <ele>58.063</ele>
        <time>2017-04-08T10:03:09Z</time>
      </trkpt>
      <trkpt lat="42.574913" lon="-9.033536">
        <ele>57.047</ele>
        <time>2017-04-08T10:03:18Z</time>
      </trkpt>
      <trkpt lat="42.574868" lon="-9.033413">
        <ele>56.031</ele>
        <time>2017-04-08T10:03:34Z</time>
      </trkpt>
      <trkpt lat="42.574833" lon="-9.033298">
        <ele>56.061</ele>
        <time>2017-04-08T10:03:53Z</time>
      </trkpt>
      <trkpt lat="42.574850" lon="-9.033166">
        <ele>56.007</ele>
        <time>2017-04-08T10:06:12Z</time>
      </trkpt>
      <trkpt lat="42.574831" lon="-9.033043">
        <ele>56.008</ele>
        <time>2017-04-08T10:06:19Z</time>
      </trkpt>
      <trkpt lat="42.574816" lon="-9.032917">
        <ele>58.074</ele>
        <time>2017-04-08T10:06:46Z</time>
      </trkpt>
      <trkpt lat="42.574769" lon="-9.032812">
        <ele>54.040</ele>
        <time>2017-04-08T10:06:59Z</time>
      </trkpt>
      <trkpt lat="42.574750" lon="-9.032692">
        <ele>56.038</ele>
        <time>2017-04-08T10:23:03Z</time>
      </trkpt>
      <trkpt lat="42.574687" lon="-9.032595">
        <ele>55.096</ele>
        <time>2017-04-08T10:24:05Z</time>
      </trkpt>
      <trkpt lat="42.574636" lon="-9.032481">
        <ele>55.020</ele>
        <time>2017-04-08T10:24:27Z</time>
      </trkpt>
      <trkpt lat="42.574574" lon="-9.032383">
        <ele>55.059</ele>
        <time>2017-04-08T10:24:36Z</time>
      </trkpt>
      <trkpt lat="42.574523" lon="-9.032281">
        <ele>57.028</ele>
        <time>2017-04-08T10:24:43Z</time>
      </trkpt>
      <trkpt lat="42.574458" lon="-9.032193">
        <ele>59.012</ele>
        <time>2017-04-08T10:24:51Z</time>
      </trkpt>
      <trkpt lat="42.574434" lon="-9.032056">
        <ele>58.031</ele>
        <time>2017-04-08T10:25:04Z</time>
      </trkpt>
      <trkpt lat="42.574392" lon="-9.031937">
        <ele>58.061</ele>
        <time>2017-04-08T10:25:11Z</time>
      </trkpt>
      <trkpt lat="42.574355" lon="-9.031820">
        <ele>59.007</ele>
        <time>2017-04-08T10:25:20Z</time>
      </trkpt>
      <trkpt lat="42.574385" lon="-9.031704">
        <ele>56.008</ele>
        <time>2017-04-08T10:25:42Z</time>
      </trkpt>
      <trkpt lat="42.574471" lon="-9.031660">
        <ele>56.044</ele>
        <time>2017-04-08T10:25:48Z</time>
      </trkpt>
      <trkpt lat="42.574476" lon="-9.031536">
        <ele>57.060</ele>
        <time>2017-04-08T10:26:36Z</time>
      </trkpt>
      <trkpt lat="42.574530" lon="-9.031428">
        <ele>56.078</ele>
        <time>2017-04-08T10:26:47Z</time>
      </trkpt>
      <trkpt lat="42.574599" lon="-9.031315">
        <ele>55.066</ele>
        <time>2017-04-08T10:26:54Z</time>
      </trkpt>
      <trkpt lat="42.574675" lon="-9.031243">
        <ele>58.090</ele>
        <time>2017-04-08T10:27:01Z</time>
      </trkpt>
      <trkpt lat="42.574745" lon="-9.031155">
        <ele>60.039</ele>
        <time>2017-04-08T10:27:10Z</time>
      </trkpt>
      <trkpt lat="42.574798" lon="-9.031033">
        <ele>57.078</ele>
        <time>2017-04-08T10:27:16Z</time>
      </trkpt>
      <trkpt lat="42.574837" lon="-9.030913">
        <ele>58.012</ele>
        <time>2017-04-08T10:27:25Z</time>
      </trkpt>
      <trkpt lat="42.574891" lon="-9.030801">
        <ele>56.097</ele>
        <time>2017-04-08T10:27:31Z</time>
      </trkpt>
      <trkpt lat="42.574961" lon="-9.030723">
        <ele>59.023</ele>
        <time>2017-04-08T10:27:37Z</time>
      </trkpt>
      <trkpt lat="42.575026" lon="-9.030636">
        <ele>58.025</ele>
        <time>2017-04-08T10:27:45Z</time>
      </trkpt>
      <trkpt lat="42.575083" lon="-9.030531">
        <ele>57.008</ele>
        <time>2017-04-08T10:27:52Z</time>
      </trkpt>
      <trkpt lat="42.575131" lon="-9.030428">
        <ele>54.060</ele>
        <time>2017-04-08T10:27:59Z</time>
      </trkpt>
      <trkpt lat="42.575168" lon="-9.030308">
        <ele>59.046</ele>
        <time>2017-04-08T10:28:11Z</time>
      </trkpt>
      <trkpt lat="42.575228" lon="-9.030206">
        <ele>56.054</ele>
        <time>2017-04-08T10:28:19Z</time>
      </trkpt>
      <trkpt lat="42.575272" lon="-9.030095">
        <ele>58.052</ele>
        <time>2017-04-08T10:28:25Z</time>
      </trkpt>
      <trkpt lat="42.575333" lon="-9.029993">
        <ele>61.096</ele>
        <time>2017-04-08T10:28:31Z</time>
      </trkpt>
      <trkpt lat="42.575390" lon="-9.029885">
        <ele>59.065</ele>
        <time>2017-04-08T10:28:37Z</time>
      </trkpt>
      <trkpt lat="42.575453" lon="-9.029758">
        <ele>61.084</ele>
        <time>2017-04-08T10:28:43Z</time>
      </trkpt>
      <trkpt lat="42.575517" lon="-9.029653">
        <ele>62.068</ele>
        <time>2017-04-08T10:28:48Z</time>
      </trkpt>
      <trkpt lat="42.575560" lon="-9.029544">
        <ele>64.069</ele>
        <time>2017-04-08T10:28:55Z</time>
      </trkpt>
      <trkpt lat="42.575619" lon="-9.029421">
        <ele>58.004</ele>
        <time>2017-04-08T10:29:05Z</time>
      </trkpt>
      <trkpt lat="42.575673" lon="-9.029323">
        <ele>57.024</ele>
        <time>2017-04-08T10:29:13Z</time>
      </trkpt>
      <trkpt lat="42.575741" lon="-9.029217">
        <ele>53.008</ele>
        <time>2017-04-08T10:29:18Z</time>
      </trkpt>
      <trkpt lat="42.575794" lon="-9.029116">
        <ele>56.067</ele>
        <time>2017-04-08T10:29:27Z</time>
      </trkpt>
      <trkpt lat="42.575804" lon="-9.028987">
        <ele>54.063</ele>
        <time>2017-04-08T10:29:42Z</time>
      </trkpt>
      <trkpt lat="42.575863" lon="-9.028893">
        <ele>55.031</ele>
        <time>2017-04-08T10:29:51Z</time>
      </trkpt>
      <trkpt lat="42.575965" lon="-9.028839">
        <ele>59.099</ele>
        <time>2017-04-08T10:29:58Z</time>
      </trkpt>
      <trkpt lat="42.575975" lon="-9.028716">
        <ele>57.053</ele>
        <time>2017-04-08T10:30:04Z</time>
      </trkpt>
      <trkpt lat="42.575979" lon="-9.028578">
        <ele>58.072</ele>
        <time>2017-04-08T10:30:12Z</time>
      </trkpt>
      <trkpt lat="42.575993" lon="-9.028454">
        <ele>60.081</ele>
        <time>2017-04-08T10:30:23Z</time>
      </trkpt>
      <trkpt lat="42.575972" lon="-9.028320">
        <ele>56.045</ele>
        <time>2017-04-08T10:30:31Z</time>
      </trkpt>
      <trkpt lat="42.575989" lon="-9.028187">
        <ele>58.078</ele>
        <time>2017-04-08T10:30:38Z</time>
      </trkpt>
      <trkpt lat="42.575994" lon="-9.028055">
        <ele>60.033</ele>
        <time>2017-04-08T10:30:46Z</time>
      </trkpt>
      <trkpt lat="42.575983" lon="-9.028185">
        <ele>57.026</ele>
        <time>2017-04-08T10:31:46Z</time>
      </trkpt>
      <trkpt lat="42.575997" lon="-9.028326">
        <ele>58.008</ele>
        <time>2017-04-08T10:31:55Z</time>
      </trkpt>
      <trkpt lat="42.575996" lon="-9.028451">
        <ele>57.088</ele>
        <time>2017-04-08T10:32:02Z</time>
      </trkpt>
      <trkpt lat="42.575992" lon="-9.028584">
        <ele>57.084</ele>
        <time>2017-04-08T10:32:11Z</time>
      </trkpt>
      <trkpt lat="42.575967" lon="-9.028709">
        <ele>57.042</ele>
        <time>2017-04-08T10:32:18Z</time>
      </trkpt>
      <trkpt lat="42.575920" lon="-9.028816">
        <ele>56.020</ele>
        <time>2017-04-08T10:32:25Z</time>
      </trkpt>
      <trkpt lat="42.575874" lon="-9.028944">
        <ele>58.074</ele>
        <time>2017-04-08T10:32:32Z</time>
      </trkpt>
      <trkpt lat="42.575844" lon="-9.029066">
        <ele>57.083</ele>
        <time>2017-04-08T10:32:39Z</time>
      </trkpt>
      <trkpt lat="42.575801" lon="-9.029176">
        <ele>54.082</ele>
        <time>2017-04-08T10:32:47Z</time>
      </trkpt>
      <trkpt lat="42.575725" lon="-9.029284">
        <ele>54.066</ele>
        <time>2017-04-08T10:32:54Z</time>
      </trkpt>
      <trkpt lat="42.575673" lon="-9.029396">
        <ele>55.059</ele>
        <time>2017-04-08T10:33:01Z</time>
      </trkpt>
      <trkpt lat="42.575624" lon="-9.029508">
        <ele>53.003</ele>
        <time>2017-04-08T10:33:11Z</time>
      </trkpt>
      <trkpt lat="42.575570" lon="-9.029608">
        <ele>55.023</ele>
        <time>2017-04-08T10:33:18Z</time>
      </trkpt>
      <trkpt lat="42.575529" lon="-9.029742">
        <ele>58.008</ele>
        <time>2017-04-08T10:33:29Z</time>
      </trkpt>
      <trkpt lat="42.575477" lon="-9.029876">
        <ele>56.046</ele>
        <time>2017-04-08T10:33:38Z</time>
      </trkpt>
      <trkpt lat="42.575422" lon="-9.029997">
        <ele>57.082</ele>
        <time>2017-04-08T10:33:44Z</time>
      </trkpt>
      <trkpt lat="42.575360" lon="-9.030095">
        <ele>55.040</ele>
        <time>2017-04-08T10:33:52Z</time>
      </trkpt>
      <trkpt lat="42.575323" lon="-9.030206">
        <ele>56.098</ele>
        <time>2017-04-08T10:33:59Z</time>
      </trkpt>
      <trkpt lat="42.575244" lon="-9.030283">
        <ele>54.012</ele>
        <time>2017-04-08T10:34:04Z</time>
      </trkpt>
      <trkpt lat="42.575185" lon="-9.030376">
        <ele>53.051</ele>
        <time>2017-04-08T10:34:13Z</time>
      </trkpt>
      <trkpt lat="42.575133" lon="-9.030485">
        <ele>55.080</ele>
        <time>2017-04-08T10:34:22Z</time>
      </trkpt>
      <trkpt lat="42.575057" lon="-9.030573">
        <ele>54.084</ele>
        <time>2017-04-08T10:34:29Z</time>
      </trkpt>
      <trkpt lat="42.575000" lon="-9.030673">
        <ele>54.073</ele>
        <time>2017-04-08T10:34:35Z</time>
      </trkpt>
      <trkpt lat="42.574967" lon="-9.030790">
        <ele>54.085</ele>
        <time>2017-04-08T10:34:42Z</time>
      </trkpt>
      <trkpt lat="42.574890" lon="-9.030876">
        <ele>54.013</ele>
        <time>2017-04-08T10:34:51Z</time>
      </trkpt>
      <trkpt lat="42.574817" lon="-9.030965">
        <ele>54.008</ele>
        <time>2017-04-08T10:34:58Z</time>
      </trkpt>
      <trkpt lat="42.574756" lon="-9.031072">
        <ele>53.098</ele>
        <time>2017-04-08T10:35:09Z</time>
      </trkpt>
      <trkpt lat="42.574715" lon="-9.031200">
        <ele>56.044</ele>
        <time>2017-04-08T10:35:17Z</time>
      </trkpt>
      <trkpt lat="42.574648" lon="-9.031284">
        <ele>55.072</ele>
        <time>2017-04-08T10:35:25Z</time>
      </trkpt>
      <trkpt lat="42.574590" lon="-9.031382">
        <ele>54.070</ele>
        <time>2017-04-08T10:35:33Z</time>
      </trkpt>
      <trkpt lat="42.574506" lon="-9.031431">
        <ele>54.084</ele>
        <time>2017-04-08T10:35:42Z</time>
      </trkpt>
      <trkpt lat="42.574414" lon="-9.031418">
        <ele>53.063</ele>
        <time>2017-04-08T10:36:02Z</time>
      </trkpt>
      <trkpt lat="42.574335" lon="-9.031499">
        <ele>59.012</ele>
        <time>2017-04-08T10:36:11Z</time>
      </trkpt>
      <trkpt lat="42.574235" lon="-9.031451">
        <ele>56.026</ele>
        <time>2017-04-08T10:36:23Z</time>
      </trkpt>
      <trkpt lat="42.574191" lon="-9.031344">
        <ele>55.063</ele>
        <time>2017-04-08T10:36:29Z</time>
      </trkpt>
      <trkpt lat="42.574137" lon="-9.031234">
        <ele>56.044</ele>
        <time>2017-04-08T10:36:37Z</time>
      </trkpt>
      <trkpt lat="42.574082" lon="-9.031131">
        <ele>55.018</ele>
        <time>2017-04-08T10:36:45Z</time>
      </trkpt>
      <trkpt lat="42.574024" lon="-9.031025">
        <ele>52.008</ele>
        <time>2017-04-08T10:36:57Z</time>
      </trkpt>
      <trkpt lat="42.573961" lon="-9.030934">
        <ele>49.037</ele>
        <time>2017-04-08T10:37:11Z</time>
      </trkpt>
      <trkpt lat="42.573889" lon="-9.030848">
        <ele>50.083</ele>
        <time>2017-04-08T10:37:24Z</time>
      </trkpt>
      <trkpt lat="42.573816" lon="-9.030767">
        <ele>50.071</ele>
        <time>2017-04-08T10:37:46Z</time>
      </trkpt>
      <trkpt lat="42.573726" lon="-9.030750">
        <ele>56.089</ele>
        <time>2017-04-08T10:38:33Z</time>
      </trkpt>
      <trkpt lat="42.573668" lon="-9.030646">
        <ele>57.013</ele>
        <time>2017-04-08T10:38:57Z</time>
      </trkpt>
      <trkpt lat="42.573571" lon="-9.030639">
        <ele>53.012</ele>
        <time>2017-04-08T10:39:34Z</time>
      </trkpt>
      <trkpt lat="42.573481" lon="-9.030579">
        <ele>55.051</ele>
        <time>2017-04-08T10:39:41Z</time>
      </trkpt>
      <trkpt lat="42.573404" lon="-9.030496">
        <ele>53.075</ele>
        <time>2017-04-08T10:39:48Z</time>
      </trkpt>
      <trkpt lat="42.573344" lon="-9.030395">
        <ele>53.096</ele>
        <time>2017-04-08T10:39:55Z</time>
      </trkpt>
      <trkpt lat="42.573297" lon="-9.030275">
        <ele>55.031</ele>
        <time>2017-04-08T10:40:03Z</time>
      </trkpt>
      <trkpt lat="42.573258" lon="-9.030165">
        <ele>55.024</ele>
        <time>2017-04-08T10:40:11Z</time>
      </trkpt>
      <trkpt lat="42.573217" lon="-9.030050">
        <ele>54.008</ele>
        <time>2017-04-08T10:40:19Z</time>
      </trkpt>
      <trkpt lat="42.573199" lon="-9.029927">
        <ele>56.020</ele>
        <time>2017-04-08T10:40:28Z</time>
      </trkpt>
      <trkpt lat="42.573243" lon="-9.029809">
        <ele>55.036</ele>
        <time>2017-04-08T10:40:36Z</time>
      </trkpt>
      <trkpt lat="42.573257" lon="-9.029672">
        <ele>59.054</ele>
        <time>2017-04-08T10:40:42Z</time>
      </trkpt>
      <trkpt lat="42.573305" lon="-9.029545">
        <ele>58.082</ele>
        <time>2017-04-08T10:40:49Z</time>
      </trkpt>
      <trkpt lat="42.573312" lon="-9.029414">
        <ele>61.046</ele>
        <time>2017-04-08T10:40:56Z</time>
      </trkpt>
      <trkpt lat="42.573353" lon="-9.029298">
        <ele>63.055</ele>
        <time>2017-04-08T10:41:08Z</time>
      </trkpt>
      <trkpt lat="42.573288" lon="-9.029192">
        <ele>65.054</ele>
        <time>2017-04-08T10:41:16Z</time>
      </trkpt>
      <trkpt lat="42.573208" lon="-9.029109">
        <ele>66.028</ele>
        <time>2017-04-08T10:41:24Z</time>
      </trkpt>
      <trkpt lat="42.573141" lon="-9.029017">
        <ele>62.061</ele>
        <time>2017-04-08T10:41:34Z</time>
      </trkpt>
      <trkpt lat="42.573086" lon="-9.028896">
        <ele>59.021</ele>
        <time>2017-04-08T10:41:43Z</time>
      </trkpt>
      <trkpt lat="42.573039" lon="-9.028779">
        <ele>59.013</ele>
        <time>2017-04-08T10:41:51Z</time>
      </trkpt>
      <trkpt lat="42.573087" lon="-9.028668">
        <ele>61.008</ele>
        <time>2017-04-08T10:42:00Z</time>
      </trkpt>
      <trkpt lat="42.573086" lon="-9.028545">
        <ele>66.087</ele>
        <time>2017-04-08T10:42:08Z</time>
      </trkpt>
      <trkpt lat="42.573048" lon="-9.028419">
        <ele>66.093</ele>
        <time>2017-04-08T10:42:15Z</time>
      </trkpt>
      <trkpt lat="42.573005" lon="-9.028310">
        <ele>69.041</ele>
        <time>2017-04-08T10:42:27Z</time>
      </trkpt>
      <trkpt lat="42.572989" lon="-9.028182">
        <ele>67.079</ele>
        <time>2017-04-08T10:42:35Z</time>
      </trkpt>
      <trkpt lat="42.572983" lon="-9.028057">
        <ele>73.053</ele>
        <time>2017-04-08T10:42:41Z</time>
      </trkpt>
      <trkpt lat="42.572909" lon="-9.027969">
        <ele>72.032</ele>
        <time>2017-04-08T10:42:52Z</time>
      </trkpt>
      <trkpt lat="42.572836" lon="-9.027857">
        <ele>74.031</ele>
        <time>2017-04-08T10:43:11Z</time>
      </trkpt>
      <trkpt lat="42.572727" lon="-9.027792">
        <ele>73.055</ele>
        <time>2017-04-08T10:43:16Z</time>
      </trkpt>
      <trkpt lat="42.572616" lon="-9.027739">
        <ele>78.092</ele>
        <time>2017-04-08T10:43:22Z</time>
      </trkpt>
      <trkpt lat="42.572520" lon="-9.027713">
        <ele>78.073</ele>
        <time>2017-04-08T10:43:27Z</time>
      </trkpt>
      <trkpt lat="42.572415" lon="-9.027679">
        <ele>80.020</ele>
        <time>2017-04-08T10:43:33Z</time>
      </trkpt>
      <trkpt lat="42.572360" lon="-9.027570">
        <ele>80.008</ele>
        <time>2017-04-08T10:43:55Z</time>
      </trkpt>
      <trkpt lat="42.572272" lon="-9.027543">
        <ele>83.040</ele>
        <time>2017-04-08T10:44:05Z</time>
      </trkpt>
      <trkpt lat="42.572193" lon="-9.027463">
        <ele>85.026</ele>
        <time>2017-04-08T10:44:23Z</time>
      </trkpt>
      <trkpt lat="42.572106" lon="-9.027411">
        <ele>83.044</ele>
        <time>2017-04-08T10:44:29Z</time>
      </trkpt>
      <trkpt lat="42.572009" lon="-9.027369">
        <ele>82.062</ele>
        <time>2017-04-08T10:44:34Z</time>
      </trkpt>
      <trkpt lat="42.571930" lon="-9.027297">
        <ele>82.016</ele>
        <time>2017-04-08T10:44:40Z</time>
      </trkpt>
      <trkpt lat="42.571831" lon="-9.027249">
        <ele>84.085</ele>
        <time>2017-04-08T10:44:47Z</time>
      </trkpt>
      <trkpt lat="42.571751" lon="-9.027190">
        <ele>86.014</ele>
        <time>2017-04-08T10:44:53Z</time>
      </trkpt>
      <trkpt lat="42.571646" lon="-9.027166">
        <ele>85.078</ele>
        <time>2017-04-08T10:44:58Z</time>
      </trkpt>
      <trkpt lat="42.571569" lon="-9.027081">
        <ele>85.058</ele>
        <time>2017-04-08T10:45:08Z</time>
      </trkpt>
      <trkpt lat="42.571469" lon="-9.027021">
        <ele>89.052</ele>
        <time>2017-04-08T10:45:20Z</time>
      </trkpt>
      <trkpt lat="42.571393" lon="-9.026917">
        <ele>86.017</ele>
        <time>2017-04-08T10:45:30Z</time>
      </trkpt>
      <trkpt lat="42.571354" lon="-9.026779">
        <ele>95.008</ele>
        <time>2017-04-08T10:45:37Z</time>
      </trkpt>
      <trkpt lat="42.571352" lon="-9.026641">
        <ele>95.016</ele>
        <time>2017-04-08T10:45:42Z</time>
      </trkpt>
      <trkpt lat="42.571350" lon="-9.026518">
        <ele>92.072</ele>
        <time>2017-04-08T10:45:48Z</time>
      </trkpt>
      <trkpt lat="42.571356" lon="-9.026390">
        <ele>92.010</ele>
        <time>2017-04-08T10:45:55Z</time>
      </trkpt>
      <trkpt lat="42.571309" lon="-9.026284">
        <ele>92.078</ele>
        <time>2017-04-08T10:46:01Z</time>
      </trkpt>
      <trkpt lat="42.571253" lon="-9.026182">
        <ele>94.022</ele>
        <time>2017-04-08T10:46:09Z</time>
      </trkpt>
      <trkpt lat="42.571184" lon="-9.026070">
        <ele>96.021</ele>
        <time>2017-04-08T10:46:18Z</time>
      </trkpt>
      <trkpt lat="42.571116" lon="-9.025977">
        <ele>97.090</ele>
        <time>2017-04-08T10:46:28Z</time>
      </trkpt>
      <trkpt lat="42.571026" lon="-9.025892">
        <ele>95.074</ele>
        <time>2017-04-08T10:46:36Z</time>
      </trkpt>
      <trkpt lat="42.570974" lon="-9.025767">
        <ele>88.013</ele>
        <time>2017-04-08T10:47:01Z</time>
      </trkpt>
      <trkpt lat="42.570910" lon="-9.025675">
        <ele>86.043</ele>
        <time>2017-04-08T10:47:08Z</time>
      </trkpt>
      <trkpt lat="42.570910" lon="-9.025543">
        <ele>90.007</ele>
        <time>2017-04-08T10:47:15Z</time>
      </trkpt>
      <trkpt lat="42.570957" lon="-9.025408">
        <ele>97.008</ele>
        <time>2017-04-08T10:47:21Z</time>
      </trkpt>
      <trkpt lat="42.570979" lon="-9.025273">
        <ele>106.052</ele>
        <time>2017-04-08T10:47:31Z</time>
      </trkpt>
      <trkpt lat="42.571007" lon="-9.025154">
        <ele>103.088</ele>
        <time>2017-04-08T10:47:45Z</time>
      </trkpt>
      <trkpt lat="42.571017" lon="-9.025029">
        <ele>99.056</ele>
        <time>2017-04-08T10:47:55Z</time>
      </trkpt>
      <trkpt lat="42.571034" lon="-9.024899">
        <ele>108.084</ele>
        <time>2017-04-08T10:48:00Z</time>
      </trkpt>
      <trkpt lat="42.571036" lon="-9.024766">
        <ele>112.068</ele>
        <time>2017-04-08T10:48:08Z</time>
      </trkpt>
      <trkpt lat="42.571073" lon="-9.024655">
        <ele>107.067</ele>
        <time>2017-04-08T10:48:20Z</time>
      </trkpt>
      <trkpt lat="42.571092" lon="-9.024512">
        <ele>108.026</ele>
        <time>2017-04-08T10:48:27Z</time>
      </trkpt>
      <trkpt lat="42.571114" lon="-9.024375">
        <ele>109.030</ele>
        <time>2017-04-08T10:48:33Z</time>
      </trkpt>
      <trkpt lat="42.571097" lon="-9.024241">
        <ele>109.018</ele>
        <time>2017-04-08T10:48:39Z</time>
      </trkpt>
      <trkpt lat="42.571111" lon="-9.024115">
        <ele>106.098</ele>
        <time>2017-04-08T10:48:45Z</time>
      </trkpt>
      <trkpt lat="42.571185" lon="-9.024042">
        <ele>105.017</ele>
        <time>2017-04-08T10:49:14Z</time>
      </trkpt>
      <trkpt lat="42.571156" lon="-9.023906">
        <ele>106.008</ele>
        <time>2017-04-08T10:49:23Z</time>
      </trkpt>
      <trkpt lat="42.571138" lon="-9.023747">
        <ele>108.022</ele>
        <time>2017-04-08T10:49:32Z</time>
      </trkpt>
      <trkpt lat="42.571104" lon="-9.023616">
        <ele>111.098</ele>
        <time>2017-04-08T10:49:37Z</time>
      </trkpt>
      <trkpt lat="42.571085" lon="-9.023493">
        <ele>108.066</ele>
        <time>2017-04-08T10:49:46Z</time>
      </trkpt>
      <trkpt lat="42.571075" lon="-9.023359">
        <ele>107.094</ele>
        <time>2017-04-08T10:49:55Z</time>
      </trkpt>
      <trkpt lat="42.571130" lon="-9.023263">
        <ele>101.068</ele>
        <time>2017-04-08T10:50:02Z</time>
      </trkpt>
      <trkpt lat="42.571181" lon="-9.023148">
        <ele>105.077</ele>
        <time>2017-04-08T10:50:09Z</time>
      </trkpt>
      <trkpt lat="42.571219" lon="-9.023012">
        <ele>103.036</ele>
        <time>2017-04-08T10:50:14Z</time>
      </trkpt>
      <trkpt lat="42.571263" lon="-9.022862">
        <ele>109.030</ele>
        <time>2017-04-08T10:50:19Z</time>
      </trkpt>
      <trkpt lat="42.571301" lon="-9.022749">
        <ele>113.034</ele>
        <time>2017-04-08T10:50:24Z</time>
      </trkpt>
      <trkpt lat="42.571346" lon="-9.022640">
        <ele>115.055</ele>
        <time>2017-04-08T10:50:31Z</time>
      </trkpt>
      <trkpt lat="42.571389" lon="-9.022531">
        <ele>116.010</ele>
        <time>2017-04-08T10:50:37Z</time>
      </trkpt>
      <trkpt lat="42.571440" lon="-9.022397">
        <ele>119.008</ele>
        <time>2017-04-08T10:50:46Z</time>
      </trkpt>
      <trkpt lat="42.571501" lon="-9.022278">
        <ele>116.054</ele>
        <time>2017-04-08T10:50:56Z</time>
      </trkpt>
      <trkpt lat="42.571562" lon="-9.022188">
        <ele>119.020</ele>
        <time>2017-04-08T10:51:03Z</time>
      </trkpt>
      <trkpt lat="42.571620" lon="-9.022093">
        <ele>118.038</ele>
        <time>2017-04-08T10:51:11Z</time>
      </trkpt>
      <trkpt lat="42.571699" lon="-9.022018">
        <ele>115.096</ele>
        <time>2017-04-08T10:51:19Z</time>
      </trkpt>
      <trkpt lat="42.571772" lon="-9.021919">
        <ele>120.020</ele>
        <time>2017-04-08T10:51:28Z</time>
      </trkpt>
      <trkpt lat="42.571727" lon="-9.021784">
        <ele>112.079</ele>
        <time>2017-04-08T10:52:05Z</time>
      </trkpt>
      <trkpt lat="42.571680" lon="-9.021662">
        <ele>111.058</ele>
        <time>2017-04-08T10:52:12Z</time>
      </trkpt>
      <trkpt lat="42.571615" lon="-9.021565">
        <ele>113.072</ele>
        <time>2017-04-08T10:52:18Z</time>
      </trkpt>
      <trkpt lat="42.571580" lon="-9.021446">
        <ele>109.084</ele>
        <time>2017-04-08T10:52:26Z</time>
      </trkpt>
      <trkpt lat="42.571525" lon="-9.021338">
        <ele>106.007</ele>
        <time>2017-04-08T10:52:37Z</time>
      </trkpt>
      <trkpt lat="42.571495" lon="-9.021214">
        <ele>105.017</ele>
        <time>2017-04-08T10:52:47Z</time>
      </trkpt>
      <trkpt lat="42.571435" lon="-9.021122">
        <ele>106.008</ele>
        <time>2017-04-08T10:52:53Z</time>
      </trkpt>
      <trkpt lat="42.571413" lon="-9.020984">
        <ele>105.049</ele>
        <time>2017-04-08T10:53:01Z</time>
      </trkpt>
      <trkpt lat="42.571402" lon="-9.020861">
        <ele>107.035</ele>
        <time>2017-04-08T10:53:07Z</time>
      </trkpt>
      <trkpt lat="42.571416" lon="-9.020735">
        <ele>105.053</ele>
        <time>2017-04-08T10:53:13Z</time>
      </trkpt>
      <trkpt lat="42.571413" lon="-9.020607">
        <ele>100.011</ele>
        <time>2017-04-08T10:53:22Z</time>
      </trkpt>
      <trkpt lat="42.571401" lon="-9.020479">
        <ele>99.075</ele>
        <time>2017-04-08T10:53:30Z</time>
      </trkpt>
      <trkpt lat="42.571373" lon="-9.020342">
        <ele>102.044</ele>
        <time>2017-04-08T10:53:36Z</time>
      </trkpt>
      <trkpt lat="42.571329" lon="-9.020209">
        <ele>103.043</ele>
        <time>2017-04-08T10:53:44Z</time>
      </trkpt>
      <trkpt lat="42.571256" lon="-9.020123">
        <ele>102.097</ele>
        <time>2017-04-08T10:53:52Z</time>
      </trkpt>
      <trkpt lat="42.571171" lon="-9.020067">
        <ele>94.025</ele>
        <time>2017-04-08T10:54:02Z</time>
      </trkpt>
      <trkpt lat="42.571098" lon="-9.019985">
        <ele>94.026</ele>
        <time>2017-04-08T10:54:08Z</time>
      </trkpt>
      <trkpt lat="42.571015" lon="-9.019934">
        <ele>90.008</ele>
        <time>2017-04-08T10:54:16Z</time>
      </trkpt>
      <trkpt lat="42.570931" lon="-9.019883">
        <ele>86.008</ele>
        <time>2017-04-08T10:54:23Z</time>
      </trkpt>
      <trkpt lat="42.570828" lon="-9.019877">
        <ele>85.053</ele>
        <time>2017-04-08T10:54:33Z</time>
      </trkpt>
      <trkpt lat="42.570735" lon="-9.019874">
        <ele>84.029</ele>
        <time>2017-04-08T10:54:41Z</time>
      </trkpt>
      <trkpt lat="42.570665" lon="-9.019952">
        <ele>87.037</ele>
        <time>2017-04-08T10:54:48Z</time>
      </trkpt>
      <trkpt lat="42.570735" lon="-9.019860">
        <ele>88.025</ele>
        <time>2017-04-08T10:55:04Z</time>
      </trkpt>
      <trkpt lat="42.570721" lon="-9.019715">
        <ele>92.019</ele>
        <time>2017-04-08T10:55:12Z</time>
      </trkpt>
      <trkpt lat="42.570685" lon="-9.019591">
        <ele>91.058</ele>
        <time>2017-04-08T10:55:18Z</time>
      </trkpt>
      <trkpt lat="42.570650" lon="-9.019440">
        <ele>93.047</ele>
        <time>2017-04-08T10:55:24Z</time>
      </trkpt>
      <trkpt lat="42.570615" lon="-9.019301">
        <ele>97.041</ele>
        <time>2017-04-08T10:55:30Z</time>
      </trkpt>
      <trkpt lat="42.570589" lon="-9.019182">
        <ele>96.089</ele>
        <time>2017-04-08T10:55:36Z</time>
      </trkpt>
      <trkpt lat="42.570558" lon="-9.019062">
        <ele>97.006</ele>
        <time>2017-04-08T10:55:42Z</time>
      </trkpt>
      <trkpt lat="42.570546" lon="-9.018938">
        <ele>95.026</ele>
        <time>2017-04-08T10:55:49Z</time>
      </trkpt>
      <trkpt lat="42.570453" lon="-9.018893">
        <ele>91.008</ele>
        <time>2017-04-08T10:55:59Z</time>
      </trkpt>
      <trkpt lat="42.570365" lon="-9.018936">
        <ele>85.069</ele>
        <time>2017-04-08T10:56:09Z</time>
      </trkpt>
      <trkpt lat="42.570278" lon="-9.019007">
        <ele>84.025</ele>
        <time>2017-04-08T10:56:17Z</time>
      </trkpt>
      <trkpt lat="42.570202" lon="-9.019077">
        <ele>83.063</ele>
        <time>2017-04-08T10:56:24Z</time>
      </trkpt>
      <trkpt lat="42.570108" lon="-9.019110">
        <ele>82.071</ele>
        <time>2017-04-08T10:56:33Z</time>
      </trkpt>
      <trkpt lat="42.570022" lon="-9.019060">
        <ele>82.065</ele>
        <time>2017-04-08T10:56:42Z</time>
      </trkpt>
      <trkpt lat="42.569923" lon="-9.019075">
        <ele>88.064</ele>
        <time>2017-04-08T10:56:50Z</time>
      </trkpt>
      <trkpt lat="42.569826" lon="-9.019039">
        <ele>87.013</ele>
        <time>2017-04-08T10:56:59Z</time>
      </trkpt>
      <trkpt lat="42.569736" lon="-9.019052">
        <ele>88.047</ele>
        <time>2017-04-08T10:57:07Z</time>
      </trkpt>
      <trkpt lat="42.569647" lon="-9.019104">
        <ele>87.043</ele>
        <time>2017-04-08T10:57:12Z</time>
      </trkpt>
      <trkpt lat="42.569557" lon="-9.019183">
        <ele>84.064</ele>
        <time>2017-04-08T10:57:23Z</time>
      </trkpt>
      <trkpt lat="42.569495" lon="-9.019288">
        <ele>89.010</ele>
        <time>2017-04-08T10:57:34Z</time>
      </trkpt>
      <trkpt lat="42.569403" lon="-9.019329">
        <ele>87.008</ele>
        <time>2017-04-08T10:57:40Z</time>
      </trkpt>
      <trkpt lat="42.569303" lon="-9.019343">
        <ele>83.035</ele>
        <time>2017-04-08T10:57:58Z</time>
      </trkpt>
      <trkpt lat="42.569209" lon="-9.019355">
        <ele>83.021</ele>
        <time>2017-04-08T10:58:10Z</time>
      </trkpt>
      <trkpt lat="42.569140" lon="-9.019277">
        <ele>89.059</ele>
        <time>2017-04-08T11:00:08Z</time>
      </trkpt>
      <trkpt lat="42.569088" lon="-9.019174">
        <ele>87.077</ele>
        <time>2017-04-08T11:00:18Z</time>
      </trkpt>
      <trkpt lat="42.569013" lon="-9.019102">
        <ele>91.061</ele>
        <time>2017-04-08T11:00:32Z</time>
      </trkpt>
      <trkpt lat="42.568960" lon="-9.019002">
        <ele>90.060</ele>
        <time>2017-04-08T11:00:39Z</time>
      </trkpt>
      <trkpt lat="42.568898" lon="-9.018888">
        <ele>90.079</ele>
        <time>2017-04-08T11:00:50Z</time>
      </trkpt>
      <trkpt lat="42.568794" lon="-9.018840">
        <ele>93.063</ele>
        <time>2017-04-08T11:00:56Z</time>
      </trkpt>
      <trkpt lat="42.568699" lon="-9.018803">
        <ele>93.075</ele>
        <time>2017-04-08T11:01:02Z</time>
      </trkpt>
      <trkpt lat="42.568617" lon="-9.018744">
        <ele>95.028</ele>
        <time>2017-04-08T11:01:10Z</time>
      </trkpt>
      <trkpt lat="42.568557" lon="-9.018646">
        <ele>96.020</ele>
        <time>2017-04-08T11:01:18Z</time>
      </trkpt>
      <trkpt lat="42.568476" lon="-9.018574">
        <ele>96.008</ele>
        <time>2017-04-08T11:01:28Z</time>
      </trkpt>
      <trkpt lat="42.568423" lon="-9.018474">
        <ele>97.068</ele>
        <time>2017-04-08T11:01:37Z</time>
      </trkpt>
      <trkpt lat="42.568359" lon="-9.018385">
        <ele>95.064</ele>
        <time>2017-04-08T11:01:45Z</time>
      </trkpt>
      <trkpt lat="42.568297" lon="-9.018274">
        <ele>96.042</ele>
        <time>2017-04-08T11:01:56Z</time>
      </trkpt>
      <trkpt lat="42.568252" lon="-9.018164">
        <ele>95.040</ele>
        <time>2017-04-08T11:02:06Z</time>
      </trkpt>
      <trkpt lat="42.568167" lon="-9.018106">
        <ele>100.094</ele>
        <time>2017-04-08T11:02:28Z</time>
      </trkpt>
      <trkpt lat="42.568087" lon="-9.018031">
        <ele>94.063</ele>
        <time>2017-04-08T11:02:37Z</time>
      </trkpt>
      <trkpt lat="42.567996" lon="-9.017992">
        <ele>95.072</ele>
        <time>2017-04-08T11:02:44Z</time>
      </trkpt>
      <trkpt lat="42.567912" lon="-9.017926">
        <ele>94.086</ele>
        <time>2017-04-08T11:02:51Z</time>
      </trkpt>
      <trkpt lat="42.567810" lon="-9.017850">
        <ele>93.018</ele>
        <time>2017-04-08T11:02:56Z</time>
      </trkpt>
      <trkpt lat="42.567757" lon="-9.017742">
        <ele>99.098</ele>
        <time>2017-04-08T11:03:01Z</time>
      </trkpt>
      <trkpt lat="42.567657" lon="-9.017682">
        <ele>97.017</ele>
        <time>2017-04-08T11:03:06Z</time>
      </trkpt>
      <trkpt lat="42.567581" lon="-9.017605">
        <ele>92.008</ele>
        <time>2017-04-08T11:03:11Z</time>
      </trkpt>
      <trkpt lat="42.567480" lon="-9.017573">
        <ele>99.052</ele>
        <time>2017-04-08T11:03:17Z</time>
      </trkpt>
      <trkpt lat="42.567402" lon="-9.017479">
        <ele>102.088</ele>
        <time>2017-04-08T11:03:20Z</time>
      </trkpt>
      <trkpt lat="42.567333" lon="-9.017400">
        <ele>108.046</ele>
        <time>2017-04-08T11:03:26Z</time>
      </trkpt>
      <trkpt lat="42.567331" lon="-9.017270">
        <ele>103.034</ele>
        <time>2017-04-08T11:03:43Z</time>
      </trkpt>
      <trkpt lat="42.567381" lon="-9.017158">
        <ele>103.078</ele>
        <time>2017-04-08T11:03:52Z</time>
      </trkpt>
      <trkpt lat="42.567417" lon="-9.017039">
        <ele>107.017</ele>
        <time>2017-04-08T11:04:01Z</time>
      </trkpt>
      <trkpt lat="42.567359" lon="-9.016945">
        <ele>113.016</ele>
        <time>2017-04-08T11:04:17Z</time>
      </trkpt>
      <trkpt lat="42.567352" lon="-9.016822">
        <ele>112.080</ele>
        <time>2017-04-08T11:04:21Z</time>
      </trkpt>
      <trkpt lat="42.567271" lon="-9.016748">
        <ele>114.057</ele>
        <time>2017-04-08T11:04:25Z</time>
      </trkpt>
      <trkpt lat="42.567195" lon="-9.016665">
        <ele>115.000</ele>
        <time>2017-04-08T11:04:29Z</time>
      </trkpt>
      <trkpt lat="42.567091" lon="-9.016632">
        <ele>110.020</ele>
        <time>2017-04-08T11:04:34Z</time>
      </trkpt>
      <trkpt lat="42.567079" lon="-9.016504">
        <ele>118.008</ele>
        <time>2017-04-08T11:04:39Z</time>
      </trkpt>
      <trkpt lat="42.567064" lon="-9.016367">
        <ele>119.086</ele>
        <time>2017-04-08T11:04:47Z</time>
      </trkpt>
      <trkpt lat="42.567010" lon="-9.016267">
        <ele>121.032</ele>
        <time>2017-04-08T11:04:56Z</time>
      </trkpt>
      <trkpt lat="42.566941" lon="-9.016173">
        <ele>124.040</ele>
        <time>2017-04-08T11:05:05Z</time>
      </trkpt>
      <trkpt lat="42.566866" lon="-9.016086">
        <ele>128.048</ele>
        <time>2017-04-08T11:05:10Z</time>
      </trkpt>
      <trkpt lat="42.566750" lon="-9.016122">
        <ele>121.062</ele>
        <time>2017-04-08T11:05:15Z</time>
      </trkpt>
      <trkpt lat="42.566751" lon="-9.015997">
        <ele>119.091</ele>
        <time>2017-04-08T11:05:26Z</time>
      </trkpt>
      <trkpt lat="42.566709" lon="-9.015876">
        <ele>119.080</ele>
        <time>2017-04-08T11:05:32Z</time>
      </trkpt>
      <trkpt lat="42.566754" lon="-9.015753">
        <ele>123.044</ele>
        <time>2017-04-08T11:05:41Z</time>
      </trkpt>
      <trkpt lat="42.566835" lon="-9.015698">
        <ele>128.055</ele>
        <time>2017-04-08T11:05:55Z</time>
      </trkpt>
      <trkpt lat="42.566973" lon="-9.015659">
        <ele>130.007</ele>
        <time>2017-04-08T11:06:06Z</time>
      </trkpt>
      <trkpt lat="42.567079" lon="-9.015641">
        <ele>137.017</ele>
        <time>2017-04-08T11:06:13Z</time>
      </trkpt>
      <trkpt lat="42.567149" lon="-9.015730">
        <ele>129.008</ele>
        <time>2017-04-08T11:06:31Z</time>
      </trkpt>
      <trkpt lat="42.567240" lon="-9.015726">
        <ele>134.036</ele>
        <time>2017-04-08T11:06:42Z</time>
      </trkpt>
      <trkpt lat="42.567314" lon="-9.015806">
        <ele>133.092</ele>
        <time>2017-04-08T11:06:54Z</time>
      </trkpt>
      <trkpt lat="42.567372" lon="-9.015914">
        <ele>128.030</ele>
        <time>2017-04-08T11:07:07Z</time>
      </trkpt>
      <trkpt lat="42.567459" lon="-9.015950">
        <ele>128.088</ele>
        <time>2017-04-08T11:07:21Z</time>
      </trkpt>
      <trkpt lat="42.567563" lon="-9.016013">
        <ele>126.062</ele>
        <time>2017-04-08T11:07:29Z</time>
      </trkpt>
      <trkpt lat="42.567676" lon="-9.016082">
        <ele>126.041</ele>
        <time>2017-04-08T11:07:38Z</time>
      </trkpt>
      <trkpt lat="42.567802" lon="-9.016134">
        <ele>131.030</ele>
        <time>2017-04-08T11:07:42Z</time>
      </trkpt>
      <trkpt lat="42.567895" lon="-9.016158">
        <ele>133.034</ele>
        <time>2017-04-08T11:07:47Z</time>
      </trkpt>
      <trkpt lat="42.567997" lon="-9.016145">
        <ele>141.088</ele>
        <time>2017-04-08T11:07:56Z</time>
      </trkpt>
      <trkpt lat="42.568081" lon="-9.016199">
        <ele>137.024</ele>
        <time>2017-04-08T11:08:02Z</time>
      </trkpt>
      <trkpt lat="42.568166" lon="-9.016244">
        <ele>135.026</ele>
        <time>2017-04-08T11:08:06Z</time>
      </trkpt>
      <trkpt lat="42.568261" lon="-9.016272">
        <ele>130.008</ele>
        <time>2017-04-08T11:08:14Z</time>
      </trkpt>
      <trkpt lat="42.568356" lon="-9.016234">
        <ele>127.049</ele>
        <time>2017-04-08T11:08:27Z</time>
      </trkpt>
      <trkpt lat="42.568461" lon="-9.016204">
        <ele>126.015</ele>
        <time>2017-04-08T11:08:32Z</time>
      </trkpt>
      <trkpt lat="42.568536" lon="-9.016118">
        <ele>125.013</ele>
        <time>2017-04-08T11:08:39Z</time>
      </trkpt>
      <trkpt lat="42.568523" lon="-9.015985">
        <ele>119.011</ele>
        <time>2017-04-08T11:08:50Z</time>
      </trkpt>
      <trkpt lat="42.568546" lon="-9.015859">
        <ele>123.055</ele>
        <time>2017-04-08T11:08:58Z</time>
      </trkpt>
      <trkpt lat="42.568611" lon="-9.015766">
        <ele>127.074</ele>
        <time>2017-04-08T11:09:05Z</time>
      </trkpt>
      <trkpt lat="42.568580" lon="-9.015650">
        <ele>133.013</ele>
        <time>2017-04-08T11:09:24Z</time>
      </trkpt>
      <trkpt lat="42.568486" lon="-9.015557">
        <ele>136.057</ele>
        <time>2017-04-08T11:09:36Z</time>
      </trkpt>
      <trkpt lat="42.568382" lon="-9.015572">
        <ele>141.018</ele>
        <time>2017-04-08T11:09:41Z</time>
      </trkpt>
      <trkpt lat="42.568303" lon="-9.015477">
        <ele>141.098</ele>
        <time>2017-04-08T11:09:48Z</time>
      </trkpt>
      <trkpt lat="42.568210" lon="-9.015491">
        <ele>143.017</ele>
        <time>2017-04-08T11:09:53Z</time>
      </trkpt>
      <trkpt lat="42.568134" lon="-9.015416">
        <ele>143.008</ele>
        <time>2017-04-08T11:09:58Z</time>
      </trkpt>
      <trkpt lat="42.568060" lon="-9.015326">
        <ele>144.092</ele>
        <time>2017-04-08T11:10:04Z</time>
      </trkpt>
      <trkpt lat="42.568003" lon="-9.015228">
        <ele>143.078</ele>
        <time>2017-04-08T11:10:12Z</time>
      </trkpt>
      <trkpt lat="42.567921" lon="-9.015159">
        <ele>145.036</ele>
        <time>2017-04-08T11:10:20Z</time>
      </trkpt>
      <trkpt lat="42.567841" lon="-9.015081">
        <ele>149.084</ele>
        <time>2017-04-08T11:10:28Z</time>
      </trkpt>
      <trkpt lat="42.567758" lon="-9.014997">
        <ele>147.018</ele>
        <time>2017-04-08T11:10:36Z</time>
      </trkpt>
      <trkpt lat="42.567681" lon="-9.014918">
        <ele>148.087</ele>
        <time>2017-04-08T11:10:44Z</time>
      </trkpt>
      <trkpt lat="42.567594" lon="-9.014856">
        <ele>151.066</ele>
        <time>2017-04-08T11:10:51Z</time>
      </trkpt>
      <trkpt lat="42.567549" lon="-9.014749">
        <ele>148.090</ele>
        <time>2017-04-08T11:11:00Z</time>
      </trkpt>
      <trkpt lat="42.567507" lon="-9.014618">
        <ele>151.089</ele>
        <time>2017-04-08T11:11:08Z</time>
      </trkpt>
      <trkpt lat="42.567446" lon="-9.014504">
        <ele>151.006</ele>
        <time>2017-04-08T11:11:15Z</time>
      </trkpt>
      <trkpt lat="42.567378" lon="-9.014403">
        <ele>152.026</ele>
        <time>2017-04-08T11:11:22Z</time>
      </trkpt>
      <trkpt lat="42.567327" lon="-9.014301">
        <ele>151.008</ele>
        <time>2017-04-08T11:11:29Z</time>
      </trkpt>
      <trkpt lat="42.567309" lon="-9.014177">
        <ele>160.079</ele>
        <time>2017-04-08T11:11:36Z</time>
      </trkpt>
      <trkpt lat="42.567242" lon="-9.014087">
        <ele>161.075</ele>
        <time>2017-04-08T11:11:42Z</time>
      </trkpt>
      <trkpt lat="42.567196" lon="-9.013968">
        <ele>162.063</ele>
        <time>2017-04-08T11:11:48Z</time>
      </trkpt>
      <trkpt lat="42.567114" lon="-9.013887">
        <ele>161.021</ele>
        <time>2017-04-08T11:11:55Z</time>
      </trkpt>
      <trkpt lat="42.567047" lon="-9.013805">
        <ele>164.065</ele>
        <time>2017-04-08T11:12:03Z</time>
      </trkpt>
      <trkpt lat="42.566964" lon="-9.013730">
        <ele>167.054</ele>
        <time>2017-04-08T11:12:10Z</time>
      </trkpt>
      <trkpt lat="42.566910" lon="-9.013627">
        <ele>169.063</ele>
        <time>2017-04-08T11:12:17Z</time>
      </trkpt>
      <trkpt lat="42.566844" lon="-9.013536">
        <ele>166.067</ele>
        <time>2017-04-08T11:12:25Z</time>
      </trkpt>
      <trkpt lat="42.566777" lon="-9.013454">
        <ele>167.079</ele>
        <time>2017-04-08T11:12:33Z</time>
      </trkpt>
      <trkpt lat="42.566686" lon="-9.013390">
        <ele>166.005</ele>
        <time>2017-04-08T11:12:39Z</time>
      </trkpt>
      <trkpt lat="42.566597" lon="-9.013337">
        <ele>170.025</ele>
        <time>2017-04-08T11:12:47Z</time>
      </trkpt>
      <trkpt lat="42.566518" lon="-9.013275">
        <ele>172.008</ele>
        <time>2017-04-08T11:12:57Z</time>
      </trkpt>
      <trkpt lat="42.566422" lon="-9.013235">
        <ele>173.018</ele>
        <time>2017-04-08T11:13:08Z</time>
      </trkpt>
      <trkpt lat="42.566317" lon="-9.013173">
        <ele>176.054</ele>
        <time>2017-04-08T11:13:19Z</time>
      </trkpt>
      <trkpt lat="42.566206" lon="-9.013175">
        <ele>176.062</ele>
        <time>2017-04-08T11:13:25Z</time>
      </trkpt>
      <trkpt lat="42.566109" lon="-9.013166">
        <ele>179.090</ele>
        <time>2017-04-08T11:13:32Z</time>
      </trkpt>
      <trkpt lat="42.566027" lon="-9.013113">
        <ele>179.024</ele>
        <time>2017-04-08T11:13:39Z</time>
      </trkpt>
      <trkpt lat="42.565947" lon="-9.013040">
        <ele>180.063</ele>
        <time>2017-04-08T11:13:45Z</time>
      </trkpt>
      <trkpt lat="42.565890" lon="-9.012944">
        <ele>173.012</ele>
        <time>2017-04-08T11:13:55Z</time>
      </trkpt>
      <trkpt lat="42.565845" lon="-9.012837">
        <ele>172.036</ele>
        <time>2017-04-08T11:14:02Z</time>
      </trkpt>
      <trkpt lat="42.565750" lon="-9.012742">
        <ele>166.036</ele>
        <time>2017-04-08T11:14:08Z</time>
      </trkpt>
      <trkpt lat="42.565667" lon="-9.012797">
        <ele>165.017</ele>
        <time>2017-04-08T11:14:14Z</time>
      </trkpt>
      <trkpt lat="42.565573" lon="-9.012727">
        <ele>168.018</ele>
        <time>2017-04-08T11:14:17Z</time>
      </trkpt>
      <trkpt lat="42.565489" lon="-9.012796">
        <ele>166.008</ele>
        <time>2017-04-08T11:14:38Z</time>
      </trkpt>
      <trkpt lat="42.565395" lon="-9.012804">
        <ele>161.094</ele>
        <time>2017-04-08T11:14:46Z</time>
      </trkpt>
      <trkpt lat="42.565314" lon="-9.012875">
        <ele>164.010</ele>
        <time>2017-04-08T11:14:52Z</time>
      </trkpt>
      <trkpt lat="42.565249" lon="-9.012962">
        <ele>170.068</ele>
        <time>2017-04-08T11:14:57Z</time>
      </trkpt>
      <trkpt lat="42.565186" lon="-9.013060">
        <ele>169.056</ele>
        <time>2017-04-08T11:15:13Z</time>
      </trkpt>
      <trkpt lat="42.565113" lon="-9.013179">
        <ele>165.070</ele>
        <time>2017-04-08T11:15:19Z</time>
      </trkpt>
      <trkpt lat="42.565069" lon="-9.013299">
        <ele>164.079</ele>
        <time>2017-04-08T11:15:26Z</time>
      </trkpt>
      <trkpt lat="42.565066" lon="-9.013435">
        <ele>165.068</ele>
        <time>2017-04-08T11:15:35Z</time>
      </trkpt>
      <trkpt lat="42.565029" lon="-9.013556">
        <ele>168.082</ele>
        <time>2017-04-08T11:15:47Z</time>
      </trkpt>
      <trkpt lat="42.565033" lon="-9.013678">
        <ele>166.023</ele>
        <time>2017-04-08T11:15:59Z</time>
      </trkpt>
      <trkpt lat="42.565051" lon="-9.013800">
        <ele>167.083</ele>
        <time>2017-04-08T11:16:07Z</time>
      </trkpt>
      <trkpt lat="42.565113" lon="-9.013900">
        <ele>171.011</ele>
        <time>2017-04-08T11:16:12Z</time>
      </trkpt>
      <trkpt lat="42.565155" lon="-9.014028">
        <ele>175.008</ele>
        <time>2017-04-08T11:16:19Z</time>
      </trkpt>
      <trkpt lat="42.565105" lon="-9.014156">
        <ele>176.023</ele>
        <time>2017-04-08T11:16:28Z</time>
      </trkpt>
      <trkpt lat="42.565061" lon="-9.014298">
        <ele>177.019</ele>
        <time>2017-04-08T11:16:34Z</time>
      </trkpt>
      <trkpt lat="42.564938" lon="-9.014315">
        <ele>175.057</ele>
        <time>2017-04-08T11:16:44Z</time>
      </trkpt>
      <trkpt lat="42.564843" lon="-9.014308">
        <ele>181.085</ele>
        <time>2017-04-08T11:16:53Z</time>
      </trkpt>
      <trkpt lat="42.564751" lon="-9.014295">
        <ele>182.099</ele>
        <time>2017-04-08T11:16:59Z</time>
      </trkpt>
      <trkpt lat="42.564657" lon="-9.014274">
        <ele>185.048</ele>
        <time>2017-04-08T11:17:07Z</time>
      </trkpt>
      <trkpt lat="42.564555" lon="-9.014285">
        <ele>192.057</ele>
        <time>2017-04-08T11:17:14Z</time>
      </trkpt>
      <trkpt lat="42.564468" lon="-9.014231">
        <ele>191.031</ele>
        <time>2017-04-08T11:17:21Z</time>
      </trkpt>
      <trkpt lat="42.564371" lon="-9.014225">
        <ele>191.016</ele>
        <time>2017-04-08T11:17:28Z</time>
      </trkpt>
      <trkpt lat="42.564265" lon="-9.014189">
        <ele>192.076</ele>
        <time>2017-04-08T11:17:35Z</time>
      </trkpt>
      <trkpt lat="42.564176" lon="-9.014151">
        <ele>192.013</ele>
        <time>2017-04-08T11:17:40Z</time>
      </trkpt>
      <trkpt lat="42.564115" lon="-9.014058">
        <ele>188.008</ele>
        <time>2017-04-08T11:17:46Z</time>
      </trkpt>
      <trkpt lat="42.564047" lon="-9.013966">
        <ele>188.062</ele>
        <time>2017-04-08T11:17:54Z</time>
      </trkpt>
      <trkpt lat="42.563988" lon="-9.013863">
        <ele>186.018</ele>
        <time>2017-04-08T11:18:00Z</time>
      </trkpt>
      <trkpt lat="42.563940" lon="-9.013747">
        <ele>191.086</ele>
        <time>2017-04-08T11:18:08Z</time>
      </trkpt>
      <trkpt lat="42.563902" lon="-9.013616">
        <ele>194.074</ele>
        <time>2017-04-08T11:18:15Z</time>
      </trkpt>
      <trkpt lat="42.563825" lon="-9.013545">
        <ele>195.088</ele>
        <time>2017-04-08T11:18:23Z</time>
      </trkpt>
      <trkpt lat="42.563747" lon="-9.013474">
        <ele>197.067</ele>
        <time>2017-04-08T11:18:33Z</time>
      </trkpt>
      <trkpt lat="42.563666" lon="-9.013417">
        <ele>199.046</ele>
        <time>2017-04-08T11:18:41Z</time>
      </trkpt>
      <trkpt lat="42.563581" lon="-9.013357">
        <ele>199.020</ele>
        <time>2017-04-08T11:18:49Z</time>
      </trkpt>
      <trkpt lat="42.563501" lon="-9.013279">
        <ele>198.083</ele>
        <time>2017-04-08T11:18:56Z</time>
      </trkpt>
      <trkpt lat="42.563422" lon="-9.013198">
        <ele>195.025</ele>
        <time>2017-04-08T11:19:02Z</time>
      </trkpt>
      <trkpt lat="42.563343" lon="-9.013128">
        <ele>194.017</ele>
        <time>2017-04-08T11:19:09Z</time>
      </trkpt>
      <trkpt lat="42.563249" lon="-9.013070">
        <ele>197.008</ele>
        <time>2017-04-08T11:19:16Z</time>
      </trkpt>
      <trkpt lat="42.563162" lon="-9.013010">
        <ele>196.069</ele>
        <time>2017-04-08T11:19:22Z</time>
      </trkpt>
      <trkpt lat="42.563086" lon="-9.012930">
        <ele>193.025</ele>
        <time>2017-04-08T11:19:27Z</time>
      </trkpt>
      <trkpt lat="42.563016" lon="-9.013024">
        <ele>200.083</ele>
        <time>2017-04-08T11:19:55Z</time>
      </trkpt>
      <trkpt lat="42.562923" lon="-9.013057">
        <ele>199.041</ele>
        <time>2017-04-08T11:20:02Z</time>
      </trkpt>
      <trkpt lat="42.562840" lon="-9.013114">
        <ele>201.095</ele>
        <time>2017-04-08T11:20:18Z</time>
      </trkpt>
      <trkpt lat="42.562747" lon="-9.013167">
        <ele>204.094</ele>
        <time>2017-04-08T11:20:25Z</time>
      </trkpt>
      <trkpt lat="42.562739" lon="-9.013290">
        <ele>208.043</ele>
        <time>2017-04-08T11:20:45Z</time>
      </trkpt>
      <trkpt lat="42.562737" lon="-9.013424">
        <ele>203.077</ele>
        <time>2017-04-08T11:20:55Z</time>
      </trkpt>
      <trkpt lat="42.562765" lon="-9.013548">
        <ele>206.028</ele>
        <time>2017-04-08T11:21:03Z</time>
      </trkpt>
      <trkpt lat="42.562766" lon="-9.013671">
        <ele>208.089</ele>
        <time>2017-04-08T11:21:11Z</time>
      </trkpt>
      <trkpt lat="42.562814" lon="-9.013777">
        <ele>209.017</ele>
        <time>2017-04-08T11:21:17Z</time>
      </trkpt>
      <trkpt lat="42.562838" lon="-9.013909">
        <ele>207.008</ele>
        <time>2017-04-08T11:21:23Z</time>
      </trkpt>
      <trkpt lat="42.562862" lon="-9.014053">
        <ele>207.093</ele>
        <time>2017-04-08T11:21:34Z</time>
      </trkpt>
      <trkpt lat="42.562910" lon="-9.014190">
        <ele>209.089</ele>
        <time>2017-04-08T11:21:45Z</time>
      </trkpt>
      <trkpt lat="42.562942" lon="-9.014322">
        <ele>212.087</ele>
        <time>2017-04-08T11:21:53Z</time>
      </trkpt>
      <trkpt lat="42.562908" lon="-9.014462">
        <ele>211.035</ele>
        <time>2017-04-08T11:22:04Z</time>
      </trkpt>
      <trkpt lat="42.562903" lon="-9.014594">
        <ele>212.049</ele>
        <time>2017-04-08T11:22:12Z</time>
      </trkpt>
      <trkpt lat="42.562828" lon="-9.014669">
        <ele>211.088</ele>
        <time>2017-04-08T11:22:18Z</time>
      </trkpt>
      <trkpt lat="42.562770" lon="-9.014775">
        <ele>211.027</ele>
        <time>2017-04-08T11:22:25Z</time>
      </trkpt>
      <trkpt lat="42.562683" lon="-9.014835">
        <ele>213.021</ele>
        <time>2017-04-08T11:22:34Z</time>
      </trkpt>
      <trkpt lat="42.562598" lon="-9.014901">
        <ele>215.082</ele>
        <time>2017-04-08T11:22:44Z</time>
      </trkpt>
      <trkpt lat="42.562509" lon="-9.014953">
        <ele>220.043</ele>
        <time>2017-04-08T11:23:16Z</time>
      </trkpt>
      <trkpt lat="42.562414" lon="-9.014962">
        <ele>216.017</ele>
        <time>2017-04-08T11:23:24Z</time>
      </trkpt>
      <trkpt lat="42.562315" lon="-9.014927">
        <ele>221.008</ele>
        <time>2017-04-08T11:23:34Z</time>
      </trkpt>
      <trkpt lat="42.562228" lon="-9.014870">
        <ele>228.059</ele>
        <time>2017-04-08T11:23:47Z</time>
      </trkpt>
      <trkpt lat="42.562153" lon="-9.014787">
        <ele>233.085</ele>
        <time>2017-04-08T11:23:56Z</time>
      </trkpt>
      <trkpt lat="42.562068" lon="-9.014735">
        <ele>235.013</ele>
        <time>2017-04-08T11:24:07Z</time>
      </trkpt>
      <trkpt lat="42.561978" lon="-9.014687">
        <ele>236.021</ele>
        <time>2017-04-08T11:24:16Z</time>
      </trkpt>
      <trkpt lat="42.561921" lon="-9.014581">
        <ele>240.045</ele>
        <time>2017-04-08T11:24:27Z</time>
      </trkpt>
      <trkpt lat="42.561875" lon="-9.014469">
        <ele>242.034</ele>
        <time>2017-04-08T11:24:35Z</time>
      </trkpt>
      <trkpt lat="42.561785" lon="-9.014440">
        <ele>248.043</ele>
        <time>2017-04-08T11:24:44Z</time>
      </trkpt>
      <trkpt lat="42.561689" lon="-9.014427">
        <ele>250.057</ele>
        <time>2017-04-08T11:24:53Z</time>
      </trkpt>
      <trkpt lat="42.561594" lon="-9.014463">
        <ele>250.014</ele>
        <time>2017-04-08T11:25:05Z</time>
      </trkpt>
      <trkpt lat="42.561626" lon="-9.014334">
        <ele>247.054</ele>
        <time>2017-04-08T11:26:32Z</time>
      </trkpt>
      <trkpt lat="42.561649" lon="-9.014208">
        <ele>249.009</ele>
        <time>2017-04-08T11:26:39Z</time>
      </trkpt>
      <trkpt lat="42.561652" lon="-9.014079">
        <ele>254.008</ele>
        <time>2017-04-08T11:26:50Z</time>
      </trkpt>
      <trkpt lat="42.561588" lon="-9.013977">
        <ele>258.022</ele>
        <time>2017-04-08T11:27:04Z</time>
      </trkpt>
      <trkpt lat="42.561550" lon="-9.013851">
        <ele>259.088</ele>
        <time>2017-04-08T11:27:16Z</time>
      </trkpt>
      <trkpt lat="42.561505" lon="-9.013739">
        <ele>258.026</ele>
        <time>2017-04-08T11:27:26Z</time>
      </trkpt>
      <trkpt lat="42.561418" lon="-9.013667">
        <ele>256.064</ele>
        <time>2017-04-08T11:27:42Z</time>
      </trkpt>
      <trkpt lat="42.561388" lon="-9.013551">
        <ele>261.058</ele>
        <time>2017-04-08T11:28:17Z</time>
      </trkpt>
      <trkpt lat="42.561441" lon="-9.013657">
        <ele>260.097</ele>
        <time>2017-04-08T11:28:31Z</time>
      </trkpt>
      <trkpt lat="42.561511" lon="-9.013746">
        <ele>260.036</ele>
        <time>2017-04-08T11:28:40Z</time>
      </trkpt>
      <trkpt lat="42.561551" lon="-9.013857">
        <ele>261.010</ele>
        <time>2017-04-08T11:30:25Z</time>
      </trkpt>
      <trkpt lat="42.561474" lon="-9.013752">
        <ele>255.011</ele>
        <time>2017-04-08T11:32:21Z</time>
      </trkpt>
      <trkpt lat="42.561432" lon="-9.013631">
        <ele>254.021</ele>
        <time>2017-04-08T11:32:29Z</time>
      </trkpt>
      <trkpt lat="42.561356" lon="-9.013538">
        <ele>256.003</ele>
        <time>2017-04-08T11:32:38Z</time>
      </trkpt>
      <trkpt lat="42.561263" lon="-9.013501">
        <ele>262.008</ele>
        <time>2017-04-08T11:32:47Z</time>
      </trkpt>
      <trkpt lat="42.561242" lon="-9.013376">
        <ele>259.012</ele>
        <time>2017-04-08T11:39:58Z</time>
      </trkpt>
      <trkpt lat="42.561265" lon="-9.013498">
        <ele>259.088</ele>
        <time>2017-04-08T11:41:59Z</time>
      </trkpt>
      <trkpt lat="42.561265" lon="-9.013630">
        <ele>261.036</ele>
        <time>2017-04-08T11:43:27Z</time>
      </trkpt>
      <trkpt lat="42.561242" lon="-9.013750">
        <ele>259.044</ele>
        <time>2017-04-08T11:43:36Z</time>
      </trkpt>
      <trkpt lat="42.561218" lon="-9.013868">
        <ele>259.048</ele>
        <time>2017-04-08T11:43:45Z</time>
      </trkpt>
      <trkpt lat="42.561222" lon="-9.013996">
        <ele>259.037</ele>
        <time>2017-04-08T11:43:53Z</time>
      </trkpt>
      <trkpt lat="42.561188" lon="-9.014117">
        <ele>258.026</ele>
        <time>2017-04-08T11:44:01Z</time>
      </trkpt>
      <trkpt lat="42.561136" lon="-9.014223">
        <ele>257.010</ele>
        <time>2017-04-08T11:44:09Z</time>
      </trkpt>
      <trkpt lat="42.561122" lon="-9.014349">
        <ele>258.022</ele>
        <time>2017-04-08T11:44:17Z</time>
      </trkpt>
      <trkpt lat="42.561075" lon="-9.014470">
        <ele>259.062</ele>
        <time>2017-04-08T11:44:27Z</time>
      </trkpt>
      <trkpt lat="42.561047" lon="-9.014592">
        <ele>258.008</ele>
        <time>2017-04-08T11:44:38Z</time>
      </trkpt>
      <trkpt lat="42.561003" lon="-9.014702">
        <ele>256.008</ele>
        <time>2017-04-08T11:45:02Z</time>
      </trkpt>
      <trkpt lat="42.560922" lon="-9.014767">
        <ele>251.043</ele>
        <time>2017-04-08T11:45:09Z</time>
      </trkpt>
      <trkpt lat="42.560868" lon="-9.014886">
        <ele>250.069</ele>
        <time>2017-04-08T11:45:18Z</time>
      </trkpt>
      <trkpt lat="42.560818" lon="-9.014998">
        <ele>247.067</ele>
        <time>2017-04-08T11:45:26Z</time>
      </trkpt>
      <trkpt lat="42.560767" lon="-9.015099">
        <ele>245.015</ele>
        <time>2017-04-08T11:45:33Z</time>
      </trkpt>
      <trkpt lat="42.560718" lon="-9.015210">
        <ele>246.059</ele>
        <time>2017-04-08T11:45:41Z</time>
      </trkpt>
      <trkpt lat="42.560627" lon="-9.015236">
        <ele>245.018</ele>
        <time>2017-04-08T11:45:51Z</time>
      </trkpt>
      <trkpt lat="42.560549" lon="-9.015318">
        <ele>243.087</ele>
        <time>2017-04-08T11:46:07Z</time>
      </trkpt>
      <trkpt lat="42.560477" lon="-9.015418">
        <ele>242.061</ele>
        <time>2017-04-08T11:46:15Z</time>
      </trkpt>
      <trkpt lat="42.560391" lon="-9.015511">
        <ele>239.054</ele>
        <time>2017-04-08T11:46:25Z</time>
      </trkpt>
      <trkpt lat="42.560330" lon="-9.015613">
        <ele>237.056</ele>
        <time>2017-04-08T11:46:34Z</time>
      </trkpt>
      <trkpt lat="42.560252" lon="-9.015690">
        <ele>235.011</ele>
        <time>2017-04-08T11:46:41Z</time>
      </trkpt>
      <trkpt lat="42.560157" lon="-9.015749">
        <ele>233.008</ele>
        <time>2017-04-08T11:46:49Z</time>
      </trkpt>
      <trkpt lat="42.560083" lon="-9.015818">
        <ele>232.016</ele>
        <time>2017-04-08T11:47:02Z</time>
      </trkpt>
      <trkpt lat="42.560020" lon="-9.015922">
        <ele>229.022</ele>
        <time>2017-04-08T11:47:45Z</time>
      </trkpt>
      <trkpt lat="42.559967" lon="-9.016026">
        <ele>229.060</ele>
        <time>2017-04-08T11:47:56Z</time>
      </trkpt>
      <trkpt lat="42.559899" lon="-9.016119">
        <ele>227.058</ele>
        <time>2017-04-08T11:48:05Z</time>
      </trkpt>
      <trkpt lat="42.559966" lon="-9.016018">
        <ele>230.062</ele>
        <time>2017-04-08T11:49:50Z</time>
      </trkpt>
      <trkpt lat="42.560056" lon="-9.015958">
        <ele>230.031</ele>
        <time>2017-04-08T11:50:01Z</time>
      </trkpt>
      <trkpt lat="42.560119" lon="-9.015858">
        <ele>227.020</ele>
        <time>2017-04-08T11:50:09Z</time>
      </trkpt>
      <trkpt lat="42.560051" lon="-9.015950">
        <ele>231.024</ele>
        <time>2017-04-08T11:51:59Z</time>
      </trkpt>
      <trkpt lat="42.559982" lon="-9.016043">
        <ele>232.097</ele>
        <time>2017-04-08T11:52:11Z</time>
      </trkpt>
      <trkpt lat="42.559925" lon="-9.016152">
        <ele>231.023</ele>
        <time>2017-04-08T11:52:21Z</time>
      </trkpt>
      <trkpt lat="42.559827" lon="-9.016137">
        <ele>230.025</ele>
        <time>2017-04-08T11:52:29Z</time>
      </trkpt>
      <trkpt lat="42.559740" lon="-9.016107">
        <ele>232.008</ele>
        <time>2017-04-08T11:52:43Z</time>
      </trkpt>
      <trkpt lat="42.559834" lon="-9.016153">
        <ele>226.060</ele>
        <time>2017-04-08T11:53:08Z</time>
      </trkpt>
      <trkpt lat="42.559917" lon="-9.016214">
        <ele>224.076</ele>
        <time>2017-04-08T11:53:17Z</time>
      </trkpt>
      <trkpt lat="42.559951" lon="-9.016346">
        <ele>223.044</ele>
        <time>2017-04-08T11:53:25Z</time>
      </trkpt>
      <trkpt lat="42.559969" lon="-9.016478">
        <ele>222.072</ele>
        <time>2017-04-08T11:53:34Z</time>
      </trkpt>
      <trkpt lat="42.560034" lon="-9.016596">
        <ele>221.056</ele>
        <time>2017-04-08T11:53:43Z</time>
      </trkpt>
      <trkpt lat="42.559959" lon="-9.016672">
        <ele>221.055</ele>
        <time>2017-04-08T11:53:50Z</time>
      </trkpt>
      <trkpt lat="42.559864" lon="-9.016698">
        <ele>221.044</ele>
        <time>2017-04-08T11:53:58Z</time>
      </trkpt>
      <trkpt lat="42.559774" lon="-9.016651">
        <ele>219.018</ele>
        <time>2017-04-08T11:54:05Z</time>
      </trkpt>
      <trkpt lat="42.559689" lon="-9.016702">
        <ele>217.032</ele>
        <time>2017-04-08T11:54:22Z</time>
      </trkpt>
      <trkpt lat="42.559676" lon="-9.016823">
        <ele>212.092</ele>
        <time>2017-04-08T11:54:36Z</time>
      </trkpt>
      <trkpt lat="42.559652" lon="-9.016950">
        <ele>210.011</ele>
        <time>2017-04-08T11:54:53Z</time>
      </trkpt>
      <trkpt lat="42.559610" lon="-9.017059">
        <ele>206.008</ele>
        <time>2017-04-08T11:55:20Z</time>
      </trkpt>
      <trkpt lat="42.559595" lon="-9.017193">
        <ele>199.014</ele>
        <time>2017-04-08T11:55:56Z</time>
      </trkpt>
      <trkpt lat="42.559563" lon="-9.017316">
        <ele>197.070</ele>
        <time>2017-04-08T11:56:23Z</time>
      </trkpt>
      <trkpt lat="42.559626" lon="-9.017427">
        <ele>198.048</ele>
        <time>2017-04-08T11:56:33Z</time>
      </trkpt>
      <trkpt lat="42.559630" lon="-9.017553">
        <ele>196.056</ele>
        <time>2017-04-08T11:56:57Z</time>
      </trkpt>
      <trkpt lat="42.559596" lon="-9.017667">
        <ele>193.080</ele>
        <time>2017-04-08T11:58:35Z</time>
      </trkpt>
      <trkpt lat="42.559551" lon="-9.017779">
        <ele>187.049</ele>
        <time>2017-04-08T11:58:49Z</time>
      </trkpt>
      <trkpt lat="42.559556" lon="-9.017902">
        <ele>183.058</ele>
        <time>2017-04-08T11:59:08Z</time>
      </trkpt>
      <trkpt lat="42.559496" lon="-9.017996">
        <ele>178.062</ele>
        <time>2017-04-08T11:59:38Z</time>
      </trkpt>
      <trkpt lat="42.559419" lon="-9.018107">
        <ele>183.032</ele>
        <time>2017-04-08T11:59:51Z</time>
      </trkpt>
      <trkpt lat="42.559431" lon="-9.018236">
        <ele>171.092</ele>
        <time>2017-04-08T12:02:30Z</time>
      </trkpt>
      <trkpt lat="42.559483" lon="-9.018348">
        <ele>163.011</ele>
        <time>2017-04-08T12:02:58Z</time>
      </trkpt>
      <trkpt lat="42.559516" lon="-9.018471">
        <ele>160.008</ele>
        <time>2017-04-08T12:03:06Z</time>
      </trkpt>
      <trkpt lat="42.559571" lon="-9.018578">
        <ele>158.084</ele>
        <time>2017-04-08T12:03:17Z</time>
      </trkpt>
      <trkpt lat="42.559576" lon="-9.018702">
        <ele>152.080</ele>
        <time>2017-04-08T12:03:55Z</time>
      </trkpt>
      <trkpt lat="42.559621" lon="-9.018808">
        <ele>154.088</ele>
        <time>2017-04-08T12:04:12Z</time>
      </trkpt>
      <trkpt lat="42.559654" lon="-9.018922">
        <ele>150.066</ele>
        <time>2017-04-08T12:04:23Z</time>
      </trkpt>
      <trkpt lat="42.559609" lon="-9.019043">
        <ele>142.060</ele>
        <time>2017-04-08T12:05:45Z</time>
      </trkpt>
      <trkpt lat="42.559542" lon="-9.019131">
        <ele>135.059</ele>
        <time>2017-04-08T12:07:28Z</time>
      </trkpt>
      <trkpt lat="42.559456" lon="-9.019170">
        <ele>134.038</ele>
        <time>2017-04-08T12:07:38Z</time>
      </trkpt>
      <trkpt lat="42.559373" lon="-9.019216">
        <ele>135.012</ele>
        <time>2017-04-08T12:08:17Z</time>
      </trkpt>
      <trkpt lat="42.559286" lon="-9.019159">
        <ele>136.082</ele>
        <time>2017-04-08T12:08:57Z</time>
      </trkpt>
      <trkpt lat="42.559193" lon="-9.019119">
        <ele>134.043</ele>
        <time>2017-04-08T12:09:04Z</time>
      </trkpt>
      <trkpt lat="42.559103" lon="-9.019095">
        <ele>135.017</ele>
        <time>2017-04-08T12:09:11Z</time>
      </trkpt>
      <trkpt lat="42.559004" lon="-9.019086">
        <ele>133.008</ele>
        <time>2017-04-08T12:09:18Z</time>
      </trkpt>
      <trkpt lat="42.558912" lon="-9.019069">
        <ele>133.019</ele>
        <time>2017-04-08T12:09:26Z</time>
      </trkpt>
      <trkpt lat="42.558818" lon="-9.019082">
        <ele>133.085</ele>
        <time>2017-04-08T12:09:33Z</time>
      </trkpt>
      <trkpt lat="42.558720" lon="-9.019074">
        <ele>135.043</ele>
        <time>2017-04-08T12:09:42Z</time>
      </trkpt>
      <trkpt lat="42.558627" lon="-9.019084">
        <ele>135.021</ele>
        <time>2017-04-08T12:09:50Z</time>
      </trkpt>
      <trkpt lat="42.558525" lon="-9.019109">
        <ele>135.025</ele>
        <time>2017-04-08T12:09:59Z</time>
      </trkpt>
      <trkpt lat="42.558460" lon="-9.019201">
        <ele>135.034</ele>
        <time>2017-04-08T12:10:06Z</time>
      </trkpt>
      <trkpt lat="42.558432" lon="-9.019322">
        <ele>131.013</ele>
        <time>2017-04-08T12:10:19Z</time>
      </trkpt>
      <trkpt lat="42.558469" lon="-9.019442">
        <ele>131.067</ele>
        <time>2017-04-08T12:10:28Z</time>
      </trkpt>
      <trkpt lat="42.558518" lon="-9.019551">
        <ele>132.028</ele>
        <time>2017-04-08T12:10:34Z</time>
      </trkpt>
      <trkpt lat="42.558570" lon="-9.019658">
        <ele>135.089</ele>
        <time>2017-04-08T12:10:41Z</time>
      </trkpt>
      <trkpt lat="42.558598" lon="-9.019786">
        <ele>133.017</ele>
        <time>2017-04-08T12:10:50Z</time>
      </trkpt>
      <trkpt lat="42.558647" lon="-9.019908">
        <ele>131.008</ele>
        <time>2017-04-08T12:10:57Z</time>
      </trkpt>
      <trkpt lat="42.558669" lon="-9.020032">
        <ele>131.063</ele>
        <time>2017-04-08T12:11:04Z</time>
      </trkpt>
      <trkpt lat="42.558693" lon="-9.020154">
        <ele>129.049</ele>
        <time>2017-04-08T12:11:10Z</time>
      </trkpt>
      <trkpt lat="42.558631" lon="-9.020245">
        <ele>125.027</ele>
        <time>2017-04-08T12:11:14Z</time>
      </trkpt>
      <trkpt lat="42.558593" lon="-9.020371">
        <ele>124.065</ele>
        <time>2017-04-08T12:11:22Z</time>
      </trkpt>
      <trkpt lat="42.558531" lon="-9.020463">
        <ele>123.099</ele>
        <time>2017-04-08T12:11:32Z</time>
      </trkpt>
      <trkpt lat="42.558452" lon="-9.020548">
        <ele>121.028</ele>
        <time>2017-04-08T12:11:39Z</time>
      </trkpt>
      <trkpt lat="42.558422" lon="-9.020664">
        <ele>123.037</ele>
        <time>2017-04-08T12:11:45Z</time>
      </trkpt>
      <trkpt lat="42.558360" lon="-9.020769">
        <ele>123.021</ele>
        <time>2017-04-08T12:11:53Z</time>
      </trkpt>
      <trkpt lat="42.558290" lon="-9.020858">
        <ele>123.075</ele>
        <time>2017-04-08T12:11:59Z</time>
      </trkpt>
      <trkpt lat="42.558203" lon="-9.020932">
        <ele>121.028</ele>
        <time>2017-04-08T12:12:06Z</time>
      </trkpt>
      <trkpt lat="42.558147" lon="-9.021051">
        <ele>122.020</ele>
        <time>2017-04-08T12:12:12Z</time>
      </trkpt>
      <trkpt lat="42.558069" lon="-9.021129">
        <ele>122.008</ele>
        <time>2017-04-08T12:12:19Z</time>
      </trkpt>
      <trkpt lat="42.557978" lon="-9.021173">
        <ele>120.028</ele>
        <time>2017-04-08T12:12:26Z</time>
      </trkpt>
      <trkpt lat="42.557886" lon="-9.021177">
        <ele>117.034</ele>
        <time>2017-04-08T12:12:32Z</time>
      </trkpt>
      <trkpt lat="42.557786" lon="-9.021212">
        <ele>115.072</ele>
        <time>2017-04-08T12:12:38Z</time>
      </trkpt>
      <trkpt lat="42.557775" lon="-9.021335">
        <ele>109.060</ele>
        <time>2017-04-08T12:12:51Z</time>
      </trkpt>
      <trkpt lat="42.557856" lon="-9.021424">
        <ele>109.014</ele>
        <time>2017-04-08T12:13:01Z</time>
      </trkpt>
      <trkpt lat="42.557942" lon="-9.021472">
        <ele>108.043</ele>
        <time>2017-04-08T12:13:08Z</time>
      </trkpt>
      <trkpt lat="42.558036" lon="-9.021544">
        <ele>104.092</ele>
        <time>2017-04-08T12:13:15Z</time>
      </trkpt>
      <trkpt lat="42.558106" lon="-9.021636">
        <ele>103.016</ele>
        <time>2017-04-08T12:13:23Z</time>
      </trkpt>
      <trkpt lat="42.558188" lon="-9.021693">
        <ele>102.059</ele>
        <time>2017-04-08T12:13:30Z</time>
      </trkpt>
      <trkpt lat="42.558289" lon="-9.021680">
        <ele>101.003</ele>
        <time>2017-04-08T12:13:39Z</time>
      </trkpt>
      <trkpt lat="42.558376" lon="-9.021719">
        <ele>97.023</ele>
        <time>2017-04-08T12:13:46Z</time>
      </trkpt>
      <trkpt lat="42.558470" lon="-9.021790">
        <ele>96.008</ele>
        <time>2017-04-08T12:13:53Z</time>
      </trkpt>
      <trkpt lat="42.558526" lon="-9.021896">
        <ele>93.016</ele>
        <time>2017-04-08T12:14:07Z</time>
      </trkpt>
      <trkpt lat="42.558596" lon="-9.021983">
        <ele>92.062</ele>
        <time>2017-04-08T12:14:17Z</time>
      </trkpt>
      <trkpt lat="42.558702" lon="-9.021980">
        <ele>89.020</ele>
        <time>2017-04-08T12:14:34Z</time>
      </trkpt>
      <trkpt lat="42.558793" lon="-9.021983">
        <ele>89.028</ele>
        <time>2017-04-08T12:14:42Z</time>
      </trkpt>
      <trkpt lat="42.558883" lon="-9.022028">
        <ele>89.082</ele>
        <time>2017-04-08T12:15:02Z</time>
      </trkpt>
      <trkpt lat="42.558971" lon="-9.022056">
        <ele>86.041</ele>
        <time>2017-04-08T12:15:08Z</time>
      </trkpt>
      <trkpt lat="42.558994" lon="-9.022177">
        <ele>85.010</ele>
        <time>2017-04-08T12:15:21Z</time>
      </trkpt>
      <trkpt lat="42.558907" lon="-9.022216">
        <ele>85.084</ele>
        <time>2017-04-08T12:15:31Z</time>
      </trkpt>
      <trkpt lat="42.558844" lon="-9.022324">
        <ele>82.099</ele>
        <time>2017-04-08T12:15:39Z</time>
      </trkpt>
      <trkpt lat="42.558786" lon="-9.022434">
        <ele>83.007</ele>
        <time>2017-04-08T12:15:45Z</time>
      </trkpt>
      <trkpt lat="42.558684" lon="-9.022411">
        <ele>84.027</ele>
        <time>2017-04-08T12:15:55Z</time>
      </trkpt>
      <trkpt lat="42.558567" lon="-9.022459">
        <ele>90.008</ele>
        <time>2017-04-08T12:16:01Z</time>
      </trkpt>
      <trkpt lat="42.558470" lon="-9.022414">
        <ele>91.080</ele>
        <time>2017-04-08T12:16:03Z</time>
      </trkpt>
      <trkpt lat="42.558409" lon="-9.022511">
        <ele>89.076</ele>
        <time>2017-04-08T12:16:07Z</time>
      </trkpt>
      <trkpt lat="42.558349" lon="-9.022630">
        <ele>92.034</ele>
        <time>2017-04-08T12:16:23Z</time>
      </trkpt>
      <trkpt lat="42.558289" lon="-9.022742">
        <ele>92.052</ele>
        <time>2017-04-08T12:16:30Z</time>
      </trkpt>
      <trkpt lat="42.558278" lon="-9.022881">
        <ele>95.066</ele>
        <time>2017-04-08T12:16:34Z</time>
      </trkpt>
      <trkpt lat="42.558246" lon="-9.023013">
        <ele>92.055</ele>
        <time>2017-04-08T12:16:44Z</time>
      </trkpt>
      <trkpt lat="42.558235" lon="-9.023145">
        <ele>90.054</ele>
        <time>2017-04-08T12:16:52Z</time>
      </trkpt>
      <trkpt lat="42.558182" lon="-9.023263">
        <ele>93.068</ele>
        <time>2017-04-08T12:17:01Z</time>
      </trkpt>
      <trkpt lat="42.558202" lon="-9.023387">
        <ele>91.037</ele>
        <time>2017-04-08T12:17:09Z</time>
      </trkpt>
      <trkpt lat="42.558237" lon="-9.023521">
        <ele>93.049</ele>
        <time>2017-04-08T12:17:21Z</time>
      </trkpt>
      <trkpt lat="42.558308" lon="-9.023598">
        <ele>92.013</ele>
        <time>2017-04-08T12:17:28Z</time>
      </trkpt>
      <trkpt lat="42.558363" lon="-9.023704">
        <ele>88.008</ele>
        <time>2017-04-08T12:17:33Z</time>
      </trkpt>
      <trkpt lat="42.558433" lon="-9.023790">
        <ele>87.094</ele>
        <time>2017-04-08T12:17:38Z</time>
      </trkpt>
      <trkpt lat="42.558470" lon="-9.023902">
        <ele>83.040</ele>
        <time>2017-04-08T12:17:47Z</time>
      </trkpt>
      <trkpt lat="42.558512" lon="-9.024014">
        <ele>84.068</ele>
        <time>2017-04-08T12:17:52Z</time>
      </trkpt>
      <trkpt lat="42.558565" lon="-9.024137">
        <ele>84.046</ele>
        <time>2017-04-08T12:18:00Z</time>
      </trkpt>
      <trkpt lat="42.558588" lon="-9.024269">
        <ele>82.010</ele>
        <time>2017-04-08T12:18:07Z</time>
      </trkpt>
      <trkpt lat="42.558582" lon="-9.024412">
        <ele>82.059</ele>
        <time>2017-04-08T12:18:14Z</time>
      </trkpt>
      <trkpt lat="42.558549" lon="-9.024537">
        <ele>82.048</ele>
        <time>2017-04-08T12:18:22Z</time>
      </trkpt>
      <trkpt lat="42.558555" lon="-9.024660">
        <ele>81.082</ele>
        <time>2017-04-08T12:18:28Z</time>
      </trkpt>
      <trkpt lat="42.558534" lon="-9.024780">
        <ele>79.033</ele>
        <time>2017-04-08T12:18:35Z</time>
      </trkpt>
      <trkpt lat="42.558531" lon="-9.024902">
        <ele>79.023</ele>
        <time>2017-04-08T12:18:41Z</time>
      </trkpt>
      <trkpt lat="42.558535" lon="-9.025028">
        <ele>79.015</ele>
        <time>2017-04-08T12:18:49Z</time>
      </trkpt>
      <trkpt lat="42.558566" lon="-9.025152">
        <ele>78.008</ele>
        <time>2017-04-08T12:19:00Z</time>
      </trkpt>
      <trkpt lat="42.558596" lon="-9.025283">
        <ele>76.014</ele>
        <time>2017-04-08T12:19:09Z</time>
      </trkpt>
      <trkpt lat="42.558629" lon="-9.025400">
        <ele>75.090</ele>
        <time>2017-04-08T12:19:22Z</time>
      </trkpt>
      <trkpt lat="42.558663" lon="-9.025523">
        <ele>77.098</ele>
        <time>2017-04-08T12:19:29Z</time>
      </trkpt>
      <trkpt lat="42.558688" lon="-9.025647">
        <ele>78.056</ele>
        <time>2017-04-08T12:19:36Z</time>
      </trkpt>
      <trkpt lat="42.558728" lon="-9.025765">
        <ele>75.040</ele>
        <time>2017-04-08T12:19:44Z</time>
      </trkpt>
      <trkpt lat="42.558791" lon="-9.025881">
        <ele>75.039</ele>
        <time>2017-04-08T12:19:52Z</time>
      </trkpt>
      <trkpt lat="42.558843" lon="-9.025982">
        <ele>79.098</ele>
        <time>2017-04-08T12:19:58Z</time>
      </trkpt>
      <trkpt lat="42.558829" lon="-9.026123">
        <ele>76.012</ele>
        <time>2017-04-08T12:20:04Z</time>
      </trkpt>
      <trkpt lat="42.558830" lon="-9.026259">
        <ele>74.098</ele>
        <time>2017-04-08T12:20:12Z</time>
      </trkpt>
      <trkpt lat="42.558889" lon="-9.026362">
        <ele>75.015</ele>
        <time>2017-04-08T12:20:18Z</time>
      </trkpt>
      <trkpt lat="42.558958" lon="-9.026462">
        <ele>75.026</ele>
        <time>2017-04-08T12:20:26Z</time>
      </trkpt>
      <trkpt lat="42.558935" lon="-9.026582">
        <ele>75.008</ele>
        <time>2017-04-08T12:20:31Z</time>
      </trkpt>
      <trkpt lat="42.558916" lon="-9.026714">
        <ele>69.020</ele>
        <time>2017-04-08T12:20:40Z</time>
      </trkpt>
      <trkpt lat="42.558988" lon="-9.026794">
        <ele>72.096</ele>
        <time>2017-04-08T12:20:48Z</time>
      </trkpt>
      <trkpt lat="42.558965" lon="-9.026923">
        <ele>68.084</ele>
        <time>2017-04-08T12:20:54Z</time>
      </trkpt>
      <trkpt lat="42.559010" lon="-9.027048">
        <ele>69.042</ele>
        <time>2017-04-08T12:21:01Z</time>
      </trkpt>
      <trkpt lat="42.559018" lon="-9.027177">
        <ele>68.016</ele>
        <time>2017-04-08T12:21:09Z</time>
      </trkpt>
      <trkpt lat="42.559038" lon="-9.027302">
        <ele>73.055</ele>
        <time>2017-04-08T12:21:20Z</time>
      </trkpt>
      <trkpt lat="42.559052" lon="-9.027433">
        <ele>69.064</ele>
        <time>2017-04-08T12:21:28Z</time>
      </trkpt>
      <trkpt lat="42.559047" lon="-9.027572">
        <ele>66.088</ele>
        <time>2017-04-08T12:21:35Z</time>
      </trkpt>
      <trkpt lat="42.559074" lon="-9.027712">
        <ele>67.021</ele>
        <time>2017-04-08T12:21:42Z</time>
      </trkpt>
      <trkpt lat="42.559084" lon="-9.027855">
        <ele>66.041</ele>
        <time>2017-04-08T12:21:49Z</time>
      </trkpt>
      <trkpt lat="42.559086" lon="-9.027978">
        <ele>68.005</ele>
        <time>2017-04-08T12:21:55Z</time>
      </trkpt>
      <trkpt lat="42.559054" lon="-9.028101">
        <ele>68.008</ele>
        <time>2017-04-08T12:22:01Z</time>
      </trkpt>
      <trkpt lat="42.559035" lon="-9.028243">
        <ele>68.073</ele>
        <time>2017-04-08T12:22:09Z</time>
      </trkpt>
      <trkpt lat="42.558974" lon="-9.028342">
        <ele>68.099</ele>
        <time>2017-04-08T12:22:16Z</time>
      </trkpt>
      <trkpt lat="42.558904" lon="-9.028438">
        <ele>67.087</ele>
        <time>2017-04-08T12:22:25Z</time>
      </trkpt>
      <trkpt lat="42.558854" lon="-9.028545">
        <ele>68.025</ele>
        <time>2017-04-08T12:22:31Z</time>
      </trkpt>
      <trkpt lat="42.558786" lon="-9.028632">
        <ele>68.079</ele>
        <time>2017-04-08T12:22:38Z</time>
      </trkpt>
      <trkpt lat="42.558714" lon="-9.028723">
        <ele>66.018</ele>
        <time>2017-04-08T12:22:45Z</time>
      </trkpt>
      <trkpt lat="42.558657" lon="-9.028819">
        <ele>65.057</ele>
        <time>2017-04-08T12:22:52Z</time>
      </trkpt>
      <trkpt lat="42.558600" lon="-9.028928">
        <ele>66.021</ele>
        <time>2017-04-08T12:23:00Z</time>
      </trkpt>
      <trkpt lat="42.558551" lon="-9.029033">
        <ele>65.023</ele>
        <time>2017-04-08T12:23:09Z</time>
      </trkpt>
      <trkpt lat="42.558508" lon="-9.029164">
        <ele>66.083</ele>
        <time>2017-04-08T12:23:16Z</time>
      </trkpt>
      <trkpt lat="42.558481" lon="-9.029282">
        <ele>65.011</ele>
        <time>2017-04-08T12:23:23Z</time>
      </trkpt>
      <trkpt lat="42.558423" lon="-9.029390">
        <ele>64.008</ele>
        <time>2017-04-08T12:23:31Z</time>
      </trkpt>
      <trkpt lat="42.558348" lon="-9.029484">
        <ele>64.093</ele>
        <time>2017-04-08T12:23:40Z</time>
      </trkpt>
      <trkpt lat="42.558245" lon="-9.029502">
        <ele>62.059</ele>
        <time>2017-04-08T12:23:50Z</time>
      </trkpt>
      <trkpt lat="42.558150" lon="-9.029519">
        <ele>65.037</ele>
        <time>2017-04-08T12:23:56Z</time>
      </trkpt>
      <trkpt lat="42.558061" lon="-9.029480">
        <ele>68.035</ele>
        <time>2017-04-08T12:24:03Z</time>
      </trkpt>
      <trkpt lat="42.557963" lon="-9.029480">
        <ele>67.099</ele>
        <time>2017-04-08T12:24:12Z</time>
      </trkpt>
      <trkpt lat="42.557870" lon="-9.029498">
        <ele>68.058</ele>
        <time>2017-04-08T12:24:18Z</time>
      </trkpt>
      <trkpt lat="42.557765" lon="-9.029492">
        <ele>68.037</ele>
        <time>2017-04-08T12:24:25Z</time>
      </trkpt>
      <trkpt lat="42.557670" lon="-9.029494">
        <ele>66.011</ele>
        <time>2017-04-08T12:24:32Z</time>
      </trkpt>
      <trkpt lat="42.557575" lon="-9.029454">
        <ele>64.066</ele>
        <time>2017-04-08T12:24:39Z</time>
      </trkpt>
      <trkpt lat="42.557483" lon="-9.029423">
        <ele>65.029</ele>
        <time>2017-04-08T12:24:48Z</time>
      </trkpt>
      <trkpt lat="42.557397" lon="-9.029384">
        <ele>68.021</ele>
        <time>2017-04-08T12:24:58Z</time>
      </trkpt>
      <trkpt lat="42.557311" lon="-9.029325">
        <ele>67.008</ele>
        <time>2017-04-08T12:25:03Z</time>
      </trkpt>
      <trkpt lat="42.557222" lon="-9.029271">
        <ele>66.047</ele>
        <time>2017-04-08T12:25:10Z</time>
      </trkpt>
      <trkpt lat="42.557127" lon="-9.029242">
        <ele>70.043</ele>
        <time>2017-04-08T12:25:16Z</time>
      </trkpt>
      <trkpt lat="42.557044" lon="-9.029177">
        <ele>71.031</ele>
        <time>2017-04-08T12:25:22Z</time>
      </trkpt>
      <trkpt lat="42.556952" lon="-9.029131">
        <ele>76.019</ele>
        <time>2017-04-08T12:25:30Z</time>
      </trkpt>
      <trkpt lat="42.556867" lon="-9.029198">
        <ele>72.063</ele>
        <time>2017-04-08T12:26:03Z</time>
      </trkpt>
      <trkpt lat="42.556837" lon="-9.029313">
        <ele>73.092</ele>
        <time>2017-04-08T12:26:11Z</time>
      </trkpt>
      <trkpt lat="42.556761" lon="-9.029385">
        <ele>78.061</ele>
        <time>2017-04-08T12:26:17Z</time>
      </trkpt>
      <trkpt lat="42.556742" lon="-9.029507">
        <ele>72.025</ele>
        <time>2017-04-08T12:26:24Z</time>
      </trkpt>
      <trkpt lat="42.556767" lon="-9.029641">
        <ele>72.033</ele>
        <time>2017-04-08T12:26:31Z</time>
      </trkpt>
      <trkpt lat="42.556767" lon="-9.029773">
        <ele>71.023</ele>
        <time>2017-04-08T12:26:38Z</time>
      </trkpt>
      <trkpt lat="42.556740" lon="-9.029900">
        <ele>68.015</ele>
        <time>2017-04-08T12:26:47Z</time>
      </trkpt>
      <trkpt lat="42.556722" lon="-9.030037">
        <ele>67.008</ele>
        <time>2017-04-08T12:26:56Z</time>
      </trkpt>
      <trkpt lat="42.556713" lon="-9.030169">
        <ele>65.064</ele>
        <time>2017-04-08T12:27:04Z</time>
      </trkpt>
      <trkpt lat="42.556707" lon="-9.030304">
        <ele>64.030</ele>
        <time>2017-04-08T12:27:11Z</time>
      </trkpt>
      <trkpt lat="42.556701" lon="-9.030443">
        <ele>63.038</ele>
        <time>2017-04-08T12:27:19Z</time>
      </trkpt>
      <trkpt lat="42.556723" lon="-9.030565">
        <ele>65.046</ele>
        <time>2017-04-08T12:27:26Z</time>
      </trkpt>
      <trkpt lat="42.556696" lon="-9.030684">
        <ele>63.020</ele>
        <time>2017-04-08T12:27:32Z</time>
      </trkpt>
      <trkpt lat="42.556668" lon="-9.030810">
        <ele>63.089</ele>
        <time>2017-04-08T12:27:40Z</time>
      </trkpt>
      <trkpt lat="42.556668" lon="-9.030937">
        <ele>64.028</ele>
        <time>2017-04-08T12:27:46Z</time>
      </trkpt>
      <trkpt lat="42.556647" lon="-9.031067">
        <ele>65.092</ele>
        <time>2017-04-08T12:27:54Z</time>
      </trkpt>
      <trkpt lat="42.556635" lon="-9.031196">
        <ele>66.065</ele>
        <time>2017-04-08T12:28:02Z</time>
      </trkpt>
      <trkpt lat="42.556678" lon="-9.031320">
        <ele>67.068</ele>
        <time>2017-04-08T12:28:11Z</time>
      </trkpt>
      <trkpt lat="42.556650" lon="-9.031193">
        <ele>64.014</ele>
        <time>2017-04-08T12:28:42Z</time>
      </trkpt>
      <trkpt lat="42.556560" lon="-9.031199">
        <ele>67.008</ele>
        <time>2017-04-08T12:28:49Z</time>
      </trkpt>
      <trkpt lat="42.556468" lon="-9.031206">
        <ele>68.067</ele>
        <time>2017-04-08T12:28:56Z</time>
      </trkpt>
      <trkpt lat="42.556369" lon="-9.031196">
        <ele>69.073</ele>
        <time>2017-04-08T12:29:03Z</time>
      </trkpt>
      <trkpt lat="42.556267" lon="-9.031169">
        <ele>70.051</ele>
        <time>2017-04-08T12:29:09Z</time>
      </trkpt>
      <trkpt lat="42.556213" lon="-9.031038">
        <ele>68.019</ele>
        <time>2017-04-08T12:29:15Z</time>
      </trkpt>
      <trkpt lat="42.556109" lon="-9.031015">
        <ele>67.073</ele>
        <time>2017-04-08T12:29:24Z</time>
      </trkpt>
      <trkpt lat="42.556024" lon="-9.030934">
        <ele>68.082</ele>
        <time>2017-04-08T12:29:32Z</time>
      </trkpt>
      <trkpt lat="42.555940" lon="-9.030858">
        <ele>69.081</ele>
        <time>2017-04-08T12:29:40Z</time>
      </trkpt>
      <trkpt lat="42.555852" lon="-9.030793">
        <ele>69.025</ele>
        <time>2017-04-08T12:29:49Z</time>
      </trkpt>
      <trkpt lat="42.555790" lon="-9.030693">
        <ele>68.026</ele>
        <time>2017-04-08T12:29:57Z</time>
      </trkpt>
      <trkpt lat="42.555726" lon="-9.030605">
        <ele>68.047</ele>
        <time>2017-04-08T12:30:04Z</time>
      </trkpt>
      <trkpt lat="42.555631" lon="-9.030587">
        <ele>69.011</ele>
        <time>2017-04-08T12:30:12Z</time>
      </trkpt>
      <trkpt lat="42.555539" lon="-9.030612">
        <ele>70.008</ele>
        <time>2017-04-08T12:30:19Z</time>
      </trkpt>
      <trkpt lat="42.555446" lon="-9.030577">
        <ele>70.023</ele>
        <time>2017-04-08T12:30:26Z</time>
      </trkpt>
      <trkpt lat="42.555411" lon="-9.030456">
        <ele>69.079</ele>
        <time>2017-04-08T12:30:34Z</time>
      </trkpt>
      <trkpt lat="42.555418" lon="-9.030321">
        <ele>70.017</ele>
        <time>2017-04-08T12:30:40Z</time>
      </trkpt>
      <trkpt lat="42.555441" lon="-9.030188">
        <ele>75.075</ele>
        <time>2017-04-08T12:30:51Z</time>
      </trkpt>
      <trkpt lat="42.555449" lon="-9.030062">
        <ele>75.049</ele>
        <time>2017-04-08T12:30:59Z</time>
      </trkpt>
      <trkpt lat="42.555426" lon="-9.029940">
        <ele>75.038</ele>
        <time>2017-04-08T12:31:07Z</time>
      </trkpt>
      <trkpt lat="42.555378" lon="-9.029834">
        <ele>75.027</ele>
        <time>2017-04-08T12:31:20Z</time>
      </trkpt>
      <trkpt lat="42.555359" lon="-9.029713">
        <ele>74.011</ele>
        <time>2017-04-08T12:31:26Z</time>
      </trkpt>
      <trkpt lat="42.555364" lon="-9.029574">
        <ele>75.011</ele>
        <time>2017-04-08T12:31:34Z</time>
      </trkpt>
      <trkpt lat="42.555358" lon="-9.029451">
        <ele>73.021</ele>
        <time>2017-04-08T12:31:41Z</time>
      </trkpt>
      <trkpt lat="42.555291" lon="-9.029337">
        <ele>76.003</ele>
        <time>2017-04-08T12:31:50Z</time>
      </trkpt>
      <trkpt lat="42.555199" lon="-9.029290">
        <ele>78.008</ele>
        <time>2017-04-08T12:31:56Z</time>
      </trkpt>
      <trkpt lat="42.555121" lon="-9.029201">
        <ele>78.052</ele>
        <time>2017-04-08T12:32:04Z</time>
      </trkpt>
      <trkpt lat="42.555035" lon="-9.029149">
        <ele>77.038</ele>
        <time>2017-04-08T12:32:12Z</time>
      </trkpt>
      <trkpt lat="42.554931" lon="-9.029146">
        <ele>81.016</ele>
        <time>2017-04-08T12:32:23Z</time>
      </trkpt>
      <trkpt lat="42.554838" lon="-9.029195">
        <ele>79.014</ele>
        <time>2017-04-08T12:32:29Z</time>
      </trkpt>
      <trkpt lat="42.554745" lon="-9.029249">
        <ele>77.068</ele>
        <time>2017-04-08T12:32:37Z</time>
      </trkpt>
      <trkpt lat="42.554654" lon="-9.029245">
        <ele>77.067</ele>
        <time>2017-04-08T12:32:43Z</time>
      </trkpt>
      <trkpt lat="42.554559" lon="-9.029207">
        <ele>79.026</ele>
        <time>2017-04-08T12:32:50Z</time>
      </trkpt>
      <trkpt lat="42.554457" lon="-9.029255">
        <ele>78.080</ele>
        <time>2017-04-08T12:32:58Z</time>
      </trkpt>
      <trkpt lat="42.554373" lon="-9.029321">
        <ele>75.088</ele>
        <time>2017-04-08T12:33:05Z</time>
      </trkpt>
      <trkpt lat="42.554272" lon="-9.029329">
        <ele>76.024</ele>
        <time>2017-04-08T12:33:11Z</time>
      </trkpt>
      <trkpt lat="42.554173" lon="-9.029290">
        <ele>74.026</ele>
        <time>2017-04-08T12:33:17Z</time>
      </trkpt>
      <trkpt lat="42.554083" lon="-9.029229">
        <ele>76.008</ele>
        <time>2017-04-08T12:33:24Z</time>
      </trkpt>
      <trkpt lat="42.554016" lon="-9.029132">
        <ele>75.059</ele>
        <time>2017-04-08T12:33:31Z</time>
      </trkpt>
      <trkpt lat="42.553948" lon="-9.029033">
        <ele>74.045</ele>
        <time>2017-04-08T12:33:38Z</time>
      </trkpt>
      <trkpt lat="42.553889" lon="-9.028935">
        <ele>72.023</ele>
        <time>2017-04-08T12:33:45Z</time>
      </trkpt>
      <trkpt lat="42.553788" lon="-9.028900">
        <ele>74.081</ele>
        <time>2017-04-08T12:33:52Z</time>
      </trkpt>
      <trkpt lat="42.553689" lon="-9.028879">
        <ele>75.085</ele>
        <time>2017-04-08T12:33:59Z</time>
      </trkpt>
      <trkpt lat="42.553604" lon="-9.028813">
        <ele>75.054</ele>
        <time>2017-04-08T12:34:05Z</time>
      </trkpt>
      <trkpt lat="42.553525" lon="-9.028740">
        <ele>76.023</ele>
        <time>2017-04-08T12:34:12Z</time>
      </trkpt>
      <trkpt lat="42.553426" lon="-9.028734">
        <ele>76.097</ele>
        <time>2017-04-08T12:34:19Z</time>
      </trkpt>
      <trkpt lat="42.553327" lon="-9.028690">
        <ele>74.078</ele>
        <time>2017-04-08T12:34:29Z</time>
      </trkpt>
      <trkpt lat="42.553253" lon="-9.028602">
        <ele>73.033</ele>
        <time>2017-04-08T12:34:36Z</time>
      </trkpt>
      <trkpt lat="42.553172" lon="-9.028537">
        <ele>74.026</ele>
        <time>2017-04-08T12:34:43Z</time>
      </trkpt>
      <trkpt lat="42.553110" lon="-9.028448">
        <ele>73.008</ele>
        <time>2017-04-08T12:34:50Z</time>
      </trkpt>
      <trkpt lat="42.553079" lon="-9.028562">
        <ele>69.058</ele>
        <time>2017-04-08T12:35:26Z</time>
      </trkpt>
      <trkpt lat="42.553100" lon="-9.028443">
        <ele>67.044</ele>
        <time>2017-04-08T12:36:49Z</time>
      </trkpt>
      <trkpt lat="42.553014" lon="-9.028370">
        <ele>69.022</ele>
        <time>2017-04-08T12:36:57Z</time>
      </trkpt>
      <trkpt lat="42.552924" lon="-9.028364">
        <ele>69.050</ele>
        <time>2017-04-08T12:37:06Z</time>
      </trkpt>
      <trkpt lat="42.552829" lon="-9.028370">
        <ele>70.054</ele>
        <time>2017-04-08T12:37:14Z</time>
      </trkpt>
      <trkpt lat="42.552737" lon="-9.028363">
        <ele>73.033</ele>
        <time>2017-04-08T12:37:22Z</time>
      </trkpt>
      <trkpt lat="42.552645" lon="-9.028351">
        <ele>75.032</ele>
        <time>2017-04-08T12:37:29Z</time>
      </trkpt>
      <trkpt lat="42.552554" lon="-9.028325">
        <ele>74.056</ele>
        <time>2017-04-08T12:37:36Z</time>
      </trkpt>
      <trkpt lat="42.552461" lon="-9.028336">
        <ele>77.082</ele>
        <time>2017-04-08T12:37:45Z</time>
      </trkpt>
      <trkpt lat="42.552446" lon="-9.028212">
        <ele>69.043</ele>
        <time>2017-04-08T12:38:25Z</time>
      </trkpt>
      <trkpt lat="42.552425" lon="-9.028083">
        <ele>71.017</ele>
        <time>2017-04-08T12:38:34Z</time>
      </trkpt>
      <trkpt lat="42.552395" lon="-9.027951">
        <ele>71.008</ele>
        <time>2017-04-08T12:38:43Z</time>
      </trkpt>
      <trkpt lat="42.552357" lon="-9.027822">
        <ele>73.019</ele>
        <time>2017-04-08T12:38:51Z</time>
      </trkpt>
      <trkpt lat="42.552345" lon="-9.027692">
        <ele>75.085</ele>
        <time>2017-04-08T12:39:00Z</time>
      </trkpt>
      <trkpt lat="42.552337" lon="-9.027567">
        <ele>75.023</ele>
        <time>2017-04-08T12:39:07Z</time>
      </trkpt>
      <trkpt lat="42.552324" lon="-9.027438">
        <ele>75.011</ele>
        <time>2017-04-08T12:39:15Z</time>
      </trkpt>
      <trkpt lat="42.552310" lon="-9.027315">
        <ele>73.045</ele>
        <time>2017-04-08T12:39:24Z</time>
      </trkpt>
      <trkpt lat="42.552282" lon="-9.027185">
        <ele>75.094</ele>
        <time>2017-04-08T12:39:32Z</time>
      </trkpt>
      <trkpt lat="42.552260" lon="-9.027062">
        <ele>76.023</ele>
        <time>2017-04-08T12:39:39Z</time>
      </trkpt>
      <trkpt lat="42.552247" lon="-9.026931">
        <ele>75.027</ele>
        <time>2017-04-08T12:39:48Z</time>
      </trkpt>
      <trkpt lat="42.552214" lon="-9.026803">
        <ele>76.071</ele>
        <time>2017-04-08T12:39:56Z</time>
      </trkpt>
      <trkpt lat="42.552196" lon="-9.026680">
        <ele>75.041</ele>
        <time>2017-04-08T12:40:03Z</time>
      </trkpt>
      <trkpt lat="42.552099" lon="-9.026643">
        <ele>77.015</ele>
        <time>2017-04-08T12:40:33Z</time>
      </trkpt>
      <trkpt lat="42.552009" lon="-9.026679">
        <ele>80.008</ele>
        <time>2017-04-08T12:40:41Z</time>
      </trkpt>
      <trkpt lat="42.551919" lon="-9.026700">
        <ele>80.068</ele>
        <time>2017-04-08T12:40:48Z</time>
      </trkpt>
      <trkpt lat="42.551816" lon="-9.026730">
        <ele>81.094</ele>
        <time>2017-04-08T12:40:56Z</time>
      </trkpt>
      <trkpt lat="42.551719" lon="-9.026752">
        <ele>79.062</ele>
        <time>2017-04-08T12:41:04Z</time>
      </trkpt>
      <trkpt lat="42.551634" lon="-9.026803">
        <ele>78.060</ele>
        <time>2017-04-08T12:41:09Z</time>
      </trkpt>
      <trkpt lat="42.551547" lon="-9.026839">
        <ele>77.054</ele>
        <time>2017-04-08T12:41:16Z</time>
      </trkpt>
      <trkpt lat="42.551455" lon="-9.026871">
        <ele>78.013</ele>
        <time>2017-04-08T12:41:22Z</time>
      </trkpt>
      <trkpt lat="42.551363" lon="-9.026895">
        <ele>74.062</ele>
        <time>2017-04-08T12:41:56Z</time>
      </trkpt>
      <trkpt lat="42.551274" lon="-9.026939">
        <ele>72.096</ele>
        <time>2017-04-08T12:42:04Z</time>
      </trkpt>
      <trkpt lat="42.551185" lon="-9.026981">
        <ele>71.011</ele>
        <time>2017-04-08T12:42:10Z</time>
      </trkpt>
      <trkpt lat="42.551101" lon="-9.027053">
        <ele>72.021</ele>
        <time>2017-04-08T12:42:16Z</time>
      </trkpt>
      <trkpt lat="42.551012" lon="-9.027115">
        <ele>72.003</ele>
        <time>2017-04-08T12:42:23Z</time>
      </trkpt>
      <trkpt lat="42.550935" lon="-9.027200">
        <ele>71.008</ele>
        <time>2017-04-08T12:42:28Z</time>
      </trkpt>
      <trkpt lat="42.550854" lon="-9.027253">
        <ele>71.012</ele>
        <time>2017-04-08T12:42:33Z</time>
      </trkpt>
      <trkpt lat="42.550761" lon="-9.027328">
        <ele>70.048</ele>
        <time>2017-04-08T12:42:40Z</time>
      </trkpt>
      <trkpt lat="42.550670" lon="-9.027387">
        <ele>68.016</ele>
        <time>2017-04-08T12:42:48Z</time>
      </trkpt>
      <trkpt lat="42.550583" lon="-9.027426">
        <ele>67.014</ele>
        <time>2017-04-08T12:42:55Z</time>
      </trkpt>
      <trkpt lat="42.550485" lon="-9.027458">
        <ele>67.038</ele>
        <time>2017-04-08T12:43:03Z</time>
      </trkpt>
      <trkpt lat="42.550402" lon="-9.027508">
        <ele>66.057</ele>
        <time>2017-04-08T12:43:09Z</time>
      </trkpt>
      <trkpt lat="42.550304" lon="-9.027545">
        <ele>67.016</ele>
        <time>2017-04-08T12:43:16Z</time>
      </trkpt>
      <trkpt lat="42.550225" lon="-9.027609">
        <ele>66.030</ele>
        <time>2017-04-08T12:43:23Z</time>
      </trkpt>
      <trkpt lat="42.550139" lon="-9.027681">
        <ele>66.094</ele>
        <time>2017-04-08T12:43:30Z</time>
      </trkpt>
      <trkpt lat="42.550071" lon="-9.027780">
        <ele>66.057</ele>
        <time>2017-04-08T12:43:44Z</time>
      </trkpt>
      <trkpt lat="42.549989" lon="-9.027848">
        <ele>66.022</ele>
        <time>2017-04-08T12:43:51Z</time>
      </trkpt>
      <trkpt lat="42.549901" lon="-9.027903">
        <ele>64.008</ele>
        <time>2017-04-08T12:43:58Z</time>
      </trkpt>
      <trkpt lat="42.549811" lon="-9.027971">
        <ele>60.090</ele>
        <time>2017-04-08T12:44:06Z</time>
      </trkpt>
      <trkpt lat="42.549744" lon="-9.028069">
        <ele>62.016</ele>
        <time>2017-04-08T12:44:12Z</time>
      </trkpt>
      <trkpt lat="42.549667" lon="-9.028163">
        <ele>61.054</ele>
        <time>2017-04-08T12:44:19Z</time>
      </trkpt>
      <trkpt lat="42.549606" lon="-9.028263">
        <ele>60.062</ele>
        <time>2017-04-08T12:44:26Z</time>
      </trkpt>
      <trkpt lat="42.549547" lon="-9.028376">
        <ele>61.096</ele>
        <time>2017-04-08T12:44:33Z</time>
      </trkpt>
      <trkpt lat="42.549489" lon="-9.028472">
        <ele>63.035</ele>
        <time>2017-04-08T12:44:40Z</time>
      </trkpt>
      <trkpt lat="42.549404" lon="-9.028536">
        <ele>60.094</ele>
        <time>2017-04-08T12:44:47Z</time>
      </trkpt>
      <trkpt lat="42.549320" lon="-9.028604">
        <ele>59.028</ele>
        <time>2017-04-08T12:44:54Z</time>
      </trkpt>
      <trkpt lat="42.549224" lon="-9.028649">
        <ele>58.086</ele>
        <time>2017-04-08T12:45:04Z</time>
      </trkpt>
      <trkpt lat="42.549154" lon="-9.028736">
        <ele>60.060</ele>
        <time>2017-04-08T12:45:13Z</time>
      </trkpt>
      <trkpt lat="42.549075" lon="-9.028809">
        <ele>57.026</ele>
        <time>2017-04-08T12:45:21Z</time>
      </trkpt>
      <trkpt lat="42.549030" lon="-9.028932">
        <ele>55.008</ele>
        <time>2017-04-08T12:45:31Z</time>
      </trkpt>
      <trkpt lat="42.548975" lon="-9.029038">
        <ele>52.049</ele>
        <time>2017-04-08T12:45:40Z</time>
      </trkpt>
      <trkpt lat="42.548912" lon="-9.029138">
        <ele>49.035</ele>
        <time>2017-04-08T12:45:49Z</time>
      </trkpt>
      <trkpt lat="42.548839" lon="-9.029217">
        <ele>46.033</ele>
        <time>2017-04-08T12:46:01Z</time>
      </trkpt>
      <trkpt lat="42.548749" lon="-9.029273">
        <ele>50.091</ele>
        <time>2017-04-08T12:46:15Z</time>
      </trkpt>
      <trkpt lat="42.548656" lon="-9.029294">
        <ele>51.015</ele>
        <time>2017-04-08T12:46:23Z</time>
      </trkpt>
      <trkpt lat="42.548557" lon="-9.029333">
        <ele>51.044</ele>
        <time>2017-04-08T12:46:31Z</time>
      </trkpt>
      <trkpt lat="42.548479" lon="-9.029403">
        <ele>52.053</ele>
        <time>2017-04-08T12:46:39Z</time>
      </trkpt>
      <trkpt lat="42.548391" lon="-9.029456">
        <ele>53.047</ele>
        <time>2017-04-08T12:46:47Z</time>
      </trkpt>
      <trkpt lat="42.548301" lon="-9.029459">
        <ele>52.079</ele>
        <time>2017-04-08T12:46:55Z</time>
      </trkpt>
      <trkpt lat="42.548204" lon="-9.029467">
        <ele>52.005</ele>
        <time>2017-04-08T12:47:02Z</time>
      </trkpt>
      <trkpt lat="42.548111" lon="-9.029452">
        <ele>51.025</ele>
        <time>2017-04-08T12:47:09Z</time>
      </trkpt>
      <trkpt lat="42.548010" lon="-9.029453">
        <ele>52.008</ele>
        <time>2017-04-08T12:47:16Z</time>
      </trkpt>
      <trkpt lat="42.547923" lon="-9.029511">
        <ele>52.088</ele>
        <time>2017-04-08T12:47:23Z</time>
      </trkpt>
      <trkpt lat="42.547833" lon="-9.029530">
        <ele>52.044</ele>
        <time>2017-04-08T12:47:30Z</time>
      </trkpt>
      <trkpt lat="42.547741" lon="-9.029544">
        <ele>53.012</ele>
        <time>2017-04-08T12:47:38Z</time>
      </trkpt>
      <trkpt lat="42.547658" lon="-9.029600">
        <ele>53.080</ele>
        <time>2017-04-08T12:47:44Z</time>
      </trkpt>
      <trkpt lat="42.547554" lon="-9.029581">
        <ele>54.034</ele>
        <time>2017-04-08T12:47:52Z</time>
      </trkpt>
      <trkpt lat="42.547457" lon="-9.029573">
        <ele>55.083</ele>
        <time>2017-04-08T12:48:00Z</time>
      </trkpt>
      <trkpt lat="42.547355" lon="-9.029548">
        <ele>55.012</ele>
        <time>2017-04-08T12:48:07Z</time>
      </trkpt>
      <trkpt lat="42.547259" lon="-9.029564">
        <ele>53.036</ele>
        <time>2017-04-08T12:48:14Z</time>
      </trkpt>
      <trkpt lat="42.547157" lon="-9.029571">
        <ele>53.036</ele>
        <time>2017-04-08T12:48:21Z</time>
      </trkpt>
      <trkpt lat="42.547066" lon="-9.029566">
        <ele>53.017</ele>
        <time>2017-04-08T12:48:27Z</time>
      </trkpt>
      <trkpt lat="42.546959" lon="-9.029564">
        <ele>53.018</ele>
        <time>2017-04-08T12:48:35Z</time>
      </trkpt>
      <trkpt lat="42.546869" lon="-9.029610">
        <ele>52.008</ele>
        <time>2017-04-08T12:48:41Z</time>
      </trkpt>
      <trkpt lat="42.546767" lon="-9.029608">
        <ele>49.054</ele>
        <time>2017-04-08T12:48:48Z</time>
      </trkpt>
      <trkpt lat="42.546676" lon="-9.029628">
        <ele>51.010</ele>
        <time>2017-04-08T12:48:55Z</time>
      </trkpt>
      <trkpt lat="42.546579" lon="-9.029649">
        <ele>51.088</ele>
        <time>2017-04-08T12:49:03Z</time>
      </trkpt>
      <trkpt lat="42.546487" lon="-9.029624">
        <ele>50.026</ele>
        <time>2017-04-08T12:49:10Z</time>
      </trkpt>
      <trkpt lat="42.546390" lon="-9.029646">
        <ele>49.040</ele>
        <time>2017-04-08T12:49:17Z</time>
      </trkpt>
      <trkpt lat="42.546292" lon="-9.029633">
        <ele>50.069</ele>
        <time>2017-04-08T12:49:24Z</time>
      </trkpt>
      <trkpt lat="42.546201" lon="-9.029675">
        <ele>52.068</ele>
        <time>2017-04-08T12:49:31Z</time>
      </trkpt>
      <trkpt lat="42.546114" lon="-9.029710">
        <ele>52.052</ele>
        <time>2017-04-08T12:49:37Z</time>
      </trkpt>
      <trkpt lat="42.546019" lon="-9.029743">
        <ele>52.083</ele>
        <time>2017-04-08T12:49:44Z</time>
      </trkpt>
      <trkpt lat="42.545923" lon="-9.029735">
        <ele>52.025</ele>
        <time>2017-04-08T12:49:51Z</time>
      </trkpt>
      <trkpt lat="42.545823" lon="-9.029752">
        <ele>53.017</ele>
        <time>2017-04-08T12:49:58Z</time>
      </trkpt>
      <trkpt lat="42.545720" lon="-9.029767">
        <ele>51.008</ele>
        <time>2017-04-08T12:50:05Z</time>
      </trkpt>
      <trkpt lat="42.545628" lon="-9.029808">
        <ele>54.089</ele>
        <time>2017-04-08T12:50:12Z</time>
      </trkpt>
      <trkpt lat="42.545525" lon="-9.029830">
        <ele>53.065</ele>
        <time>2017-04-08T12:50:19Z</time>
      </trkpt>
      <trkpt lat="42.545434" lon="-9.029825">
        <ele>52.073</ele>
        <time>2017-04-08T12:50:25Z</time>
      </trkpt>
      <trkpt lat="42.545334" lon="-9.029846">
        <ele>53.061</ele>
        <time>2017-04-08T12:50:32Z</time>
      </trkpt>
      <trkpt lat="42.545243" lon="-9.029865">
        <ele>52.045</ele>
        <time>2017-04-08T12:50:39Z</time>
      </trkpt>
      <trkpt lat="42.545143" lon="-9.029909">
        <ele>51.074</ele>
        <time>2017-04-08T12:50:46Z</time>
      </trkpt>
      <trkpt lat="42.545045" lon="-9.029888">
        <ele>52.013</ele>
        <time>2017-04-08T12:50:53Z</time>
      </trkpt>
      <trkpt lat="42.544943" lon="-9.029897">
        <ele>52.047</ele>
        <time>2017-04-08T12:51:00Z</time>
      </trkpt>
      <trkpt lat="42.544846" lon="-9.029930">
        <ele>53.021</ele>
        <time>2017-04-08T12:51:07Z</time>
      </trkpt>
      <trkpt lat="42.544751" lon="-9.029945">
        <ele>53.041</ele>
        <time>2017-04-08T12:51:14Z</time>
      </trkpt>
      <trkpt lat="42.544657" lon="-9.029947">
        <ele>53.005</ele>
        <time>2017-04-08T12:51:21Z</time>
      </trkpt>
      <trkpt lat="42.544568" lon="-9.029969">
        <ele>55.008</ele>
        <time>2017-04-08T12:51:27Z</time>
      </trkpt>
      <trkpt lat="42.544468" lon="-9.029956">
        <ele>56.063</ele>
        <time>2017-04-08T12:51:34Z</time>
      </trkpt>
      <trkpt lat="42.544382" lon="-9.029997">
        <ele>55.089</ele>
        <time>2017-04-08T12:51:40Z</time>
      </trkpt>
      <trkpt lat="42.544294" lon="-9.030039">
        <ele>55.017</ele>
        <time>2017-04-08T12:51:46Z</time>
      </trkpt>
      <trkpt lat="42.544202" lon="-9.030057">
        <ele>55.055</ele>
        <time>2017-04-08T12:51:52Z</time>
      </trkpt>
      <trkpt lat="42.544108" lon="-9.030107">
        <ele>53.029</ele>
        <time>2017-04-08T12:51:58Z</time>
      </trkpt>
      <trkpt lat="42.544012" lon="-9.030135">
        <ele>52.018</ele>
        <time>2017-04-08T12:52:05Z</time>
      </trkpt>
      <trkpt lat="42.543918" lon="-9.030142">
        <ele>53.087</ele>
        <time>2017-04-08T12:52:12Z</time>
      </trkpt>
      <trkpt lat="42.543827" lon="-9.030185">
        <ele>52.081</ele>
        <time>2017-04-08T12:52:18Z</time>
      </trkpt>
      <trkpt lat="42.543731" lon="-9.030197">
        <ele>54.037</ele>
        <time>2017-04-08T12:52:25Z</time>
      </trkpt>
      <trkpt lat="42.543634" lon="-9.030237">
        <ele>52.049</ele>
        <time>2017-04-08T12:52:31Z</time>
      </trkpt>
      <trkpt lat="42.543535" lon="-9.030252">
        <ele>54.013</ele>
        <time>2017-04-08T12:52:39Z</time>
      </trkpt>
      <trkpt lat="42.543446" lon="-9.030293">
        <ele>54.008</ele>
        <time>2017-04-08T12:52:46Z</time>
      </trkpt>
      <trkpt lat="42.543350" lon="-9.030337">
        <ele>53.094</ele>
        <time>2017-04-08T12:52:53Z</time>
      </trkpt>
      <trkpt lat="42.543249" lon="-9.030366">
        <ele>54.010</ele>
        <time>2017-04-08T12:53:00Z</time>
      </trkpt>
      <trkpt lat="42.543152" lon="-9.030377">
        <ele>55.098</ele>
        <time>2017-04-08T12:53:07Z</time>
      </trkpt>
      <trkpt lat="42.543061" lon="-9.030375">
        <ele>55.096</ele>
        <time>2017-04-08T12:53:13Z</time>
      </trkpt>
      <trkpt lat="42.542962" lon="-9.030358">
        <ele>56.090</ele>
        <time>2017-04-08T12:53:20Z</time>
      </trkpt>
      <trkpt lat="42.542864" lon="-9.030352">
        <ele>54.059</ele>
        <time>2017-04-08T12:53:26Z</time>
      </trkpt>
      <trkpt lat="42.542774" lon="-9.030325">
        <ele>55.018</ele>
        <time>2017-04-08T12:53:33Z</time>
      </trkpt>
      <trkpt lat="42.542686" lon="-9.030286">
        <ele>55.072</ele>
        <time>2017-04-08T12:53:43Z</time>
      </trkpt>
      <trkpt lat="42.542611" lon="-9.030356">
        <ele>56.011</ele>
        <time>2017-04-08T12:53:52Z</time>
      </trkpt>
      <trkpt lat="42.542535" lon="-9.030428">
        <ele>57.021</ele>
        <time>2017-04-08T12:53:58Z</time>
      </trkpt>
      <trkpt lat="42.542443" lon="-9.030423">
        <ele>56.003</ele>
        <time>2017-04-08T12:54:29Z</time>
      </trkpt>
      <trkpt lat="42.542345" lon="-9.030419">
        <ele>56.008</ele>
        <time>2017-04-08T12:54:37Z</time>
      </trkpt>
      <trkpt lat="42.542253" lon="-9.030439">
        <ele>57.062</ele>
        <time>2017-04-08T12:54:44Z</time>
      </trkpt>
      <trkpt lat="42.542179" lon="-9.030529">
        <ele>57.078</ele>
        <time>2017-04-08T12:54:51Z</time>
      </trkpt>
      <trkpt lat="42.542083" lon="-9.030550">
        <ele>58.076</ele>
        <time>2017-04-08T12:54:59Z</time>
      </trkpt>
      <trkpt lat="42.541993" lon="-9.030573">
        <ele>58.084</ele>
        <time>2017-04-08T12:55:16Z</time>
      </trkpt>
      <trkpt lat="42.541916" lon="-9.030656">
        <ele>56.088</ele>
        <time>2017-04-08T12:55:22Z</time>
      </trkpt>
      <trkpt lat="42.541828" lon="-9.030702">
        <ele>58.047</ele>
        <time>2017-04-08T12:55:35Z</time>
      </trkpt>
      <trkpt lat="42.541730" lon="-9.030749">
        <ele>58.096</ele>
        <time>2017-04-08T12:55:42Z</time>
      </trkpt>
      <trkpt lat="42.541645" lon="-9.030801">
        <ele>58.030</ele>
        <time>2017-04-08T12:55:49Z</time>
      </trkpt>
      <trkpt lat="42.541568" lon="-9.030866">
        <ele>59.097</ele>
        <time>2017-04-08T12:55:55Z</time>
      </trkpt>
      <trkpt lat="42.541495" lon="-9.030955">
        <ele>58.023</ele>
        <time>2017-04-08T12:56:02Z</time>
      </trkpt>
      <trkpt lat="42.541434" lon="-9.031054">
        <ele>57.025</ele>
        <time>2017-04-08T12:56:10Z</time>
      </trkpt>
      <trkpt lat="42.541399" lon="-9.031181">
        <ele>57.008</ele>
        <time>2017-04-08T12:56:17Z</time>
      </trkpt>
      <trkpt lat="42.541367" lon="-9.031299">
        <ele>55.020</ele>
        <time>2017-04-08T12:56:23Z</time>
      </trkpt>
      <trkpt lat="42.541343" lon="-9.031432">
        <ele>54.056</ele>
        <time>2017-04-08T12:56:31Z</time>
      </trkpt>
      <trkpt lat="42.541299" lon="-9.031560">
        <ele>53.044</ele>
        <time>2017-04-08T12:56:37Z</time>
      </trkpt>
      <trkpt lat="42.541248" lon="-9.031670">
        <ele>56.012</ele>
        <time>2017-04-08T12:56:44Z</time>
      </trkpt>
      <trkpt lat="42.541169" lon="-9.031759">
        <ele>57.076</ele>
        <time>2017-04-08T12:56:52Z</time>
      </trkpt>
      <trkpt lat="42.541087" lon="-9.031832">
        <ele>58.085</ele>
        <time>2017-04-08T12:57:00Z</time>
      </trkpt>
      <trkpt lat="42.541021" lon="-9.031918">
        <ele>58.024</ele>
        <time>2017-04-08T12:57:07Z</time>
      </trkpt>
      <trkpt lat="42.540933" lon="-9.031998">
        <ele>57.078</ele>
        <time>2017-04-08T12:57:23Z</time>
      </trkpt>
      <trkpt lat="42.540865" lon="-9.032101">
        <ele>58.095</ele>
        <time>2017-04-08T12:57:29Z</time>
      </trkpt>
      <trkpt lat="42.540789" lon="-9.032200">
        <ele>59.049</ele>
        <time>2017-04-08T12:57:36Z</time>
      </trkpt>
      <trkpt lat="42.540718" lon="-9.032279">
        <ele>58.023</ele>
        <time>2017-04-08T12:57:41Z</time>
      </trkpt>
      <trkpt lat="42.540627" lon="-9.032327">
        <ele>58.008</ele>
        <time>2017-04-08T12:57:47Z</time>
      </trkpt>
      <trkpt lat="42.540547" lon="-9.032391">
        <ele>58.040</ele>
        <time>2017-04-08T12:57:53Z</time>
      </trkpt>
      <trkpt lat="42.540468" lon="-9.032470">
        <ele>61.086</ele>
        <time>2017-04-08T12:57:59Z</time>
      </trkpt>
      <trkpt lat="42.540389" lon="-9.032548">
        <ele>61.064</ele>
        <time>2017-04-08T12:58:05Z</time>
      </trkpt>
      <trkpt lat="42.540321" lon="-9.032632">
        <ele>61.052</ele>
        <time>2017-04-08T12:58:12Z</time>
      </trkpt>
      <trkpt lat="42.540249" lon="-9.032736">
        <ele>63.096</ele>
        <time>2017-04-08T12:58:20Z</time>
      </trkpt>
      <trkpt lat="42.540190" lon="-9.032848">
        <ele>64.075</ele>
        <time>2017-04-08T12:58:27Z</time>
      </trkpt>
      <trkpt lat="42.540117" lon="-9.032948">
        <ele>63.014</ele>
        <time>2017-04-08T12:58:34Z</time>
      </trkpt>
      <trkpt lat="42.540052" lon="-9.033048">
        <ele>64.058</ele>
        <time>2017-04-08T12:58:41Z</time>
      </trkpt>
      <trkpt lat="42.539979" lon="-9.033148">
        <ele>63.094</ele>
        <time>2017-04-08T12:58:49Z</time>
      </trkpt>
      <trkpt lat="42.539903" lon="-9.033236">
        <ele>63.057</ele>
        <time>2017-04-08T12:58:56Z</time>
      </trkpt>
      <trkpt lat="42.539822" lon="-9.033311">
        <ele>63.022</ele>
        <time>2017-04-08T12:59:01Z</time>
      </trkpt>
      <trkpt lat="42.539724" lon="-9.033366">
        <ele>63.008</ele>
        <time>2017-04-08T12:59:08Z</time>
      </trkpt>
      <trkpt lat="42.539621" lon="-9.033408">
        <ele>64.080</ele>
        <time>2017-04-08T12:59:17Z</time>
      </trkpt>
      <trkpt lat="42.539534" lon="-9.033446">
        <ele>64.076</ele>
        <time>2017-04-08T12:59:24Z</time>
      </trkpt>
      <trkpt lat="42.539443" lon="-9.033504">
        <ele>66.094</ele>
        <time>2017-04-08T12:59:31Z</time>
      </trkpt>
      <trkpt lat="42.539350" lon="-9.033545">
        <ele>65.052</ele>
        <time>2017-04-08T12:59:37Z</time>
      </trkpt>
      <trkpt lat="42.539258" lon="-9.033536">
        <ele>65.056</ele>
        <time>2017-04-08T12:59:44Z</time>
      </trkpt>
      <trkpt lat="42.539163" lon="-9.033561">
        <ele>66.035</ele>
        <time>2017-04-08T12:59:51Z</time>
      </trkpt>
      <trkpt lat="42.539069" lon="-9.033594">
        <ele>65.024</ele>
        <time>2017-04-08T12:59:58Z</time>
      </trkpt>
      <trkpt lat="42.538970" lon="-9.033618">
        <ele>66.078</ele>
        <time>2017-04-08T13:00:05Z</time>
      </trkpt>
      <trkpt lat="42.538870" lon="-9.033641">
        <ele>67.035</ele>
        <time>2017-04-08T13:00:12Z</time>
      </trkpt>
      <trkpt lat="42.538792" lon="-9.033707">
        <ele>65.086</ele>
        <time>2017-04-08T13:00:17Z</time>
      </trkpt>
      <trkpt lat="42.538709" lon="-9.033763">
        <ele>65.014</ele>
        <time>2017-04-08T13:00:23Z</time>
      </trkpt>
      <trkpt lat="42.538631" lon="-9.033851">
        <ele>65.008</ele>
        <time>2017-04-08T13:00:30Z</time>
      </trkpt>
      <trkpt lat="42.538555" lon="-9.033923">
        <ele>64.054</ele>
        <time>2017-04-08T13:00:37Z</time>
      </trkpt>
      <trkpt lat="42.538490" lon="-9.034018">
        <ele>64.050</ele>
        <time>2017-04-08T13:00:43Z</time>
      </trkpt>
      <trkpt lat="42.538424" lon="-9.034113">
        <ele>65.028</ele>
        <time>2017-04-08T13:00:49Z</time>
      </trkpt>
      <trkpt lat="42.538363" lon="-9.034222">
        <ele>67.056</ele>
        <time>2017-04-08T13:00:56Z</time>
      </trkpt>
      <trkpt lat="42.538317" lon="-9.034338">
        <ele>67.060</ele>
        <time>2017-04-08T13:01:04Z</time>
      </trkpt>
      <trkpt lat="42.538273" lon="-9.034448">
        <ele>69.019</ele>
        <time>2017-04-08T13:01:11Z</time>
      </trkpt>
      <trkpt lat="42.538207" lon="-9.034551">
        <ele>68.078</ele>
        <time>2017-04-08T13:01:18Z</time>
      </trkpt>
      <trkpt lat="42.538150" lon="-9.034667">
        <ele>71.072</ele>
        <time>2017-04-08T13:01:25Z</time>
      </trkpt>
      <trkpt lat="42.538074" lon="-9.034766">
        <ele>72.048</ele>
        <time>2017-04-08T13:01:33Z</time>
      </trkpt>
      <trkpt lat="42.538010" lon="-9.034853">
        <ele>71.061</ele>
        <time>2017-04-08T13:01:39Z</time>
      </trkpt>
      <trkpt lat="42.537931" lon="-9.034930">
        <ele>69.017</ele>
        <time>2017-04-08T13:01:47Z</time>
      </trkpt>
      <trkpt lat="42.537838" lon="-9.034977">
        <ele>74.008</ele>
        <time>2017-04-08T13:01:55Z</time>
      </trkpt>
      <trkpt lat="42.537777" lon="-9.035071">
        <ele>73.035</ele>
        <time>2017-04-08T13:02:03Z</time>
      </trkpt>
      <trkpt lat="42.537870" lon="-9.035109">
        <ele>72.091</ele>
        <time>2017-04-08T13:02:30Z</time>
      </trkpt>
      <trkpt lat="42.537962" lon="-9.035166">
        <ele>71.069</ele>
        <time>2017-04-08T13:02:36Z</time>
      </trkpt>
      <trkpt lat="42.538056" lon="-9.035196">
        <ele>72.037</ele>
        <time>2017-04-08T13:02:43Z</time>
      </trkpt>
      <trkpt lat="42.538147" lon="-9.035240">
        <ele>71.031</ele>
        <time>2017-04-08T13:02:50Z</time>
      </trkpt>
      <trkpt lat="42.538241" lon="-9.035292">
        <ele>70.060</ele>
        <time>2017-04-08T13:02:57Z</time>
      </trkpt>
      <trkpt lat="42.538310" lon="-9.035380">
        <ele>69.069</ele>
        <time>2017-04-08T13:03:04Z</time>
      </trkpt>
      <trkpt lat="42.538387" lon="-9.035448">
        <ele>69.063</ele>
        <time>2017-04-08T13:03:13Z</time>
      </trkpt>
      <trkpt lat="42.538451" lon="-9.035547">
        <ele>68.052</ele>
        <time>2017-04-08T13:03:20Z</time>
      </trkpt>
      <trkpt lat="42.538525" lon="-9.035657">
        <ele>68.053</ele>
        <time>2017-04-08T13:03:28Z</time>
      </trkpt>
      <trkpt lat="42.538611" lon="-9.035739">
        <ele>68.008</ele>
        <time>2017-04-08T13:03:36Z</time>
      </trkpt>
      <trkpt lat="42.538671" lon="-9.035840">
        <ele>70.008</ele>
        <time>2017-04-08T13:03:43Z</time>
      </trkpt>
      <trkpt lat="42.538705" lon="-9.035953">
        <ele>68.016</ele>
        <time>2017-04-08T13:03:50Z</time>
      </trkpt>
      <trkpt lat="42.538704" lon="-9.036079">
        <ele>67.042</ele>
        <time>2017-04-08T13:03:57Z</time>
      </trkpt>
      <trkpt lat="42.538736" lon="-9.036198">
        <ele>68.070</ele>
        <time>2017-04-08T13:04:04Z</time>
      </trkpt>
      <trkpt lat="42.538790" lon="-9.036317">
        <ele>67.028</ele>
        <time>2017-04-08T13:04:10Z</time>
      </trkpt>
      <trkpt lat="42.538827" lon="-9.036432">
        <ele>64.072</ele>
        <time>2017-04-08T13:04:16Z</time>
      </trkpt>
      <trkpt lat="42.538871" lon="-9.036556">
        <ele>64.031</ele>
        <time>2017-04-08T13:04:24Z</time>
      </trkpt>
      <trkpt lat="42.538876" lon="-9.036687">
        <ele>61.050</ele>
        <time>2017-04-08T13:04:32Z</time>
      </trkpt>
      <trkpt lat="42.538875" lon="-9.036818">
        <ele>63.014</ele>
        <time>2017-04-08T13:04:48Z</time>
      </trkpt>
      <trkpt lat="42.538871" lon="-9.036949">
        <ele>63.097</ele>
        <time>2017-04-08T13:04:54Z</time>
      </trkpt>
      <trkpt lat="42.538877" lon="-9.037076">
        <ele>63.023</ele>
        <time>2017-04-08T13:05:00Z</time>
      </trkpt>
      <trkpt lat="42.538871" lon="-9.037207">
        <ele>63.025</ele>
        <time>2017-04-08T13:05:06Z</time>
      </trkpt>
      <trkpt lat="42.538856" lon="-9.037340">
        <ele>63.008</ele>
        <time>2017-04-08T13:05:13Z</time>
      </trkpt>
      <trkpt lat="42.538805" lon="-9.037444">
        <ele>63.090</ele>
        <time>2017-04-08T13:05:20Z</time>
      </trkpt>
      <trkpt lat="42.538723" lon="-9.037496">
        <ele>62.046</ele>
        <time>2017-04-08T13:05:26Z</time>
      </trkpt>
      <trkpt lat="42.538630" lon="-9.037543">
        <ele>61.014</ele>
        <time>2017-04-08T13:05:32Z</time>
      </trkpt>
      <trkpt lat="42.538545" lon="-9.037586">
        <ele>62.052</ele>
        <time>2017-04-08T13:05:45Z</time>
      </trkpt>
      <trkpt lat="42.538446" lon="-9.037606">
        <ele>61.096</ele>
        <time>2017-04-08T13:05:51Z</time>
      </trkpt>
      <trkpt lat="42.538342" lon="-9.037645">
        <ele>62.055</ele>
        <time>2017-04-08T13:05:59Z</time>
      </trkpt>
      <trkpt lat="42.538248" lon="-9.037669">
        <ele>61.034</ele>
        <time>2017-04-08T13:06:06Z</time>
      </trkpt>
      <trkpt lat="42.538151" lon="-9.037656">
        <ele>64.068</ele>
        <time>2017-04-08T13:06:13Z</time>
      </trkpt>
      <trkpt lat="42.538060" lon="-9.037664">
        <ele>63.016</ele>
        <time>2017-04-08T13:06:19Z</time>
      </trkpt>
      <trkpt lat="42.537968" lon="-9.037688">
        <ele>62.076</ele>
        <time>2017-04-08T13:06:25Z</time>
      </trkpt>
      <trkpt lat="42.537874" lon="-9.037711">
        <ele>61.013</ele>
        <time>2017-04-08T13:06:32Z</time>
      </trkpt>
      <trkpt lat="42.537771" lon="-9.037742">
        <ele>61.008</ele>
        <time>2017-04-08T13:06:38Z</time>
      </trkpt>
      <trkpt lat="42.537677" lon="-9.037756">
        <ele>61.082</ele>
        <time>2017-04-08T13:06:45Z</time>
      </trkpt>
      <trkpt lat="42.537576" lon="-9.037768">
        <ele>60.028</ele>
        <time>2017-04-08T13:06:52Z</time>
      </trkpt>
      <trkpt lat="42.537485" lon="-9.037754">
        <ele>61.026</ele>
        <time>2017-04-08T13:06:59Z</time>
      </trkpt>
      <trkpt lat="42.537397" lon="-9.037809">
        <ele>59.034</ele>
        <time>2017-04-08T13:07:05Z</time>
      </trkpt>
      <trkpt lat="42.537311" lon="-9.037887">
        <ele>60.048</ele>
        <time>2017-04-08T13:07:13Z</time>
      </trkpt>
      <trkpt lat="42.537213" lon="-9.037951">
        <ele>60.037</ele>
        <time>2017-04-08T13:07:20Z</time>
      </trkpt>
      <trkpt lat="42.537124" lon="-9.037973">
        <ele>60.076</ele>
        <time>2017-04-08T13:07:26Z</time>
      </trkpt>
      <trkpt lat="42.537029" lon="-9.037987">
        <ele>61.010</ele>
        <time>2017-04-08T13:07:33Z</time>
      </trkpt>
      <trkpt lat="42.536965" lon="-9.038084">
        <ele>61.053</ele>
        <time>2017-04-08T13:07:41Z</time>
      </trkpt>
      <trkpt lat="42.536888" lon="-9.038150">
        <ele>61.004</ele>
        <time>2017-04-08T13:07:48Z</time>
      </trkpt>
      <trkpt lat="42.536820" lon="-9.038234">
        <ele>61.014</ele>
        <time>2017-04-08T13:07:55Z</time>
      </trkpt>
      <trkpt lat="42.536742" lon="-9.038317">
        <ele>61.008</ele>
        <time>2017-04-08T13:08:02Z</time>
      </trkpt>
      <trkpt lat="42.536655" lon="-9.038372">
        <ele>60.066</ele>
        <time>2017-04-08T13:08:08Z</time>
      </trkpt>
      <trkpt lat="42.536574" lon="-9.038441">
        <ele>61.022</ele>
        <time>2017-04-08T13:08:15Z</time>
      </trkpt>
      <trkpt lat="42.536500" lon="-9.038518">
        <ele>63.090</ele>
        <time>2017-04-08T13:08:21Z</time>
      </trkpt>
      <trkpt lat="42.536421" lon="-9.038586">
        <ele>60.048</ele>
        <time>2017-04-08T13:08:43Z</time>
      </trkpt>
      <trkpt lat="42.536413" lon="-9.038726">
        <ele>60.092</ele>
        <time>2017-04-08T13:08:52Z</time>
      </trkpt>
      <trkpt lat="42.536442" lon="-9.038846">
        <ele>60.091</ele>
        <time>2017-04-08T13:08:59Z</time>
      </trkpt>
      <trkpt lat="42.536456" lon="-9.038986">
        <ele>62.060</ele>
        <time>2017-04-08T13:09:10Z</time>
      </trkpt>
      <trkpt lat="42.536468" lon="-9.039119">
        <ele>59.064</ele>
        <time>2017-04-08T13:09:16Z</time>
      </trkpt>
      <trkpt lat="42.536484" lon="-9.039245">
        <ele>57.082</ele>
        <time>2017-04-08T13:09:23Z</time>
      </trkpt>
      <trkpt lat="42.536500" lon="-9.039370">
        <ele>58.043</ele>
        <time>2017-04-08T13:09:43Z</time>
      </trkpt>
      <trkpt lat="42.536523" lon="-9.039506">
        <ele>57.017</ele>
        <time>2017-04-08T13:09:50Z</time>
      </trkpt>
      <trkpt lat="42.536550" lon="-9.039623">
        <ele>56.008</ele>
        <time>2017-04-08T13:09:56Z</time>
      </trkpt>
      <trkpt lat="42.536565" lon="-9.039744">
        <ele>54.069</ele>
        <time>2017-04-08T13:10:03Z</time>
      </trkpt>
      <trkpt lat="42.536556" lon="-9.039867">
        <ele>58.045</ele>
        <time>2017-04-08T13:10:12Z</time>
      </trkpt>
      <trkpt lat="42.536503" lon="-9.039978">
        <ele>60.043</ele>
        <time>2017-04-08T13:10:20Z</time>
      </trkpt>
      <trkpt lat="42.536464" lon="-9.040096">
        <ele>61.071</ele>
        <time>2017-04-08T13:10:27Z</time>
      </trkpt>
      <trkpt lat="42.536419" lon="-9.040213">
        <ele>63.085</ele>
        <time>2017-04-08T13:10:34Z</time>
      </trkpt>
      <trkpt lat="42.536334" lon="-9.040282">
        <ele>62.094</ele>
        <time>2017-04-08T13:10:40Z</time>
      </trkpt>
      <trkpt lat="42.536284" lon="-9.040389">
        <ele>59.093</ele>
        <time>2017-04-08T13:10:47Z</time>
      </trkpt>
      <trkpt lat="42.536271" lon="-9.040512">
        <ele>58.037</ele>
        <time>2017-04-08T13:11:01Z</time>
      </trkpt>
      <trkpt lat="42.536190" lon="-9.040583">
        <ele>59.042</ele>
        <time>2017-04-08T13:11:17Z</time>
      </trkpt>
      <trkpt lat="42.536101" lon="-9.040558">
        <ele>61.022</ele>
        <time>2017-04-08T13:11:36Z</time>
      </trkpt>
      <trkpt lat="42.535997" lon="-9.040537">
        <ele>59.014</ele>
        <time>2017-04-08T13:11:51Z</time>
      </trkpt>
      <trkpt lat="42.535913" lon="-9.040491">
        <ele>66.008</ele>
        <time>2017-04-08T13:12:04Z</time>
      </trkpt>
      <trkpt lat="42.535815" lon="-9.040470">
        <ele>68.015</ele>
        <time>2017-04-08T13:12:19Z</time>
      </trkpt>
      <trkpt lat="42.535724" lon="-9.040434">
        <ele>67.081</ele>
        <time>2017-04-08T13:12:41Z</time>
      </trkpt>
      <trkpt lat="42.535641" lon="-9.040347">
        <ele>66.039</ele>
        <time>2017-04-08T13:12:49Z</time>
      </trkpt>
      <trkpt lat="42.535571" lon="-9.040271">
        <ele>66.087</ele>
        <time>2017-04-08T13:13:16Z</time>
      </trkpt>
      <trkpt lat="42.535499" lon="-9.040187">
        <ele>67.021</ele>
        <time>2017-04-08T13:13:25Z</time>
      </trkpt>
      <trkpt lat="42.535427" lon="-9.040081">
        <ele>74.030</ele>
        <time>2017-04-08T13:13:36Z</time>
      </trkpt>
      <trkpt lat="42.535368" lon="-9.039978">
        <ele>75.099</ele>
        <time>2017-04-08T13:13:52Z</time>
      </trkpt>
      <trkpt lat="42.535296" lon="-9.039886">
        <ele>72.013</ele>
        <time>2017-04-08T13:14:07Z</time>
      </trkpt>
      <trkpt lat="42.535213" lon="-9.039811">
        <ele>72.035</ele>
        <time>2017-04-08T13:14:15Z</time>
      </trkpt>
      <trkpt lat="42.535121" lon="-9.039788">
        <ele>72.086</ele>
        <time>2017-04-08T13:14:23Z</time>
      </trkpt>
      <trkpt lat="42.535041" lon="-9.039848">
        <ele>71.014</ele>
        <time>2017-04-08T13:15:02Z</time>
      </trkpt>
      <trkpt lat="42.534958" lon="-9.039900">
        <ele>69.008</ele>
        <time>2017-04-08T13:15:12Z</time>
      </trkpt>
      <trkpt lat="42.534882" lon="-9.039987">
        <ele>69.014</ele>
        <time>2017-04-08T13:15:21Z</time>
      </trkpt>
      <trkpt lat="42.534809" lon="-9.040060">
        <ele>68.050</ele>
        <time>2017-04-08T13:15:42Z</time>
      </trkpt>
      <trkpt lat="42.534712" lon="-9.040092">
        <ele>69.038</ele>
        <time>2017-04-08T13:15:51Z</time>
      </trkpt>
      <trkpt lat="42.534626" lon="-9.040146">
        <ele>73.086</ele>
        <time>2017-04-08T13:16:04Z</time>
      </trkpt>
      <trkpt lat="42.534560" lon="-9.040064">
        <ele>76.080</ele>
        <time>2017-04-08T13:16:28Z</time>
      </trkpt>
      <trkpt lat="42.534516" lon="-9.039947">
        <ele>76.019</ele>
        <time>2017-04-08T13:16:43Z</time>
      </trkpt>
      <trkpt lat="42.534420" lon="-9.039917">
        <ele>76.088</ele>
        <time>2017-04-08T13:17:40Z</time>
      </trkpt>
      <trkpt lat="42.534328" lon="-9.039878">
        <ele>80.082</ele>
        <time>2017-04-08T13:18:12Z</time>
      </trkpt>
      <trkpt lat="42.534277" lon="-9.039773">
        <ele>75.051</ele>
        <time>2017-04-08T13:18:41Z</time>
      </trkpt>
      <trkpt lat="42.534199" lon="-9.039696">
        <ele>73.001</ele>
        <time>2017-04-08T13:19:44Z</time>
      </trkpt>
      <trkpt lat="42.534148" lon="-9.039584">
        <ele>70.011</ele>
        <time>2017-04-08T13:19:53Z</time>
      </trkpt>
      <trkpt lat="42.534052" lon="-9.039601">
        <ele>74.008</ele>
        <time>2017-04-08T13:20:00Z</time>
      </trkpt>
      <trkpt lat="42.534001" lon="-9.039704">
        <ele>68.086</ele>
        <time>2017-04-08T13:20:11Z</time>
      </trkpt>
      <trkpt lat="42.533954" lon="-9.039810">
        <ele>66.042</ele>
        <time>2017-04-08T13:20:18Z</time>
      </trkpt>
      <trkpt lat="42.533856" lon="-9.039799">
        <ele>65.020</ele>
        <time>2017-04-08T13:20:30Z</time>
      </trkpt>
      <trkpt lat="42.533759" lon="-9.039753">
        <ele>63.018</ele>
        <time>2017-04-08T13:20:40Z</time>
      </trkpt>
      <trkpt lat="42.533668" lon="-9.039746">
        <ele>65.082</ele>
        <time>2017-04-08T13:20:50Z</time>
      </trkpt>
      <trkpt lat="42.533566" lon="-9.039730">
        <ele>66.081</ele>
        <time>2017-04-08T13:21:02Z</time>
      </trkpt>
      <trkpt lat="42.533476" lon="-9.039717">
        <ele>67.040</ele>
        <time>2017-04-08T13:21:12Z</time>
      </trkpt>
      <trkpt lat="42.533378" lon="-9.039737">
        <ele>65.054</ele>
        <time>2017-04-08T13:21:27Z</time>
      </trkpt>
      <trkpt lat="42.533276" lon="-9.039731">
        <ele>66.091</ele>
        <time>2017-04-08T13:21:37Z</time>
      </trkpt>
      <trkpt lat="42.533183" lon="-9.039739">
        <ele>63.081</ele>
        <time>2017-04-08T13:21:46Z</time>
      </trkpt>
      <trkpt lat="42.533092" lon="-9.039711">
        <ele>60.019</ele>
        <time>2017-04-08T13:21:58Z</time>
      </trkpt>
      <trkpt lat="42.533005" lon="-9.039670">
        <ele>60.008</ele>
        <time>2017-04-08T13:22:04Z</time>
      </trkpt>
      <trkpt lat="42.532900" lon="-9.039654">
        <ele>60.080</ele>
        <time>2017-04-08T13:22:11Z</time>
      </trkpt>
      <trkpt lat="42.532821" lon="-9.039586">
        <ele>59.036</ele>
        <time>2017-04-08T13:22:18Z</time>
      </trkpt>
      <trkpt lat="42.532723" lon="-9.039571">
        <ele>62.074</ele>
        <time>2017-04-08T13:22:25Z</time>
      </trkpt>
      <trkpt lat="42.532631" lon="-9.039572">
        <ele>63.032</ele>
        <time>2017-04-08T13:22:34Z</time>
      </trkpt>
      <trkpt lat="42.532540" lon="-9.039537">
        <ele>62.046</ele>
        <time>2017-04-08T13:22:41Z</time>
      </trkpt>
      <trkpt lat="42.532448" lon="-9.039491">
        <ele>63.095</ele>
        <time>2017-04-08T13:22:49Z</time>
      </trkpt>
      <trkpt lat="42.532344" lon="-9.039490">
        <ele>62.024</ele>
        <time>2017-04-08T13:22:58Z</time>
      </trkpt>
      <trkpt lat="42.532261" lon="-9.039565">
        <ele>64.038</ele>
        <time>2017-04-08T13:23:11Z</time>
      </trkpt>
      <trkpt lat="42.532193" lon="-9.039647">
        <ele>61.011</ele>
        <time>2017-04-08T13:24:33Z</time>
      </trkpt>
      <trkpt lat="42.532130" lon="-9.039742">
        <ele>61.021</ele>
        <time>2017-04-08T13:24:45Z</time>
      </trkpt>
      <trkpt lat="42.532031" lon="-9.039752">
        <ele>64.003</ele>
        <time>2017-04-08T13:24:58Z</time>
      </trkpt>
      <trkpt lat="42.531951" lon="-9.039690">
        <ele>60.008</ele>
        <time>2017-04-08T13:25:24Z</time>
      </trkpt>
      <trkpt lat="42.531850" lon="-9.039715">
        <ele>59.082</ele>
        <time>2017-04-08T13:25:34Z</time>
      </trkpt>
      <trkpt lat="42.531757" lon="-9.039730">
        <ele>57.058</ele>
        <time>2017-04-08T13:25:42Z</time>
      </trkpt>
      <trkpt lat="42.531662" lon="-9.039692">
        <ele>56.096</ele>
        <time>2017-04-08T13:25:50Z</time>
      </trkpt>
      <trkpt lat="42.531580" lon="-9.039640">
        <ele>58.074</ele>
        <time>2017-04-08T13:25:57Z</time>
      </trkpt>
      <trkpt lat="42.531489" lon="-9.039593">
        <ele>62.078</ele>
        <time>2017-04-08T13:26:06Z</time>
      </trkpt>
      <trkpt lat="42.531398" lon="-9.039563">
        <ele>64.037</ele>
        <time>2017-04-08T13:26:15Z</time>
      </trkpt>
      <trkpt lat="42.531308" lon="-9.039598">
        <ele>63.046</ele>
        <time>2017-04-08T13:27:07Z</time>
      </trkpt>
      <trkpt lat="42.531238" lon="-9.039683">
        <ele>61.010</ele>
        <time>2017-04-08T13:27:15Z</time>
      </trkpt>
      <trkpt lat="42.531182" lon="-9.039779">
        <ele>61.028</ele>
        <time>2017-04-08T13:27:22Z</time>
      </trkpt>
      <trkpt lat="42.531099" lon="-9.039879">
        <ele>60.089</ele>
        <time>2017-04-08T13:27:28Z</time>
      </trkpt>
      <trkpt lat="42.531002" lon="-9.039890">
        <ele>59.017</ele>
        <time>2017-04-08T13:27:43Z</time>
      </trkpt>
      <trkpt lat="42.530904" lon="-9.039899">
        <ele>59.008</ele>
        <time>2017-04-08T13:27:53Z</time>
      </trkpt>
      <trkpt lat="42.530838" lon="-9.039795">
        <ele>58.093</ele>
        <time>2017-04-08T13:28:03Z</time>
      </trkpt>
      <trkpt lat="42.530781" lon="-9.039689">
        <ele>59.079</ele>
        <time>2017-04-08T13:28:28Z</time>
      </trkpt>
      <trkpt lat="42.530697" lon="-9.039638">
        <ele>58.067</ele>
        <time>2017-04-08T13:28:39Z</time>
      </trkpt>
      <trkpt lat="42.530600" lon="-9.039617">
        <ele>59.055</ele>
        <time>2017-04-08T13:28:52Z</time>
      </trkpt>
      <trkpt lat="42.530519" lon="-9.039548">
        <ele>58.039</ele>
        <time>2017-04-08T13:29:15Z</time>
      </trkpt>
      <trkpt lat="42.530528" lon="-9.039414">
        <ele>58.068</ele>
        <time>2017-04-08T13:29:24Z</time>
      </trkpt>
      <trkpt lat="42.530480" lon="-9.039299">
        <ele>60.037</ele>
        <time>2017-04-08T13:29:35Z</time>
      </trkpt>
      <trkpt lat="42.530392" lon="-9.039217">
        <ele>59.041</ele>
        <time>2017-04-08T13:29:46Z</time>
      </trkpt>
      <trkpt lat="42.530307" lon="-9.039159">
        <ele>57.088</ele>
        <time>2017-04-08T13:30:49Z</time>
      </trkpt>
      <trkpt lat="42.530246" lon="-9.039061">
        <ele>56.024</ele>
        <time>2017-04-08T13:31:01Z</time>
      </trkpt>
      <trkpt lat="42.530242" lon="-9.038935">
        <ele>56.026</ele>
        <time>2017-04-08T13:31:11Z</time>
      </trkpt>
      <trkpt lat="42.530234" lon="-9.038811">
        <ele>57.008</ele>
        <time>2017-04-08T13:31:22Z</time>
      </trkpt>
      <trkpt lat="42.530217" lon="-9.038674">
        <ele>62.089</ele>
        <time>2017-04-08T13:31:30Z</time>
      </trkpt>
      <trkpt lat="42.530217" lon="-9.038542">
        <ele>63.065</ele>
        <time>2017-04-08T13:31:39Z</time>
      </trkpt>
      <trkpt lat="42.530153" lon="-9.038436">
        <ele>65.063</ele>
        <time>2017-04-08T13:31:49Z</time>
      </trkpt>
      <trkpt lat="42.530082" lon="-9.038339">
        <ele>63.041</ele>
        <time>2017-04-08T13:31:59Z</time>
      </trkpt>
      <trkpt lat="42.530009" lon="-9.038251">
        <ele>63.015</ele>
        <time>2017-04-08T13:32:08Z</time>
      </trkpt>
      <trkpt lat="42.529971" lon="-9.038129">
        <ele>66.024</ele>
        <time>2017-04-08T13:32:18Z</time>
      </trkpt>
      <trkpt lat="42.529897" lon="-9.038205">
        <ele>70.053</ele>
        <time>2017-04-08T13:32:34Z</time>
      </trkpt>
      <trkpt lat="42.529841" lon="-9.038305">
        <ele>71.047</ele>
        <time>2017-04-08T13:32:44Z</time>
      </trkpt>
      <trkpt lat="42.529760" lon="-9.038432">
        <ele>74.034</ele>
        <time>2017-04-08T13:32:52Z</time>
      </trkpt>
      <trkpt lat="42.529678" lon="-9.038497">
        <ele>73.055</ele>
        <time>2017-04-08T13:33:01Z</time>
      </trkpt>
      <trkpt lat="42.529606" lon="-9.038586">
        <ele>72.010</ele>
        <time>2017-04-08T13:33:37Z</time>
      </trkpt>
      <trkpt lat="42.529516" lon="-9.038655">
        <ele>68.008</ele>
        <time>2017-04-08T13:33:46Z</time>
      </trkpt>
      <trkpt lat="42.529449" lon="-9.038738">
        <ele>68.094</ele>
        <time>2017-04-08T13:33:54Z</time>
      </trkpt>
      <trkpt lat="42.529376" lon="-9.038826">
        <ele>67.020</ele>
        <time>2017-04-08T13:34:03Z</time>
      </trkpt>
      <trkpt lat="42.529289" lon="-9.038863">
        <ele>66.098</ele>
        <time>2017-04-08T13:34:11Z</time>
      </trkpt>
      <trkpt lat="42.529191" lon="-9.038846">
        <ele>66.056</ele>
        <time>2017-04-08T13:34:19Z</time>
      </trkpt>
      <trkpt lat="42.529174" lon="-9.038973">
        <ele>65.010</ele>
        <time>2017-04-08T13:34:29Z</time>
      </trkpt>
      <trkpt lat="42.529225" lon="-9.039074">
        <ele>65.079</ele>
        <time>2017-04-08T13:34:37Z</time>
      </trkpt>
      <trkpt lat="42.529286" lon="-9.039179">
        <ele>63.038</ele>
        <time>2017-04-08T13:34:45Z</time>
      </trkpt>
      <trkpt lat="42.529247" lon="-9.039303">
        <ele>59.022</ele>
        <time>2017-04-08T13:34:53Z</time>
      </trkpt>
      <trkpt lat="42.529227" lon="-9.039438">
        <ele>62.094</ele>
        <time>2017-04-08T13:35:02Z</time>
      </trkpt>
      <trkpt lat="42.529197" lon="-9.039565">
        <ele>62.057</ele>
        <time>2017-04-08T13:35:09Z</time>
      </trkpt>
      <trkpt lat="42.529159" lon="-9.039681">
        <ele>61.022</ele>
        <time>2017-04-08T13:35:20Z</time>
      </trkpt>
      <trkpt lat="42.529118" lon="-9.039790">
        <ele>60.008</ele>
        <time>2017-04-08T13:35:27Z</time>
      </trkpt>
      <trkpt lat="42.529061" lon="-9.039898">
        <ele>59.030</ele>
        <time>2017-04-08T13:35:36Z</time>
      </trkpt>
      <trkpt lat="42.529010" lon="-9.040018">
        <ele>59.066</ele>
        <time>2017-04-08T13:35:44Z</time>
      </trkpt>
      <trkpt lat="42.528953" lon="-9.040134">
        <ele>60.044</ele>
        <time>2017-04-08T13:35:51Z</time>
      </trkpt>
      <trkpt lat="42.528887" lon="-9.040236">
        <ele>61.042</ele>
        <time>2017-04-08T13:35:59Z</time>
      </trkpt>
      <trkpt lat="42.528864" lon="-9.040357">
        <ele>62.076</ele>
        <time>2017-04-08T13:36:06Z</time>
      </trkpt>
      <trkpt lat="42.528808" lon="-9.040474">
        <ele>61.025</ele>
        <time>2017-04-08T13:36:15Z</time>
      </trkpt>
      <trkpt lat="42.528754" lon="-9.040578">
        <ele>59.094</ele>
        <time>2017-04-08T13:36:22Z</time>
      </trkpt>
      <trkpt lat="42.528698" lon="-9.040683">
        <ele>60.088</ele>
        <time>2017-04-08T13:36:40Z</time>
      </trkpt>
      <trkpt lat="42.528639" lon="-9.040777">
        <ele>60.026</ele>
        <time>2017-04-08T13:36:46Z</time>
      </trkpt>
      <trkpt lat="42.528538" lon="-9.040784">
        <ele>63.047</ele>
        <time>2017-04-08T13:37:06Z</time>
      </trkpt>
      <trkpt lat="42.528443" lon="-9.040757">
        <ele>62.011</ele>
        <time>2017-04-08T13:37:14Z</time>
      </trkpt>
      <trkpt lat="42.528345" lon="-9.040756">
        <ele>63.008</ele>
        <time>2017-04-08T13:37:21Z</time>
      </trkpt>
      <trkpt lat="42.528253" lon="-9.040751">
        <ele>64.093</ele>
        <time>2017-04-08T13:37:28Z</time>
      </trkpt>
      <trkpt lat="42.528149" lon="-9.040714">
        <ele>62.089</ele>
        <time>2017-04-08T13:37:34Z</time>
      </trkpt>
      <trkpt lat="42.528042" lon="-9.040698">
        <ele>63.017</ele>
        <time>2017-04-08T13:37:44Z</time>
      </trkpt>
      <trkpt lat="42.527953" lon="-9.040735">
        <ele>64.035</ele>
        <time>2017-04-08T13:37:53Z</time>
      </trkpt>
      <trkpt lat="42.527889" lon="-9.040837">
        <ele>66.089</ele>
        <time>2017-04-08T13:38:01Z</time>
      </trkpt>
      <trkpt lat="42.527803" lon="-9.040888">
        <ele>66.048</ele>
        <time>2017-04-08T13:38:08Z</time>
      </trkpt>
      <trkpt lat="42.527705" lon="-9.040873">
        <ele>66.037</ele>
        <time>2017-04-08T13:38:16Z</time>
      </trkpt>
      <trkpt lat="42.527625" lon="-9.040931">
        <ele>70.021</ele>
        <time>2017-04-08T13:38:24Z</time>
      </trkpt>
      <trkpt lat="42.527537" lon="-9.040961">
        <ele>70.041</ele>
        <time>2017-04-08T13:38:50Z</time>
      </trkpt>
      <trkpt lat="42.527436" lon="-9.040966">
        <ele>69.081</ele>
        <time>2017-04-08T13:38:58Z</time>
      </trkpt>
      <trkpt lat="42.527341" lon="-9.040980">
        <ele>68.009</ele>
        <time>2017-04-08T13:39:05Z</time>
      </trkpt>
      <trkpt lat="42.527241" lon="-9.040975">
        <ele>69.008</ele>
        <time>2017-04-08T13:39:13Z</time>
      </trkpt>
      <trkpt lat="42.527150" lon="-9.040940">
        <ele>70.055</ele>
        <time>2017-04-08T13:39:23Z</time>
      </trkpt>
      <trkpt lat="42.527059" lon="-9.040927">
        <ele>69.021</ele>
        <time>2017-04-08T13:39:31Z</time>
      </trkpt>
      <trkpt lat="42.526964" lon="-9.040941">
        <ele>66.089</ele>
        <time>2017-04-08T13:39:39Z</time>
      </trkpt>
      <trkpt lat="42.526864" lon="-9.040935">
        <ele>65.047</ele>
        <time>2017-04-08T13:39:51Z</time>
      </trkpt>
      <trkpt lat="42.526763" lon="-9.040950">
        <ele>63.051</ele>
        <time>2017-04-08T13:40:00Z</time>
      </trkpt>
      <trkpt lat="42.526665" lon="-9.040948">
        <ele>59.020</ele>
        <time>2017-04-08T13:40:08Z</time>
      </trkpt>
      <trkpt lat="42.526571" lon="-9.040977">
        <ele>58.069</ele>
        <time>2017-04-08T13:40:15Z</time>
      </trkpt>
      <trkpt lat="42.526481" lon="-9.040965">
        <ele>60.063</ele>
        <time>2017-04-08T13:40:23Z</time>
      </trkpt>
      <trkpt lat="42.526376" lon="-9.040935">
        <ele>60.087</ele>
        <time>2017-04-08T13:40:35Z</time>
      </trkpt>
      <trkpt lat="42.526306" lon="-9.041015">
        <ele>62.042</ele>
        <time>2017-04-08T13:40:55Z</time>
      </trkpt>
      <trkpt lat="42.526231" lon="-9.041096">
        <ele>64.026</ele>
        <time>2017-04-08T13:41:03Z</time>
      </trkpt>
      <trkpt lat="42.526158" lon="-9.041186">
        <ele>63.008</ele>
        <time>2017-04-08T13:41:12Z</time>
      </trkpt>
      <trkpt lat="42.526067" lon="-9.041184">
        <ele>63.049</ele>
        <time>2017-04-08T13:41:21Z</time>
      </trkpt>
      <trkpt lat="42.525971" lon="-9.041171">
        <ele>63.095</ele>
        <time>2017-04-08T13:41:28Z</time>
      </trkpt>
      <trkpt lat="42.525881" lon="-9.041195">
        <ele>65.023</ele>
        <time>2017-04-08T13:41:46Z</time>
      </trkpt>
      <trkpt lat="42.525842" lon="-9.041065">
        <ele>66.031</ele>
        <time>2017-04-08T13:42:16Z</time>
      </trkpt>
      <trkpt lat="42.525802" lon="-9.040954">
        <ele>63.065</ele>
        <time>2017-04-08T13:42:22Z</time>
      </trkpt>
      <trkpt lat="42.525704" lon="-9.040899">
        <ele>62.044</ele>
        <time>2017-04-08T13:42:31Z</time>
      </trkpt>
      <trkpt lat="42.525613" lon="-9.040900">
        <ele>63.093</ele>
        <time>2017-04-08T13:42:38Z</time>
      </trkpt>
      <trkpt lat="42.525504" lon="-9.040880">
        <ele>63.027</ele>
        <time>2017-04-08T13:42:46Z</time>
      </trkpt>
      <trkpt lat="42.525414" lon="-9.040834">
        <ele>63.054</ele>
        <time>2017-04-08T13:42:53Z</time>
      </trkpt>
      <trkpt lat="42.525341" lon="-9.040757">
        <ele>64.056</ele>
        <time>2017-04-08T13:43:00Z</time>
      </trkpt>
      <trkpt lat="42.525255" lon="-9.040686">
        <ele>63.011</ele>
        <time>2017-04-08T13:43:08Z</time>
      </trkpt>
      <trkpt lat="42.525171" lon="-9.040622">
        <ele>61.008</ele>
        <time>2017-04-08T13:43:17Z</time>
      </trkpt>
      <trkpt lat="42.525059" lon="-9.040648">
        <ele>60.076</ele>
        <time>2017-04-08T13:43:29Z</time>
      </trkpt>
      <trkpt lat="42.524976" lon="-9.040731">
        <ele>60.052</ele>
        <time>2017-04-08T13:44:09Z</time>
      </trkpt>
      <trkpt lat="42.524878" lon="-9.040758">
        <ele>57.040</ele>
        <time>2017-04-08T13:44:17Z</time>
      </trkpt>
      <trkpt lat="42.524777" lon="-9.040742">
        <ele>59.098</ele>
        <time>2017-04-08T13:44:24Z</time>
      </trkpt>
      <trkpt lat="42.524688" lon="-9.040710">
        <ele>61.042</ele>
        <time>2017-04-08T13:44:33Z</time>
      </trkpt>
      <trkpt lat="42.524594" lon="-9.040746">
        <ele>58.061</ele>
        <time>2017-04-08T13:44:44Z</time>
      </trkpt>
      <trkpt lat="42.524519" lon="-9.040819">
        <ele>57.010</ele>
        <time>2017-04-08T13:44:52Z</time>
      </trkpt>
      <trkpt lat="42.524419" lon="-9.040815">
        <ele>55.014</ele>
        <time>2017-04-08T13:45:03Z</time>
      </trkpt>
      <trkpt lat="42.524342" lon="-9.040896">
        <ele>57.018</ele>
        <time>2017-04-08T13:45:11Z</time>
      </trkpt>
      <trkpt lat="42.524248" lon="-9.040953">
        <ele>59.098</ele>
        <time>2017-04-08T13:45:37Z</time>
      </trkpt>
      <trkpt lat="42.524156" lon="-9.040998">
        <ele>61.017</ele>
        <time>2017-04-08T13:45:44Z</time>
      </trkpt>
      <trkpt lat="42.524068" lon="-9.041062">
        <ele>63.008</ele>
        <time>2017-04-08T13:45:53Z</time>
      </trkpt>
      <trkpt lat="42.523969" lon="-9.041038">
        <ele>61.082</ele>
        <time>2017-04-08T13:46:00Z</time>
      </trkpt>
      <trkpt lat="42.523882" lon="-9.041004">
        <ele>63.098</ele>
        <time>2017-04-08T13:46:08Z</time>
      </trkpt>
      <trkpt lat="42.523804" lon="-9.040943">
        <ele>62.096</ele>
        <time>2017-04-08T13:46:15Z</time>
      </trkpt>
      <trkpt lat="42.523712" lon="-9.040885">
        <ele>62.054</ele>
        <time>2017-04-08T13:46:23Z</time>
      </trkpt>
      <trkpt lat="42.523638" lon="-9.040812">
        <ele>63.078</ele>
        <time>2017-04-08T13:46:30Z</time>
      </trkpt>
      <trkpt lat="42.523563" lon="-9.040739">
        <ele>64.067</ele>
        <time>2017-04-08T13:46:39Z</time>
      </trkpt>
      <trkpt lat="42.523509" lon="-9.040636">
        <ele>64.016</ele>
        <time>2017-04-08T13:46:46Z</time>
      </trkpt>
      <trkpt lat="42.523441" lon="-9.040554">
        <ele>65.020</ele>
        <time>2017-04-08T13:47:32Z</time>
      </trkpt>
      <trkpt lat="42.523352" lon="-9.040532">
        <ele>65.086</ele>
        <time>2017-04-08T13:47:41Z</time>
      </trkpt>
      <trkpt lat="42.523284" lon="-9.040436">
        <ele>65.060</ele>
        <time>2017-04-08T13:47:50Z</time>
      </trkpt>
      <trkpt lat="42.523216" lon="-9.040331">
        <ele>62.026</ele>
        <time>2017-04-08T13:48:52Z</time>
      </trkpt>
      <trkpt lat="42.523144" lon="-9.040243">
        <ele>65.008</ele>
        <time>2017-04-08T13:49:00Z</time>
      </trkpt>
      <trkpt lat="42.523113" lon="-9.040124">
        <ele>67.049</ele>
        <time>2017-04-08T13:50:34Z</time>
      </trkpt>
      <trkpt lat="42.523122" lon="-9.039996">
        <ele>67.035</ele>
        <time>2017-04-08T13:50:41Z</time>
      </trkpt>
      <trkpt lat="42.523128" lon="-9.039855">
        <ele>67.013</ele>
        <time>2017-04-08T13:50:49Z</time>
      </trkpt>
      <trkpt lat="42.523142" lon="-9.039724">
        <ele>67.021</ele>
        <time>2017-04-08T13:50:56Z</time>
      </trkpt>
      <trkpt lat="42.523140" lon="-9.039598">
        <ele>66.055</ele>
        <time>2017-04-08T13:51:03Z</time>
      </trkpt>
      <trkpt lat="42.523094" lon="-9.039490">
        <ele>67.064</ele>
        <time>2017-04-08T13:51:10Z</time>
      </trkpt>
      <trkpt lat="42.523019" lon="-9.039408">
        <ele>68.013</ele>
        <time>2017-04-08T13:51:17Z</time>
      </trkpt>
      <trkpt lat="42.522936" lon="-9.039348">
        <ele>69.087</ele>
        <time>2017-04-08T13:51:23Z</time>
      </trkpt>
      <trkpt lat="42.522855" lon="-9.039291">
        <ele>69.035</ele>
        <time>2017-04-08T13:51:30Z</time>
      </trkpt>
      <trkpt lat="42.522766" lon="-9.039225">
        <ele>69.086</ele>
        <time>2017-04-08T13:51:38Z</time>
      </trkpt>
      <trkpt lat="42.522697" lon="-9.039141">
        <ele>68.014</ele>
        <time>2017-04-08T13:51:44Z</time>
      </trkpt>
      <trkpt lat="42.522604" lon="-9.039102">
        <ele>70.008</ele>
        <time>2017-04-08T13:51:52Z</time>
      </trkpt>
      <trkpt lat="42.522509" lon="-9.039042">
        <ele>70.034</ele>
        <time>2017-04-08T13:52:00Z</time>
      </trkpt>
      <trkpt lat="42.522430" lon="-9.038981">
        <ele>70.060</ele>
        <time>2017-04-08T13:52:07Z</time>
      </trkpt>
      <trkpt lat="42.522353" lon="-9.039047">
        <ele>68.078</ele>
        <time>2017-04-08T13:52:17Z</time>
      </trkpt>
      <trkpt lat="42.522279" lon="-9.039117">
        <ele>67.026</ele>
        <time>2017-04-08T13:52:27Z</time>
      </trkpt>
      <trkpt lat="42.522189" lon="-9.039175">
        <ele>67.040</ele>
        <time>2017-04-08T13:52:35Z</time>
      </trkpt>
      <trkpt lat="42.522094" lon="-9.039229">
        <ele>67.079</ele>
        <time>2017-04-08T13:52:43Z</time>
      </trkpt>
      <trkpt lat="42.522014" lon="-9.039304">
        <ele>67.098</ele>
        <time>2017-04-08T13:52:51Z</time>
      </trkpt>
      <trkpt lat="42.521917" lon="-9.039331">
        <ele>63.022</ele>
        <time>2017-04-08T13:52:59Z</time>
      </trkpt>
      <trkpt lat="42.521835" lon="-9.039252">
        <ele>62.014</ele>
        <time>2017-04-08T13:53:06Z</time>
      </trkpt>
      <trkpt lat="42.521748" lon="-9.039163">
        <ele>61.054</ele>
        <time>2017-04-08T13:53:14Z</time>
      </trkpt>
      <trkpt lat="42.521652" lon="-9.039110">
        <ele>61.009</ele>
        <time>2017-04-08T13:53:21Z</time>
      </trkpt>
      <trkpt lat="42.521573" lon="-9.039051">
        <ele>61.008</ele>
        <time>2017-04-08T13:53:27Z</time>
      </trkpt>
      <trkpt lat="42.521496" lon="-9.038988">
        <ele>60.072</ele>
        <time>2017-04-08T13:53:34Z</time>
      </trkpt>
      <trkpt lat="42.521409" lon="-9.038955">
        <ele>62.088</ele>
        <time>2017-04-08T13:53:41Z</time>
      </trkpt>
      <trkpt lat="42.521316" lon="-9.038932">
        <ele>63.086</ele>
        <time>2017-04-08T13:53:48Z</time>
      </trkpt>
      <trkpt lat="42.521219" lon="-9.038937">
        <ele>63.024</ele>
        <time>2017-04-08T13:54:18Z</time>
      </trkpt>
      <trkpt lat="42.521129" lon="-9.038975">
        <ele>63.088</ele>
        <time>2017-04-08T13:54:28Z</time>
      </trkpt>
      <trkpt lat="42.521053" lon="-9.039041">
        <ele>63.087</ele>
        <time>2017-04-08T13:54:35Z</time>
      </trkpt>
      <trkpt lat="42.520952" lon="-9.039022">
        <ele>61.066</ele>
        <time>2017-04-08T13:55:01Z</time>
      </trkpt>
      <trkpt lat="42.520861" lon="-9.038935">
        <ele>61.080</ele>
        <time>2017-04-08T13:55:11Z</time>
      </trkpt>
      <trkpt lat="42.520797" lon="-9.038825">
        <ele>62.011</ele>
        <time>2017-04-08T13:55:42Z</time>
      </trkpt>
      <trkpt lat="42.520726" lon="-9.038718">
        <ele>60.021</ele>
        <time>2017-04-08T13:55:50Z</time>
      </trkpt>
      <trkpt lat="42.520658" lon="-9.038628">
        <ele>58.003</ele>
        <time>2017-04-08T13:55:58Z</time>
      </trkpt>
      <trkpt lat="42.520579" lon="-9.038546">
        <ele>56.008</ele>
        <time>2017-04-08T13:56:07Z</time>
      </trkpt>
      <trkpt lat="42.520479" lon="-9.038564">
        <ele>58.012</ele>
        <time>2017-04-08T13:56:15Z</time>
      </trkpt>
      <trkpt lat="42.520387" lon="-9.038606">
        <ele>58.018</ele>
        <time>2017-04-08T13:56:23Z</time>
      </trkpt>
      <trkpt lat="42.520298" lon="-9.038679">
        <ele>58.066</ele>
        <time>2017-04-08T13:56:31Z</time>
      </trkpt>
      <trkpt lat="42.520213" lon="-9.038747">
        <ele>56.024</ele>
        <time>2017-04-08T13:56:49Z</time>
      </trkpt>
      <trkpt lat="42.520130" lon="-9.038829">
        <ele>58.098</ele>
        <time>2017-04-08T13:56:57Z</time>
      </trkpt>
      <trkpt lat="42.520133" lon="-9.038698">
        <ele>61.067</ele>
        <time>2017-04-08T13:57:21Z</time>
      </trkpt>
      <trkpt lat="42.520143" lon="-9.038573">
        <ele>60.096</ele>
        <time>2017-04-08T13:57:27Z</time>
      </trkpt>
      <trkpt lat="42.520140" lon="-9.038427">
        <ele>58.030</ele>
        <time>2017-04-08T13:57:34Z</time>
      </trkpt>
      <trkpt lat="42.520137" lon="-9.038297">
        <ele>58.044</ele>
        <time>2017-04-08T13:57:40Z</time>
      </trkpt>
      <trkpt lat="42.520159" lon="-9.038179">
        <ele>58.005</ele>
        <time>2017-04-08T13:57:46Z</time>
      </trkpt>
      <trkpt lat="42.520132" lon="-9.038051">
        <ele>57.015</ele>
        <time>2017-04-08T13:57:54Z</time>
      </trkpt>
      <trkpt lat="42.520063" lon="-9.037951">
        <ele>57.008</ele>
        <time>2017-04-08T13:58:01Z</time>
      </trkpt>
      <trkpt lat="42.520016" lon="-9.037824">
        <ele>54.085</ele>
        <time>2017-04-08T13:58:08Z</time>
      </trkpt>
      <trkpt lat="42.519936" lon="-9.037758">
        <ele>55.081</ele>
        <time>2017-04-08T13:58:14Z</time>
      </trkpt>
      <trkpt lat="42.519843" lon="-9.037725">
        <ele>55.099</ele>
        <time>2017-04-08T13:58:20Z</time>
      </trkpt>
      <trkpt lat="42.519754" lon="-9.037667">
        <ele>56.097</ele>
        <time>2017-04-08T13:58:26Z</time>
      </trkpt>
      <trkpt lat="42.519665" lon="-9.037609">
        <ele>57.061</ele>
        <time>2017-04-08T13:58:32Z</time>
      </trkpt>
      <trkpt lat="42.519585" lon="-9.037547">
        <ele>56.030</ele>
        <time>2017-04-08T13:58:39Z</time>
      </trkpt>
      <trkpt lat="42.519497" lon="-9.037470">
        <ele>56.029</ele>
        <time>2017-04-08T13:58:46Z</time>
      </trkpt>
      <trkpt lat="42.519406" lon="-9.037401">
        <ele>58.023</ele>
        <time>2017-04-08T13:58:53Z</time>
      </trkpt>
      <trkpt lat="42.519320" lon="-9.037363">
        <ele>57.082</ele>
        <time>2017-04-08T13:59:08Z</time>
      </trkpt>
      <trkpt lat="42.519305" lon="-9.037221">
        <ele>56.043</ele>
        <time>2017-04-08T13:59:36Z</time>
      </trkpt>
      <trkpt lat="42.519330" lon="-9.037096">
        <ele>57.017</ele>
        <time>2017-04-08T13:59:43Z</time>
      </trkpt>
      <trkpt lat="42.519364" lon="-9.036969">
        <ele>57.008</ele>
        <time>2017-04-08T13:59:50Z</time>
      </trkpt>
      <trkpt lat="42.519390" lon="-9.036838">
        <ele>58.019</ele>
        <time>2017-04-08T13:59:58Z</time>
      </trkpt>
      <trkpt lat="42.519389" lon="-9.036712">
        <ele>57.055</ele>
        <time>2017-04-08T14:00:04Z</time>
      </trkpt>
      <trkpt lat="42.519399" lon="-9.036572">
        <ele>57.043</ele>
        <time>2017-04-08T14:00:12Z</time>
      </trkpt>
      <trkpt lat="42.519422" lon="-9.036447">
        <ele>59.041</ele>
        <time>2017-04-08T14:00:20Z</time>
      </trkpt>
      <trkpt lat="42.519477" lon="-9.036336">
        <ele>60.095</ele>
        <time>2017-04-08T14:00:28Z</time>
      </trkpt>
      <trkpt lat="42.519530" lon="-9.036222">
        <ele>61.034</ele>
        <time>2017-04-08T14:00:35Z</time>
      </trkpt>
      <trkpt lat="42.519595" lon="-9.036127">
        <ele>61.073</ele>
        <time>2017-04-08T14:00:42Z</time>
      </trkpt>
      <trkpt lat="42.519677" lon="-9.036046">
        <ele>61.077</ele>
        <time>2017-04-08T14:00:49Z</time>
      </trkpt>
      <trkpt lat="42.519753" lon="-9.035973">
        <ele>63.074</ele>
        <time>2017-04-08T14:00:56Z</time>
      </trkpt>
      <trkpt lat="42.519842" lon="-9.035898">
        <ele>64.056</ele>
        <time>2017-04-08T14:01:04Z</time>
      </trkpt>
      <trkpt lat="42.519938" lon="-9.035924">
        <ele>63.021</ele>
        <time>2017-04-08T14:01:10Z</time>
      </trkpt>
      <trkpt lat="42.520036" lon="-9.035933">
        <ele>64.008</ele>
        <time>2017-04-08T14:01:18Z</time>
      </trkpt>
      <trkpt lat="42.520084" lon="-9.035829">
        <ele>61.028</ele>
        <time>2017-04-08T14:01:26Z</time>
      </trkpt>
      <trkpt lat="42.520100" lon="-9.035689">
        <ele>59.024</ele>
        <time>2017-04-08T14:01:34Z</time>
      </trkpt>
      <trkpt lat="42.520141" lon="-9.035572">
        <ele>58.012</ele>
        <time>2017-04-08T14:01:41Z</time>
      </trkpt>
      <trkpt lat="42.520203" lon="-9.035469">
        <ele>58.060</ele>
        <time>2017-04-08T14:01:49Z</time>
      </trkpt>
      <trkpt lat="42.520272" lon="-9.035389">
        <ele>58.014</ele>
        <time>2017-04-08T14:01:56Z</time>
      </trkpt>
      <trkpt lat="42.520355" lon="-9.035342">
        <ele>59.093</ele>
        <time>2017-04-08T14:02:03Z</time>
      </trkpt>
      <trkpt lat="42.520451" lon="-9.035326">
        <ele>59.032</ele>
        <time>2017-04-08T14:02:18Z</time>
      </trkpt>
      <trkpt lat="42.520544" lon="-9.035342">
        <ele>62.046</ele>
        <time>2017-04-08T14:02:24Z</time>
      </trkpt>
      <trkpt lat="42.520637" lon="-9.035359">
        <ele>63.049</ele>
        <time>2017-04-08T14:02:33Z</time>
      </trkpt>
      <trkpt lat="42.520739" lon="-9.035371">
        <ele>62.002</ele>
        <time>2017-04-08T14:02:40Z</time>
      </trkpt>
      <trkpt lat="42.520831" lon="-9.035356">
        <ele>63.022</ele>
        <time>2017-04-08T14:02:47Z</time>
      </trkpt>
      <trkpt lat="42.520934" lon="-9.035363">
        <ele>63.008</ele>
        <time>2017-04-08T14:02:54Z</time>
      </trkpt>
      <trkpt lat="42.521025" lon="-9.035353">
        <ele>64.075</ele>
        <time>2017-04-08T14:03:02Z</time>
      </trkpt>
      <trkpt lat="42.521118" lon="-9.035337">
        <ele>66.061</ele>
        <time>2017-04-08T14:03:09Z</time>
      </trkpt>
      <trkpt lat="42.521216" lon="-9.035322">
        <ele>67.059</ele>
        <time>2017-04-08T14:03:15Z</time>
      </trkpt>
      <trkpt lat="42.521302" lon="-9.035268">
        <ele>66.077</ele>
        <time>2017-04-08T14:03:37Z</time>
      </trkpt>
      <trkpt lat="42.521380" lon="-9.035197">
        <ele>67.031</ele>
        <time>2017-04-08T14:03:53Z</time>
      </trkpt>
      <trkpt lat="42.521428" lon="-9.035084">
        <ele>64.030</ele>
        <time>2017-04-08T14:04:00Z</time>
      </trkpt>
      <trkpt lat="42.521486" lon="-9.034979">
        <ele>63.039</ele>
        <time>2017-04-08T14:04:04Z</time>
      </trkpt>
      <trkpt lat="42.521553" lon="-9.034869">
        <ele>61.043</ele>
        <time>2017-04-08T14:04:08Z</time>
      </trkpt>
      <trkpt lat="42.521587" lon="-9.034754">
        <ele>60.027</ele>
        <time>2017-04-08T14:04:14Z</time>
      </trkpt>
      <trkpt lat="42.521652" lon="-9.034663">
        <ele>59.068</ele>
        <time>2017-04-08T14:04:24Z</time>
      </trkpt>
      <trkpt lat="42.521702" lon="-9.034548">
        <ele>57.014</ele>
        <time>2017-04-08T14:04:31Z</time>
      </trkpt>
      <trkpt lat="42.521766" lon="-9.034462">
        <ele>58.008</ele>
        <time>2017-04-08T14:04:37Z</time>
      </trkpt>
      <trkpt lat="42.521800" lon="-9.034345">
        <ele>56.063</ele>
        <time>2017-04-08T14:04:46Z</time>
      </trkpt>
      <trkpt lat="42.521826" lon="-9.034223">
        <ele>56.079</ele>
        <time>2017-04-08T14:04:53Z</time>
      </trkpt>
      <trkpt lat="42.521824" lon="-9.034101">
        <ele>58.077</ele>
        <time>2017-04-08T14:05:02Z</time>
      </trkpt>
      <trkpt lat="42.521781" lon="-9.033983">
        <ele>58.075</ele>
        <time>2017-04-08T14:05:11Z</time>
      </trkpt>
      <trkpt lat="42.521739" lon="-9.033865">
        <ele>61.099</ele>
        <time>2017-04-08T14:05:18Z</time>
      </trkpt>
      <trkpt lat="42.521747" lon="-9.033730">
        <ele>60.028</ele>
        <time>2017-04-08T14:05:25Z</time>
      </trkpt>
      <trkpt lat="42.521723" lon="-9.033603">
        <ele>61.037</ele>
        <time>2017-04-08T14:05:31Z</time>
      </trkpt>
      <trkpt lat="42.521731" lon="-9.033475">
        <ele>61.071</ele>
        <time>2017-04-08T14:05:38Z</time>
      </trkpt>
      <trkpt lat="42.521734" lon="-9.033339">
        <ele>60.067</ele>
        <time>2017-04-08T14:05:50Z</time>
      </trkpt>
      <trkpt lat="42.521737" lon="-9.033217">
        <ele>60.081</ele>
        <time>2017-04-08T14:05:57Z</time>
      </trkpt>
      <trkpt lat="42.521705" lon="-9.033092">
        <ele>60.019</ele>
        <time>2017-04-08T14:06:05Z</time>
      </trkpt>
      <trkpt lat="42.521670" lon="-9.032974">
        <ele>60.008</ele>
        <time>2017-04-08T14:06:12Z</time>
      </trkpt>
      <trkpt lat="42.521669" lon="-9.032842">
        <ele>59.087</ele>
        <time>2017-04-08T14:06:20Z</time>
      </trkpt>
      <trkpt lat="42.521689" lon="-9.032708">
        <ele>61.033</ele>
        <time>2017-04-08T14:06:27Z</time>
      </trkpt>
      <trkpt lat="42.521680" lon="-9.032584">
        <ele>61.071</ele>
        <time>2017-04-08T14:06:34Z</time>
      </trkpt>
      <trkpt lat="42.521698" lon="-9.032450">
        <ele>58.089</ele>
        <time>2017-04-08T14:06:41Z</time>
      </trkpt>
      <trkpt lat="42.521712" lon="-9.032308">
        <ele>59.063</ele>
        <time>2017-04-08T14:06:49Z</time>
      </trkpt>
      <trkpt lat="42.521721" lon="-9.032174">
        <ele>60.052</ele>
        <time>2017-04-08T14:06:56Z</time>
      </trkpt>
      <trkpt lat="42.521715" lon="-9.032037">
        <ele>61.091</ele>
        <time>2017-04-08T14:07:03Z</time>
      </trkpt>
      <trkpt lat="42.521721" lon="-9.031902">
        <ele>62.035</ele>
        <time>2017-04-08T14:07:10Z</time>
      </trkpt>
      <trkpt lat="42.521739" lon="-9.031783">
        <ele>62.063</ele>
        <time>2017-04-08T14:07:16Z</time>
      </trkpt>
      <trkpt lat="42.521742" lon="-9.031660">
        <ele>61.044</ele>
        <time>2017-04-08T14:07:23Z</time>
      </trkpt>
      <trkpt lat="42.521757" lon="-9.031538">
        <ele>63.018</ele>
        <time>2017-04-08T14:07:30Z</time>
      </trkpt>
      <trkpt lat="42.521760" lon="-9.031405">
        <ele>64.008</ele>
        <time>2017-04-08T14:07:38Z</time>
      </trkpt>
      <trkpt lat="42.521760" lon="-9.031266">
        <ele>62.017</ele>
        <time>2017-04-08T14:07:43Z</time>
      </trkpt>
      <trkpt lat="42.521721" lon="-9.031146">
        <ele>65.063</ele>
        <time>2017-04-08T14:07:52Z</time>
      </trkpt>
      <trkpt lat="42.521703" lon="-9.031023">
        <ele>66.031</ele>
        <time>2017-04-08T14:07:59Z</time>
      </trkpt>
      <trkpt lat="42.521684" lon="-9.030900">
        <ele>67.059</ele>
        <time>2017-04-08T14:08:12Z</time>
      </trkpt>
      <trkpt lat="42.521672" lon="-9.030779">
        <ele>70.013</ele>
        <time>2017-04-08T14:08:18Z</time>
      </trkpt>
      <trkpt lat="42.521673" lon="-9.030650">
        <ele>69.082</ele>
        <time>2017-04-08T14:08:25Z</time>
      </trkpt>
      <trkpt lat="42.521654" lon="-9.030521">
        <ele>69.081</ele>
        <time>2017-04-08T14:08:33Z</time>
      </trkpt>
      <trkpt lat="42.521651" lon="-9.030388">
        <ele>68.015</ele>
        <time>2017-04-08T14:08:40Z</time>
      </trkpt>
      <trkpt lat="42.521640" lon="-9.030265">
        <ele>69.087</ele>
        <time>2017-04-08T14:08:47Z</time>
      </trkpt>
      <trkpt lat="42.521612" lon="-9.030137">
        <ele>68.042</ele>
        <time>2017-04-08T14:08:55Z</time>
      </trkpt>
      <trkpt lat="42.521529" lon="-9.030062">
        <ele>69.026</ele>
        <time>2017-04-08T14:09:04Z</time>
      </trkpt>
      <trkpt lat="42.521465" lon="-9.029968">
        <ele>68.008</ele>
        <time>2017-04-08T14:09:10Z</time>
      </trkpt>
      <trkpt lat="42.521395" lon="-9.029869">
        <ele>66.049</ele>
        <time>2017-04-08T14:09:17Z</time>
      </trkpt>
      <trkpt lat="42.521330" lon="-9.029746">
        <ele>65.015</ele>
        <time>2017-04-08T14:09:24Z</time>
      </trkpt>
      <trkpt lat="42.521274" lon="-9.029630">
        <ele>62.093</ele>
        <time>2017-04-08T14:09:32Z</time>
      </trkpt>
      <trkpt lat="42.521222" lon="-9.029526">
        <ele>62.021</ele>
        <time>2017-04-08T14:09:41Z</time>
      </trkpt>
      <trkpt lat="42.521174" lon="-9.029410">
        <ele>63.065</ele>
        <time>2017-04-08T14:09:49Z</time>
      </trkpt>
      <trkpt lat="42.521127" lon="-9.029295">
        <ele>64.054</ele>
        <time>2017-04-08T14:09:59Z</time>
      </trkpt>
      <trkpt lat="42.521093" lon="-9.029160">
        <ele>64.083</ele>
        <time>2017-04-08T14:10:07Z</time>
      </trkpt>
      <trkpt lat="42.521058" lon="-9.029036">
        <ele>66.067</ele>
        <time>2017-04-08T14:10:14Z</time>
      </trkpt>
      <trkpt lat="42.521025" lon="-9.028916">
        <ele>66.047</ele>
        <time>2017-04-08T14:10:21Z</time>
      </trkpt>
      <trkpt lat="42.521005" lon="-9.028794">
        <ele>67.029</ele>
        <time>2017-04-08T14:10:29Z</time>
      </trkpt>
      <trkpt lat="42.521043" lon="-9.028673">
        <ele>65.021</ele>
        <time>2017-04-08T14:10:36Z</time>
      </trkpt>
      <trkpt lat="42.521048" lon="-9.028545">
        <ele>66.008</ele>
        <time>2017-04-08T14:10:43Z</time>
      </trkpt>
      <trkpt lat="42.521042" lon="-9.028406">
        <ele>69.095</ele>
        <time>2017-04-08T14:10:50Z</time>
      </trkpt>
      <trkpt lat="42.521056" lon="-9.028277">
        <ele>67.061</ele>
        <time>2017-04-08T14:10:59Z</time>
      </trkpt>
      <trkpt lat="42.521058" lon="-9.028145">
        <ele>67.029</ele>
        <time>2017-04-08T14:11:07Z</time>
      </trkpt>
      <trkpt lat="42.521055" lon="-9.028008">
        <ele>66.077</ele>
        <time>2017-04-08T14:11:15Z</time>
      </trkpt>
      <trkpt lat="42.521069" lon="-9.027874">
        <ele>65.041</ele>
        <time>2017-04-08T14:11:21Z</time>
      </trkpt>
      <trkpt lat="42.521124" lon="-9.027768">
        <ele>64.090</ele>
        <time>2017-04-08T14:11:28Z</time>
      </trkpt>
      <trkpt lat="42.521172" lon="-9.027662">
        <ele>66.039</ele>
        <time>2017-04-08T14:11:34Z</time>
      </trkpt>
      <trkpt lat="42.521094" lon="-9.027593">
        <ele>63.023</ele>
        <time>2017-04-08T14:11:52Z</time>
      </trkpt>
      <trkpt lat="42.520990" lon="-9.027559">
        <ele>63.069</ele>
        <time>2017-04-08T14:12:06Z</time>
      </trkpt>
      <trkpt lat="42.520905" lon="-9.027504">
        <ele>62.004</ele>
        <time>2017-04-08T14:12:13Z</time>
      </trkpt>
      <trkpt lat="42.520813" lon="-9.027472">
        <ele>62.024</ele>
        <time>2017-04-08T14:12:20Z</time>
      </trkpt>
      <trkpt lat="42.520724" lon="-9.027408">
        <ele>62.008</ele>
        <time>2017-04-08T14:12:28Z</time>
      </trkpt>
      <trkpt lat="42.520636" lon="-9.027340">
        <ele>62.077</ele>
        <time>2017-04-08T14:12:36Z</time>
      </trkpt>
      <trkpt lat="42.520541" lon="-9.027284">
        <ele>63.093</ele>
        <time>2017-04-08T14:12:44Z</time>
      </trkpt>
      <trkpt lat="42.520448" lon="-9.027208">
        <ele>61.011</ele>
        <time>2017-04-08T14:12:54Z</time>
      </trkpt>
      <trkpt lat="42.520387" lon="-9.027107">
        <ele>58.049</ele>
        <time>2017-04-08T14:13:02Z</time>
      </trkpt>
      <trkpt lat="42.520315" lon="-9.027017">
        <ele>58.013</ele>
        <time>2017-04-08T14:13:11Z</time>
      </trkpt>
      <trkpt lat="42.520230" lon="-9.026976">
        <ele>58.062</ele>
        <time>2017-04-08T14:13:18Z</time>
      </trkpt>
      <trkpt lat="42.520152" lon="-9.026902">
        <ele>59.061</ele>
        <time>2017-04-08T14:13:26Z</time>
      </trkpt>
      <trkpt lat="42.520077" lon="-9.026827">
        <ele>59.055</ele>
        <time>2017-04-08T14:13:33Z</time>
      </trkpt>
      <trkpt lat="42.520003" lon="-9.026738">
        <ele>56.029</ele>
        <time>2017-04-08T14:13:43Z</time>
      </trkpt>
      <trkpt lat="42.519995" lon="-9.026610">
        <ele>55.000</ele>
        <time>2017-04-08T14:13:51Z</time>
      </trkpt>
      <trkpt lat="42.520003" lon="-9.026475">
        <ele>56.020</ele>
        <time>2017-04-08T14:14:01Z</time>
      </trkpt>
      <trkpt lat="42.520014" lon="-9.026347">
        <ele>57.008</ele>
        <time>2017-04-08T14:14:09Z</time>
      </trkpt>
      <trkpt lat="42.519978" lon="-9.026227">
        <ele>56.063</ele>
        <time>2017-04-08T14:14:17Z</time>
      </trkpt>
      <trkpt lat="42.519887" lon="-9.026136">
        <ele>57.079</ele>
        <time>2017-04-08T14:14:24Z</time>
      </trkpt>
      <trkpt lat="42.519840" lon="-9.026032">
        <ele>59.067</ele>
        <time>2017-04-08T14:14:31Z</time>
      </trkpt>
      <trkpt lat="42.519869" lon="-9.025904">
        <ele>61.095</ele>
        <time>2017-04-08T14:14:41Z</time>
      </trkpt>
      <trkpt lat="42.519923" lon="-9.025799">
        <ele>60.089</ele>
        <time>2017-04-08T14:14:51Z</time>
      </trkpt>
      <trkpt lat="42.519934" lon="-9.025672">
        <ele>59.098</ele>
        <time>2017-04-08T14:15:00Z</time>
      </trkpt>
      <trkpt lat="42.519918" lon="-9.025544">
        <ele>59.017</ele>
        <time>2017-04-08T14:15:07Z</time>
      </trkpt>
      <trkpt lat="42.519909" lon="-9.025419">
        <ele>61.071</ele>
        <time>2017-04-08T14:15:33Z</time>
      </trkpt>
      <trkpt lat="42.519926" lon="-9.025285">
        <ele>62.094</ele>
        <time>2017-04-08T14:15:42Z</time>
      </trkpt>
      <trkpt lat="42.519955" lon="-9.025149">
        <ele>63.057</ele>
        <time>2017-04-08T14:15:50Z</time>
      </trkpt>
      <trkpt lat="42.519982" lon="-9.025029">
        <ele>66.022</ele>
        <time>2017-04-08T14:16:01Z</time>
      </trkpt>
      <trkpt lat="42.519989" lon="-9.024901">
        <ele>67.008</ele>
        <time>2017-04-08T14:16:09Z</time>
      </trkpt>
      <trkpt lat="42.520005" lon="-9.024772">
        <ele>68.040</ele>
        <time>2017-04-08T14:16:17Z</time>
      </trkpt>
      <trkpt lat="42.520002" lon="-9.024648">
        <ele>69.026</ele>
        <time>2017-04-08T14:16:25Z</time>
      </trkpt>
      <trkpt lat="42.520019" lon="-9.024515">
        <ele>70.044</ele>
        <time>2017-04-08T14:16:33Z</time>
      </trkpt>
      <trkpt lat="42.520035" lon="-9.024387">
        <ele>70.072</ele>
        <time>2017-04-08T14:16:42Z</time>
      </trkpt>
      <trkpt lat="42.520027" lon="-9.024264">
        <ele>71.076</ele>
        <time>2017-04-08T14:16:51Z</time>
      </trkpt>
      <trkpt lat="42.520001" lon="-9.024146">
        <ele>71.085</ele>
        <time>2017-04-08T14:17:00Z</time>
      </trkpt>
      <trkpt lat="42.519960" lon="-9.024023">
        <ele>73.084</ele>
        <time>2017-04-08T14:17:09Z</time>
      </trkpt>
      <trkpt lat="42.519920" lon="-9.023904">
        <ele>73.078</ele>
        <time>2017-04-08T14:17:16Z</time>
      </trkpt>
      <trkpt lat="42.519894" lon="-9.023774">
        <ele>73.051</ele>
        <time>2017-04-08T14:17:26Z</time>
      </trkpt>
      <trkpt lat="42.519854" lon="-9.023640">
        <ele>74.001</ele>
        <time>2017-04-08T14:17:35Z</time>
      </trkpt>
      <trkpt lat="42.519814" lon="-9.023520">
        <ele>73.011</ele>
        <time>2017-04-08T14:17:42Z</time>
      </trkpt>
      <trkpt lat="42.519781" lon="-9.023406">
        <ele>71.008</ele>
        <time>2017-04-08T14:17:49Z</time>
      </trkpt>
      <trkpt lat="42.519765" lon="-9.023279">
        <ele>71.036</ele>
        <time>2017-04-08T14:17:56Z</time>
      </trkpt>
      <trkpt lat="42.519761" lon="-9.023147">
        <ele>71.082</ele>
        <time>2017-04-08T14:18:03Z</time>
      </trkpt>
      <trkpt lat="42.519749" lon="-9.023005">
        <ele>72.020</ele>
        <time>2017-04-08T14:18:10Z</time>
      </trkpt>
      <trkpt lat="42.519742" lon="-9.022872">
        <ele>73.028</ele>
        <time>2017-04-08T14:18:17Z</time>
      </trkpt>
      <trkpt lat="42.519732" lon="-9.022730">
        <ele>74.092</ele>
        <time>2017-04-08T14:18:26Z</time>
      </trkpt>
      <trkpt lat="42.519709" lon="-9.022606">
        <ele>76.081</ele>
        <time>2017-04-08T14:18:33Z</time>
      </trkpt>
      <trkpt lat="42.519676" lon="-9.022491">
        <ele>79.040</ele>
        <time>2017-04-08T14:18:40Z</time>
      </trkpt>
      <trkpt lat="42.519668" lon="-9.022360">
        <ele>77.074</ele>
        <time>2017-04-08T14:18:48Z</time>
      </trkpt>
      <trkpt lat="42.519687" lon="-9.022233">
        <ele>76.046</ele>
        <time>2017-04-08T14:18:55Z</time>
      </trkpt>
      <trkpt lat="42.519688" lon="-9.022104">
        <ele>76.088</ele>
        <time>2017-04-08T14:19:03Z</time>
      </trkpt>
      <trkpt lat="42.519688" lon="-9.021972">
        <ele>75.016</ele>
        <time>2017-04-08T14:19:11Z</time>
      </trkpt>
      <trkpt lat="42.519697" lon="-9.021845">
        <ele>72.008</ele>
        <time>2017-04-08T14:19:21Z</time>
      </trkpt>
      <trkpt lat="42.519681" lon="-9.021715">
        <ele>70.045</ele>
        <time>2017-04-08T14:19:32Z</time>
      </trkpt>
      <trkpt lat="42.519705" lon="-9.021597">
        <ele>72.081</ele>
        <time>2017-04-08T14:19:39Z</time>
      </trkpt>
      <trkpt lat="42.519690" lon="-9.021466">
        <ele>71.039</ele>
        <time>2017-04-08T14:19:47Z</time>
      </trkpt>
      <trkpt lat="42.519679" lon="-9.021337">
        <ele>71.087</ele>
        <time>2017-04-08T14:19:53Z</time>
      </trkpt>
      <trkpt lat="42.519697" lon="-9.021216">
        <ele>71.031</ele>
        <time>2017-04-08T14:20:01Z</time>
      </trkpt>
      <trkpt lat="42.519775" lon="-9.021138">
        <ele>69.050</ele>
        <time>2017-04-08T14:20:09Z</time>
      </trkpt>
      <trkpt lat="42.519867" lon="-9.021086">
        <ele>67.049</ele>
        <time>2017-04-08T14:20:16Z</time>
      </trkpt>
      <trkpt lat="42.519951" lon="-9.020998">
        <ele>63.073</ele>
        <time>2017-04-08T14:20:27Z</time>
      </trkpt>
      <trkpt lat="42.520032" lon="-9.020933">
        <ele>66.098</ele>
        <time>2017-04-08T14:20:45Z</time>
      </trkpt>
      <trkpt lat="42.520124" lon="-9.020886">
        <ele>64.015</ele>
        <time>2017-04-08T14:20:53Z</time>
      </trkpt>
      <trkpt lat="42.520203" lon="-9.020816">
        <ele>62.026</ele>
        <time>2017-04-08T14:21:00Z</time>
      </trkpt>
      <trkpt lat="42.520295" lon="-9.020773">
        <ele>60.008</ele>
        <time>2017-04-08T14:21:07Z</time>
      </trkpt>
      <trkpt lat="42.520372" lon="-9.020704">
        <ele>59.080</ele>
        <time>2017-04-08T14:21:15Z</time>
      </trkpt>
      <trkpt lat="42.520358" lon="-9.020574">
        <ele>59.066</ele>
        <time>2017-04-08T14:21:24Z</time>
      </trkpt>
      <trkpt lat="42.520370" lon="-9.020435">
        <ele>60.014</ele>
        <time>2017-04-08T14:21:33Z</time>
      </trkpt>
      <trkpt lat="42.520389" lon="-9.020307">
        <ele>59.012</ele>
        <time>2017-04-08T14:21:42Z</time>
      </trkpt>
      <trkpt lat="42.520342" lon="-9.020184">
        <ele>61.026</ele>
        <time>2017-04-08T14:21:53Z</time>
      </trkpt>
      <trkpt lat="42.520330" lon="-9.020046">
        <ele>61.035</ele>
        <time>2017-04-08T14:22:00Z</time>
      </trkpt>
      <trkpt lat="42.520306" lon="-9.019910">
        <ele>62.044</ele>
        <time>2017-04-08T14:22:08Z</time>
      </trkpt>
      <trkpt lat="42.520323" lon="-9.019777">
        <ele>62.038</ele>
        <time>2017-04-08T14:22:22Z</time>
      </trkpt>
      <trkpt lat="42.520348" lon="-9.019656">
        <ele>61.058</ele>
        <time>2017-04-08T14:22:33Z</time>
      </trkpt>
      <trkpt lat="42.520427" lon="-9.019593">
        <ele>60.052</ele>
        <time>2017-04-08T14:22:48Z</time>
      </trkpt>
      <trkpt lat="42.520389" lon="-9.019161">
        <ele>37.098</ele>
        <time>2017-05-06T12:21:30Z</time>
      </trkpt>
      <trkpt lat="42.520464" lon="-9.019089">
        <ele>50.015</ele>
        <time>2017-05-06T12:23:27Z</time>
      </trkpt>
      <trkpt lat="42.520558" lon="-9.019034">
        <ele>54.026</ele>
        <time>2017-05-06T12:23:41Z</time>
      </trkpt>
      <trkpt lat="42.520656" lon="-9.019010">
        <ele>55.008</ele>
        <time>2017-05-06T12:23:47Z</time>
      </trkpt>
      <trkpt lat="42.520746" lon="-9.018996">
        <ele>56.050</ele>
        <time>2017-05-06T12:23:53Z</time>
      </trkpt>
      <trkpt lat="42.520855" lon="-9.018987">
        <ele>57.056</ele>
        <time>2017-05-06T12:24:00Z</time>
      </trkpt>
      <trkpt lat="42.520960" lon="-9.019000">
        <ele>58.065</ele>
        <time>2017-05-06T12:24:07Z</time>
      </trkpt>
      <trkpt lat="42.521022" lon="-9.019089">
        <ele>59.079</ele>
        <time>2017-05-06T12:24:13Z</time>
      </trkpt>
      <trkpt lat="42.521068" lon="-9.019216">
        <ele>58.015</ele>
        <time>2017-05-06T12:24:20Z</time>
      </trkpt>
      <trkpt lat="42.521149" lon="-9.019293">
        <ele>59.064</ele>
        <time>2017-05-06T12:24:27Z</time>
      </trkpt>
      <trkpt lat="42.521238" lon="-9.019367">
        <ele>60.034</ele>
        <time>2017-05-06T12:24:34Z</time>
      </trkpt>
      <trkpt lat="42.521336" lon="-9.019386">
        <ele>60.028</ele>
        <time>2017-05-06T12:24:44Z</time>
      </trkpt>
      <trkpt lat="42.521416" lon="-9.019328">
        <ele>60.036</ele>
        <time>2017-05-06T12:24:50Z</time>
      </trkpt>
      <trkpt lat="42.521497" lon="-9.019273">
        <ele>61.017</ele>
        <time>2017-05-06T12:24:58Z</time>
      </trkpt>
      <trkpt lat="42.521582" lon="-9.019214">
        <ele>62.018</ele>
        <time>2017-05-06T12:25:04Z</time>
      </trkpt>
      <trkpt lat="42.521675" lon="-9.019168">
        <ele>62.008</ele>
        <time>2017-05-06T12:25:11Z</time>
      </trkpt>
      <trkpt lat="42.521759" lon="-9.019098">
        <ele>62.024</ele>
        <time>2017-05-06T12:25:18Z</time>
      </trkpt>
      <trkpt lat="42.521840" lon="-9.019024">
        <ele>62.020</ele>
        <time>2017-05-06T12:25:25Z</time>
      </trkpt>
      <trkpt lat="42.521933" lon="-9.018947">
        <ele>62.079</ele>
        <time>2017-05-06T12:25:33Z</time>
      </trkpt>
      <trkpt lat="42.522015" lon="-9.018883">
        <ele>63.043</ele>
        <time>2017-05-06T12:25:40Z</time>
      </trkpt>
      <trkpt lat="42.522110" lon="-9.018823">
        <ele>63.099</ele>
        <time>2017-05-06T12:25:47Z</time>
      </trkpt>
      <trkpt lat="42.522202" lon="-9.018763">
        <ele>64.018</ele>
        <time>2017-05-06T12:25:54Z</time>
      </trkpt>
      <trkpt lat="42.522272" lon="-9.018676">
        <ele>66.028</ele>
        <time>2017-05-06T12:26:02Z</time>
      </trkpt>
      <trkpt lat="42.522286" lon="-9.018541">
        <ele>66.032</ele>
        <time>2017-05-06T12:26:10Z</time>
      </trkpt>
      <trkpt lat="42.522288" lon="-9.018412">
        <ele>66.058</ele>
        <time>2017-05-06T12:26:17Z</time>
      </trkpt>
      <trkpt lat="42.522302" lon="-9.018290">
        <ele>66.052</ele>
        <time>2017-05-06T12:26:24Z</time>
      </trkpt>
      <trkpt lat="42.522317" lon="-9.018160">
        <ele>66.017</ele>
        <time>2017-05-06T12:26:32Z</time>
      </trkpt>
      <trkpt lat="42.522330" lon="-9.018035">
        <ele>66.008</ele>
        <time>2017-05-06T12:26:39Z</time>
      </trkpt>
      <trkpt lat="42.522357" lon="-9.017905">
        <ele>67.096</ele>
        <time>2017-05-06T12:26:45Z</time>
      </trkpt>
      <trkpt lat="42.522398" lon="-9.017797">
        <ele>67.012</ele>
        <time>2017-05-06T12:26:51Z</time>
      </trkpt>
      <trkpt lat="42.522451" lon="-9.017689">
        <ele>67.061</ele>
        <time>2017-05-06T12:26:58Z</time>
      </trkpt>
      <trkpt lat="42.522494" lon="-9.017575">
        <ele>65.075</ele>
        <time>2017-05-06T12:27:04Z</time>
      </trkpt>
      <trkpt lat="42.522488" lon="-9.017445">
        <ele>64.091</ele>
        <time>2017-05-06T12:27:18Z</time>
      </trkpt>
      <trkpt lat="42.522566" lon="-9.017340">
        <ele>64.040</ele>
        <time>2017-05-06T12:27:24Z</time>
      </trkpt>
      <trkpt lat="42.522632" lon="-9.017253">
        <ele>64.010</ele>
        <time>2017-05-06T12:27:29Z</time>
      </trkpt>
      <trkpt lat="42.522700" lon="-9.017150">
        <ele>64.054</ele>
        <time>2017-05-06T12:27:35Z</time>
      </trkpt>
      <trkpt lat="42.522782" lon="-9.017028">
        <ele>66.063</ele>
        <time>2017-05-06T12:27:43Z</time>
      </trkpt>
      <trkpt lat="42.522850" lon="-9.016918">
        <ele>64.044</ele>
        <time>2017-05-06T12:27:49Z</time>
      </trkpt>
      <trkpt lat="42.522923" lon="-9.016808">
        <ele>64.018</ele>
        <time>2017-05-06T12:27:56Z</time>
      </trkpt>
      <trkpt lat="42.522964" lon="-9.016681">
        <ele>65.008</ele>
        <time>2017-05-06T12:28:04Z</time>
      </trkpt>
      <trkpt lat="42.523030" lon="-9.016578">
        <ele>65.067</ele>
        <time>2017-05-06T12:28:11Z</time>
      </trkpt>
      <trkpt lat="42.523087" lon="-9.016482">
        <ele>64.063</ele>
        <time>2017-05-06T12:28:17Z</time>
      </trkpt>
      <trkpt lat="42.523148" lon="-9.016379">
        <ele>64.032</ele>
        <time>2017-05-06T12:28:24Z</time>
      </trkpt>
      <trkpt lat="42.523214" lon="-9.016291">
        <ele>66.096</ele>
        <time>2017-05-06T12:28:31Z</time>
      </trkpt>
      <trkpt lat="42.523276" lon="-9.016189">
        <ele>67.072</ele>
        <time>2017-05-06T12:28:39Z</time>
      </trkpt>
      <trkpt lat="42.523324" lon="-9.016082">
        <ele>65.021</ele>
        <time>2017-05-06T12:28:45Z</time>
      </trkpt>
      <trkpt lat="42.523383" lon="-9.015976">
        <ele>66.021</ele>
        <time>2017-05-06T12:28:52Z</time>
      </trkpt>
      <trkpt lat="42.523446" lon="-9.015866">
        <ele>65.025</ele>
        <time>2017-05-06T12:28:59Z</time>
      </trkpt>
      <trkpt lat="42.523512" lon="-9.015770">
        <ele>66.022</ele>
        <time>2017-05-06T12:29:06Z</time>
      </trkpt>
      <trkpt lat="42.523515" lon="-9.015631">
        <ele>65.062</ele>
        <time>2017-05-06T12:29:14Z</time>
      </trkpt>
      <trkpt lat="42.523513" lon="-9.015498">
        <ele>63.008</ele>
        <time>2017-05-06T12:29:20Z</time>
      </trkpt>
      <trkpt lat="42.523509" lon="-9.015367">
        <ele>63.008</ele>
        <time>2017-05-06T12:29:28Z</time>
      </trkpt>
      <trkpt lat="42.523525" lon="-9.015237">
        <ele>63.073</ele>
        <time>2017-05-06T12:29:35Z</time>
      </trkpt>
      <trkpt lat="42.523544" lon="-9.015100">
        <ele>62.089</ele>
        <time>2017-05-06T12:29:42Z</time>
      </trkpt>
      <trkpt lat="42.523554" lon="-9.014976">
        <ele>62.058</ele>
        <time>2017-05-06T12:29:48Z</time>
      </trkpt>
      <trkpt lat="42.523559" lon="-9.014852">
        <ele>61.052</ele>
        <time>2017-05-06T12:29:54Z</time>
      </trkpt>
      <trkpt lat="42.523556" lon="-9.014729">
        <ele>62.078</ele>
        <time>2017-05-06T12:30:01Z</time>
      </trkpt>
      <trkpt lat="42.523538" lon="-9.014598">
        <ele>62.077</ele>
        <time>2017-05-06T12:30:08Z</time>
      </trkpt>
      <trkpt lat="42.523530" lon="-9.014473">
        <ele>62.047</ele>
        <time>2017-05-06T12:30:15Z</time>
      </trkpt>
      <trkpt lat="42.523544" lon="-9.014340">
        <ele>62.041</ele>
        <time>2017-05-06T12:30:22Z</time>
      </trkpt>
      <trkpt lat="42.523560" lon="-9.014219">
        <ele>63.027</ele>
        <time>2017-05-06T12:30:30Z</time>
      </trkpt>
      <trkpt lat="42.523564" lon="-9.014081">
        <ele>64.068</ele>
        <time>2017-05-06T12:30:38Z</time>
      </trkpt>
      <trkpt lat="42.523570" lon="-9.013930">
        <ele>64.014</ele>
        <time>2017-05-06T12:30:45Z</time>
      </trkpt>
      <trkpt lat="42.523578" lon="-9.013797">
        <ele>64.008</ele>
        <time>2017-05-06T12:30:52Z</time>
      </trkpt>
      <trkpt lat="42.523585" lon="-9.013671">
        <ele>64.083</ele>
        <time>2017-05-06T12:30:58Z</time>
      </trkpt>
      <trkpt lat="42.523571" lon="-9.013535">
        <ele>63.079</ele>
        <time>2017-05-06T12:31:05Z</time>
      </trkpt>
      <trkpt lat="42.523560" lon="-9.013401">
        <ele>63.098</ele>
        <time>2017-05-06T12:31:12Z</time>
      </trkpt>
      <trkpt lat="42.523569" lon="-9.013266">
        <ele>63.082</ele>
        <time>2017-05-06T12:31:19Z</time>
      </trkpt>
      <trkpt lat="42.523567" lon="-9.013141">
        <ele>63.088</ele>
        <time>2017-05-06T12:31:25Z</time>
      </trkpt>
      <trkpt lat="42.523562" lon="-9.013015">
        <ele>62.037</ele>
        <time>2017-05-06T12:31:31Z</time>
      </trkpt>
      <trkpt lat="42.523550" lon="-9.012877">
        <ele>62.037</ele>
        <time>2017-05-06T12:31:45Z</time>
      </trkpt>
      <trkpt lat="42.523526" lon="-9.012745">
        <ele>63.071</ele>
        <time>2017-05-06T12:31:51Z</time>
      </trkpt>
      <trkpt lat="42.523483" lon="-9.012635">
        <ele>63.016</ele>
        <time>2017-05-06T12:31:59Z</time>
      </trkpt>
      <trkpt lat="42.523448" lon="-9.012509">
        <ele>63.076</ele>
        <time>2017-05-06T12:32:06Z</time>
      </trkpt>
      <trkpt lat="42.523425" lon="-9.012382">
        <ele>63.013</ele>
        <time>2017-05-06T12:32:13Z</time>
      </trkpt>
      <trkpt lat="42.523439" lon="-9.012261">
        <ele>63.008</ele>
        <time>2017-05-06T12:32:20Z</time>
      </trkpt>
      <trkpt lat="42.523530" lon="-9.012257">
        <ele>63.082</ele>
        <time>2017-05-06T12:32:27Z</time>
      </trkpt>
      <trkpt lat="42.523633" lon="-9.012276">
        <ele>63.038</ele>
        <time>2017-05-06T12:32:34Z</time>
      </trkpt>
      <trkpt lat="42.523738" lon="-9.012324">
        <ele>63.057</ele>
        <time>2017-05-06T12:32:42Z</time>
      </trkpt>
      <trkpt lat="42.523831" lon="-9.012310">
        <ele>63.051</ele>
        <time>2017-05-06T12:32:51Z</time>
      </trkpt>
      <trkpt lat="42.523882" lon="-9.012201">
        <ele>62.017</ele>
        <time>2017-05-06T12:33:01Z</time>
      </trkpt>
      <trkpt lat="42.523953" lon="-9.012098">
        <ele>63.086</ele>
        <time>2017-05-06T12:33:09Z</time>
      </trkpt>
      <trkpt lat="42.524040" lon="-9.012023">
        <ele>63.036</ele>
        <time>2017-05-06T12:33:17Z</time>
      </trkpt>
      <trkpt lat="42.524120" lon="-9.011935">
        <ele>64.070</ele>
        <time>2017-05-06T12:33:25Z</time>
      </trkpt>
      <trkpt lat="42.524198" lon="-9.011872">
        <ele>63.045</ele>
        <time>2017-05-06T12:33:36Z</time>
      </trkpt>
      <trkpt lat="42.524278" lon="-9.011797">
        <ele>63.047</ele>
        <time>2017-05-06T12:33:43Z</time>
      </trkpt>
      <trkpt lat="42.524373" lon="-9.011706">
        <ele>64.011</ele>
        <time>2017-05-06T12:33:52Z</time>
      </trkpt>
      <trkpt lat="42.524454" lon="-9.011618">
        <ele>63.008</ele>
        <time>2017-05-06T12:33:59Z</time>
      </trkpt>
      <trkpt lat="42.524542" lon="-9.011556">
        <ele>64.045</ele>
        <time>2017-05-06T12:34:06Z</time>
      </trkpt>
      <trkpt lat="42.524630" lon="-9.011514">
        <ele>63.081</ele>
        <time>2017-05-06T12:34:13Z</time>
      </trkpt>
      <trkpt lat="42.524738" lon="-9.011479">
        <ele>62.020</ele>
        <time>2017-05-06T12:34:21Z</time>
      </trkpt>
      <trkpt lat="42.524828" lon="-9.011435">
        <ele>63.034</ele>
        <time>2017-05-06T12:34:29Z</time>
      </trkpt>
      <trkpt lat="42.524910" lon="-9.011384">
        <ele>61.050</ele>
        <time>2017-05-06T12:34:39Z</time>
      </trkpt>
      <trkpt lat="42.524988" lon="-9.011304">
        <ele>59.019</ele>
        <time>2017-05-06T12:34:46Z</time>
      </trkpt>
      <trkpt lat="42.525080" lon="-9.011255">
        <ele>60.019</ele>
        <time>2017-05-06T12:34:54Z</time>
      </trkpt>
      <trkpt lat="42.525163" lon="-9.011202">
        <ele>59.093</ele>
        <time>2017-05-06T12:35:01Z</time>
      </trkpt>
      <trkpt lat="42.525250" lon="-9.011155">
        <ele>61.077</ele>
        <time>2017-05-06T12:35:08Z</time>
      </trkpt>
      <trkpt lat="42.525343" lon="-9.011120">
        <ele>60.061</ele>
        <time>2017-05-06T12:35:17Z</time>
      </trkpt>
      <trkpt lat="42.525432" lon="-9.011084">
        <ele>59.027</ele>
        <time>2017-05-06T12:35:24Z</time>
      </trkpt>
      <trkpt lat="42.525507" lon="-9.011010">
        <ele>58.008</ele>
        <time>2017-05-06T12:35:33Z</time>
      </trkpt>
      <trkpt lat="42.525586" lon="-9.010933">
        <ele>59.028</ele>
        <time>2017-05-06T12:35:40Z</time>
      </trkpt>
      <trkpt lat="42.525670" lon="-9.010880">
        <ele>59.014</ele>
        <time>2017-05-06T12:35:47Z</time>
      </trkpt>
      <trkpt lat="42.525757" lon="-9.010826">
        <ele>60.033</ele>
        <time>2017-05-06T12:35:54Z</time>
      </trkpt>
      <trkpt lat="42.525845" lon="-9.010760">
        <ele>61.077</ele>
        <time>2017-05-06T12:36:02Z</time>
      </trkpt>
      <trkpt lat="42.525951" lon="-9.010707">
        <ele>60.023</ele>
        <time>2017-05-06T12:36:13Z</time>
      </trkpt>
      <trkpt lat="42.526033" lon="-9.010631">
        <ele>60.092</ele>
        <time>2017-05-06T12:36:21Z</time>
      </trkpt>
      <trkpt lat="42.526118" lon="-9.010564">
        <ele>60.012</ele>
        <time>2017-05-06T12:36:30Z</time>
      </trkpt>
      <trkpt lat="42.526200" lon="-9.010487">
        <ele>60.026</ele>
        <time>2017-05-06T12:36:37Z</time>
      </trkpt>
      <trkpt lat="42.526292" lon="-9.010422">
        <ele>59.043</ele>
        <time>2017-05-06T12:36:44Z</time>
      </trkpt>
      <trkpt lat="42.526377" lon="-9.010374">
        <ele>60.064</ele>
        <time>2017-05-06T12:36:51Z</time>
      </trkpt>
      <trkpt lat="42.526468" lon="-9.010337">
        <ele>60.010</ele>
        <time>2017-05-06T12:36:58Z</time>
      </trkpt>
      <trkpt lat="42.526551" lon="-9.010285">
        <ele>61.008</ele>
        <time>2017-05-06T12:37:05Z</time>
      </trkpt>
      <trkpt lat="42.526610" lon="-9.010179">
        <ele>63.055</ele>
        <time>2017-05-06T12:37:13Z</time>
      </trkpt>
      <trkpt lat="42.526680" lon="-9.010078">
        <ele>62.071</ele>
        <time>2017-05-06T12:37:21Z</time>
      </trkpt>
      <trkpt lat="42.526765" lon="-9.010004">
        <ele>60.050</ele>
        <time>2017-05-06T12:37:29Z</time>
      </trkpt>
      <trkpt lat="42.526847" lon="-9.009927">
        <ele>61.074</ele>
        <time>2017-05-06T12:37:36Z</time>
      </trkpt>
      <trkpt lat="42.526918" lon="-9.009835">
        <ele>61.060</ele>
        <time>2017-05-06T12:37:43Z</time>
      </trkpt>
      <trkpt lat="42.526994" lon="-9.009746">
        <ele>61.099</ele>
        <time>2017-05-06T12:37:52Z</time>
      </trkpt>
      <trkpt lat="42.527083" lon="-9.009691">
        <ele>60.089</ele>
        <time>2017-05-06T12:38:00Z</time>
      </trkpt>
      <trkpt lat="42.527150" lon="-9.009602">
        <ele>60.043</ele>
        <time>2017-05-06T12:38:07Z</time>
      </trkpt>
      <trkpt lat="42.527177" lon="-9.009485">
        <ele>59.087</ele>
        <time>2017-05-06T12:38:14Z</time>
      </trkpt>
      <trkpt lat="42.527208" lon="-9.009361">
        <ele>59.042</ele>
        <time>2017-05-06T12:38:21Z</time>
      </trkpt>
      <trkpt lat="42.527247" lon="-9.009240">
        <ele>62.026</ele>
        <time>2017-05-06T12:38:29Z</time>
      </trkpt>
      <trkpt lat="42.527293" lon="-9.009125">
        <ele>62.008</ele>
        <time>2017-05-06T12:38:36Z</time>
      </trkpt>
      <trkpt lat="42.527343" lon="-9.009018">
        <ele>63.039</ele>
        <time>2017-05-06T12:38:44Z</time>
      </trkpt>
      <trkpt lat="42.527396" lon="-9.008897">
        <ele>63.075</ele>
        <time>2017-05-06T12:38:51Z</time>
      </trkpt>
      <trkpt lat="42.527452" lon="-9.008786">
        <ele>63.014</ele>
        <time>2017-05-06T12:38:58Z</time>
      </trkpt>
      <trkpt lat="42.527516" lon="-9.008674">
        <ele>63.068</ele>
        <time>2017-05-06T12:39:04Z</time>
      </trkpt>
      <trkpt lat="42.527574" lon="-9.008568">
        <ele>63.094</ele>
        <time>2017-05-06T12:39:11Z</time>
      </trkpt>
      <trkpt lat="42.527623" lon="-9.008465">
        <ele>63.073</ele>
        <time>2017-05-06T12:39:17Z</time>
      </trkpt>
      <trkpt lat="42.527686" lon="-9.008353">
        <ele>64.093</ele>
        <time>2017-05-06T12:39:24Z</time>
      </trkpt>
      <trkpt lat="42.527734" lon="-9.008234">
        <ele>64.077</ele>
        <time>2017-05-06T12:39:31Z</time>
      </trkpt>
      <trkpt lat="42.527785" lon="-9.008112">
        <ele>63.022</ele>
        <time>2017-05-06T12:39:38Z</time>
      </trkpt>
      <trkpt lat="42.527841" lon="-9.007998">
        <ele>63.062</ele>
        <time>2017-05-06T12:39:46Z</time>
      </trkpt>
      <trkpt lat="42.527883" lon="-9.007883">
        <ele>63.008</ele>
        <time>2017-05-06T12:39:55Z</time>
      </trkpt>
      <trkpt lat="42.527939" lon="-9.007763">
        <ele>62.008</ele>
        <time>2017-05-06T12:40:02Z</time>
      </trkpt>
      <trkpt lat="42.527991" lon="-9.007641">
        <ele>62.093</ele>
        <time>2017-05-06T12:40:09Z</time>
      </trkpt>
      <trkpt lat="42.528033" lon="-9.007526">
        <ele>62.079</ele>
        <time>2017-05-06T12:40:16Z</time>
      </trkpt>
      <trkpt lat="42.528080" lon="-9.007407">
        <ele>62.048</ele>
        <time>2017-05-06T12:40:23Z</time>
      </trkpt>
      <trkpt lat="42.528126" lon="-9.007293">
        <ele>62.052</ele>
        <time>2017-05-06T12:40:30Z</time>
      </trkpt>
      <trkpt lat="42.528172" lon="-9.007177">
        <ele>63.068</ele>
        <time>2017-05-06T12:40:37Z</time>
      </trkpt>
      <trkpt lat="42.528219" lon="-9.007061">
        <ele>63.057</ele>
        <time>2017-05-06T12:40:44Z</time>
      </trkpt>
      <trkpt lat="42.528268" lon="-9.006945">
        <ele>63.017</ele>
        <time>2017-05-06T12:40:51Z</time>
      </trkpt>
      <trkpt lat="42.528314" lon="-9.006828">
        <ele>63.021</ele>
        <time>2017-05-06T12:40:59Z</time>
      </trkpt>
      <trkpt lat="42.528358" lon="-9.006709">
        <ele>63.097</ele>
        <time>2017-05-06T12:41:06Z</time>
      </trkpt>
      <trkpt lat="42.528406" lon="-9.006591">
        <ele>64.023</ele>
        <time>2017-05-06T12:41:12Z</time>
      </trkpt>
      <trkpt lat="42.528449" lon="-9.006468">
        <ele>65.025</ele>
        <time>2017-05-06T12:41:19Z</time>
      </trkpt>
      <trkpt lat="42.528495" lon="-9.006363">
        <ele>64.008</ele>
        <time>2017-05-06T12:41:25Z</time>
      </trkpt>
      <trkpt lat="42.528534" lon="-9.006242">
        <ele>64.040</ele>
        <time>2017-05-06T12:41:32Z</time>
      </trkpt>
      <trkpt lat="42.528576" lon="-9.006119">
        <ele>64.096</ele>
        <time>2017-05-06T12:41:39Z</time>
      </trkpt>
      <trkpt lat="42.528618" lon="-9.005999">
        <ele>64.055</ele>
        <time>2017-05-06T12:41:46Z</time>
      </trkpt>
      <trkpt lat="42.528670" lon="-9.005880">
        <ele>64.059</ele>
        <time>2017-05-06T12:41:53Z</time>
      </trkpt>
      <trkpt lat="42.528725" lon="-9.005771">
        <ele>64.045</ele>
        <time>2017-05-06T12:42:00Z</time>
      </trkpt>
      <trkpt lat="42.528793" lon="-9.005665">
        <ele>64.034</ele>
        <time>2017-05-06T12:42:07Z</time>
      </trkpt>
      <trkpt lat="42.528863" lon="-9.005563">
        <ele>62.034</ele>
        <time>2017-05-06T12:42:14Z</time>
      </trkpt>
      <trkpt lat="42.528915" lon="-9.005446">
        <ele>62.048</ele>
        <time>2017-05-06T12:42:21Z</time>
      </trkpt>
      <trkpt lat="42.528949" lon="-9.005320">
        <ele>61.096</ele>
        <time>2017-05-06T12:42:28Z</time>
      </trkpt>
      <trkpt lat="42.529021" lon="-9.005245">
        <ele>60.031</ele>
        <time>2017-05-06T12:42:34Z</time>
      </trkpt>
      <trkpt lat="42.529112" lon="-9.005184">
        <ele>58.024</ele>
        <time>2017-05-06T12:42:40Z</time>
      </trkpt>
      <trkpt lat="42.529182" lon="-9.005102">
        <ele>58.008</ele>
        <time>2017-05-06T12:42:47Z</time>
      </trkpt>
      <trkpt lat="42.529242" lon="-9.004999">
        <ele>58.050</ele>
        <time>2017-05-06T12:42:54Z</time>
      </trkpt>
      <trkpt lat="42.529307" lon="-9.004895">
        <ele>58.086</ele>
        <time>2017-05-06T12:43:02Z</time>
      </trkpt>
      <trkpt lat="42.529370" lon="-9.004792">
        <ele>58.085</ele>
        <time>2017-05-06T12:43:09Z</time>
      </trkpt>
      <trkpt lat="42.529421" lon="-9.004689">
        <ele>58.049</ele>
        <time>2017-05-06T12:43:15Z</time>
      </trkpt>
      <trkpt lat="42.529444" lon="-9.004552">
        <ele>58.085</ele>
        <time>2017-05-06T12:43:22Z</time>
      </trkpt>
      <trkpt lat="42.529447" lon="-9.004421">
        <ele>57.084</ele>
        <time>2017-05-06T12:43:28Z</time>
      </trkpt>
      <trkpt lat="42.529524" lon="-9.004341">
        <ele>57.054</ele>
        <time>2017-05-06T12:43:37Z</time>
      </trkpt>
      <trkpt lat="42.529619" lon="-9.004372">
        <ele>56.068</ele>
        <time>2017-05-06T12:43:44Z</time>
      </trkpt>
      <trkpt lat="42.529694" lon="-9.004284">
        <ele>56.065</ele>
        <time>2017-05-06T12:43:53Z</time>
      </trkpt>
      <trkpt lat="42.529715" lon="-9.004159">
        <ele>56.068</ele>
        <time>2017-05-06T12:44:00Z</time>
      </trkpt>
      <trkpt lat="42.529731" lon="-9.004024">
        <ele>56.014</ele>
        <time>2017-05-06T12:44:07Z</time>
      </trkpt>
      <trkpt lat="42.529762" lon="-9.003902">
        <ele>57.008</ele>
        <time>2017-05-06T12:44:14Z</time>
      </trkpt>
      <trkpt lat="42.529782" lon="-9.003768">
        <ele>57.097</ele>
        <time>2017-05-06T12:44:21Z</time>
      </trkpt>
      <trkpt lat="42.529810" lon="-9.003645">
        <ele>57.033</ele>
        <time>2017-05-06T12:44:27Z</time>
      </trkpt>
      <trkpt lat="42.529833" lon="-9.003520">
        <ele>58.072</ele>
        <time>2017-05-06T12:44:35Z</time>
      </trkpt>
      <trkpt lat="42.529861" lon="-9.003393">
        <ele>58.016</ele>
        <time>2017-05-06T12:44:41Z</time>
      </trkpt>
      <trkpt lat="42.529891" lon="-9.003266">
        <ele>59.042</ele>
        <time>2017-05-06T12:44:48Z</time>
      </trkpt>
      <trkpt lat="42.529922" lon="-9.003132">
        <ele>59.021</ele>
        <time>2017-05-06T12:44:55Z</time>
      </trkpt>
      <trkpt lat="42.529938" lon="-9.003011">
        <ele>60.061</ele>
        <time>2017-05-06T12:45:03Z</time>
      </trkpt>
      <trkpt lat="42.529950" lon="-9.002881">
        <ele>59.045</ele>
        <time>2017-05-06T12:45:09Z</time>
      </trkpt>
      <trkpt lat="42.529955" lon="-9.002743">
        <ele>59.011</ele>
        <time>2017-05-06T12:45:16Z</time>
      </trkpt>
      <trkpt lat="42.529960" lon="-9.002604">
        <ele>59.021</ele>
        <time>2017-05-06T12:45:22Z</time>
      </trkpt>
      <trkpt lat="42.529954" lon="-9.002468">
        <ele>60.003</ele>
        <time>2017-05-06T12:45:29Z</time>
      </trkpt>
      <trkpt lat="42.529950" lon="-9.002335">
        <ele>60.008</ele>
        <time>2017-05-06T12:45:36Z</time>
      </trkpt>
      <trkpt lat="42.529935" lon="-9.002198">
        <ele>60.072</ele>
        <time>2017-05-06T12:45:46Z</time>
      </trkpt>
      <trkpt lat="42.529937" lon="-9.002070">
        <ele>60.098</ele>
        <time>2017-05-06T12:45:52Z</time>
      </trkpt>
      <trkpt lat="42.529933" lon="-9.001939">
        <ele>60.047</ele>
        <time>2017-05-06T12:45:59Z</time>
      </trkpt>
      <trkpt lat="42.529924" lon="-9.001804">
        <ele>61.031</ele>
        <time>2017-05-06T12:46:05Z</time>
      </trkpt>
      <trkpt lat="42.529898" lon="-9.001685">
        <ele>62.027</ele>
        <time>2017-05-06T12:46:11Z</time>
      </trkpt>
      <trkpt lat="42.529873" lon="-9.001566">
        <ele>62.066</ele>
        <time>2017-05-06T12:46:17Z</time>
      </trkpt>
      <trkpt lat="42.529856" lon="-9.001439">
        <ele>62.056</ele>
        <time>2017-05-06T12:46:25Z</time>
      </trkpt>
      <trkpt lat="42.529861" lon="-9.001302">
        <ele>62.060</ele>
        <time>2017-05-06T12:46:32Z</time>
      </trkpt>
      <trkpt lat="42.529874" lon="-9.001171">
        <ele>62.042</ele>
        <time>2017-05-06T12:46:39Z</time>
      </trkpt>
      <trkpt lat="42.529882" lon="-9.001031">
        <ele>61.022</ele>
        <time>2017-05-06T12:46:45Z</time>
      </trkpt>
      <trkpt lat="42.529890" lon="-9.000902">
        <ele>61.014</ele>
        <time>2017-05-06T12:47:01Z</time>
      </trkpt>
      <trkpt lat="42.529887" lon="-9.000780">
        <ele>61.008</ele>
        <time>2017-05-06T12:47:08Z</time>
      </trkpt>
      <trkpt lat="42.529873" lon="-9.000656">
        <ele>61.085</ele>
        <time>2017-05-06T12:47:15Z</time>
      </trkpt>
      <trkpt lat="42.529885" lon="-9.000494">
        <ele>61.041</ele>
        <time>2017-05-06T12:47:23Z</time>
      </trkpt>
      <trkpt lat="42.529893" lon="-9.000360">
        <ele>61.090</ele>
        <time>2017-05-06T12:47:31Z</time>
      </trkpt>
      <trkpt lat="42.529904" lon="-9.000226">
        <ele>62.074</ele>
        <time>2017-05-06T12:47:41Z</time>
      </trkpt>
      <trkpt lat="42.529927" lon="-9.000107">
        <ele>61.020</ele>
        <time>2017-05-06T12:47:47Z</time>
      </trkpt>
      <trkpt lat="42.529957" lon="-8.999956">
        <ele>61.079</ele>
        <time>2017-05-06T12:47:55Z</time>
      </trkpt>
      <trkpt lat="42.530004" lon="-8.999831">
        <ele>61.099</ele>
        <time>2017-05-06T12:48:02Z</time>
      </trkpt>
      <trkpt lat="42.530073" lon="-8.999739">
        <ele>62.013</ele>
        <time>2017-05-06T12:48:13Z</time>
      </trkpt>
      <trkpt lat="42.530124" lon="-8.999622">
        <ele>61.024</ele>
        <time>2017-05-06T12:48:19Z</time>
      </trkpt>
      <trkpt lat="42.530139" lon="-8.999488">
        <ele>60.004</ele>
        <time>2017-05-06T12:48:26Z</time>
      </trkpt>
      <trkpt lat="42.530145" lon="-8.999353">
        <ele>61.014</ele>
        <time>2017-05-06T12:48:33Z</time>
      </trkpt>
      <trkpt lat="42.530134" lon="-8.999219">
        <ele>61.008</ele>
        <time>2017-05-06T12:48:40Z</time>
      </trkpt>
      <trkpt lat="42.530095" lon="-8.999099">
        <ele>60.093</ele>
        <time>2017-05-06T12:48:47Z</time>
      </trkpt>
      <trkpt lat="42.530044" lon="-8.998999">
        <ele>60.069</ele>
        <time>2017-05-06T12:48:54Z</time>
      </trkpt>
      <trkpt lat="42.529994" lon="-8.998873">
        <ele>61.018</ele>
        <time>2017-05-06T12:49:06Z</time>
      </trkpt>
      <trkpt lat="42.529949" lon="-8.998762">
        <ele>62.092</ele>
        <time>2017-05-06T12:49:13Z</time>
      </trkpt>
      <trkpt lat="42.529905" lon="-8.998645">
        <ele>62.058</ele>
        <time>2017-05-06T12:49:20Z</time>
      </trkpt>
      <trkpt lat="42.529843" lon="-8.998543">
        <ele>61.097</ele>
        <time>2017-05-06T12:49:28Z</time>
      </trkpt>
      <trkpt lat="42.529751" lon="-8.998508">
        <ele>62.077</ele>
        <time>2017-05-06T12:49:34Z</time>
      </trkpt>
      <trkpt lat="42.529650" lon="-8.998519">
        <ele>61.011</ele>
        <time>2017-05-06T12:49:42Z</time>
      </trkpt>
      <trkpt lat="42.529601" lon="-8.998409">
        <ele>61.076</ele>
        <time>2017-05-06T12:49:49Z</time>
      </trkpt>
      <trkpt lat="42.529637" lon="-8.998528">
        <ele>60.090</ele>
        <time>2017-05-06T12:50:13Z</time>
      </trkpt>
      <trkpt lat="42.529547" lon="-8.998592">
        <ele>60.019</ele>
        <time>2017-05-06T12:50:21Z</time>
      </trkpt>
      <trkpt lat="42.529469" lon="-8.998653">
        <ele>65.008</ele>
        <time>2017-05-06T12:50:36Z</time>
      </trkpt>
      <trkpt lat="42.529550" lon="-8.998576">
        <ele>63.048</ele>
        <time>2017-05-06T12:51:24Z</time>
      </trkpt>
      <trkpt lat="42.529646" lon="-8.998532">
        <ele>63.024</ele>
        <time>2017-05-06T12:51:31Z</time>
      </trkpt>
      <trkpt lat="42.529721" lon="-8.998465">
        <ele>64.083</ele>
        <time>2017-05-06T12:51:38Z</time>
      </trkpt>
      <trkpt lat="42.529804" lon="-8.998404">
        <ele>64.047</ele>
        <time>2017-05-06T12:51:45Z</time>
      </trkpt>
      <trkpt lat="42.529892" lon="-8.998345">
        <ele>64.073</ele>
        <time>2017-05-06T12:51:52Z</time>
      </trkpt>
      <trkpt lat="42.529987" lon="-8.998273">
        <ele>64.012</ele>
        <time>2017-05-06T12:52:00Z</time>
      </trkpt>
      <trkpt lat="42.530083" lon="-8.998221">
        <ele>63.052</ele>
        <time>2017-05-06T12:52:07Z</time>
      </trkpt>
      <trkpt lat="42.530173" lon="-8.998174">
        <ele>63.056</ele>
        <time>2017-05-06T12:52:14Z</time>
      </trkpt>
      <trkpt lat="42.530271" lon="-8.998137">
        <ele>64.018</ele>
        <time>2017-05-06T12:52:21Z</time>
      </trkpt>
      <trkpt lat="42.530363" lon="-8.998099">
        <ele>65.098</ele>
        <time>2017-05-06T12:52:28Z</time>
      </trkpt>
      <trkpt lat="42.530451" lon="-8.998073">
        <ele>66.017</ele>
        <time>2017-05-06T12:52:34Z</time>
      </trkpt>
      <trkpt lat="42.530539" lon="-8.998045">
        <ele>66.008</ele>
        <time>2017-05-06T12:52:40Z</time>
      </trkpt>
      <trkpt lat="42.530652" lon="-8.998040">
        <ele>67.052</ele>
        <time>2017-05-06T12:52:49Z</time>
      </trkpt>
      <trkpt lat="42.530752" lon="-8.998032">
        <ele>66.058</ele>
        <time>2017-05-06T12:52:57Z</time>
      </trkpt>
      <trkpt lat="42.530845" lon="-8.998018">
        <ele>65.027</ele>
        <time>2017-05-06T12:53:04Z</time>
      </trkpt>
      <trkpt lat="42.530953" lon="-8.998012">
        <ele>63.091</ele>
        <time>2017-05-06T12:53:12Z</time>
      </trkpt>
      <trkpt lat="42.531047" lon="-8.997992">
        <ele>63.027</ele>
        <time>2017-05-06T12:53:19Z</time>
      </trkpt>
      <trkpt lat="42.531148" lon="-8.997966">
        <ele>64.096</ele>
        <time>2017-05-06T12:53:27Z</time>
      </trkpt>
      <trkpt lat="42.531251" lon="-8.997927">
        <ele>65.016</ele>
        <time>2017-05-06T12:53:39Z</time>
      </trkpt>
      <trkpt lat="42.531335" lon="-8.997873">
        <ele>68.070</ele>
        <time>2017-05-06T12:53:50Z</time>
      </trkpt>
      <trkpt lat="42.531419" lon="-8.997807">
        <ele>69.023</ele>
        <time>2017-05-06T12:54:01Z</time>
      </trkpt>
      <trkpt lat="42.531512" lon="-8.997755">
        <ele>68.083</ele>
        <time>2017-05-06T12:54:07Z</time>
      </trkpt>
      <trkpt lat="42.531612" lon="-8.997732">
        <ele>66.011</ele>
        <time>2017-05-06T12:54:14Z</time>
      </trkpt>
      <trkpt lat="42.531702" lon="-8.997693">
        <ele>66.008</ele>
        <time>2017-05-06T12:54:22Z</time>
      </trkpt>
      <trkpt lat="42.531795" lon="-8.997642">
        <ele>66.073</ele>
        <time>2017-05-06T12:54:29Z</time>
      </trkpt>
      <trkpt lat="42.531891" lon="-8.997598">
        <ele>68.039</ele>
        <time>2017-05-06T12:54:37Z</time>
      </trkpt>
      <trkpt lat="42.531938" lon="-8.997460">
        <ele>71.088</ele>
        <time>2017-05-06T12:54:46Z</time>
      </trkpt>
      <trkpt lat="42.531969" lon="-8.997331">
        <ele>71.042</ele>
        <time>2017-05-06T12:54:53Z</time>
      </trkpt>
      <trkpt lat="42.532020" lon="-8.997218">
        <ele>68.098</ele>
        <time>2017-05-06T12:55:01Z</time>
      </trkpt>
      <trkpt lat="42.532054" lon="-8.997103">
        <ele>68.017</ele>
        <time>2017-05-06T12:55:10Z</time>
      </trkpt>
      <trkpt lat="42.532099" lon="-8.996991">
        <ele>68.077</ele>
        <time>2017-05-06T12:55:17Z</time>
      </trkpt>
      <trkpt lat="42.532152" lon="-8.996873">
        <ele>70.011</ele>
        <time>2017-05-06T12:55:26Z</time>
      </trkpt>
      <trkpt lat="42.532220" lon="-8.996744">
        <ele>71.025</ele>
        <time>2017-05-06T12:55:33Z</time>
      </trkpt>
      <trkpt lat="42.532264" lon="-8.996620">
        <ele>72.026</ele>
        <time>2017-05-06T12:55:42Z</time>
      </trkpt>
      <trkpt lat="42.532308" lon="-8.996495">
        <ele>72.008</ele>
        <time>2017-05-06T12:55:48Z</time>
      </trkpt>
      <trkpt lat="42.532343" lon="-8.996365">
        <ele>73.008</ele>
        <time>2017-05-06T12:55:56Z</time>
      </trkpt>
      <trkpt lat="42.532386" lon="-8.996253">
        <ele>71.033</ele>
        <time>2017-05-06T12:56:01Z</time>
      </trkpt>
      <trkpt lat="42.532407" lon="-8.996125">
        <ele>72.089</ele>
        <time>2017-05-06T12:56:08Z</time>
      </trkpt>
      <trkpt lat="42.532434" lon="-8.995994">
        <ele>71.058</ele>
        <time>2017-05-06T12:56:15Z</time>
      </trkpt>
      <trkpt lat="42.532485" lon="-8.995885">
        <ele>72.022</ele>
        <time>2017-05-06T12:56:22Z</time>
      </trkpt>
      <trkpt lat="42.532539" lon="-8.995777">
        <ele>72.038</ele>
        <time>2017-05-06T12:56:29Z</time>
      </trkpt>
      <trkpt lat="42.532592" lon="-8.995667">
        <ele>71.057</ele>
        <time>2017-05-06T12:56:36Z</time>
      </trkpt>
      <trkpt lat="42.532646" lon="-8.995559">
        <ele>71.097</ele>
        <time>2017-05-06T12:56:45Z</time>
      </trkpt>
      <trkpt lat="42.532702" lon="-8.995458">
        <ele>70.031</ele>
        <time>2017-05-06T12:56:51Z</time>
      </trkpt>
      <trkpt lat="42.532783" lon="-8.995347">
        <ele>69.037</ele>
        <time>2017-05-06T12:56:58Z</time>
      </trkpt>
      <trkpt lat="42.532854" lon="-8.995264">
        <ele>68.049</ele>
        <time>2017-05-06T12:57:04Z</time>
      </trkpt>
      <trkpt lat="42.532955" lon="-8.995288">
        <ele>67.013</ele>
        <time>2017-05-06T12:57:12Z</time>
      </trkpt>
      <trkpt lat="42.533026" lon="-8.995187">
        <ele>67.008</ele>
        <time>2017-05-06T12:57:20Z</time>
      </trkpt>
      <trkpt lat="42.533103" lon="-8.995076">
        <ele>67.024</ele>
        <time>2017-05-06T12:57:28Z</time>
      </trkpt>
      <trkpt lat="42.533166" lon="-8.994978">
        <ele>69.090</ele>
        <time>2017-05-06T12:57:35Z</time>
      </trkpt>
      <trkpt lat="42.533235" lon="-8.994872">
        <ele>70.059</ele>
        <time>2017-05-06T12:57:43Z</time>
      </trkpt>
      <trkpt lat="42.533305" lon="-8.994790">
        <ele>72.073</ele>
        <time>2017-05-06T12:57:50Z</time>
      </trkpt>
      <trkpt lat="42.533385" lon="-8.994696">
        <ele>72.059</ele>
        <time>2017-05-06T12:57:57Z</time>
      </trkpt>
      <trkpt lat="42.533458" lon="-8.994614">
        <ele>72.058</ele>
        <time>2017-05-06T12:58:04Z</time>
      </trkpt>
      <trkpt lat="42.533535" lon="-8.994531">
        <ele>73.058</ele>
        <time>2017-05-06T12:58:11Z</time>
      </trkpt>
      <trkpt lat="42.533597" lon="-8.994433">
        <ele>73.042</ele>
        <time>2017-05-06T12:58:18Z</time>
      </trkpt>
      <trkpt lat="42.533653" lon="-8.994327">
        <ele>74.057</ele>
        <time>2017-05-06T12:58:25Z</time>
      </trkpt>
      <trkpt lat="42.533707" lon="-8.994217">
        <ele>74.000</ele>
        <time>2017-05-06T12:58:32Z</time>
      </trkpt>
      <trkpt lat="42.533762" lon="-8.994113">
        <ele>74.020</ele>
        <time>2017-05-06T12:58:39Z</time>
      </trkpt>
      <trkpt lat="42.533817" lon="-8.994000">
        <ele>73.008</ele>
        <time>2017-05-06T12:58:46Z</time>
      </trkpt>
      <trkpt lat="42.533859" lon="-8.993878">
        <ele>75.046</ele>
        <time>2017-05-06T12:58:54Z</time>
      </trkpt>
      <trkpt lat="42.533904" lon="-8.993771">
        <ele>76.092</ele>
        <time>2017-05-06T12:59:01Z</time>
      </trkpt>
      <trkpt lat="42.533942" lon="-8.993645">
        <ele>77.011</ele>
        <time>2017-05-06T12:59:08Z</time>
      </trkpt>
      <trkpt lat="42.533990" lon="-8.993525">
        <ele>76.015</ele>
        <time>2017-05-06T12:59:15Z</time>
      </trkpt>
      <trkpt lat="42.534066" lon="-8.993435">
        <ele>79.011</ele>
        <time>2017-05-06T12:59:24Z</time>
      </trkpt>
      <trkpt lat="42.534139" lon="-8.993341">
        <ele>75.080</ele>
        <time>2017-05-06T12:59:31Z</time>
      </trkpt>
      <trkpt lat="42.534213" lon="-8.993260">
        <ele>76.090</ele>
        <time>2017-05-06T12:59:38Z</time>
      </trkpt>
      <trkpt lat="42.534286" lon="-8.993170">
        <ele>75.074</ele>
        <time>2017-05-06T12:59:44Z</time>
      </trkpt>
      <trkpt lat="42.534349" lon="-8.993074">
        <ele>76.022</ele>
        <time>2017-05-06T12:59:51Z</time>
      </trkpt>
      <trkpt lat="42.534409" lon="-8.992978">
        <ele>73.062</ele>
        <time>2017-05-06T12:59:58Z</time>
      </trkpt>
      <trkpt lat="42.534455" lon="-8.992871">
        <ele>74.008</ele>
        <time>2017-05-06T13:00:04Z</time>
      </trkpt>
      <trkpt lat="42.534521" lon="-8.992773">
        <ele>72.008</ele>
        <time>2017-05-06T13:00:11Z</time>
      </trkpt>
      <trkpt lat="42.534591" lon="-8.992672">
        <ele>71.043</ele>
        <time>2017-05-06T13:00:18Z</time>
      </trkpt>
      <trkpt lat="42.534638" lon="-8.992565">
        <ele>71.019</ele>
        <time>2017-05-06T13:00:25Z</time>
      </trkpt>
      <trkpt lat="42.534655" lon="-8.992431">
        <ele>69.028</ele>
        <time>2017-05-06T13:00:32Z</time>
      </trkpt>
      <trkpt lat="42.534707" lon="-8.992308">
        <ele>69.012</ele>
        <time>2017-05-06T13:00:39Z</time>
      </trkpt>
      <trkpt lat="42.534760" lon="-8.992205">
        <ele>69.088</ele>
        <time>2017-05-06T13:00:45Z</time>
      </trkpt>
      <trkpt lat="42.534814" lon="-8.992090">
        <ele>68.047</ele>
        <time>2017-05-06T13:00:53Z</time>
      </trkpt>
      <trkpt lat="42.534874" lon="-8.991990">
        <ele>68.017</ele>
        <time>2017-05-06T13:01:00Z</time>
      </trkpt>
      <trkpt lat="42.534939" lon="-8.991886">
        <ele>70.091</ele>
        <time>2017-05-06T13:01:08Z</time>
      </trkpt>
      <trkpt lat="42.534992" lon="-8.991783">
        <ele>67.055</ele>
        <time>2017-05-06T13:01:13Z</time>
      </trkpt>
      <trkpt lat="42.535054" lon="-8.991663">
        <ele>67.007</ele>
        <time>2017-05-06T13:01:21Z</time>
      </trkpt>
      <trkpt lat="42.535120" lon="-8.991566">
        <ele>67.017</ele>
        <time>2017-05-06T13:01:28Z</time>
      </trkpt>
      <trkpt lat="42.535189" lon="-8.991469">
        <ele>67.008</ele>
        <time>2017-05-06T13:01:35Z</time>
      </trkpt>
      <trkpt lat="42.535249" lon="-8.991376">
        <ele>68.086</ele>
        <time>2017-05-06T13:01:41Z</time>
      </trkpt>
      <trkpt lat="42.535319" lon="-8.991280">
        <ele>68.082</ele>
        <time>2017-05-06T13:01:48Z</time>
      </trkpt>
      <trkpt lat="42.535386" lon="-8.991174">
        <ele>68.051</ele>
        <time>2017-05-06T13:01:55Z</time>
      </trkpt>
      <trkpt lat="42.535456" lon="-8.991073">
        <ele>69.055</ele>
        <time>2017-05-06T13:02:02Z</time>
      </trkpt>
      <trkpt lat="42.535517" lon="-8.990976">
        <ele>68.071</ele>
        <time>2017-05-06T13:02:09Z</time>
      </trkpt>
      <trkpt lat="42.535576" lon="-8.990878">
        <ele>68.080</ele>
        <time>2017-05-06T13:02:19Z</time>
      </trkpt>
      <trkpt lat="42.535652" lon="-8.990802">
        <ele>68.040</ele>
        <time>2017-05-06T13:02:25Z</time>
      </trkpt>
      <trkpt lat="42.535735" lon="-8.990724">
        <ele>66.054</ele>
        <time>2017-05-06T13:02:31Z</time>
      </trkpt>
      <trkpt lat="42.535820" lon="-8.990665">
        <ele>65.073</ele>
        <time>2017-05-06T13:02:37Z</time>
      </trkpt>
      <trkpt lat="42.535911" lon="-8.990607">
        <ele>64.085</ele>
        <time>2017-05-06T13:02:44Z</time>
      </trkpt>
      <trkpt lat="42.535988" lon="-8.990533">
        <ele>65.013</ele>
        <time>2017-05-06T13:02:51Z</time>
      </trkpt>
      <trkpt lat="42.536055" lon="-8.990448">
        <ele>64.008</ele>
        <time>2017-05-06T13:02:57Z</time>
      </trkpt>
      <trkpt lat="42.536129" lon="-8.990356">
        <ele>64.088</ele>
        <time>2017-05-06T13:03:04Z</time>
      </trkpt>
      <trkpt lat="42.536199" lon="-8.990274">
        <ele>65.024</ele>
        <time>2017-05-06T13:03:11Z</time>
      </trkpt>
      <trkpt lat="42.536268" lon="-8.990169">
        <ele>65.043</ele>
        <time>2017-05-06T13:03:18Z</time>
      </trkpt>
      <trkpt lat="42.536343" lon="-8.990077">
        <ele>67.057</ele>
        <time>2017-05-06T13:03:25Z</time>
      </trkpt>
      <trkpt lat="42.536410" lon="-8.989992">
        <ele>67.043</ele>
        <time>2017-05-06T13:03:30Z</time>
      </trkpt>
      <trkpt lat="42.536484" lon="-8.989911">
        <ele>68.052</ele>
        <time>2017-05-06T13:03:36Z</time>
      </trkpt>
      <trkpt lat="42.536560" lon="-8.989838">
        <ele>67.022</ele>
        <time>2017-05-06T13:03:42Z</time>
      </trkpt>
      <trkpt lat="42.536640" lon="-8.989762">
        <ele>67.026</ele>
        <time>2017-05-06T13:03:48Z</time>
      </trkpt>
      <trkpt lat="42.536727" lon="-8.989726">
        <ele>66.016</ele>
        <time>2017-05-06T13:03:55Z</time>
      </trkpt>
      <trkpt lat="42.536825" lon="-8.989696">
        <ele>66.076</ele>
        <time>2017-05-06T13:04:02Z</time>
      </trkpt>
      <trkpt lat="42.536918" lon="-8.989676">
        <ele>66.013</ele>
        <time>2017-05-06T13:04:09Z</time>
      </trkpt>
      <trkpt lat="42.537009" lon="-8.989676">
        <ele>68.008</ele>
        <time>2017-05-06T13:04:16Z</time>
      </trkpt>
      <trkpt lat="42.537101" lon="-8.989636">
        <ele>64.012</ele>
        <time>2017-05-06T13:04:22Z</time>
      </trkpt>
      <trkpt lat="42.537187" lon="-8.989594">
        <ele>63.088</ele>
        <time>2017-05-06T13:04:28Z</time>
      </trkpt>
      <trkpt lat="42.537277" lon="-8.989538">
        <ele>63.077</ele>
        <time>2017-05-06T13:04:34Z</time>
      </trkpt>
      <trkpt lat="42.537364" lon="-8.989464">
        <ele>64.021</ele>
        <time>2017-05-06T13:04:41Z</time>
      </trkpt>
      <trkpt lat="42.537437" lon="-8.989388">
        <ele>63.037</ele>
        <time>2017-05-06T13:04:50Z</time>
      </trkpt>
      <trkpt lat="42.537508" lon="-8.989308">
        <ele>64.046</ele>
        <time>2017-05-06T13:04:57Z</time>
      </trkpt>
      <trkpt lat="42.537581" lon="-8.989212">
        <ele>63.066</ele>
        <time>2017-05-06T13:05:04Z</time>
      </trkpt>
      <trkpt lat="42.537664" lon="-8.989150">
        <ele>63.020</ele>
        <time>2017-05-06T13:05:11Z</time>
      </trkpt>
      <trkpt lat="42.537744" lon="-8.989071">
        <ele>59.077</ele>
        <time>2017-05-06T13:05:20Z</time>
      </trkpt>
      <trkpt lat="42.537834" lon="-8.989011">
        <ele>61.061</ele>
        <time>2017-05-06T13:05:27Z</time>
      </trkpt>
      <trkpt lat="42.537922" lon="-8.988938">
        <ele>62.027</ele>
        <time>2017-05-06T13:05:34Z</time>
      </trkpt>
      <trkpt lat="42.537993" lon="-8.988852">
        <ele>67.008</ele>
        <time>2017-05-06T13:05:41Z</time>
      </trkpt>
      <trkpt lat="42.538078" lon="-8.988783">
        <ele>67.058</ele>
        <time>2017-05-06T13:05:48Z</time>
      </trkpt>
      <trkpt lat="42.538156" lon="-8.988705">
        <ele>67.074</ele>
        <time>2017-05-06T13:05:55Z</time>
      </trkpt>
      <trkpt lat="42.538230" lon="-8.988614">
        <ele>68.033</ele>
        <time>2017-05-06T13:06:02Z</time>
      </trkpt>
      <trkpt lat="42.538303" lon="-8.988528">
        <ele>66.087</ele>
        <time>2017-05-06T13:06:09Z</time>
      </trkpt>
      <trkpt lat="42.538382" lon="-8.988451">
        <ele>65.063</ele>
        <time>2017-05-06T13:06:16Z</time>
      </trkpt>
      <trkpt lat="42.538431" lon="-8.988343">
        <ele>66.082</ele>
        <time>2017-05-06T13:06:23Z</time>
      </trkpt>
      <trkpt lat="42.538479" lon="-8.988231">
        <ele>67.052</ele>
        <time>2017-05-06T13:06:30Z</time>
      </trkpt>
      <trkpt lat="42.538519" lon="-8.988108">
        <ele>68.086</ele>
        <time>2017-05-06T13:06:37Z</time>
      </trkpt>
      <trkpt lat="42.538540" lon="-8.987973">
        <ele>72.053</ele>
        <time>2017-05-06T13:06:45Z</time>
      </trkpt>
      <trkpt lat="42.538574" lon="-8.987840">
        <ele>71.004</ele>
        <time>2017-05-06T13:06:52Z</time>
      </trkpt>
      <trkpt lat="42.538606" lon="-8.987724">
        <ele>71.014</ele>
        <time>2017-05-06T13:06:58Z</time>
      </trkpt>
      <trkpt lat="42.538637" lon="-8.987589">
        <ele>69.008</ele>
        <time>2017-05-06T13:07:04Z</time>
      </trkpt>
      <trkpt lat="42.538665" lon="-8.987458">
        <ele>66.026</ele>
        <time>2017-05-06T13:07:11Z</time>
      </trkpt>
      <trkpt lat="42.538672" lon="-8.987336">
        <ele>66.032</ele>
        <time>2017-05-06T13:07:18Z</time>
      </trkpt>
      <trkpt lat="42.538668" lon="-8.987199">
        <ele>71.011</ele>
        <time>2017-05-06T13:07:27Z</time>
      </trkpt>
      <trkpt lat="42.538654" lon="-8.987063">
        <ele>67.015</ele>
        <time>2017-05-06T13:07:33Z</time>
      </trkpt>
      <trkpt lat="42.538647" lon="-8.986932">
        <ele>65.091</ele>
        <time>2017-05-06T13:07:39Z</time>
      </trkpt>
      <trkpt lat="42.538651" lon="-8.986803">
        <ele>65.090</ele>
        <time>2017-05-06T13:07:47Z</time>
      </trkpt>
      <trkpt lat="42.538662" lon="-8.986927">
        <ele>59.070</ele>
        <time>2017-05-06T13:08:22Z</time>
      </trkpt>
      <trkpt lat="42.538723" lon="-8.987031">
        <ele>59.024</ele>
        <time>2017-05-06T13:08:29Z</time>
      </trkpt>
      <trkpt lat="42.538817" lon="-8.987041">
        <ele>60.066</ele>
        <time>2017-05-06T13:08:37Z</time>
      </trkpt>
      <trkpt lat="42.538886" lon="-8.986961">
        <ele>60.029</ele>
        <time>2017-05-06T13:08:43Z</time>
      </trkpt>
      <trkpt lat="42.538979" lon="-8.986933">
        <ele>60.021</ele>
        <time>2017-05-06T13:08:50Z</time>
      </trkpt>
      <trkpt lat="42.539068" lon="-8.986880">
        <ele>61.008</ele>
        <time>2017-05-06T13:08:59Z</time>
      </trkpt>
      <trkpt lat="42.539100" lon="-8.986995">
        <ele>63.027</ele>
        <time>2017-05-06T13:09:14Z</time>
      </trkpt>
      <trkpt lat="42.539187" lon="-8.987099">
        <ele>62.013</ele>
        <time>2017-05-06T13:09:22Z</time>
      </trkpt>
      <trkpt lat="42.539266" lon="-8.987186">
        <ele>64.052</ele>
        <time>2017-05-06T13:09:30Z</time>
      </trkpt>
      <trkpt lat="42.539352" lon="-8.987147">
        <ele>65.086</ele>
        <time>2017-05-06T13:09:37Z</time>
      </trkpt>
      <trkpt lat="42.539439" lon="-8.987081">
        <ele>64.032</ele>
        <time>2017-05-06T13:09:45Z</time>
      </trkpt>
      <trkpt lat="42.539525" lon="-8.987035">
        <ele>65.081</ele>
        <time>2017-05-06T13:09:52Z</time>
      </trkpt>
      <trkpt lat="42.539604" lon="-8.986973">
        <ele>64.031</ele>
        <time>2017-05-06T13:09:57Z</time>
      </trkpt>
      <trkpt lat="42.539689" lon="-8.986926">
        <ele>63.025</ele>
        <time>2017-05-06T13:10:03Z</time>
      </trkpt>
      <trkpt lat="42.539784" lon="-8.986872">
        <ele>64.044</ele>
        <time>2017-05-06T13:10:11Z</time>
      </trkpt>
      <trkpt lat="42.539875" lon="-8.986798">
        <ele>65.005</ele>
        <time>2017-05-06T13:10:17Z</time>
      </trkpt>
      <trkpt lat="42.539962" lon="-8.986738">
        <ele>65.015</ele>
        <time>2017-05-06T13:10:24Z</time>
      </trkpt>
      <trkpt lat="42.539886" lon="-8.986630">
        <ele>64.008</ele>
        <time>2017-05-06T13:10:34Z</time>
      </trkpt>
      <trkpt lat="42.539811" lon="-8.986563">
        <ele>64.015</ele>
        <time>2017-05-06T13:10:41Z</time>
      </trkpt>
      <trkpt lat="42.539805" lon="-8.986441">
        <ele>63.031</ele>
        <time>2017-05-06T13:10:57Z</time>
      </trkpt>
      <trkpt lat="42.539880" lon="-8.986368">
        <ele>63.010</ele>
        <time>2017-05-06T13:11:17Z</time>
      </trkpt>
      <trkpt lat="42.539963" lon="-8.986309">
        <ele>62.024</ele>
        <time>2017-05-06T13:11:30Z</time>
      </trkpt>
      <trkpt lat="42.540052" lon="-8.986256">
        <ele>62.080</ele>
        <time>2017-05-06T13:11:37Z</time>
      </trkpt>
      <trkpt lat="42.540143" lon="-8.986203">
        <ele>62.049</ele>
        <time>2017-05-06T13:11:44Z</time>
      </trkpt>
      <trkpt lat="42.540227" lon="-8.986131">
        <ele>64.079</ele>
        <time>2017-05-06T13:11:52Z</time>
      </trkpt>
      <trkpt lat="42.540295" lon="-8.986042">
        <ele>64.073</ele>
        <time>2017-05-06T13:11:59Z</time>
      </trkpt>
      <trkpt lat="42.540374" lon="-8.985964">
        <ele>64.054</ele>
        <time>2017-05-06T13:12:06Z</time>
      </trkpt>
      <trkpt lat="42.540456" lon="-8.985871">
        <ele>64.056</ele>
        <time>2017-05-06T13:12:14Z</time>
      </trkpt>
      <trkpt lat="42.540530" lon="-8.985793">
        <ele>66.011</ele>
        <time>2017-05-06T13:12:21Z</time>
      </trkpt>
      <trkpt lat="42.540614" lon="-8.985731">
        <ele>67.008</ele>
        <time>2017-05-06T13:12:28Z</time>
      </trkpt>
      <trkpt lat="42.540696" lon="-8.985658">
        <ele>67.016</ele>
        <time>2017-05-06T13:12:35Z</time>
      </trkpt>
      <trkpt lat="42.540772" lon="-8.985566">
        <ele>67.042</ele>
        <time>2017-05-06T13:12:48Z</time>
      </trkpt>
      <trkpt lat="42.540772" lon="-8.985566">
        <ele>67.051</ele>
        <time>2017-05-06T13:12:48Z</time>
      </trkpt>
      <trkpt lat="42.540848" lon="-8.985484">
        <ele>67.085</ele>
        <time>2017-05-06T13:12:54Z</time>
      </trkpt>
      <trkpt lat="42.540931" lon="-8.985408">
        <ele>69.081</ele>
        <time>2017-05-06T13:13:01Z</time>
      </trkpt>
      <trkpt lat="42.541013" lon="-8.985329">
        <ele>69.040</ele>
        <time>2017-05-06T13:13:08Z</time>
      </trkpt>
      <trkpt lat="42.541101" lon="-8.985258">
        <ele>69.020</ele>
        <time>2017-05-06T13:13:15Z</time>
      </trkpt>
      <trkpt lat="42.541208" lon="-8.985202">
        <ele>68.054</ele>
        <time>2017-05-06T13:13:23Z</time>
      </trkpt>
      <trkpt lat="42.541298" lon="-8.985138">
        <ele>68.022</ele>
        <time>2017-05-06T13:13:31Z</time>
      </trkpt>
      <trkpt lat="42.541376" lon="-8.985066">
        <ele>67.062</ele>
        <time>2017-05-06T13:13:38Z</time>
      </trkpt>
      <trkpt lat="42.541475" lon="-8.985024">
        <ele>66.008</ele>
        <time>2017-05-06T13:13:45Z</time>
      </trkpt>
      <trkpt lat="42.541559" lon="-8.984975">
        <ele>67.008</ele>
        <time>2017-05-06T13:13:51Z</time>
      </trkpt>
      <trkpt lat="42.541650" lon="-8.984925">
        <ele>68.053</ele>
        <time>2017-05-06T13:13:59Z</time>
      </trkpt>
      <trkpt lat="42.541755" lon="-8.984865">
        <ele>67.019</ele>
        <time>2017-05-06T13:14:07Z</time>
      </trkpt>
      <trkpt lat="42.541868" lon="-8.984829">
        <ele>67.088</ele>
        <time>2017-05-06T13:14:15Z</time>
      </trkpt>
      <trkpt lat="42.541968" lon="-8.984805">
        <ele>67.052</ele>
        <time>2017-05-06T13:14:22Z</time>
      </trkpt>
      <trkpt lat="42.542063" lon="-8.984774">
        <ele>67.048</ele>
        <time>2017-05-06T13:14:29Z</time>
      </trkpt>
      <trkpt lat="42.542160" lon="-8.984745">
        <ele>66.057</ele>
        <time>2017-05-06T13:14:36Z</time>
      </trkpt>
      <trkpt lat="42.542259" lon="-8.984719">
        <ele>66.047</ele>
        <time>2017-05-06T13:14:43Z</time>
      </trkpt>
      <trkpt lat="42.542362" lon="-8.984729">
        <ele>66.091</ele>
        <time>2017-05-06T13:14:50Z</time>
      </trkpt>
      <trkpt lat="42.542483" lon="-8.984745">
        <ele>65.083</ele>
        <time>2017-05-06T13:15:00Z</time>
      </trkpt>
      <trkpt lat="42.542571" lon="-8.984715">
        <ele>65.025</ele>
        <time>2017-05-06T13:15:06Z</time>
      </trkpt>
      <trkpt lat="42.542655" lon="-8.984671">
        <ele>65.017</ele>
        <time>2017-05-06T13:15:13Z</time>
      </trkpt>
      <trkpt lat="42.542739" lon="-8.984720">
        <ele>67.008</ele>
        <time>2017-05-06T13:15:20Z</time>
      </trkpt>
      <trkpt lat="42.542830" lon="-8.984757">
        <ele>68.029</ele>
        <time>2017-05-06T13:15:28Z</time>
      </trkpt>
      <trkpt lat="42.542922" lon="-8.984755">
        <ele>69.015</ele>
        <time>2017-05-06T13:15:36Z</time>
      </trkpt>
      <trkpt lat="42.543023" lon="-8.984745">
        <ele>73.084</ele>
        <time>2017-05-06T13:15:45Z</time>
      </trkpt>
      <trkpt lat="42.543114" lon="-8.984721">
        <ele>76.078</ele>
        <time>2017-05-06T13:15:52Z</time>
      </trkpt>
      <trkpt lat="42.543202" lon="-8.984691">
        <ele>76.094</ele>
        <time>2017-05-06T13:15:59Z</time>
      </trkpt>
      <trkpt lat="42.543300" lon="-8.984669">
        <ele>73.053</ele>
        <time>2017-05-06T13:16:06Z</time>
      </trkpt>
      <trkpt lat="42.543383" lon="-8.984617">
        <ele>72.063</ele>
        <time>2017-05-06T13:16:13Z</time>
      </trkpt>
      <trkpt lat="42.543484" lon="-8.984597">
        <ele>69.027</ele>
        <time>2017-05-06T13:16:20Z</time>
      </trkpt>
      <trkpt lat="42.543574" lon="-8.984565">
        <ele>67.025</ele>
        <time>2017-05-06T13:16:26Z</time>
      </trkpt>
      <trkpt lat="42.543694" lon="-8.984536">
        <ele>66.026</ele>
        <time>2017-05-06T13:16:34Z</time>
      </trkpt>
      <trkpt lat="42.543795" lon="-8.984506">
        <ele>64.008</ele>
        <time>2017-05-06T13:16:40Z</time>
      </trkpt>
      <trkpt lat="42.543880" lon="-8.984462">
        <ele>63.008</ele>
        <time>2017-05-06T13:16:46Z</time>
      </trkpt>
      <trkpt lat="42.543934" lon="-8.984355">
        <ele>63.033</ele>
        <time>2017-05-06T13:16:53Z</time>
      </trkpt>
      <trkpt lat="42.543988" lon="-8.984252">
        <ele>63.039</ele>
        <time>2017-05-06T13:17:06Z</time>
      </trkpt>
      <trkpt lat="42.544050" lon="-8.984151">
        <ele>60.048</ele>
        <time>2017-05-06T13:17:17Z</time>
      </trkpt>
      <trkpt lat="42.544116" lon="-8.984054">
        <ele>60.062</ele>
        <time>2017-05-06T13:17:24Z</time>
      </trkpt>
      <trkpt lat="42.544163" lon="-8.983942">
        <ele>60.098</ele>
        <time>2017-05-06T13:17:31Z</time>
      </trkpt>
      <trkpt lat="42.544248" lon="-8.983989">
        <ele>59.027</ele>
        <time>2017-05-06T13:17:44Z</time>
      </trkpt>
      <trkpt lat="42.544256" lon="-8.983861">
        <ele>59.017</ele>
        <time>2017-05-06T13:17:54Z</time>
      </trkpt>
      <trkpt lat="42.544345" lon="-8.983803">
        <ele>59.061</ele>
        <time>2017-05-06T13:18:04Z</time>
      </trkpt>
      <trkpt lat="42.544438" lon="-8.983797">
        <ele>60.054</ele>
        <time>2017-05-06T13:18:12Z</time>
      </trkpt>
      <trkpt lat="42.544329" lon="-8.983817">
        <ele>59.056</ele>
        <time>2017-05-06T13:18:45Z</time>
      </trkpt>
      <trkpt lat="42.544251" lon="-8.983907">
        <ele>58.011</ele>
        <time>2017-05-06T13:18:53Z</time>
      </trkpt>
      <trkpt lat="42.544226" lon="-8.984027">
        <ele>58.008</ele>
        <time>2017-05-06T13:18:59Z</time>
      </trkpt>
      <trkpt lat="42.544259" lon="-8.984150">
        <ele>60.086</ele>
        <time>2017-05-06T13:19:07Z</time>
      </trkpt>
      <trkpt lat="42.544350" lon="-8.984131">
        <ele>66.052</ele>
        <time>2017-05-06T13:19:16Z</time>
      </trkpt>
      <trkpt lat="42.544440" lon="-8.984144">
        <ele>66.011</ele>
        <time>2017-05-06T13:19:21Z</time>
      </trkpt>
      <trkpt lat="42.544546" lon="-8.984163">
        <ele>66.075</ele>
        <time>2017-05-06T13:19:29Z</time>
      </trkpt>
      <trkpt lat="42.544631" lon="-8.984216">
        <ele>64.091</ele>
        <time>2017-05-06T13:19:35Z</time>
      </trkpt>
      <trkpt lat="42.544727" lon="-8.984266">
        <ele>64.030</ele>
        <time>2017-05-06T13:19:42Z</time>
      </trkpt>
      <trkpt lat="42.544811" lon="-8.984314">
        <ele>64.010</ele>
        <time>2017-05-06T13:19:48Z</time>
      </trkpt>
      <trkpt lat="42.544902" lon="-8.984296">
        <ele>64.094</ele>
        <time>2017-05-06T13:19:55Z</time>
      </trkpt>
      <trkpt lat="42.544987" lon="-8.984229">
        <ele>65.026</ele>
        <time>2017-05-06T13:20:03Z</time>
      </trkpt>
      <trkpt lat="42.545063" lon="-8.984158">
        <ele>64.047</ele>
        <time>2017-05-06T13:20:09Z</time>
      </trkpt>
      <trkpt lat="42.545135" lon="-8.984065">
        <ele>65.011</ele>
        <time>2017-05-06T13:20:17Z</time>
      </trkpt>
      <trkpt lat="42.545210" lon="-8.983968">
        <ele>64.008</ele>
        <time>2017-05-06T13:20:24Z</time>
      </trkpt>
      <trkpt lat="42.545290" lon="-8.983854">
        <ele>62.083</ele>
        <time>2017-05-06T13:20:32Z</time>
      </trkpt>
      <trkpt lat="42.545371" lon="-8.983762">
        <ele>61.029</ele>
        <time>2017-05-06T13:20:43Z</time>
      </trkpt>
      <trkpt lat="42.545481" lon="-8.983702">
        <ele>60.038</ele>
        <time>2017-05-06T13:20:51Z</time>
      </trkpt>
      <trkpt lat="42.545570" lon="-8.983751">
        <ele>59.052</ele>
        <time>2017-05-06T13:20:59Z</time>
      </trkpt>
      <trkpt lat="42.545651" lon="-8.983871">
        <ele>61.018</ele>
        <time>2017-05-06T13:21:22Z</time>
      </trkpt>
      <trkpt lat="42.545722" lon="-8.983975">
        <ele>61.097</ele>
        <time>2017-05-06T13:21:28Z</time>
      </trkpt>
      <trkpt lat="42.545794" lon="-8.984049">
        <ele>60.057</ele>
        <time>2017-05-06T13:21:34Z</time>
      </trkpt>
      <trkpt lat="42.545869" lon="-8.984142">
        <ele>61.041</ele>
        <time>2017-05-06T13:21:40Z</time>
      </trkpt>
      <trkpt lat="42.545945" lon="-8.984235">
        <ele>61.029</ele>
        <time>2017-05-06T13:21:46Z</time>
      </trkpt>
      <trkpt lat="42.546018" lon="-8.984312">
        <ele>62.000</ele>
        <time>2017-05-06T13:21:52Z</time>
      </trkpt>
      <trkpt lat="42.546093" lon="-8.984390">
        <ele>63.020</ele>
        <time>2017-05-06T13:21:58Z</time>
      </trkpt>
      <trkpt lat="42.546198" lon="-8.984431">
        <ele>64.008</ele>
        <time>2017-05-06T13:22:06Z</time>
      </trkpt>
      <trkpt lat="42.546304" lon="-8.984444">
        <ele>65.043</ele>
        <time>2017-05-06T13:22:14Z</time>
      </trkpt>
      <trkpt lat="42.546407" lon="-8.984474">
        <ele>64.069</ele>
        <time>2017-05-06T13:22:21Z</time>
      </trkpt>
      <trkpt lat="42.546505" lon="-8.984499">
        <ele>64.078</ele>
        <time>2017-05-06T13:22:28Z</time>
      </trkpt>
      <trkpt lat="42.546598" lon="-8.984482">
        <ele>66.082</ele>
        <time>2017-05-06T13:22:35Z</time>
      </trkpt>
      <trkpt lat="42.546688" lon="-8.984465">
        <ele>66.038</ele>
        <time>2017-05-06T13:22:41Z</time>
      </trkpt>
      <trkpt lat="42.546779" lon="-8.984494">
        <ele>66.087</ele>
        <time>2017-05-06T13:22:47Z</time>
      </trkpt>
      <trkpt lat="42.546869" lon="-8.984523">
        <ele>67.047</ele>
        <time>2017-05-06T13:22:54Z</time>
      </trkpt>
      <trkpt lat="42.546958" lon="-8.984553">
        <ele>67.071</ele>
        <time>2017-05-06T13:23:01Z</time>
      </trkpt>
      <trkpt lat="42.547043" lon="-8.984609">
        <ele>65.066</ele>
        <time>2017-05-06T13:23:07Z</time>
      </trkpt>
      <trkpt lat="42.547130" lon="-8.984670">
        <ele>64.029</ele>
        <time>2017-05-06T13:23:13Z</time>
      </trkpt>
      <trkpt lat="42.547209" lon="-8.984757">
        <ele>65.021</ele>
        <time>2017-05-06T13:23:20Z</time>
      </trkpt>
      <trkpt lat="42.547290" lon="-8.984835">
        <ele>65.008</ele>
        <time>2017-05-06T13:23:27Z</time>
      </trkpt>
      <trkpt lat="42.547382" lon="-8.984883">
        <ele>67.037</ele>
        <time>2017-05-06T13:23:36Z</time>
      </trkpt>
      <trkpt lat="42.547459" lon="-8.984948">
        <ele>67.063</ele>
        <time>2017-05-06T13:23:43Z</time>
      </trkpt>
      <trkpt lat="42.547550" lon="-8.985001">
        <ele>67.022</ele>
        <time>2017-05-06T13:23:51Z</time>
      </trkpt>
      <trkpt lat="42.547638" lon="-8.985059">
        <ele>68.086</ele>
        <time>2017-05-06T13:23:57Z</time>
      </trkpt>
      <trkpt lat="42.547733" lon="-8.985098">
        <ele>69.032</ele>
        <time>2017-05-06T13:24:04Z</time>
      </trkpt>
      <trkpt lat="42.547822" lon="-8.985155">
        <ele>67.041</ele>
        <time>2017-05-06T13:24:10Z</time>
      </trkpt>
      <trkpt lat="42.547905" lon="-8.985206">
        <ele>69.081</ele>
        <time>2017-05-06T13:24:17Z</time>
      </trkpt>
      <trkpt lat="42.548003" lon="-8.985230">
        <ele>69.075</ele>
        <time>2017-05-06T13:24:24Z</time>
      </trkpt>
      <trkpt lat="42.548094" lon="-8.985251">
        <ele>70.045</ele>
        <time>2017-05-06T13:24:31Z</time>
      </trkpt>
      <trkpt lat="42.548188" lon="-8.985263">
        <ele>70.047</ele>
        <time>2017-05-06T13:24:38Z</time>
      </trkpt>
      <trkpt lat="42.548290" lon="-8.985295">
        <ele>69.011</ele>
        <time>2017-05-06T13:24:45Z</time>
      </trkpt>
      <trkpt lat="42.548387" lon="-8.985298">
        <ele>68.008</ele>
        <time>2017-05-06T13:24:51Z</time>
      </trkpt>
      <trkpt lat="42.548483" lon="-8.985294">
        <ele>67.045</ele>
        <time>2017-05-06T13:24:57Z</time>
      </trkpt>
      <trkpt lat="42.548583" lon="-8.985278">
        <ele>65.011</ele>
        <time>2017-05-06T13:25:03Z</time>
      </trkpt>
      <trkpt lat="42.548686" lon="-8.985262">
        <ele>64.060</ele>
        <time>2017-05-06T13:25:10Z</time>
      </trkpt>
      <trkpt lat="42.548781" lon="-8.985263">
        <ele>63.014</ele>
        <time>2017-05-06T13:25:16Z</time>
      </trkpt>
      <trkpt lat="42.548877" lon="-8.985273">
        <ele>63.050</ele>
        <time>2017-05-06T13:25:23Z</time>
      </trkpt>
      <trkpt lat="42.548975" lon="-8.985284">
        <ele>63.049</ele>
        <time>2017-05-06T13:25:30Z</time>
      </trkpt>
      <trkpt lat="42.549077" lon="-8.985306">
        <ele>62.059</ele>
        <time>2017-05-06T13:25:37Z</time>
      </trkpt>
      <trkpt lat="42.549172" lon="-8.985322">
        <ele>63.023</ele>
        <time>2017-05-06T13:25:44Z</time>
      </trkpt>
      <trkpt lat="42.549267" lon="-8.985333">
        <ele>64.094</ele>
        <time>2017-05-06T13:25:51Z</time>
      </trkpt>
      <trkpt lat="42.549358" lon="-8.985348">
        <ele>65.057</ele>
        <time>2017-05-06T13:25:59Z</time>
      </trkpt>
      <trkpt lat="42.549455" lon="-8.985361">
        <ele>67.022</ele>
        <time>2017-05-06T13:26:06Z</time>
      </trkpt>
      <trkpt lat="42.549551" lon="-8.985374">
        <ele>70.008</ele>
        <time>2017-05-06T13:26:14Z</time>
      </trkpt>
      <trkpt lat="42.549643" lon="-8.985427">
        <ele>71.050</ele>
        <time>2017-05-06T13:26:20Z</time>
      </trkpt>
      <trkpt lat="42.549731" lon="-8.985486">
        <ele>70.086</ele>
        <time>2017-05-06T13:26:26Z</time>
      </trkpt>
      <trkpt lat="42.549810" lon="-8.985542">
        <ele>71.025</ele>
        <time>2017-05-06T13:26:33Z</time>
      </trkpt>
      <trkpt lat="42.549893" lon="-8.985597">
        <ele>73.099</ele>
        <time>2017-05-06T13:26:40Z</time>
      </trkpt>
      <trkpt lat="42.549980" lon="-8.985652">
        <ele>73.055</ele>
        <time>2017-05-06T13:26:47Z</time>
      </trkpt>
      <trkpt lat="42.550068" lon="-8.985700">
        <ele>74.074</ele>
        <time>2017-05-06T13:26:54Z</time>
      </trkpt>
      <trkpt lat="42.550169" lon="-8.985718">
        <ele>86.084</ele>
        <time>2017-05-06T13:27:06Z</time>
      </trkpt>
      <trkpt lat="42.550266" lon="-8.985701">
        <ele>92.078</ele>
        <time>2017-05-06T13:27:15Z</time>
      </trkpt>
      <trkpt lat="42.550352" lon="-8.985746">
        <ele>86.054</ele>
        <time>2017-05-06T13:27:19Z</time>
      </trkpt>
      <trkpt lat="42.550448" lon="-8.985765">
        <ele>89.056</ele>
        <time>2017-05-06T13:27:26Z</time>
      </trkpt>
      <trkpt lat="42.550551" lon="-8.985757">
        <ele>85.011</ele>
        <time>2017-05-06T13:27:32Z</time>
      </trkpt>
      <trkpt lat="42.550650" lon="-8.985737">
        <ele>81.008</ele>
        <time>2017-05-06T13:27:37Z</time>
      </trkpt>
      <trkpt lat="42.550751" lon="-8.985716">
        <ele>78.036</ele>
        <time>2017-05-06T13:27:43Z</time>
      </trkpt>
      <trkpt lat="42.550853" lon="-8.985687">
        <ele>75.092</ele>
        <time>2017-05-06T13:27:49Z</time>
      </trkpt>
      <trkpt lat="42.550944" lon="-8.985655">
        <ele>73.071</ele>
        <time>2017-05-06T13:27:55Z</time>
      </trkpt>
      <trkpt lat="42.551041" lon="-8.985641">
        <ele>72.015</ele>
        <time>2017-05-06T13:28:01Z</time>
      </trkpt>
      <trkpt lat="42.551136" lon="-8.985633">
        <ele>71.051</ele>
        <time>2017-05-06T13:28:07Z</time>
      </trkpt>
      <trkpt lat="42.551231" lon="-8.985636">
        <ele>73.090</ele>
        <time>2017-05-06T13:28:15Z</time>
      </trkpt>
      <trkpt lat="42.551327" lon="-8.985649">
        <ele>73.030</ele>
        <time>2017-05-06T13:28:21Z</time>
      </trkpt>
      <trkpt lat="42.551419" lon="-8.985704">
        <ele>69.034</ele>
        <time>2017-05-06T13:28:27Z</time>
      </trkpt>
      <trkpt lat="42.551516" lon="-8.985791">
        <ele>70.043</ele>
        <time>2017-05-06T13:28:34Z</time>
      </trkpt>
      <trkpt lat="42.551591" lon="-8.985882">
        <ele>70.064</ele>
        <time>2017-05-06T13:28:41Z</time>
      </trkpt>
      <trkpt lat="42.551654" lon="-8.985972">
        <ele>69.010</ele>
        <time>2017-05-06T13:28:47Z</time>
      </trkpt>
      <trkpt lat="42.551720" lon="-8.986078">
        <ele>69.008</ele>
        <time>2017-05-06T13:28:54Z</time>
      </trkpt>
      <trkpt lat="42.551782" lon="-8.986170">
        <ele>68.065</ele>
        <time>2017-05-06T13:29:00Z</time>
      </trkpt>
      <trkpt lat="42.551846" lon="-8.986263">
        <ele>69.071</ele>
        <time>2017-05-06T13:29:07Z</time>
      </trkpt>
      <trkpt lat="42.551912" lon="-8.986364">
        <ele>68.020</ele>
        <time>2017-05-06T13:29:13Z</time>
      </trkpt>
      <trkpt lat="42.551978" lon="-8.986450">
        <ele>68.064</ele>
        <time>2017-05-06T13:29:19Z</time>
      </trkpt>
      <trkpt lat="42.552050" lon="-8.986547">
        <ele>67.080</ele>
        <time>2017-05-06T13:29:26Z</time>
      </trkpt>
      <trkpt lat="42.552126" lon="-8.986643">
        <ele>65.099</ele>
        <time>2017-05-06T13:29:33Z</time>
      </trkpt>
      <trkpt lat="42.552196" lon="-8.986744">
        <ele>65.059</ele>
        <time>2017-05-06T13:29:40Z</time>
      </trkpt>
      <trkpt lat="42.552261" lon="-8.986852">
        <ele>64.093</ele>
        <time>2017-05-06T13:29:47Z</time>
      </trkpt>
      <trkpt lat="42.552319" lon="-8.986948">
        <ele>64.043</ele>
        <time>2017-05-06T13:29:53Z</time>
      </trkpt>
      <trkpt lat="42.552385" lon="-8.987052">
        <ele>64.064</ele>
        <time>2017-05-06T13:30:00Z</time>
      </trkpt>
      <trkpt lat="42.552449" lon="-8.987149">
        <ele>65.010</ele>
        <time>2017-05-06T13:30:07Z</time>
      </trkpt>
      <trkpt lat="42.552516" lon="-8.987233">
        <ele>65.008</ele>
        <time>2017-05-06T13:30:14Z</time>
      </trkpt>
      <trkpt lat="42.552589" lon="-8.987328">
        <ele>66.045</ele>
        <time>2017-05-06T13:30:21Z</time>
      </trkpt>
      <trkpt lat="42.552667" lon="-8.987419">
        <ele>65.031</ele>
        <time>2017-05-06T13:30:28Z</time>
      </trkpt>
      <trkpt lat="42.552737" lon="-8.987505">
        <ele>65.050</ele>
        <time>2017-05-06T13:30:34Z</time>
      </trkpt>
      <trkpt lat="42.552819" lon="-8.987577">
        <ele>66.034</ele>
        <time>2017-05-06T13:30:41Z</time>
      </trkpt>
      <trkpt lat="42.552899" lon="-8.987655">
        <ele>66.010</ele>
        <time>2017-05-06T13:30:49Z</time>
      </trkpt>
      <trkpt lat="42.553008" lon="-8.987685">
        <ele>64.089</ele>
        <time>2017-05-06T13:31:02Z</time>
      </trkpt>
      <trkpt lat="42.553100" lon="-8.987747">
        <ele>64.099</ele>
        <time>2017-05-06T13:31:09Z</time>
      </trkpt>
      <trkpt lat="42.553188" lon="-8.987813">
        <ele>65.033</ele>
        <time>2017-05-06T13:31:16Z</time>
      </trkpt>
      <trkpt lat="42.553277" lon="-8.987865">
        <ele>67.072</ele>
        <time>2017-05-06T13:31:23Z</time>
      </trkpt>
      <trkpt lat="42.553365" lon="-8.987927">
        <ele>67.013</ele>
        <time>2017-05-06T13:31:36Z</time>
      </trkpt>
      <trkpt lat="42.553458" lon="-8.987979">
        <ele>66.014</ele>
        <time>2017-05-06T13:31:43Z</time>
      </trkpt>
      <trkpt lat="42.553541" lon="-8.988049">
        <ele>66.008</ele>
        <time>2017-05-06T13:31:50Z</time>
      </trkpt>
      <trkpt lat="42.553633" lon="-8.988099">
        <ele>66.058</ele>
        <time>2017-05-06T13:31:57Z</time>
      </trkpt>
      <trkpt lat="42.553723" lon="-8.988164">
        <ele>67.074</ele>
        <time>2017-05-06T13:32:08Z</time>
      </trkpt>
      <trkpt lat="42.553821" lon="-8.988223">
        <ele>70.033</ele>
        <time>2017-05-06T13:32:16Z</time>
      </trkpt>
      <trkpt lat="42.553917" lon="-8.988295">
        <ele>70.077</ele>
        <time>2017-05-06T13:32:23Z</time>
      </trkpt>
      <trkpt lat="42.554003" lon="-8.988347">
        <ele>71.063</ele>
        <time>2017-05-06T13:32:30Z</time>
      </trkpt>
      <trkpt lat="42.554103" lon="-8.988423">
        <ele>70.022</ele>
        <time>2017-05-06T13:32:37Z</time>
      </trkpt>
      <trkpt lat="42.554186" lon="-8.988486">
        <ele>68.012</ele>
        <time>2017-05-06T13:32:43Z</time>
      </trkpt>
      <trkpt lat="42.554272" lon="-8.988530">
        <ele>67.036</ele>
        <time>2017-05-06T13:32:50Z</time>
      </trkpt>
      <trkpt lat="42.554354" lon="-8.988582">
        <ele>67.037</ele>
        <time>2017-05-06T13:32:57Z</time>
      </trkpt>
      <trkpt lat="42.554450" lon="-8.988634">
        <ele>69.049</ele>
        <time>2017-05-06T13:33:06Z</time>
      </trkpt>
      <trkpt lat="42.554540" lon="-8.988688">
        <ele>71.013</ele>
        <time>2017-05-06T13:33:14Z</time>
      </trkpt>
      <trkpt lat="42.554622" lon="-8.988743">
        <ele>72.008</ele>
        <time>2017-05-06T13:33:21Z</time>
      </trkpt>
      <trkpt lat="42.554688" lon="-8.988839">
        <ele>69.014</ele>
        <time>2017-05-06T13:33:28Z</time>
      </trkpt>
      <trkpt lat="42.554747" lon="-8.988934">
        <ele>66.030</ele>
        <time>2017-05-06T13:33:35Z</time>
      </trkpt>
      <trkpt lat="42.554723" lon="-8.989068">
        <ele>66.089</ele>
        <time>2017-05-06T13:33:50Z</time>
      </trkpt>
      <trkpt lat="42.554687" lon="-8.989184">
        <ele>65.033</ele>
        <time>2017-05-06T13:33:57Z</time>
      </trkpt>
      <trkpt lat="42.554646" lon="-8.989305">
        <ele>65.049</ele>
        <time>2017-05-06T13:34:04Z</time>
      </trkpt>
      <trkpt lat="42.554668" lon="-8.989445">
        <ele>66.058</ele>
        <time>2017-05-06T13:34:14Z</time>
      </trkpt>
      <trkpt lat="42.554714" lon="-8.989557">
        <ele>67.058</ele>
        <time>2017-05-06T13:34:22Z</time>
      </trkpt>
      <trkpt lat="42.554776" lon="-8.989655">
        <ele>66.062</ele>
        <time>2017-05-06T13:34:30Z</time>
      </trkpt>
      <trkpt lat="42.554839" lon="-8.989773">
        <ele>64.092</ele>
        <time>2017-05-06T13:34:54Z</time>
      </trkpt>
      <trkpt lat="42.554889" lon="-8.989880">
        <ele>66.073</ele>
        <time>2017-05-06T13:35:01Z</time>
      </trkpt>
      <trkpt lat="42.554945" lon="-8.989989">
        <ele>67.020</ele>
        <time>2017-05-06T13:35:08Z</time>
      </trkpt>
      <trkpt lat="42.555017" lon="-8.990077">
        <ele>67.008</ele>
        <time>2017-05-06T13:35:15Z</time>
      </trkpt>
      <trkpt lat="42.555109" lon="-8.990134">
        <ele>67.070</ele>
        <time>2017-05-06T13:35:24Z</time>
      </trkpt>
      <trkpt lat="42.555178" lon="-8.990214">
        <ele>68.046</ele>
        <time>2017-05-06T13:35:31Z</time>
      </trkpt>
      <trkpt lat="42.555261" lon="-8.990278">
        <ele>67.085</ele>
        <time>2017-05-06T13:35:39Z</time>
      </trkpt>
      <trkpt lat="42.555339" lon="-8.990359">
        <ele>69.059</ele>
        <time>2017-05-06T13:35:47Z</time>
      </trkpt>
      <trkpt lat="42.555427" lon="-8.990393">
        <ele>73.075</ele>
        <time>2017-05-06T13:35:55Z</time>
      </trkpt>
      <trkpt lat="42.555526" lon="-8.990431">
        <ele>73.094</ele>
        <time>2017-05-06T13:36:03Z</time>
      </trkpt>
      <trkpt lat="42.555626" lon="-8.990431">
        <ele>73.064</ele>
        <time>2017-05-06T13:36:10Z</time>
      </trkpt>
      <trkpt lat="42.555740" lon="-8.990435">
        <ele>74.098</ele>
        <time>2017-05-06T13:36:18Z</time>
      </trkpt>
      <trkpt lat="42.555831" lon="-8.990448">
        <ele>75.063</ele>
        <time>2017-05-06T13:36:26Z</time>
      </trkpt>
      <trkpt lat="42.555923" lon="-8.990470">
        <ele>77.044</ele>
        <time>2017-05-06T13:36:33Z</time>
      </trkpt>
      <trkpt lat="42.556026" lon="-8.990494">
        <ele>78.018</ele>
        <time>2017-05-06T13:36:40Z</time>
      </trkpt>
      <trkpt lat="42.556139" lon="-8.990518">
        <ele>74.008</ele>
        <time>2017-05-06T13:36:48Z</time>
      </trkpt>
      <trkpt lat="42.556231" lon="-8.990515">
        <ele>76.087</ele>
        <time>2017-05-06T13:36:55Z</time>
      </trkpt>
      <trkpt lat="42.556323" lon="-8.990528">
        <ele>79.053</ele>
        <time>2017-05-06T13:37:03Z</time>
      </trkpt>
      <trkpt lat="42.556435" lon="-8.990541">
        <ele>75.082</ele>
        <time>2017-05-06T13:37:10Z</time>
      </trkpt>
      <trkpt lat="42.556532" lon="-8.990569">
        <ele>72.056</ele>
        <time>2017-05-06T13:37:16Z</time>
      </trkpt>
      <trkpt lat="42.556627" lon="-8.990599">
        <ele>71.072</ele>
        <time>2017-05-06T13:37:24Z</time>
      </trkpt>
      <trkpt lat="42.556718" lon="-8.990596">
        <ele>72.011</ele>
        <time>2017-05-06T13:37:31Z</time>
      </trkpt>
      <trkpt lat="42.556825" lon="-8.990612">
        <ele>73.051</ele>
        <time>2017-05-06T13:37:40Z</time>
      </trkpt>
      <trkpt lat="42.556921" lon="-8.990618">
        <ele>70.075</ele>
        <time>2017-05-06T13:37:47Z</time>
      </trkpt>
      <trkpt lat="42.557018" lon="-8.990651">
        <ele>68.064</ele>
        <time>2017-05-06T13:37:56Z</time>
      </trkpt>
      <trkpt lat="42.557106" lon="-8.990692">
        <ele>68.006</ele>
        <time>2017-05-06T13:38:04Z</time>
      </trkpt>
      <trkpt lat="42.557196" lon="-8.990708">
        <ele>68.016</ele>
        <time>2017-05-06T13:38:11Z</time>
      </trkpt>
      <trkpt lat="42.557273" lon="-8.990772">
        <ele>64.008</ele>
        <time>2017-05-06T13:38:19Z</time>
      </trkpt>
      <trkpt lat="42.557269" lon="-8.990900">
        <ele>62.017</ele>
        <time>2017-05-06T13:38:26Z</time>
      </trkpt>
      <trkpt lat="42.557297" lon="-8.991016">
        <ele>63.033</ele>
        <time>2017-05-06T13:38:35Z</time>
      </trkpt>
      <trkpt lat="42.557347" lon="-8.991120">
        <ele>64.012</ele>
        <time>2017-05-06T13:38:44Z</time>
      </trkpt>
      <trkpt lat="42.557440" lon="-8.991143">
        <ele>70.086</ele>
        <time>2017-05-06T13:38:53Z</time>
      </trkpt>
      <trkpt lat="42.557537" lon="-8.991169">
        <ele>68.082</ele>
        <time>2017-05-06T13:39:00Z</time>
      </trkpt>
      <trkpt lat="42.557639" lon="-8.991178">
        <ele>74.071</ele>
        <time>2017-05-06T13:39:09Z</time>
      </trkpt>
      <trkpt lat="42.557726" lon="-8.991231">
        <ele>73.041</ele>
        <time>2017-05-06T13:39:16Z</time>
      </trkpt>
      <trkpt lat="42.557764" lon="-8.991344">
        <ele>73.085</ele>
        <time>2017-05-06T13:39:24Z</time>
      </trkpt>
      <trkpt lat="42.557825" lon="-8.991442">
        <ele>71.039</ele>
        <time>2017-05-06T13:39:31Z</time>
      </trkpt>
      <trkpt lat="42.557908" lon="-8.991494">
        <ele>72.001</ele>
        <time>2017-05-06T13:39:38Z</time>
      </trkpt>
      <trkpt lat="42.558004" lon="-8.991498">
        <ele>71.021</ele>
        <time>2017-05-06T13:39:45Z</time>
      </trkpt>
      <trkpt lat="42.558104" lon="-8.991523">
        <ele>71.008</ele>
        <time>2017-05-06T13:39:54Z</time>
      </trkpt>
      <trkpt lat="42.558194" lon="-8.991538">
        <ele>72.084</ele>
        <time>2017-05-06T13:40:01Z</time>
      </trkpt>
      <trkpt lat="42.558291" lon="-8.991564">
        <ele>72.010</ele>
        <time>2017-05-06T13:40:08Z</time>
      </trkpt>
      <trkpt lat="42.558388" lon="-8.991565">
        <ele>70.049</ele>
        <time>2017-05-06T13:40:14Z</time>
      </trkpt>
      <trkpt lat="42.558478" lon="-8.991576">
        <ele>68.023</ele>
        <time>2017-05-06T13:40:20Z</time>
      </trkpt>
      <trkpt lat="42.558566" lon="-8.991631">
        <ele>67.019</ele>
        <time>2017-05-06T13:40:27Z</time>
      </trkpt>
      <trkpt lat="42.558650" lon="-8.991692">
        <ele>66.068</ele>
        <time>2017-05-06T13:40:33Z</time>
      </trkpt>
      <trkpt lat="42.558741" lon="-8.991730">
        <ele>65.048</ele>
        <time>2017-05-06T13:40:41Z</time>
      </trkpt>
      <trkpt lat="42.558835" lon="-8.991754">
        <ele>64.082</ele>
        <time>2017-05-06T13:40:47Z</time>
      </trkpt>
      <trkpt lat="42.558936" lon="-8.991783">
        <ele>62.024</ele>
        <time>2017-05-06T13:40:54Z</time>
      </trkpt>
      <trkpt lat="42.559030" lon="-8.991800">
        <ele>63.004</ele>
        <time>2017-05-06T13:41:01Z</time>
      </trkpt>
      <trkpt lat="42.559122" lon="-8.991815">
        <ele>64.014</ele>
        <time>2017-05-06T13:41:09Z</time>
      </trkpt>
      <trkpt lat="42.559229" lon="-8.991802">
        <ele>64.008</ele>
        <time>2017-05-06T13:41:17Z</time>
      </trkpt>
      <trkpt lat="42.559348" lon="-8.991825">
        <ele>64.093</ele>
        <time>2017-05-06T13:41:24Z</time>
      </trkpt>
      <trkpt lat="42.559446" lon="-8.991843">
        <ele>63.089</ele>
        <time>2017-05-06T13:41:31Z</time>
      </trkpt>
      <trkpt lat="42.559549" lon="-8.991850">
        <ele>63.038</ele>
        <time>2017-05-06T13:41:39Z</time>
      </trkpt>
      <trkpt lat="42.559668" lon="-8.991875">
        <ele>62.022</ele>
        <time>2017-05-06T13:41:46Z</time>
      </trkpt>
      <trkpt lat="42.559759" lon="-8.991886">
        <ele>60.078</ele>
        <time>2017-05-06T13:41:52Z</time>
      </trkpt>
      <trkpt lat="42.559868" lon="-8.991908">
        <ele>62.067</ele>
        <time>2017-05-06T13:41:59Z</time>
      </trkpt>
      <trkpt lat="42.559971" lon="-8.991936">
        <ele>62.067</ele>
        <time>2017-05-06T13:42:05Z</time>
      </trkpt>
      <trkpt lat="42.560082" lon="-8.991952">
        <ele>63.051</ele>
        <time>2017-05-06T13:42:12Z</time>
      </trkpt>
      <trkpt lat="42.560094" lon="-8.991810">
        <ele>61.037</ele>
        <time>2017-05-06T13:42:23Z</time>
      </trkpt>
      <trkpt lat="42.560120" lon="-8.991655">
        <ele>61.049</ele>
        <time>2017-05-06T13:42:31Z</time>
      </trkpt>
      <trkpt lat="42.560126" lon="-8.991529">
        <ele>61.013</ele>
        <time>2017-05-06T13:42:38Z</time>
      </trkpt>
      <trkpt lat="42.560163" lon="-8.991411">
        <ele>64.008</ele>
        <time>2017-05-06T13:42:46Z</time>
      </trkpt>
      <trkpt lat="42.560251" lon="-8.991359">
        <ele>63.074</ele>
        <time>2017-05-06T13:42:54Z</time>
      </trkpt>
      <trkpt lat="42.560344" lon="-8.991339">
        <ele>65.020</ele>
        <time>2017-05-06T13:43:02Z</time>
      </trkpt>
      <trkpt lat="42.560449" lon="-8.991334">
        <ele>66.029</ele>
        <time>2017-05-06T13:43:09Z</time>
      </trkpt>
      <trkpt lat="42.560542" lon="-8.991342">
        <ele>63.093</ele>
        <time>2017-05-06T13:43:15Z</time>
      </trkpt>
      <trkpt lat="42.560640" lon="-8.991355">
        <ele>66.019</ele>
        <time>2017-05-06T13:43:23Z</time>
      </trkpt>
      <trkpt lat="42.560733" lon="-8.991372">
        <ele>65.088</ele>
        <time>2017-05-06T13:43:29Z</time>
      </trkpt>
      <trkpt lat="42.560829" lon="-8.991380">
        <ele>63.078</ele>
        <time>2017-05-06T13:43:35Z</time>
      </trkpt>
      <trkpt lat="42.560922" lon="-8.991375">
        <ele>61.082</ele>
        <time>2017-05-06T13:43:41Z</time>
      </trkpt>
      <trkpt lat="42.561018" lon="-8.991375">
        <ele>60.015</ele>
        <time>2017-05-06T13:43:47Z</time>
      </trkpt>
      <trkpt lat="42.561104" lon="-8.991329">
        <ele>58.065</ele>
        <time>2017-05-06T13:43:53Z</time>
      </trkpt>
      <trkpt lat="42.561181" lon="-8.991259">
        <ele>57.011</ele>
        <time>2017-05-06T13:44:00Z</time>
      </trkpt>
      <trkpt lat="42.561248" lon="-8.991159">
        <ele>57.008</ele>
        <time>2017-05-06T13:44:07Z</time>
      </trkpt>
      <trkpt lat="42.561325" lon="-8.991082">
        <ele>56.082</ele>
        <time>2017-05-06T13:44:12Z</time>
      </trkpt>
      <trkpt lat="42.561402" lon="-8.991000">
        <ele>59.048</ele>
        <time>2017-05-06T13:44:19Z</time>
      </trkpt>
      <trkpt lat="42.561455" lon="-8.990899">
        <ele>63.077</ele>
        <time>2017-05-06T13:44:26Z</time>
      </trkpt>
      <trkpt lat="42.561529" lon="-8.990806">
        <ele>66.061</ele>
        <time>2017-05-06T13:44:34Z</time>
      </trkpt>
      <trkpt lat="42.561615" lon="-8.990714">
        <ele>70.087</ele>
        <time>2017-05-06T13:44:42Z</time>
      </trkpt>
      <trkpt lat="42.561692" lon="-8.990628">
        <ele>72.036</ele>
        <time>2017-05-06T13:44:50Z</time>
      </trkpt>
      <trkpt lat="42.561771" lon="-8.990550">
        <ele>73.096</ele>
        <time>2017-05-06T13:44:57Z</time>
      </trkpt>
      <trkpt lat="42.561850" lon="-8.990478">
        <ele>73.010</ele>
        <time>2017-05-06T13:45:03Z</time>
      </trkpt>
      <trkpt lat="42.561911" lon="-8.990383">
        <ele>79.036</ele>
        <time>2017-05-06T13:45:13Z</time>
      </trkpt>
      <trkpt lat="42.561992" lon="-8.990320">
        <ele>80.017</ele>
        <time>2017-05-06T13:45:20Z</time>
      </trkpt>
      <trkpt lat="42.562099" lon="-8.990342">
        <ele>72.018</ele>
        <time>2017-05-06T13:45:25Z</time>
      </trkpt>
      <trkpt lat="42.562168" lon="-8.990430">
        <ele>68.008</ele>
        <time>2017-05-06T13:45:30Z</time>
      </trkpt>
      <trkpt lat="42.562220" lon="-8.990546">
        <ele>65.094</ele>
        <time>2017-05-06T13:45:36Z</time>
      </trkpt>
      <trkpt lat="42.562285" lon="-8.990642">
        <ele>66.030</ele>
        <time>2017-05-06T13:45:42Z</time>
      </trkpt>
      <trkpt lat="42.562350" lon="-8.990758">
        <ele>66.099</ele>
        <time>2017-05-06T13:45:49Z</time>
      </trkpt>
      <trkpt lat="42.562409" lon="-8.990876">
        <ele>66.033</ele>
        <time>2017-05-06T13:45:56Z</time>
      </trkpt>
      <trkpt lat="42.562472" lon="-8.990979">
        <ele>66.039</ele>
        <time>2017-05-06T13:46:03Z</time>
      </trkpt>
      <trkpt lat="42.562539" lon="-8.991086">
        <ele>66.038</ele>
        <time>2017-05-06T13:46:10Z</time>
      </trkpt>
      <trkpt lat="42.562627" lon="-8.991126">
        <ele>64.018</ele>
        <time>2017-05-06T13:46:16Z</time>
      </trkpt>
      <trkpt lat="42.562718" lon="-8.991168">
        <ele>62.012</ele>
        <time>2017-05-06T13:46:25Z</time>
      </trkpt>
      <trkpt lat="42.562790" lon="-8.991241">
        <ele>62.072</ele>
        <time>2017-05-06T13:46:32Z</time>
      </trkpt>
      <trkpt lat="42.562879" lon="-8.991285">
        <ele>61.013</ele>
        <time>2017-05-06T13:46:39Z</time>
      </trkpt>
      <trkpt lat="42.562976" lon="-8.991309">
        <ele>58.014</ele>
        <time>2017-05-06T13:46:46Z</time>
      </trkpt>
      <trkpt lat="42.563068" lon="-8.991267">
        <ele>57.008</ele>
        <time>2017-05-06T13:46:54Z</time>
      </trkpt>
      <trkpt lat="42.563157" lon="-8.991218">
        <ele>56.088</ele>
        <time>2017-05-06T13:47:02Z</time>
      </trkpt>
      <trkpt lat="42.563242" lon="-8.991167">
        <ele>56.094</ele>
        <time>2017-05-06T13:47:12Z</time>
      </trkpt>
      <trkpt lat="42.563338" lon="-8.991108">
        <ele>56.013</ele>
        <time>2017-05-06T13:47:20Z</time>
      </trkpt>
      <trkpt lat="42.563428" lon="-8.991055">
        <ele>55.057</ele>
        <time>2017-05-06T13:47:28Z</time>
      </trkpt>
      <trkpt lat="42.563513" lon="-8.990992">
        <ele>55.093</ele>
        <time>2017-05-06T13:47:34Z</time>
      </trkpt>
      <trkpt lat="42.563597" lon="-8.990946">
        <ele>54.022</ele>
        <time>2017-05-06T13:47:40Z</time>
      </trkpt>
      <trkpt lat="42.563688" lon="-8.990886">
        <ele>53.032</ele>
        <time>2017-05-06T13:47:46Z</time>
      </trkpt>
      <trkpt lat="42.563771" lon="-8.990838">
        <ele>53.086</ele>
        <time>2017-05-06T13:47:51Z</time>
      </trkpt>
      <trkpt lat="42.563864" lon="-8.990779">
        <ele>53.032</ele>
        <time>2017-05-06T13:47:58Z</time>
      </trkpt>
      <trkpt lat="42.563951" lon="-8.990722">
        <ele>54.092</ele>
        <time>2017-05-06T13:48:05Z</time>
      </trkpt>
      <trkpt lat="42.564037" lon="-8.990665">
        <ele>53.011</ele>
        <time>2017-05-06T13:48:11Z</time>
      </trkpt>
      <trkpt lat="42.564131" lon="-8.990607">
        <ele>53.008</ele>
        <time>2017-05-06T13:48:18Z</time>
      </trkpt>
      <trkpt lat="42.564227" lon="-8.990563">
        <ele>52.014</ele>
        <time>2017-05-06T13:48:24Z</time>
      </trkpt>
      <trkpt lat="42.564327" lon="-8.990547">
        <ele>52.060</ele>
        <time>2017-05-06T13:48:31Z</time>
      </trkpt>
      <trkpt lat="42.564418" lon="-8.990539">
        <ele>52.099</ele>
        <time>2017-05-06T13:48:41Z</time>
      </trkpt>
      <trkpt lat="42.564490" lon="-8.990453">
        <ele>52.073</ele>
        <time>2017-05-06T13:48:48Z</time>
      </trkpt>
      <trkpt lat="42.564560" lon="-8.990365">
        <ele>53.049</ele>
        <time>2017-05-06T13:48:55Z</time>
      </trkpt>
      <trkpt lat="42.564630" lon="-8.990273">
        <ele>53.028</ele>
        <time>2017-05-06T13:49:02Z</time>
      </trkpt>
      <trkpt lat="42.564694" lon="-8.990168">
        <ele>56.018</ele>
        <time>2017-05-06T13:49:10Z</time>
      </trkpt>
      <trkpt lat="42.564772" lon="-8.990080">
        <ele>57.062</ele>
        <time>2017-05-06T13:49:17Z</time>
      </trkpt>
      <trkpt lat="42.564848" lon="-8.989994">
        <ele>57.023</ele>
        <time>2017-05-06T13:49:24Z</time>
      </trkpt>
      <trkpt lat="42.564919" lon="-8.989898">
        <ele>59.083</ele>
        <time>2017-05-06T13:49:32Z</time>
      </trkpt>
      <trkpt lat="42.564986" lon="-8.989815">
        <ele>59.011</ele>
        <time>2017-05-06T13:49:39Z</time>
      </trkpt>
      <trkpt lat="42.565050" lon="-8.989706">
        <ele>60.008</ele>
        <time>2017-05-06T13:49:46Z</time>
      </trkpt>
      <trkpt lat="42.565117" lon="-8.989604">
        <ele>61.043</ele>
        <time>2017-05-06T13:49:53Z</time>
      </trkpt>
      <trkpt lat="42.565180" lon="-8.989506">
        <ele>62.099</ele>
        <time>2017-05-06T13:49:59Z</time>
      </trkpt>
      <trkpt lat="42.565231" lon="-8.989400">
        <ele>64.078</ele>
        <time>2017-05-06T13:50:06Z</time>
      </trkpt>
      <trkpt lat="42.565303" lon="-8.989312">
        <ele>62.062</ele>
        <time>2017-05-06T13:50:12Z</time>
      </trkpt>
      <trkpt lat="42.565374" lon="-8.989234">
        <ele>61.088</ele>
        <time>2017-05-06T13:50:18Z</time>
      </trkpt>
      <trkpt lat="42.565430" lon="-8.989125">
        <ele>63.047</ele>
        <time>2017-05-06T13:50:25Z</time>
      </trkpt>
      <trkpt lat="42.565493" lon="-8.989031">
        <ele>61.047</ele>
        <time>2017-05-06T13:50:31Z</time>
      </trkpt>
      <trkpt lat="42.565551" lon="-8.988936">
        <ele>61.051</ele>
        <time>2017-05-06T13:50:37Z</time>
      </trkpt>
      <trkpt lat="42.565611" lon="-8.988845">
        <ele>59.041</ele>
        <time>2017-05-06T13:50:43Z</time>
      </trkpt>
      <trkpt lat="42.565669" lon="-8.988741">
        <ele>61.081</ele>
        <time>2017-05-06T13:50:51Z</time>
      </trkpt>
      <trkpt lat="42.565709" lon="-8.988631">
        <ele>65.009</ele>
        <time>2017-05-06T13:51:01Z</time>
      </trkpt>
      <trkpt lat="42.565775" lon="-8.988539">
        <ele>65.008</ele>
        <time>2017-05-06T13:51:07Z</time>
      </trkpt>
      <trkpt lat="42.565834" lon="-8.988440">
        <ele>65.065</ele>
        <time>2017-05-06T13:51:13Z</time>
      </trkpt>
      <trkpt lat="42.565894" lon="-8.988348">
        <ele>63.051</ele>
        <time>2017-05-06T13:51:19Z</time>
      </trkpt>
      <trkpt lat="42.565958" lon="-8.988246">
        <ele>63.070</ele>
        <time>2017-05-06T13:51:26Z</time>
      </trkpt>
      <trkpt lat="42.566015" lon="-8.988141">
        <ele>63.074</ele>
        <time>2017-05-06T13:51:33Z</time>
      </trkpt>
      <trkpt lat="42.566082" lon="-8.988044">
        <ele>64.020</ele>
        <time>2017-05-06T13:51:40Z</time>
      </trkpt>
      <trkpt lat="42.566149" lon="-8.987945">
        <ele>63.069</ele>
        <time>2017-05-06T13:51:46Z</time>
      </trkpt>
      <trkpt lat="42.566208" lon="-8.987829">
        <ele>65.039</ele>
        <time>2017-05-06T13:51:54Z</time>
      </trkpt>
      <trkpt lat="42.566259" lon="-8.987724">
        <ele>64.063</ele>
        <time>2017-05-06T13:52:01Z</time>
      </trkpt>
      <trkpt lat="42.566320" lon="-8.987615">
        <ele>65.011</ele>
        <time>2017-05-06T13:52:08Z</time>
      </trkpt>
      <trkpt lat="42.566381" lon="-8.987509">
        <ele>65.021</ele>
        <time>2017-05-06T13:52:15Z</time>
      </trkpt>
      <trkpt lat="42.566446" lon="-8.987420">
        <ele>63.003</ele>
        <time>2017-05-06T13:52:56Z</time>
      </trkpt>
      <trkpt lat="42.566506" lon="-8.987320">
        <ele>64.008</ele>
        <time>2017-05-06T13:53:04Z</time>
      </trkpt>
      <trkpt lat="42.566576" lon="-8.987220">
        <ele>64.012</ele>
        <time>2017-05-06T13:53:11Z</time>
      </trkpt>
      <trkpt lat="42.566639" lon="-8.987128">
        <ele>63.028</ele>
        <time>2017-05-06T13:53:17Z</time>
      </trkpt>
      <trkpt lat="42.566714" lon="-8.987040">
        <ele>62.037</ele>
        <time>2017-05-06T13:53:23Z</time>
      </trkpt>
      <trkpt lat="42.566790" lon="-8.986947">
        <ele>61.061</ele>
        <time>2017-05-06T13:53:30Z</time>
      </trkpt>
      <trkpt lat="42.566857" lon="-8.986864">
        <ele>62.077</ele>
        <time>2017-05-06T13:53:37Z</time>
      </trkpt>
      <trkpt lat="42.566926" lon="-8.986784">
        <ele>61.016</ele>
        <time>2017-05-06T13:53:43Z</time>
      </trkpt>
      <trkpt lat="42.567000" lon="-8.986689">
        <ele>61.016</ele>
        <time>2017-05-06T13:53:50Z</time>
      </trkpt>
      <trkpt lat="42.567066" lon="-8.986594">
        <ele>62.040</ele>
        <time>2017-05-06T13:53:58Z</time>
      </trkpt>
      <trkpt lat="42.567125" lon="-8.986483">
        <ele>61.079</ele>
        <time>2017-05-06T13:54:05Z</time>
      </trkpt>
      <trkpt lat="42.567182" lon="-8.986375">
        <ele>62.005</ele>
        <time>2017-05-06T13:54:11Z</time>
      </trkpt>
      <trkpt lat="42.567225" lon="-8.986267">
        <ele>62.025</ele>
        <time>2017-05-06T13:54:18Z</time>
      </trkpt>
      <trkpt lat="42.567273" lon="-8.986149">
        <ele>62.008</ele>
        <time>2017-05-06T13:54:24Z</time>
      </trkpt>
      <trkpt lat="42.567323" lon="-8.986031">
        <ele>62.038</ele>
        <time>2017-05-06T13:54:31Z</time>
      </trkpt>
      <trkpt lat="42.567360" lon="-8.985915">
        <ele>62.014</ele>
        <time>2017-05-06T13:54:38Z</time>
      </trkpt>
      <trkpt lat="42.567401" lon="-8.985788">
        <ele>62.093</ele>
        <time>2017-05-06T13:54:45Z</time>
      </trkpt>
      <trkpt lat="42.567440" lon="-8.985660">
        <ele>63.077</ele>
        <time>2017-05-06T13:54:51Z</time>
      </trkpt>
      <trkpt lat="42.567488" lon="-8.985537">
        <ele>62.063</ele>
        <time>2017-05-06T13:54:58Z</time>
      </trkpt>
      <trkpt lat="42.567538" lon="-8.985392">
        <ele>62.072</ele>
        <time>2017-05-06T13:55:06Z</time>
      </trkpt>
      <trkpt lat="42.567587" lon="-8.985274">
        <ele>62.092</ele>
        <time>2017-05-06T13:55:13Z</time>
      </trkpt>
      <trkpt lat="42.567638" lon="-8.985168">
        <ele>62.016</ele>
        <time>2017-05-06T13:55:20Z</time>
      </trkpt>
      <trkpt lat="42.567687" lon="-8.985062">
        <ele>61.035</ele>
        <time>2017-05-06T13:55:26Z</time>
      </trkpt>
      <trkpt lat="42.567723" lon="-8.984948">
        <ele>62.086</ele>
        <time>2017-05-06T13:55:31Z</time>
      </trkpt>
      <trkpt lat="42.567762" lon="-8.984837">
        <ele>61.014</ele>
        <time>2017-05-06T13:55:37Z</time>
      </trkpt>
      <trkpt lat="42.567801" lon="-8.984726">
        <ele>61.008</ele>
        <time>2017-05-06T13:55:43Z</time>
      </trkpt>
      <trkpt lat="42.567842" lon="-8.984615">
        <ele>62.014</ele>
        <time>2017-05-06T13:55:49Z</time>
      </trkpt>
      <trkpt lat="42.567885" lon="-8.984490">
        <ele>61.070</ele>
        <time>2017-05-06T13:55:56Z</time>
      </trkpt>
      <trkpt lat="42.567934" lon="-8.984361">
        <ele>61.039</ele>
        <time>2017-05-06T13:56:03Z</time>
      </trkpt>
      <trkpt lat="42.567973" lon="-8.984248">
        <ele>61.083</ele>
        <time>2017-05-06T13:56:09Z</time>
      </trkpt>
      <trkpt lat="42.568019" lon="-8.984114">
        <ele>62.099</ele>
        <time>2017-05-06T13:56:16Z</time>
      </trkpt>
      <trkpt lat="42.568057" lon="-8.984001">
        <ele>62.088</ele>
        <time>2017-05-06T13:56:22Z</time>
      </trkpt>
      <trkpt lat="42.568095" lon="-8.983885">
        <ele>62.088</ele>
        <time>2017-05-06T13:56:28Z</time>
      </trkpt>
      <trkpt lat="42.568138" lon="-8.983750">
        <ele>62.062</ele>
        <time>2017-05-06T13:56:35Z</time>
      </trkpt>
      <trkpt lat="42.568175" lon="-8.983639">
        <ele>62.095</ele>
        <time>2017-05-06T13:56:41Z</time>
      </trkpt>
      <trkpt lat="42.568220" lon="-8.983520">
        <ele>61.049</ele>
        <time>2017-05-06T13:56:51Z</time>
      </trkpt>
      <trkpt lat="42.568249" lon="-8.983402">
        <ele>62.023</ele>
        <time>2017-05-06T13:56:57Z</time>
      </trkpt>
      <trkpt lat="42.568285" lon="-8.983285">
        <ele>63.008</ele>
        <time>2017-05-06T13:57:03Z</time>
      </trkpt>
      <trkpt lat="42.568319" lon="-8.983131">
        <ele>63.030</ele>
        <time>2017-05-06T13:57:11Z</time>
      </trkpt>
      <trkpt lat="42.568349" lon="-8.983003">
        <ele>64.036</ele>
        <time>2017-05-06T13:57:18Z</time>
      </trkpt>
      <trkpt lat="42.568382" lon="-8.982875">
        <ele>63.075</ele>
        <time>2017-05-06T13:57:24Z</time>
      </trkpt>
      <trkpt lat="42.568414" lon="-8.982754">
        <ele>63.039</ele>
        <time>2017-05-06T13:57:30Z</time>
      </trkpt>
      <trkpt lat="42.568444" lon="-8.982619">
        <ele>63.025</ele>
        <time>2017-05-06T13:57:37Z</time>
      </trkpt>
      <trkpt lat="42.568469" lon="-8.982487">
        <ele>63.074</ele>
        <time>2017-05-06T13:57:44Z</time>
      </trkpt>
      <trkpt lat="42.568505" lon="-8.982356">
        <ele>64.074</ele>
        <time>2017-05-06T13:57:51Z</time>
      </trkpt>
      <trkpt lat="42.568537" lon="-8.982217">
        <ele>65.098</ele>
        <time>2017-05-06T13:57:58Z</time>
      </trkpt>
      <trkpt lat="42.568567" lon="-8.982100">
        <ele>63.024</ele>
        <time>2017-05-06T13:58:04Z</time>
      </trkpt>
      <trkpt lat="42.568590" lon="-8.981981">
        <ele>64.004</ele>
        <time>2017-05-06T13:58:10Z</time>
      </trkpt>
      <trkpt lat="42.568623" lon="-8.981857">
        <ele>65.014</ele>
        <time>2017-05-06T13:58:16Z</time>
      </trkpt>
      <trkpt lat="42.568652" lon="-8.981741">
        <ele>64.008</ele>
        <time>2017-05-06T13:58:22Z</time>
      </trkpt>
      <trkpt lat="42.568679" lon="-8.981613">
        <ele>65.033</ele>
        <time>2017-05-06T13:58:29Z</time>
      </trkpt>
      <trkpt lat="42.568711" lon="-8.981490">
        <ele>65.089</ele>
        <time>2017-05-06T13:58:35Z</time>
      </trkpt>
      <trkpt lat="42.568742" lon="-8.981371">
        <ele>64.078</ele>
        <time>2017-05-06T13:58:41Z</time>
      </trkpt>
      <trkpt lat="42.568773" lon="-8.981234">
        <ele>65.082</ele>
        <time>2017-05-06T13:58:48Z</time>
      </trkpt>
      <trkpt lat="42.568804" lon="-8.981116">
        <ele>64.018</ele>
        <time>2017-05-06T13:58:54Z</time>
      </trkpt>
      <trkpt lat="42.568834" lon="-8.980999">
        <ele>64.087</ele>
        <time>2017-05-06T13:59:00Z</time>
      </trkpt>
      <trkpt lat="42.568863" lon="-8.980872">
        <ele>65.087</ele>
        <time>2017-05-06T13:59:06Z</time>
      </trkpt>
      <trkpt lat="42.568895" lon="-8.980734">
        <ele>64.071</ele>
        <time>2017-05-06T13:59:13Z</time>
      </trkpt>
      <trkpt lat="42.568924" lon="-8.980611">
        <ele>63.064</ele>
        <time>2017-05-06T13:59:19Z</time>
      </trkpt>
      <trkpt lat="42.568952" lon="-8.980490">
        <ele>63.006</ele>
        <time>2017-05-06T13:59:25Z</time>
      </trkpt>
      <trkpt lat="42.568989" lon="-8.980360">
        <ele>62.016</ele>
        <time>2017-05-06T13:59:32Z</time>
      </trkpt>
      <trkpt lat="42.569023" lon="-8.980231">
        <ele>63.008</ele>
        <time>2017-05-06T13:59:40Z</time>
      </trkpt>
      <trkpt lat="42.569053" lon="-8.980112">
        <ele>63.077</ele>
        <time>2017-05-06T13:59:45Z</time>
      </trkpt>
      <trkpt lat="42.569081" lon="-8.979990">
        <ele>63.063</ele>
        <time>2017-05-06T13:59:52Z</time>
      </trkpt>
      <trkpt lat="42.569109" lon="-8.979863">
        <ele>64.092</ele>
        <time>2017-05-06T13:59:59Z</time>
      </trkpt>
      <trkpt lat="42.569144" lon="-8.979731">
        <ele>64.086</ele>
        <time>2017-05-06T14:00:06Z</time>
      </trkpt>
      <trkpt lat="42.569179" lon="-8.979604">
        <ele>63.092</ele>
        <time>2017-05-06T14:00:12Z</time>
      </trkpt>
      <trkpt lat="42.569212" lon="-8.979470">
        <ele>63.011</ele>
        <time>2017-05-06T14:00:19Z</time>
      </trkpt>
      <trkpt lat="42.569240" lon="-8.979349">
        <ele>64.061</ele>
        <time>2017-05-06T14:00:25Z</time>
      </trkpt>
      <trkpt lat="42.569264" lon="-8.979225">
        <ele>63.025</ele>
        <time>2017-05-06T14:00:31Z</time>
      </trkpt>
      <trkpt lat="42.569298" lon="-8.979110">
        <ele>62.095</ele>
        <time>2017-05-06T14:00:37Z</time>
      </trkpt>
      <trkpt lat="42.569322" lon="-8.978973">
        <ele>63.049</ele>
        <time>2017-05-06T14:00:44Z</time>
      </trkpt>
      <trkpt lat="42.569354" lon="-8.978843">
        <ele>64.023</ele>
        <time>2017-05-06T14:00:51Z</time>
      </trkpt>
      <trkpt lat="42.569385" lon="-8.978728">
        <ele>64.008</ele>
        <time>2017-05-06T14:00:58Z</time>
      </trkpt>
      <trkpt lat="42.569422" lon="-8.978600">
        <ele>65.070</ele>
        <time>2017-05-06T14:01:05Z</time>
      </trkpt>
      <trkpt lat="42.569463" lon="-8.978447">
        <ele>65.086</ele>
        <time>2017-05-06T14:01:13Z</time>
      </trkpt>
      <trkpt lat="42.569493" lon="-8.978319">
        <ele>65.045</ele>
        <time>2017-05-06T14:01:19Z</time>
      </trkpt>
      <trkpt lat="42.569529" lon="-8.978194">
        <ele>64.049</ele>
        <time>2017-05-06T14:01:26Z</time>
      </trkpt>
      <trkpt lat="42.569559" lon="-8.978073">
        <ele>65.055</ele>
        <time>2017-05-06T14:01:33Z</time>
      </trkpt>
      <trkpt lat="42.569600" lon="-8.977963">
        <ele>65.034</ele>
        <time>2017-05-06T14:01:46Z</time>
      </trkpt>
      <trkpt lat="42.569626" lon="-8.977844">
        <ele>64.044</ele>
        <time>2017-05-06T14:02:04Z</time>
      </trkpt>
      <trkpt lat="42.569661" lon="-8.977722">
        <ele>64.048</ele>
        <time>2017-05-06T14:02:10Z</time>
      </trkpt>
      <trkpt lat="42.569686" lon="-8.977597">
        <ele>64.036</ele>
        <time>2017-05-06T14:02:16Z</time>
      </trkpt>
      <trkpt lat="42.569708" lon="-8.977458">
        <ele>64.017</ele>
        <time>2017-05-06T14:02:22Z</time>
      </trkpt>
      <trkpt lat="42.569737" lon="-8.977325">
        <ele>63.018</ele>
        <time>2017-05-06T14:02:28Z</time>
      </trkpt>
      <trkpt lat="42.569763" lon="-8.977185">
        <ele>63.008</ele>
        <time>2017-05-06T14:02:34Z</time>
      </trkpt>
      <trkpt lat="42.569785" lon="-8.977022">
        <ele>61.094</ele>
        <time>2017-05-06T14:02:41Z</time>
      </trkpt>
      <trkpt lat="42.569788" lon="-8.976888">
        <ele>61.020</ele>
        <time>2017-05-06T14:02:47Z</time>
      </trkpt>
      <trkpt lat="42.569788" lon="-8.976756">
        <ele>61.079</ele>
        <time>2017-05-06T14:02:54Z</time>
      </trkpt>
      <trkpt lat="42.569789" lon="-8.976619">
        <ele>61.083</ele>
        <time>2017-05-06T14:03:00Z</time>
      </trkpt>
      <trkpt lat="42.569784" lon="-8.976478">
        <ele>62.069</ele>
        <time>2017-05-06T14:03:07Z</time>
      </trkpt>
      <trkpt lat="42.569775" lon="-8.976356">
        <ele>62.038</ele>
        <time>2017-05-06T14:03:13Z</time>
      </trkpt>
      <trkpt lat="42.569777" lon="-8.976233">
        <ele>61.068</ele>
        <time>2017-05-06T14:03:19Z</time>
      </trkpt>
      <trkpt lat="42.569772" lon="-8.976110">
        <ele>61.012</ele>
        <time>2017-05-06T14:03:25Z</time>
      </trkpt>
      <trkpt lat="42.569772" lon="-8.975966">
        <ele>61.093</ele>
        <time>2017-05-06T14:03:32Z</time>
      </trkpt>
      <trkpt lat="42.569770" lon="-8.975842">
        <ele>62.065</ele>
        <time>2017-05-06T14:03:38Z</time>
      </trkpt>
      <trkpt lat="42.569770" lon="-8.975720">
        <ele>62.021</ele>
        <time>2017-05-06T14:03:44Z</time>
      </trkpt>
      <trkpt lat="42.569776" lon="-8.975580">
        <ele>63.008</ele>
        <time>2017-05-06T14:03:51Z</time>
      </trkpt>
      <trkpt lat="42.569810" lon="-8.975426">
        <ele>63.010</ele>
        <time>2017-05-06T14:03:59Z</time>
      </trkpt>
      <trkpt lat="42.569850" lon="-8.975284">
        <ele>63.016</ele>
        <time>2017-05-06T14:04:07Z</time>
      </trkpt>
      <trkpt lat="42.569894" lon="-8.975155">
        <ele>63.085</ele>
        <time>2017-05-06T14:04:14Z</time>
      </trkpt>
      <trkpt lat="42.569924" lon="-8.975036">
        <ele>63.069</ele>
        <time>2017-05-06T14:04:20Z</time>
      </trkpt>
      <trkpt lat="42.569950" lon="-8.974908">
        <ele>64.095</ele>
        <time>2017-05-06T14:04:27Z</time>
      </trkpt>
      <trkpt lat="42.569980" lon="-8.974787">
        <ele>65.054</ele>
        <time>2017-05-06T14:04:34Z</time>
      </trkpt>
      <trkpt lat="42.569997" lon="-8.974658">
        <ele>65.074</ele>
        <time>2017-05-06T14:04:41Z</time>
      </trkpt>
      <trkpt lat="42.569999" lon="-8.974525">
        <ele>65.028</ele>
        <time>2017-05-06T14:04:48Z</time>
      </trkpt>
      <trkpt lat="42.569987" lon="-8.974397">
        <ele>65.079</ele>
        <time>2017-05-06T14:04:55Z</time>
      </trkpt>
      <trkpt lat="42.569971" lon="-8.974262">
        <ele>65.005</ele>
        <time>2017-05-06T14:05:03Z</time>
      </trkpt>
      <trkpt lat="42.569961" lon="-8.974134">
        <ele>64.025</ele>
        <time>2017-05-06T14:05:10Z</time>
      </trkpt>
      <trkpt lat="42.569954" lon="-8.974005">
        <ele>64.008</ele>
        <time>2017-05-06T14:05:17Z</time>
      </trkpt>
      <trkpt lat="42.569937" lon="-8.973874">
        <ele>65.028</ele>
        <time>2017-05-06T14:05:25Z</time>
      </trkpt>
      <trkpt lat="42.569908" lon="-8.973751">
        <ele>64.094</ele>
        <time>2017-05-06T14:05:32Z</time>
      </trkpt>
      <trkpt lat="42.569881" lon="-8.973620">
        <ele>65.033</ele>
        <time>2017-05-06T14:05:40Z</time>
      </trkpt>
      <trkpt lat="42.569854" lon="-8.973478">
        <ele>65.087</ele>
        <time>2017-05-06T14:05:47Z</time>
      </trkpt>
      <trkpt lat="42.569846" lon="-8.973334">
        <ele>65.073</ele>
        <time>2017-05-06T14:05:54Z</time>
      </trkpt>
      <trkpt lat="42.569856" lon="-8.973192">
        <ele>63.072</ele>
        <time>2017-05-06T14:06:00Z</time>
      </trkpt>
      <trkpt lat="42.569855" lon="-8.973060">
        <ele>64.032</ele>
        <time>2017-05-06T14:06:06Z</time>
      </trkpt>
      <trkpt lat="42.569812" lon="-8.972946">
        <ele>65.036</ele>
        <time>2017-05-06T14:06:15Z</time>
      </trkpt>
      <trkpt lat="42.569753" lon="-8.972849">
        <ele>65.018</ele>
        <time>2017-05-06T14:06:22Z</time>
      </trkpt>
      <trkpt lat="42.569702" lon="-8.972743">
        <ele>65.098</ele>
        <time>2017-05-06T14:06:28Z</time>
      </trkpt>
      <trkpt lat="42.569669" lon="-8.972607">
        <ele>65.017</ele>
        <time>2017-05-06T14:06:39Z</time>
      </trkpt>
      <trkpt lat="42.569610" lon="-8.972504">
        <ele>64.008</ele>
        <time>2017-05-06T14:06:45Z</time>
      </trkpt>
      <trkpt lat="42.569547" lon="-8.972407">
        <ele>68.062</ele>
        <time>2017-05-06T14:06:54Z</time>
      </trkpt>
      <trkpt lat="42.569479" lon="-8.972287">
        <ele>68.018</ele>
        <time>2017-05-06T14:07:02Z</time>
      </trkpt>
      <trkpt lat="42.569429" lon="-8.972171">
        <ele>68.017</ele>
        <time>2017-05-06T14:07:08Z</time>
      </trkpt>
      <trkpt lat="42.569353" lon="-8.972067">
        <ele>68.021</ele>
        <time>2017-05-06T14:07:16Z</time>
      </trkpt>
      <trkpt lat="42.569300" lon="-8.971965">
        <ele>68.027</ele>
        <time>2017-05-06T14:07:22Z</time>
      </trkpt>
      <trkpt lat="42.569228" lon="-8.971875">
        <ele>67.076</ele>
        <time>2017-05-06T14:07:29Z</time>
      </trkpt>
      <trkpt lat="42.569165" lon="-8.971785">
        <ele>68.026</ele>
        <time>2017-05-06T14:07:36Z</time>
      </trkpt>
      <trkpt lat="42.569101" lon="-8.971699">
        <ele>68.080</ele>
        <time>2017-05-06T14:07:42Z</time>
      </trkpt>
      <trkpt lat="42.569046" lon="-8.971573">
        <ele>69.081</ele>
        <time>2017-05-06T14:07:49Z</time>
      </trkpt>
      <trkpt lat="42.568981" lon="-8.971468">
        <ele>70.061</ele>
        <time>2017-05-06T14:07:57Z</time>
      </trkpt>
      <trkpt lat="42.568981" lon="-8.971468">
        <ele>70.017</ele>
        <time>2017-05-06T14:07:57Z</time>
      </trkpt>
      <trkpt lat="42.568910" lon="-8.971382">
        <ele>73.008</ele>
        <time>2017-05-06T14:08:07Z</time>
      </trkpt>
      <trkpt lat="42.568836" lon="-8.971298">
        <ele>75.099</ele>
        <time>2017-05-06T14:08:15Z</time>
      </trkpt>
      <trkpt lat="42.568793" lon="-8.971178">
        <ele>76.095</ele>
        <time>2017-05-06T14:08:22Z</time>
      </trkpt>
      <trkpt lat="42.568774" lon="-8.971040">
        <ele>74.094</ele>
        <time>2017-05-06T14:08:27Z</time>
      </trkpt>
      <trkpt lat="42.568794" lon="-8.970906">
        <ele>73.028</ele>
        <time>2017-05-06T14:08:32Z</time>
      </trkpt>
      <trkpt lat="42.568805" lon="-8.970782">
        <ele>73.064</ele>
        <time>2017-05-06T14:08:38Z</time>
      </trkpt>
      <trkpt lat="42.568881" lon="-8.970704">
        <ele>73.063</ele>
        <time>2017-05-06T14:08:45Z</time>
      </trkpt>
      <trkpt lat="42.568868" lon="-8.970579">
        <ele>76.023</ele>
        <time>2017-05-06T14:08:57Z</time>
      </trkpt>
      <trkpt lat="42.568884" lon="-8.970454">
        <ele>75.037</ele>
        <time>2017-05-06T14:09:07Z</time>
      </trkpt>
      <trkpt lat="42.568890" lon="-8.970330">
        <ele>75.027</ele>
        <time>2017-05-06T14:09:12Z</time>
      </trkpt>
      <trkpt lat="42.568907" lon="-8.970181">
        <ele>75.068</ele>
        <time>2017-05-06T14:09:18Z</time>
      </trkpt>
      <trkpt lat="42.568963" lon="-8.970079">
        <ele>75.014</ele>
        <time>2017-05-06T14:09:23Z</time>
      </trkpt>
      <trkpt lat="42.569058" lon="-8.969992">
        <ele>74.008</ele>
        <time>2017-05-06T14:09:29Z</time>
      </trkpt>
      <trkpt lat="42.569125" lon="-8.969907">
        <ele>77.063</ele>
        <time>2017-05-06T14:09:36Z</time>
      </trkpt>
      <trkpt lat="42.569208" lon="-8.969856">
        <ele>76.079</ele>
        <time>2017-05-06T14:09:42Z</time>
      </trkpt>
      <trkpt lat="42.569281" lon="-8.969778">
        <ele>73.048</ele>
        <time>2017-05-06T14:09:48Z</time>
      </trkpt>
      <trkpt lat="42.569373" lon="-8.969715">
        <ele>73.012</ele>
        <time>2017-05-06T14:09:56Z</time>
      </trkpt>
      <trkpt lat="42.569474" lon="-8.969732">
        <ele>65.038</ele>
        <time>2017-05-06T14:10:00Z</time>
      </trkpt>
      <trkpt lat="42.569536" lon="-8.969631">
        <ele>66.017</ele>
        <time>2017-05-06T14:10:11Z</time>
      </trkpt>
      <trkpt lat="42.569612" lon="-8.969536">
        <ele>66.067</ele>
        <time>2017-05-06T14:10:17Z</time>
      </trkpt>
      <trkpt lat="42.569684" lon="-8.969445">
        <ele>66.091</ele>
        <time>2017-05-06T14:10:22Z</time>
      </trkpt>
      <trkpt lat="42.569763" lon="-8.969357">
        <ele>66.026</ele>
        <time>2017-05-06T14:10:28Z</time>
      </trkpt>
      <trkpt lat="42.569836" lon="-8.969265">
        <ele>67.047</ele>
        <time>2017-05-06T14:10:34Z</time>
      </trkpt>
      <trkpt lat="42.569907" lon="-8.969181">
        <ele>66.011</ele>
        <time>2017-05-06T14:10:40Z</time>
      </trkpt>
      <trkpt lat="42.569977" lon="-8.969098">
        <ele>66.008</ele>
        <time>2017-05-06T14:10:46Z</time>
      </trkpt>
      <trkpt lat="42.570041" lon="-8.969011">
        <ele>67.043</ele>
        <time>2017-05-06T14:10:52Z</time>
      </trkpt>
      <trkpt lat="42.570088" lon="-8.968904">
        <ele>65.069</ele>
        <time>2017-05-06T14:10:59Z</time>
      </trkpt>
      <trkpt lat="42.570099" lon="-8.968773">
        <ele>64.088</ele>
        <time>2017-05-06T14:11:06Z</time>
      </trkpt>
      <trkpt lat="42.570101" lon="-8.968642">
        <ele>63.092</ele>
        <time>2017-05-06T14:11:12Z</time>
      </trkpt>
      <trkpt lat="42.570101" lon="-8.968499">
        <ele>62.018</ele>
        <time>2017-05-06T14:11:19Z</time>
      </trkpt>
      <trkpt lat="42.570087" lon="-8.968365">
        <ele>62.057</ele>
        <time>2017-05-06T14:11:26Z</time>
      </trkpt>
      <trkpt lat="42.570064" lon="-8.968229">
        <ele>62.037</ele>
        <time>2017-05-06T14:11:33Z</time>
      </trkpt>
      <trkpt lat="42.570038" lon="-8.968112">
        <ele>62.021</ele>
        <time>2017-05-06T14:11:39Z</time>
      </trkpt>
      <trkpt lat="42.570001" lon="-8.968000">
        <ele>61.072</ele>
        <time>2017-05-06T14:11:46Z</time>
      </trkpt>
      <trkpt lat="42.569938" lon="-8.967906">
        <ele>62.013</ele>
        <time>2017-05-06T14:11:54Z</time>
      </trkpt>
      <trkpt lat="42.569916" lon="-8.967774">
        <ele>61.014</ele>
        <time>2017-05-06T14:12:01Z</time>
      </trkpt>
      <trkpt lat="42.569881" lon="-8.967654">
        <ele>62.008</ele>
        <time>2017-05-06T14:12:08Z</time>
      </trkpt>
      <trkpt lat="42.569858" lon="-8.967534">
        <ele>63.048</ele>
        <time>2017-05-06T14:12:15Z</time>
      </trkpt>
      <trkpt lat="42.569767" lon="-8.967553">
        <ele>64.024</ele>
        <time>2017-05-06T14:12:27Z</time>
      </trkpt>
      <trkpt lat="42.569684" lon="-8.967622">
        <ele>63.023</ele>
        <time>2017-05-06T14:12:34Z</time>
      </trkpt>
      <trkpt lat="42.569593" lon="-8.967628">
        <ele>63.097</ele>
        <time>2017-05-06T14:12:41Z</time>
      </trkpt>
      <trkpt lat="42.569500" lon="-8.967619">
        <ele>64.023</ele>
        <time>2017-05-06T14:12:48Z</time>
      </trkpt>
      <trkpt lat="42.569405" lon="-8.967581">
        <ele>63.042</ele>
        <time>2017-05-06T14:12:55Z</time>
      </trkpt>
      <trkpt lat="42.569314" lon="-8.967638">
        <ele>65.012</ele>
        <time>2017-05-06T14:13:02Z</time>
      </trkpt>
      <trkpt lat="42.569225" lon="-8.967683">
        <ele>68.036</ele>
        <time>2017-05-06T14:13:10Z</time>
      </trkpt>
      <trkpt lat="42.569149" lon="-8.967762">
        <ele>64.041</ele>
        <time>2017-05-06T14:13:17Z</time>
      </trkpt>
      <trkpt lat="42.569068" lon="-8.967854">
        <ele>63.081</ele>
        <time>2017-05-06T14:13:24Z</time>
      </trkpt>
      <trkpt lat="42.568993" lon="-8.967945">
        <ele>62.009</ele>
        <time>2017-05-06T14:13:31Z</time>
      </trkpt>
      <trkpt lat="42.568908" lon="-8.967996">
        <ele>61.008</ele>
        <time>2017-05-06T14:13:38Z</time>
      </trkpt>
      <trkpt lat="42.568847" lon="-8.967900">
        <ele>61.035</ele>
        <time>2017-05-06T14:13:51Z</time>
      </trkpt>
      <trkpt lat="42.568821" lon="-8.967777">
        <ele>60.091</ele>
        <time>2017-05-06T14:13:57Z</time>
      </trkpt>
      <trkpt lat="42.568796" lon="-8.967643">
        <ele>60.020</ele>
        <time>2017-05-06T14:14:04Z</time>
      </trkpt>
      <trkpt lat="42.568748" lon="-8.967531">
        <ele>60.044</ele>
        <time>2017-05-06T14:14:10Z</time>
      </trkpt>
      <trkpt lat="42.568699" lon="-8.967411">
        <ele>61.060</ele>
        <time>2017-05-06T14:14:17Z</time>
      </trkpt>
      <trkpt lat="42.568647" lon="-8.967305">
        <ele>63.039</ele>
        <time>2017-05-06T14:14:25Z</time>
      </trkpt>
      <trkpt lat="42.568592" lon="-8.967187">
        <ele>62.049</ele>
        <time>2017-05-06T14:14:32Z</time>
      </trkpt>
      <trkpt lat="42.568549" lon="-8.967057">
        <ele>62.023</ele>
        <time>2017-05-06T14:14:38Z</time>
      </trkpt>
      <trkpt lat="42.568599" lon="-8.966944">
        <ele>62.095</ele>
        <time>2017-05-06T14:14:46Z</time>
      </trkpt>
      <trkpt lat="42.568683" lon="-8.966895">
        <ele>62.049</ele>
        <time>2017-05-06T14:14:54Z</time>
      </trkpt>
      <trkpt lat="42.568775" lon="-8.966839">
        <ele>63.023</ele>
        <time>2017-05-06T14:15:04Z</time>
      </trkpt>
      <trkpt lat="42.568823" lon="-8.966730">
        <ele>63.008</ele>
        <time>2017-05-06T14:15:12Z</time>
      </trkpt>
      <trkpt lat="42.568870" lon="-8.966619">
        <ele>61.080</ele>
        <time>2017-05-06T14:15:30Z</time>
      </trkpt>
      <trkpt lat="42.568908" lon="-8.966499">
        <ele>61.086</ele>
        <time>2017-05-06T14:15:41Z</time>
      </trkpt>
      <trkpt lat="42.568951" lon="-8.966390">
        <ele>61.065</ele>
        <time>2017-05-06T14:15:49Z</time>
      </trkpt>
      <trkpt lat="42.568991" lon="-8.966272">
        <ele>60.049</ele>
        <time>2017-05-06T14:16:16Z</time>
      </trkpt>
      <trkpt lat="42.569014" lon="-8.966153">
        <ele>61.065</ele>
        <time>2017-05-06T14:16:25Z</time>
      </trkpt>
      <trkpt lat="42.569010" lon="-8.966022">
        <ele>61.014</ele>
        <time>2017-05-06T14:16:43Z</time>
      </trkpt>
      <trkpt lat="42.568988" lon="-8.965903">
        <ele>61.074</ele>
        <time>2017-05-06T14:16:51Z</time>
      </trkpt>
      <trkpt lat="42.568981" lon="-8.965781">
        <ele>62.068</ele>
        <time>2017-05-06T14:17:01Z</time>
      </trkpt>
      <trkpt lat="42.568981" lon="-8.965648">
        <ele>64.023</ele>
        <time>2017-05-06T14:17:11Z</time>
      </trkpt>
      <trkpt lat="42.568977" lon="-8.965516">
        <ele>65.083</ele>
        <time>2017-05-06T14:17:20Z</time>
      </trkpt>
      <trkpt lat="42.568977" lon="-8.965391">
        <ele>65.011</ele>
        <time>2017-05-06T14:17:44Z</time>
      </trkpt>
      <trkpt lat="42.569024" lon="-8.965274">
        <ele>64.008</ele>
        <time>2017-05-06T14:18:07Z</time>
      </trkpt>
      <trkpt lat="42.568976" lon="-8.965165">
        <ele>63.073</ele>
        <time>2017-05-06T14:18:17Z</time>
      </trkpt>
      <trkpt lat="42.568923" lon="-8.965059">
        <ele>61.059</ele>
        <time>2017-05-06T14:18:24Z</time>
      </trkpt>
      <trkpt lat="42.568950" lon="-8.964930">
        <ele>61.048</ele>
        <time>2017-05-06T14:18:33Z</time>
      </trkpt>
      <trkpt lat="42.568985" lon="-8.964816">
        <ele>62.052</ele>
        <time>2017-05-06T14:18:41Z</time>
      </trkpt>
      <trkpt lat="42.569016" lon="-8.964686">
        <ele>62.088</ele>
        <time>2017-05-06T14:18:50Z</time>
      </trkpt>
      <trkpt lat="42.569060" lon="-8.964572">
        <ele>61.077</ele>
        <time>2017-05-06T14:19:00Z</time>
      </trkpt>
      <trkpt lat="42.569149" lon="-8.964536">
        <ele>61.067</ele>
        <time>2017-05-06T14:19:07Z</time>
      </trkpt>
      <trkpt lat="42.569248" lon="-8.964523">
        <ele>61.041</ele>
        <time>2017-05-06T14:19:17Z</time>
      </trkpt>
      <trkpt lat="42.569328" lon="-8.964467">
        <ele>60.025</ele>
        <time>2017-05-06T14:19:25Z</time>
      </trkpt>
      <trkpt lat="42.569411" lon="-8.964415">
        <ele>61.026</ele>
        <time>2017-05-06T14:19:33Z</time>
      </trkpt>
      <trkpt lat="42.569474" lon="-8.964319">
        <ele>62.008</ele>
        <time>2017-05-06T14:19:42Z</time>
      </trkpt>
      <trkpt lat="42.569552" lon="-8.964246">
        <ele>63.008</ele>
        <time>2017-05-06T14:19:51Z</time>
      </trkpt>
      <trkpt lat="42.569622" lon="-8.964152">
        <ele>66.053</ele>
        <time>2017-05-06T14:20:02Z</time>
      </trkpt>
      <trkpt lat="42.569648" lon="-8.964029">
        <ele>67.079</ele>
        <time>2017-05-06T14:20:20Z</time>
      </trkpt>
      <trkpt lat="42.569689" lon="-8.963906">
        <ele>65.098</ele>
        <time>2017-05-06T14:20:37Z</time>
      </trkpt>
      <trkpt lat="42.569708" lon="-8.963768">
        <ele>66.012</ele>
        <time>2017-05-06T14:20:55Z</time>
      </trkpt>
      <trkpt lat="42.569682" lon="-8.963637">
        <ele>67.028</ele>
        <time>2017-05-06T14:21:04Z</time>
      </trkpt>
      <trkpt lat="42.569655" lon="-8.963518">
        <ele>68.017</ele>
        <time>2017-05-06T14:21:12Z</time>
      </trkpt>
      <trkpt lat="42.569667" lon="-8.963392">
        <ele>67.077</ele>
        <time>2017-05-06T14:21:21Z</time>
      </trkpt>
      <trkpt lat="42.569683" lon="-8.963264">
        <ele>69.081</ele>
        <time>2017-05-06T14:21:29Z</time>
      </trkpt>
      <trkpt lat="42.569725" lon="-8.963150">
        <ele>70.086</ele>
        <time>2017-05-06T14:21:36Z</time>
      </trkpt>
      <trkpt lat="42.569737" lon="-8.963027">
        <ele>70.060</ele>
        <time>2017-05-06T14:21:42Z</time>
      </trkpt>
      <trkpt lat="42.569777" lon="-8.962904">
        <ele>71.026</ele>
        <time>2017-05-06T14:21:56Z</time>
      </trkpt>
      <trkpt lat="42.569855" lon="-8.962824">
        <ele>71.008</ele>
        <time>2017-05-06T14:22:03Z</time>
      </trkpt>
      <trkpt lat="42.569948" lon="-8.962801">
        <ele>71.069</ele>
        <time>2017-05-06T14:22:13Z</time>
      </trkpt>
      <trkpt lat="42.570030" lon="-8.962854">
        <ele>71.095</ele>
        <time>2017-05-06T14:22:20Z</time>
      </trkpt>
      <trkpt lat="42.570112" lon="-8.962918">
        <ele>71.084</ele>
        <time>2017-05-06T14:22:27Z</time>
      </trkpt>
      <trkpt lat="42.570196" lon="-8.962984">
        <ele>70.078</ele>
        <time>2017-05-06T14:22:34Z</time>
      </trkpt>
      <trkpt lat="42.570297" lon="-8.963050">
        <ele>71.024</ele>
        <time>2017-05-06T14:22:43Z</time>
      </trkpt>
      <trkpt lat="42.570382" lon="-8.963108">
        <ele>70.013</ele>
        <time>2017-05-06T14:22:50Z</time>
      </trkpt>
      <trkpt lat="42.570480" lon="-8.963181">
        <ele>72.023</ele>
        <time>2017-05-06T14:22:58Z</time>
      </trkpt>
      <trkpt lat="42.570558" lon="-8.963270">
        <ele>72.097</ele>
        <time>2017-05-06T14:23:04Z</time>
      </trkpt>
      <trkpt lat="42.570660" lon="-8.963323">
        <ele>75.068</ele>
        <time>2017-05-06T14:23:13Z</time>
      </trkpt>
      <trkpt lat="42.570733" lon="-8.963216">
        <ele>74.042</ele>
        <time>2017-05-06T14:23:21Z</time>
      </trkpt>
      <trkpt lat="42.570812" lon="-8.963148">
        <ele>74.026</ele>
        <time>2017-05-06T14:23:28Z</time>
      </trkpt>
      <trkpt lat="42.570909" lon="-8.963167">
        <ele>75.008</ele>
        <time>2017-05-06T14:23:35Z</time>
      </trkpt>
      <trkpt lat="42.571003" lon="-8.963198">
        <ele>75.047</ele>
        <time>2017-05-06T14:23:42Z</time>
      </trkpt>
      <trkpt lat="42.571096" lon="-8.963234">
        <ele>76.093</ele>
        <time>2017-05-06T14:23:50Z</time>
      </trkpt>
      <trkpt lat="42.571192" lon="-8.963260">
        <ele>75.032</ele>
        <time>2017-05-06T14:23:56Z</time>
      </trkpt>
      <trkpt lat="42.571292" lon="-8.963270">
        <ele>76.026</ele>
        <time>2017-05-06T14:24:08Z</time>
      </trkpt>
      <trkpt lat="42.571386" lon="-8.963300">
        <ele>75.082</ele>
        <time>2017-05-06T14:24:14Z</time>
      </trkpt>
      <trkpt lat="42.571486" lon="-8.963335">
        <ele>74.071</ele>
        <time>2017-05-06T14:24:20Z</time>
      </trkpt>
      <trkpt lat="42.571595" lon="-8.963370">
        <ele>73.011</ele>
        <time>2017-05-06T14:24:27Z</time>
      </trkpt>
      <trkpt lat="42.571700" lon="-8.963370">
        <ele>70.025</ele>
        <time>2017-05-06T14:24:33Z</time>
      </trkpt>
      <trkpt lat="42.571804" lon="-8.963377">
        <ele>70.022</ele>
        <time>2017-05-06T14:24:40Z</time>
      </trkpt>
      <trkpt lat="42.571899" lon="-8.963380">
        <ele>69.062</ele>
        <time>2017-05-06T14:24:46Z</time>
      </trkpt>
      <trkpt lat="42.571998" lon="-8.963362">
        <ele>71.008</ele>
        <time>2017-05-06T14:24:53Z</time>
      </trkpt>
      <trkpt lat="42.572082" lon="-8.963316">
        <ele>72.008</ele>
        <time>2017-05-06T14:25:01Z</time>
      </trkpt>
      <trkpt lat="42.572180" lon="-8.963273">
        <ele>71.083</ele>
        <time>2017-05-06T14:25:08Z</time>
      </trkpt>
      <trkpt lat="42.572275" lon="-8.963222">
        <ele>68.059</ele>
        <time>2017-05-06T14:25:14Z</time>
      </trkpt>
      <trkpt lat="42.572365" lon="-8.963192">
        <ele>67.078</ele>
        <time>2017-05-06T14:25:20Z</time>
      </trkpt>
      <trkpt lat="42.572463" lon="-8.963177">
        <ele>66.012</ele>
        <time>2017-05-06T14:25:27Z</time>
      </trkpt>
      <trkpt lat="42.572561" lon="-8.963163">
        <ele>66.028</ele>
        <time>2017-05-06T14:25:34Z</time>
      </trkpt>
      <trkpt lat="42.572672" lon="-8.963124">
        <ele>67.077</ele>
        <time>2017-05-06T14:25:42Z</time>
      </trkpt>
      <trkpt lat="42.572770" lon="-8.963102">
        <ele>68.057</ele>
        <time>2017-05-06T14:25:49Z</time>
      </trkpt>
      <trkpt lat="42.572866" lon="-8.963067">
        <ele>68.011</ele>
        <time>2017-05-06T14:25:56Z</time>
      </trkpt>
      <trkpt lat="42.572964" lon="-8.963045">
        <ele>69.087</ele>
        <time>2017-05-06T14:26:03Z</time>
      </trkpt>
      <trkpt lat="42.573060" lon="-8.963017">
        <ele>70.042</ele>
        <time>2017-05-06T14:26:10Z</time>
      </trkpt>
      <trkpt lat="42.573158" lon="-8.962986">
        <ele>71.026</ele>
        <time>2017-05-06T14:26:17Z</time>
      </trkpt>
      <trkpt lat="42.573243" lon="-8.962934">
        <ele>70.008</ele>
        <time>2017-05-06T14:26:23Z</time>
      </trkpt>
      <trkpt lat="42.573330" lon="-8.962897">
        <ele>71.019</ele>
        <time>2017-05-06T14:26:31Z</time>
      </trkpt>
      <trkpt lat="42.573421" lon="-8.962883">
        <ele>70.065</ele>
        <time>2017-05-06T14:26:36Z</time>
      </trkpt>
      <trkpt lat="42.573496" lon="-8.962802">
        <ele>70.034</ele>
        <time>2017-05-06T14:26:55Z</time>
      </trkpt>
      <trkpt lat="42.573577" lon="-8.962741">
        <ele>70.088</ele>
        <time>2017-05-06T14:27:03Z</time>
      </trkpt>
      <trkpt lat="42.573666" lon="-8.962678">
        <ele>68.024</ele>
        <time>2017-05-06T14:27:15Z</time>
      </trkpt>
      <trkpt lat="42.573768" lon="-8.962651">
        <ele>71.073</ele>
        <time>2017-05-06T14:27:24Z</time>
      </trkpt>
      <trkpt lat="42.573871" lon="-8.962636">
        <ele>73.063</ele>
        <time>2017-05-06T14:27:31Z</time>
      </trkpt>
      <trkpt lat="42.573962" lon="-8.962586">
        <ele>73.077</ele>
        <time>2017-05-06T14:27:37Z</time>
      </trkpt>
      <trkpt lat="42.574055" lon="-8.962540">
        <ele>70.081</ele>
        <time>2017-05-06T14:27:43Z</time>
      </trkpt>
      <trkpt lat="42.574141" lon="-8.962491">
        <ele>69.061</ele>
        <time>2017-05-06T14:27:49Z</time>
      </trkpt>
      <trkpt lat="42.574233" lon="-8.962432">
        <ele>71.017</ele>
        <time>2017-05-06T14:27:56Z</time>
      </trkpt>
      <trkpt lat="42.574322" lon="-8.962378">
        <ele>78.008</ele>
        <time>2017-05-06T14:28:06Z</time>
      </trkpt>
      <trkpt lat="42.574405" lon="-8.962315">
        <ele>79.089</ele>
        <time>2017-05-06T14:28:12Z</time>
      </trkpt>
      <trkpt lat="42.574491" lon="-8.962278">
        <ele>77.065</ele>
        <time>2017-05-06T14:28:23Z</time>
      </trkpt>
      <trkpt lat="42.574578" lon="-8.962216">
        <ele>77.084</ele>
        <time>2017-05-06T14:28:33Z</time>
      </trkpt>
      <trkpt lat="42.574669" lon="-8.962172">
        <ele>79.078</ele>
        <time>2017-05-06T14:28:41Z</time>
      </trkpt>
      <trkpt lat="42.574785" lon="-8.962137">
        <ele>78.034</ele>
        <time>2017-05-06T14:28:48Z</time>
      </trkpt>
      <trkpt lat="42.574880" lon="-8.962100">
        <ele>83.083</ele>
        <time>2017-05-06T14:28:56Z</time>
      </trkpt>
      <trkpt lat="42.574981" lon="-8.962063">
        <ele>85.033</ele>
        <time>2017-05-06T14:29:04Z</time>
      </trkpt>
      <trkpt lat="42.575076" lon="-8.962069">
        <ele>83.017</ele>
        <time>2017-05-06T14:29:12Z</time>
      </trkpt>
      <trkpt lat="42.575157" lon="-8.961997">
        <ele>86.057</ele>
        <time>2017-05-06T14:29:18Z</time>
      </trkpt>
      <trkpt lat="42.575244" lon="-8.961959">
        <ele>86.000</ele>
        <time>2017-05-06T14:29:23Z</time>
      </trkpt>
      <trkpt lat="42.575337" lon="-8.961928">
        <ele>87.020</ele>
        <time>2017-05-06T14:29:29Z</time>
      </trkpt>
      <trkpt lat="42.575428" lon="-8.961884">
        <ele>86.008</ele>
        <time>2017-05-06T14:29:35Z</time>
      </trkpt>
      <trkpt lat="42.575521" lon="-8.961846">
        <ele>82.076</ele>
        <time>2017-05-06T14:29:41Z</time>
      </trkpt>
      <trkpt lat="42.575619" lon="-8.961822">
        <ele>84.042</ele>
        <time>2017-05-06T14:29:48Z</time>
      </trkpt>
      <trkpt lat="42.575715" lon="-8.961785">
        <ele>84.071</ele>
        <time>2017-05-06T14:29:55Z</time>
      </trkpt>
      <trkpt lat="42.575805" lon="-8.961755">
        <ele>85.045</ele>
        <time>2017-05-06T14:30:02Z</time>
      </trkpt>
      <trkpt lat="42.575900" lon="-8.961712">
        <ele>86.041</ele>
        <time>2017-05-06T14:30:09Z</time>
      </trkpt>
      <trkpt lat="42.576000" lon="-8.961688">
        <ele>84.060</ele>
        <time>2017-05-06T14:30:16Z</time>
      </trkpt>
      <trkpt lat="42.576094" lon="-8.961677">
        <ele>89.060</ele>
        <time>2017-05-06T14:30:25Z</time>
      </trkpt>
      <trkpt lat="42.576158" lon="-8.961589">
        <ele>87.064</ele>
        <time>2017-05-06T14:30:35Z</time>
      </trkpt>
      <trkpt lat="42.576217" lon="-8.961437">
        <ele>84.023</ele>
        <time>2017-05-06T14:30:46Z</time>
      </trkpt>
      <trkpt lat="42.576279" lon="-8.961345">
        <ele>82.083</ele>
        <time>2017-05-06T14:30:53Z</time>
      </trkpt>
      <trkpt lat="42.576346" lon="-8.961261">
        <ele>85.011</ele>
        <time>2017-05-06T14:31:01Z</time>
      </trkpt>
      <trkpt lat="42.576440" lon="-8.961171">
        <ele>84.008</ele>
        <time>2017-05-06T14:31:11Z</time>
      </trkpt>
      <trkpt lat="42.576514" lon="-8.961064">
        <ele>82.093</ele>
        <time>2017-05-06T14:31:18Z</time>
      </trkpt>
      <trkpt lat="42.576604" lon="-8.960985">
        <ele>85.099</ele>
        <time>2017-05-06T14:31:26Z</time>
      </trkpt>
      <trkpt lat="42.576682" lon="-8.960899">
        <ele>87.078</ele>
        <time>2017-05-06T14:31:32Z</time>
      </trkpt>
      <trkpt lat="42.576741" lon="-8.960801">
        <ele>85.092</ele>
        <time>2017-05-06T14:31:39Z</time>
      </trkpt>
      <trkpt lat="42.576815" lon="-8.960712">
        <ele>85.038</ele>
        <time>2017-05-06T14:31:47Z</time>
      </trkpt>
      <trkpt lat="42.576895" lon="-8.960648">
        <ele>82.077</ele>
        <time>2017-05-06T14:31:55Z</time>
      </trkpt>
      <trkpt lat="42.576969" lon="-8.960556">
        <ele>86.087</ele>
        <time>2017-05-06T14:32:02Z</time>
      </trkpt>
      <trkpt lat="42.577058" lon="-8.960496">
        <ele>85.051</ele>
        <time>2017-05-06T14:32:09Z</time>
      </trkpt>
      <trkpt lat="42.577132" lon="-8.960427">
        <ele>84.016</ele>
        <time>2017-05-06T14:32:16Z</time>
      </trkpt>
      <trkpt lat="42.577182" lon="-8.960318">
        <ele>81.076</ele>
        <time>2017-05-06T14:32:24Z</time>
      </trkpt>
      <trkpt lat="42.577203" lon="-8.960197">
        <ele>81.013</ele>
        <time>2017-05-06T14:32:32Z</time>
      </trkpt>
      <trkpt lat="42.577214" lon="-8.960070">
        <ele>80.008</ele>
        <time>2017-05-06T14:32:42Z</time>
      </trkpt>
      <trkpt lat="42.577226" lon="-8.959930">
        <ele>83.072</ele>
        <time>2017-05-06T14:32:51Z</time>
      </trkpt>
      <trkpt lat="42.577198" lon="-8.959809">
        <ele>79.098</ele>
        <time>2017-05-06T14:32:59Z</time>
      </trkpt>
      <trkpt lat="42.577172" lon="-8.959680">
        <ele>78.047</ele>
        <time>2017-05-06T14:33:06Z</time>
      </trkpt>
      <trkpt lat="42.577152" lon="-8.959558">
        <ele>63.051</ele>
        <time>2017-05-06T14:33:28Z</time>
      </trkpt>
      <trkpt lat="42.577243" lon="-8.959509">
        <ele>59.097</ele>
        <time>2017-05-06T14:33:36Z</time>
      </trkpt>
      <trkpt lat="42.577328" lon="-8.959447">
        <ele>59.056</ele>
        <time>2017-05-06T14:33:42Z</time>
      </trkpt>
      <trkpt lat="42.577408" lon="-8.959367">
        <ele>62.096</ele>
        <time>2017-05-06T14:33:50Z</time>
      </trkpt>
      <trkpt lat="42.577488" lon="-8.959296">
        <ele>69.060</ele>
        <time>2017-05-06T14:33:58Z</time>
      </trkpt>
      <trkpt lat="42.577580" lon="-8.959266">
        <ele>67.053</ele>
        <time>2017-05-06T14:34:05Z</time>
      </trkpt>
      <trkpt lat="42.577666" lon="-8.959205">
        <ele>65.004</ele>
        <time>2017-05-06T14:34:16Z</time>
      </trkpt>
      <trkpt lat="42.577731" lon="-8.959107">
        <ele>66.014</ele>
        <time>2017-05-06T14:34:24Z</time>
      </trkpt>
      <trkpt lat="42.577788" lon="-8.959007">
        <ele>67.008</ele>
        <time>2017-05-06T14:34:31Z</time>
      </trkpt>
      <trkpt lat="42.577870" lon="-8.958949">
        <ele>69.026</ele>
        <time>2017-05-06T14:34:38Z</time>
      </trkpt>
      <trkpt lat="42.577962" lon="-8.958939">
        <ele>70.042</ele>
        <time>2017-05-06T14:34:45Z</time>
      </trkpt>
      <trkpt lat="42.578062" lon="-8.958913">
        <ele>72.081</ele>
        <time>2017-05-06T14:34:53Z</time>
      </trkpt>
      <trkpt lat="42.578149" lon="-8.958859">
        <ele>75.015</ele>
        <time>2017-05-06T14:35:02Z</time>
      </trkpt>
      <trkpt lat="42.578248" lon="-8.958854">
        <ele>69.081</ele>
        <time>2017-05-06T14:35:13Z</time>
      </trkpt>
      <trkpt lat="42.578319" lon="-8.958777">
        <ele>73.010</ele>
        <time>2017-05-06T14:35:21Z</time>
      </trkpt>
      <trkpt lat="42.578407" lon="-8.958732">
        <ele>76.020</ele>
        <time>2017-05-06T14:35:27Z</time>
      </trkpt>
      <trkpt lat="42.578497" lon="-8.958674">
        <ele>73.084</ele>
        <time>2017-05-06T14:35:34Z</time>
      </trkpt>
      <trkpt lat="42.578593" lon="-8.958612">
        <ele>73.027</ele>
        <time>2017-05-06T14:35:42Z</time>
      </trkpt>
      <trkpt lat="42.578711" lon="-8.958588">
        <ele>76.068</ele>
        <time>2017-05-06T14:35:53Z</time>
      </trkpt>
      <trkpt lat="42.578808" lon="-8.958544">
        <ele>73.014</ele>
        <time>2017-05-06T14:35:56Z</time>
      </trkpt>
      <trkpt lat="42.578885" lon="-8.958473">
        <ele>75.008</ele>
        <time>2017-05-06T14:36:12Z</time>
      </trkpt>
      <trkpt lat="42.578901" lon="-8.958349">
        <ele>74.033</ele>
        <time>2017-05-06T14:37:23Z</time>
      </trkpt>
      <trkpt lat="42.578945" lon="-8.958238">
        <ele>75.049</ele>
        <time>2017-05-06T14:37:31Z</time>
      </trkpt>
      <trkpt lat="42.578971" lon="-8.958114">
        <ele>71.038</ele>
        <time>2017-05-06T14:37:40Z</time>
      </trkpt>
      <trkpt lat="42.579003" lon="-8.957986">
        <ele>65.052</ele>
        <time>2017-05-06T14:37:47Z</time>
      </trkpt>
      <trkpt lat="42.579005" lon="-8.957861">
        <ele>63.098</ele>
        <time>2017-05-06T14:37:52Z</time>
      </trkpt>
      <trkpt lat="42.578963" lon="-8.957733">
        <ele>62.077</ele>
        <time>2017-05-06T14:37:58Z</time>
      </trkpt>
      <trkpt lat="42.578916" lon="-8.957616">
        <ele>62.017</ele>
        <time>2017-05-06T14:38:05Z</time>
      </trkpt>
      <trkpt lat="42.578913" lon="-8.957492">
        <ele>60.071</ele>
        <time>2017-05-06T14:38:23Z</time>
      </trkpt>
      <trkpt lat="42.578904" lon="-8.957366">
        <ele>63.061</ele>
        <time>2017-05-06T14:38:38Z</time>
      </trkpt>
      <trkpt lat="42.578842" lon="-8.957266">
        <ele>67.021</ele>
        <time>2017-05-06T14:38:54Z</time>
      </trkpt>
      <trkpt lat="42.578924" lon="-8.957331">
        <ele>67.013</ele>
        <time>2017-05-06T14:41:17Z</time>
      </trkpt>
      <trkpt lat="42.578940" lon="-8.957472">
        <ele>65.008</ele>
        <time>2017-05-06T14:41:27Z</time>
      </trkpt>
      <trkpt lat="42.578987" lon="-8.957606">
        <ele>65.017</ele>
        <time>2017-05-06T14:41:35Z</time>
      </trkpt>
      <trkpt lat="42.579030" lon="-8.957725">
        <ele>65.063</ele>
        <time>2017-05-06T14:41:42Z</time>
      </trkpt>
      <trkpt lat="42.579034" lon="-8.957853">
        <ele>65.082</ele>
        <time>2017-05-06T14:41:49Z</time>
      </trkpt>
      <trkpt lat="42.579060" lon="-8.957979">
        <ele>64.036</ele>
        <time>2017-05-06T14:41:56Z</time>
      </trkpt>
      <trkpt lat="42.579153" lon="-8.958017">
        <ele>64.082</ele>
        <time>2017-05-06T14:42:03Z</time>
      </trkpt>
      <trkpt lat="42.579246" lon="-8.958047">
        <ele>65.021</ele>
        <time>2017-05-06T14:42:10Z</time>
      </trkpt>
      <trkpt lat="42.579339" lon="-8.958095">
        <ele>65.081</ele>
        <time>2017-05-06T14:42:17Z</time>
      </trkpt>
      <trkpt lat="42.579437" lon="-8.958130">
        <ele>66.065</ele>
        <time>2017-05-06T14:42:25Z</time>
      </trkpt>
      <trkpt lat="42.579523" lon="-8.958176">
        <ele>65.025</ele>
        <time>2017-05-06T14:42:31Z</time>
      </trkpt>
      <trkpt lat="42.579616" lon="-8.958231">
        <ele>65.026</ele>
        <time>2017-05-06T14:42:38Z</time>
      </trkpt>
      <trkpt lat="42.579708" lon="-8.958289">
        <ele>64.008</ele>
        <time>2017-05-06T14:42:45Z</time>
      </trkpt>
      <trkpt lat="42.579797" lon="-8.958330">
        <ele>64.008</ele>
        <time>2017-05-06T14:42:52Z</time>
      </trkpt>
      <trkpt lat="42.579881" lon="-8.958386">
        <ele>65.063</ele>
        <time>2017-05-06T14:42:58Z</time>
      </trkpt>
      <trkpt lat="42.579979" lon="-8.958426">
        <ele>68.099</ele>
        <time>2017-05-06T14:43:06Z</time>
      </trkpt>
      <trkpt lat="42.580072" lon="-8.958458">
        <ele>71.038</ele>
        <time>2017-05-06T14:43:13Z</time>
      </trkpt>
      <trkpt lat="42.580182" lon="-8.958462">
        <ele>77.032</ele>
        <time>2017-05-06T14:43:21Z</time>
      </trkpt>
      <trkpt lat="42.580273" lon="-8.958461">
        <ele>78.098</ele>
        <time>2017-05-06T14:43:27Z</time>
      </trkpt>
      <trkpt lat="42.580368" lon="-8.958417">
        <ele>77.027</ele>
        <time>2017-05-06T14:43:34Z</time>
      </trkpt>
      <trkpt lat="42.580462" lon="-8.958353">
        <ele>75.077</ele>
        <time>2017-05-06T14:43:41Z</time>
      </trkpt>
      <trkpt lat="42.580552" lon="-8.958298">
        <ele>73.041</ele>
        <time>2017-05-06T14:43:48Z</time>
      </trkpt>
      <trkpt lat="42.580644" lon="-8.958235">
        <ele>70.042</ele>
        <time>2017-05-06T14:43:55Z</time>
      </trkpt>
      <trkpt lat="42.580737" lon="-8.958182">
        <ele>68.022</ele>
        <time>2017-05-06T14:44:02Z</time>
      </trkpt>
      <trkpt lat="42.580827" lon="-8.958153">
        <ele>68.014</ele>
        <time>2017-05-06T14:44:08Z</time>
      </trkpt>
      <trkpt lat="42.580935" lon="-8.958153">
        <ele>66.008</ele>
        <time>2017-05-06T14:44:15Z</time>
      </trkpt>
      <trkpt lat="42.581050" lon="-8.958162">
        <ele>65.045</ele>
        <time>2017-05-06T14:44:23Z</time>
      </trkpt>
      <trkpt lat="42.581142" lon="-8.958177">
        <ele>65.021</ele>
        <time>2017-05-06T14:44:29Z</time>
      </trkpt>
      <trkpt lat="42.581249" lon="-8.958154">
        <ele>70.010</ele>
        <time>2017-05-06T14:44:37Z</time>
      </trkpt>
      <trkpt lat="42.581337" lon="-8.958087">
        <ele>74.054</ele>
        <time>2017-05-06T14:44:45Z</time>
      </trkpt>
      <trkpt lat="42.581405" lon="-8.958003">
        <ele>74.030</ele>
        <time>2017-05-06T14:44:52Z</time>
      </trkpt>
      <trkpt lat="42.581511" lon="-8.957920">
        <ele>69.019</ele>
        <time>2017-05-06T14:45:00Z</time>
      </trkpt>
      <trkpt lat="42.581583" lon="-8.957842">
        <ele>67.019</ele>
        <time>2017-05-06T14:45:06Z</time>
      </trkpt>
      <trkpt lat="42.581661" lon="-8.957750">
        <ele>69.033</ele>
        <time>2017-05-06T14:45:13Z</time>
      </trkpt>
      <trkpt lat="42.581746" lon="-8.957672">
        <ele>66.057</ele>
        <time>2017-05-06T14:45:21Z</time>
      </trkpt>
      <trkpt lat="42.581834" lon="-8.957587">
        <ele>64.000</ele>
        <time>2017-05-06T14:45:28Z</time>
      </trkpt>
      <trkpt lat="42.581916" lon="-8.957503">
        <ele>61.020</ele>
        <time>2017-05-06T14:45:46Z</time>
      </trkpt>
      <trkpt lat="42.581989" lon="-8.957415">
        <ele>61.008</ele>
        <time>2017-05-06T14:45:52Z</time>
      </trkpt>
      <trkpt lat="42.582058" lon="-8.957331">
        <ele>61.026</ele>
        <time>2017-05-06T14:45:58Z</time>
      </trkpt>
      <trkpt lat="42.582132" lon="-8.957248">
        <ele>61.062</ele>
        <time>2017-05-06T14:46:04Z</time>
      </trkpt>
      <trkpt lat="42.582215" lon="-8.957162">
        <ele>61.031</ele>
        <time>2017-05-06T14:46:11Z</time>
      </trkpt>
      <trkpt lat="42.582307" lon="-8.957128">
        <ele>60.075</ele>
        <time>2017-05-06T14:46:17Z</time>
      </trkpt>
      <trkpt lat="42.582405" lon="-8.957135">
        <ele>60.061</ele>
        <time>2017-05-06T14:46:24Z</time>
      </trkpt>
      <trkpt lat="42.582493" lon="-8.957172">
        <ele>60.070</ele>
        <time>2017-05-06T14:46:29Z</time>
      </trkpt>
      <trkpt lat="42.582584" lon="-8.957215">
        <ele>60.080</ele>
        <time>2017-05-06T14:46:36Z</time>
      </trkpt>
      <trkpt lat="42.582676" lon="-8.957290">
        <ele>63.034</ele>
        <time>2017-05-06T14:46:44Z</time>
      </trkpt>
      <trkpt lat="42.582765" lon="-8.957357">
        <ele>64.089</ele>
        <time>2017-05-06T14:46:51Z</time>
      </trkpt>
      <trkpt lat="42.582871" lon="-8.957386">
        <ele>75.006</ele>
        <time>2017-05-06T14:47:01Z</time>
      </trkpt>
      <trkpt lat="42.582959" lon="-8.957425">
        <ele>74.026</ele>
        <time>2017-05-06T14:47:07Z</time>
      </trkpt>
      <trkpt lat="42.583066" lon="-8.957378">
        <ele>76.008</ele>
        <time>2017-05-06T14:47:16Z</time>
      </trkpt>
      <trkpt lat="42.583151" lon="-8.957298">
        <ele>69.099</ele>
        <time>2017-05-06T14:47:22Z</time>
      </trkpt>
      <trkpt lat="42.583223" lon="-8.957212">
        <ele>66.065</ele>
        <time>2017-05-06T14:47:28Z</time>
      </trkpt>
      <trkpt lat="42.583292" lon="-8.957125">
        <ele>68.054</ele>
        <time>2017-05-06T14:47:35Z</time>
      </trkpt>
      <trkpt lat="42.583323" lon="-8.957004">
        <ele>65.088</ele>
        <time>2017-05-06T14:47:44Z</time>
      </trkpt>
      <trkpt lat="42.583301" lon="-8.956872">
        <ele>64.054</ele>
        <time>2017-05-06T14:47:51Z</time>
      </trkpt>
      <trkpt lat="42.583300" lon="-8.956750">
        <ele>64.053</ele>
        <time>2017-05-06T14:47:59Z</time>
      </trkpt>
      <trkpt lat="42.583365" lon="-8.956663">
        <ele>67.083</ele>
        <time>2017-05-06T14:48:05Z</time>
      </trkpt>
      <trkpt lat="42.583436" lon="-8.956582">
        <ele>67.097</ele>
        <time>2017-05-06T14:48:13Z</time>
      </trkpt>
      <trkpt lat="42.583515" lon="-8.956520">
        <ele>66.089</ele>
        <time>2017-05-06T14:48:19Z</time>
      </trkpt>
      <trkpt lat="42.583606" lon="-8.956469">
        <ele>66.006</ele>
        <time>2017-05-06T14:48:25Z</time>
      </trkpt>
      <trkpt lat="42.583683" lon="-8.956403">
        <ele>65.026</ele>
        <time>2017-05-06T14:48:35Z</time>
      </trkpt>
      <trkpt lat="42.583663" lon="-8.956275">
        <ele>61.008</ele>
        <time>2017-05-06T14:48:45Z</time>
      </trkpt>
      <trkpt lat="42.583702" lon="-8.956147">
        <ele>59.079</ele>
        <time>2017-05-06T14:48:52Z</time>
      </trkpt>
      <trkpt lat="42.583760" lon="-8.956052">
        <ele>59.095</ele>
        <time>2017-05-06T14:48:58Z</time>
      </trkpt>
      <trkpt lat="42.583815" lon="-8.955951">
        <ele>62.094</ele>
        <time>2017-05-06T14:49:05Z</time>
      </trkpt>
      <trkpt lat="42.583871" lon="-8.955851">
        <ele>62.048</ele>
        <time>2017-05-06T14:49:11Z</time>
      </trkpt>
      <trkpt lat="42.583929" lon="-8.955738">
        <ele>64.024</ele>
        <time>2017-05-06T14:49:18Z</time>
      </trkpt>
      <trkpt lat="42.583987" lon="-8.955634">
        <ele>66.013</ele>
        <time>2017-05-06T14:49:25Z</time>
      </trkpt>
      <trkpt lat="42.584042" lon="-8.955525">
        <ele>66.053</ele>
        <time>2017-05-06T14:49:32Z</time>
      </trkpt>
      <trkpt lat="42.584099" lon="-8.955413">
        <ele>65.067</ele>
        <time>2017-05-06T14:49:39Z</time>
      </trkpt>
      <trkpt lat="42.584167" lon="-8.955301">
        <ele>63.094</ele>
        <time>2017-05-06T14:49:46Z</time>
      </trkpt>
      <trkpt lat="42.584224" lon="-8.955199">
        <ele>63.057</ele>
        <time>2017-05-06T14:49:52Z</time>
      </trkpt>
      <trkpt lat="42.584280" lon="-8.955083">
        <ele>61.022</ele>
        <time>2017-05-06T14:50:00Z</time>
      </trkpt>
      <trkpt lat="42.584346" lon="-8.954972">
        <ele>61.008</ele>
        <time>2017-05-06T14:50:07Z</time>
      </trkpt>
      <trkpt lat="42.584396" lon="-8.954843">
        <ele>64.050</ele>
        <time>2017-05-06T14:50:17Z</time>
      </trkpt>
      <trkpt lat="42.584437" lon="-8.954731">
        <ele>62.066</ele>
        <time>2017-05-06T14:50:25Z</time>
      </trkpt>
      <trkpt lat="42.584468" lon="-8.954599">
        <ele>62.035</ele>
        <time>2017-05-06T14:50:35Z</time>
      </trkpt>
      <trkpt lat="42.584524" lon="-8.954487">
        <ele>61.089</ele>
        <time>2017-05-06T14:50:44Z</time>
      </trkpt>
      <trkpt lat="42.584574" lon="-8.954358">
        <ele>61.015</ele>
        <time>2017-05-06T14:50:52Z</time>
      </trkpt>
      <trkpt lat="42.584605" lon="-8.954235">
        <ele>62.014</ele>
        <time>2017-05-06T14:50:59Z</time>
      </trkpt>
      <trkpt lat="42.584666" lon="-8.954138">
        <ele>61.084</ele>
        <time>2017-05-06T14:51:14Z</time>
      </trkpt>
      <trkpt lat="42.584750" lon="-8.954081">
        <ele>61.098</ele>
        <time>2017-05-06T14:51:33Z</time>
      </trkpt>
      <trkpt lat="42.584841" lon="-8.954054">
        <ele>60.063</ele>
        <time>2017-05-06T14:51:44Z</time>
      </trkpt>
      <trkpt lat="42.584923" lon="-8.953980">
        <ele>59.044</ele>
        <time>2017-05-06T14:51:51Z</time>
      </trkpt>
      <trkpt lat="42.585003" lon="-8.953913">
        <ele>58.018</ele>
        <time>2017-05-06T14:52:05Z</time>
      </trkpt>
      <trkpt lat="42.585117" lon="-8.953815">
        <ele>59.008</ele>
        <time>2017-05-06T14:52:15Z</time>
      </trkpt>
      <trkpt lat="42.585184" lon="-8.953730">
        <ele>63.037</ele>
        <time>2017-05-06T14:52:55Z</time>
      </trkpt>
      <trkpt lat="42.585209" lon="-8.953611">
        <ele>60.073</ele>
        <time>2017-05-06T15:24:47Z</time>
      </trkpt>
      <trkpt lat="42.585195" lon="-8.953489">
        <ele>61.092</ele>
        <time>2017-05-06T15:24:54Z</time>
      </trkpt>
      <trkpt lat="42.585103" lon="-8.953422">
        <ele>57.056</ele>
        <time>2017-05-06T15:25:03Z</time>
      </trkpt>
      <trkpt lat="42.585006" lon="-8.953407">
        <ele>53.022</ele>
        <time>2017-05-06T15:25:12Z</time>
      </trkpt>
      <trkpt lat="42.584970" lon="-8.953294">
        <ele>55.061</ele>
        <time>2017-05-06T15:25:18Z</time>
      </trkpt>
      <trkpt lat="42.584974" lon="-8.953170">
        <ele>61.031</ele>
        <time>2017-05-06T15:25:30Z</time>
      </trkpt>
      <trkpt lat="42.584997" lon="-8.953014">
        <ele>61.045</ele>
        <time>2017-05-06T15:25:38Z</time>
      </trkpt>
      <trkpt lat="42.585026" lon="-8.952897">
        <ele>60.073</ele>
        <time>2017-05-06T15:25:45Z</time>
      </trkpt>
      <trkpt lat="42.585049" lon="-8.952771">
        <ele>61.085</ele>
        <time>2017-05-06T15:25:52Z</time>
      </trkpt>
      <trkpt lat="42.585079" lon="-8.952644">
        <ele>60.013</ele>
        <time>2017-05-06T15:26:00Z</time>
      </trkpt>
      <trkpt lat="42.585098" lon="-8.952513">
        <ele>61.008</ele>
        <time>2017-05-06T15:26:07Z</time>
      </trkpt>
      <trkpt lat="42.585124" lon="-8.952359">
        <ele>60.058</ele>
        <time>2017-05-06T15:26:15Z</time>
      </trkpt>
      <trkpt lat="42.585167" lon="-8.952212">
        <ele>59.034</ele>
        <time>2017-05-06T15:26:23Z</time>
      </trkpt>
      <trkpt lat="42.585194" lon="-8.952070">
        <ele>62.073</ele>
        <time>2017-05-06T15:26:38Z</time>
      </trkpt>
      <trkpt lat="42.585224" lon="-8.951953">
        <ele>60.097</ele>
        <time>2017-05-06T15:26:45Z</time>
      </trkpt>
      <trkpt lat="42.585263" lon="-8.951819">
        <ele>59.013</ele>
        <time>2017-05-06T15:26:52Z</time>
      </trkpt>
      <trkpt lat="42.585317" lon="-8.951708">
        <ele>59.052</ele>
        <time>2017-05-06T15:26:58Z</time>
      </trkpt>
      <trkpt lat="42.585408" lon="-8.951656">
        <ele>59.022</ele>
        <time>2017-05-06T15:27:05Z</time>
      </trkpt>
      <trkpt lat="42.585509" lon="-8.951656">
        <ele>58.026</ele>
        <time>2017-05-06T15:27:12Z</time>
      </trkpt>
      <trkpt lat="42.585605" lon="-8.951678">
        <ele>58.054</ele>
        <time>2017-05-06T15:27:19Z</time>
      </trkpt>
      <trkpt lat="42.585708" lon="-8.951691">
        <ele>58.056</ele>
        <time>2017-05-06T15:27:26Z</time>
      </trkpt>
      <trkpt lat="42.585799" lon="-8.951736">
        <ele>58.011</ele>
        <time>2017-05-06T15:27:33Z</time>
      </trkpt>
      <trkpt lat="42.585891" lon="-8.951763">
        <ele>58.008</ele>
        <time>2017-05-06T15:27:41Z</time>
      </trkpt>
      <trkpt lat="42.585947" lon="-8.951657">
        <ele>60.066</ele>
        <time>2017-05-06T15:27:48Z</time>
      </trkpt>
      <trkpt lat="42.585992" lon="-8.951538">
        <ele>62.052</ele>
        <time>2017-05-06T15:27:56Z</time>
      </trkpt>
      <trkpt lat="42.586040" lon="-8.951426">
        <ele>61.021</ele>
        <time>2017-05-06T15:28:03Z</time>
      </trkpt>
      <trkpt lat="42.586095" lon="-8.951308">
        <ele>65.085</ele>
        <time>2017-05-06T15:28:12Z</time>
      </trkpt>
      <trkpt lat="42.586157" lon="-8.951203">
        <ele>65.011</ele>
        <time>2017-05-06T15:28:19Z</time>
      </trkpt>
      <trkpt lat="42.586169" lon="-8.951078">
        <ele>68.010</ele>
        <time>2017-05-06T15:28:27Z</time>
      </trkpt>
      <trkpt lat="42.586200" lon="-8.950953">
        <ele>66.060</ele>
        <time>2017-05-06T15:28:35Z</time>
      </trkpt>
      <trkpt lat="42.586224" lon="-8.950809">
        <ele>63.094</ele>
        <time>2017-05-06T15:28:42Z</time>
      </trkpt>
      <trkpt lat="42.586260" lon="-8.950683">
        <ele>63.083</ele>
        <time>2017-05-06T15:28:51Z</time>
      </trkpt>
      <trkpt lat="42.586289" lon="-8.950546">
        <ele>66.025</ele>
        <time>2017-05-06T15:28:59Z</time>
      </trkpt>
      <trkpt lat="42.586282" lon="-8.950413">
        <ele>63.017</ele>
        <time>2017-05-06T15:29:06Z</time>
      </trkpt>
      <trkpt lat="42.586248" lon="-8.950293">
        <ele>63.008</ele>
        <time>2017-05-06T15:29:14Z</time>
      </trkpt>
      <trkpt lat="42.586184" lon="-8.950193">
        <ele>63.079</ele>
        <time>2017-05-06T15:29:22Z</time>
      </trkpt>
      <trkpt lat="42.586106" lon="-8.950097">
        <ele>64.025</ele>
        <time>2017-05-06T15:29:30Z</time>
      </trkpt>
      <trkpt lat="42.586039" lon="-8.950009">
        <ele>64.024</ele>
        <time>2017-05-06T15:29:37Z</time>
      </trkpt>
      <trkpt lat="42.585961" lon="-8.949948">
        <ele>63.038</ele>
        <time>2017-05-06T15:29:46Z</time>
      </trkpt>
      <trkpt lat="42.585878" lon="-8.949896">
        <ele>61.064</ele>
        <time>2017-05-06T15:29:52Z</time>
      </trkpt>
      <trkpt lat="42.585788" lon="-8.949842">
        <ele>60.073</ele>
        <time>2017-05-06T15:30:00Z</time>
      </trkpt>
      <trkpt lat="42.585705" lon="-8.949772">
        <ele>61.063</ele>
        <time>2017-05-06T15:30:07Z</time>
      </trkpt>
      <trkpt lat="42.585627" lon="-8.949706">
        <ele>60.027</ele>
        <time>2017-05-06T15:30:14Z</time>
      </trkpt>
      <trkpt lat="42.585715" lon="-8.949764">
        <ele>58.081</ele>
        <time>2017-05-06T15:30:28Z</time>
      </trkpt>
      <trkpt lat="42.585801" lon="-8.949821">
        <ele>58.061</ele>
        <time>2017-05-06T15:30:36Z</time>
      </trkpt>
      <trkpt lat="42.585890" lon="-8.949846">
        <ele>60.017</ele>
        <time>2017-05-06T15:31:09Z</time>
      </trkpt>
      <trkpt lat="42.585990" lon="-8.949822">
        <ele>61.008</ele>
        <time>2017-05-06T15:31:16Z</time>
      </trkpt>
      <trkpt lat="42.586073" lon="-8.949742">
        <ele>60.019</ele>
        <time>2017-05-06T15:31:23Z</time>
      </trkpt>
      <trkpt lat="42.586142" lon="-8.949632">
        <ele>59.095</ele>
        <time>2017-05-06T15:31:31Z</time>
      </trkpt>
      <trkpt lat="42.586194" lon="-8.949523">
        <ele>60.064</ele>
        <time>2017-05-06T15:31:37Z</time>
      </trkpt>
      <trkpt lat="42.586245" lon="-8.949419">
        <ele>61.088</ele>
        <time>2017-05-06T15:31:42Z</time>
      </trkpt>
      <trkpt lat="42.586285" lon="-8.949302">
        <ele>60.064</ele>
        <time>2017-05-06T15:31:48Z</time>
      </trkpt>
      <trkpt lat="42.586317" lon="-8.949175">
        <ele>58.063</ele>
        <time>2017-05-06T15:31:54Z</time>
      </trkpt>
      <trkpt lat="42.586347" lon="-8.949057">
        <ele>58.013</ele>
        <time>2017-05-06T15:32:01Z</time>
      </trkpt>
      <trkpt lat="42.586391" lon="-8.948914">
        <ele>56.017</ele>
        <time>2017-05-06T15:32:07Z</time>
      </trkpt>
      <trkpt lat="42.586423" lon="-8.948788">
        <ele>56.077</ele>
        <time>2017-05-06T15:32:13Z</time>
      </trkpt>
      <trkpt lat="42.586456" lon="-8.948664">
        <ele>56.061</ele>
        <time>2017-05-06T15:32:21Z</time>
      </trkpt>
      <trkpt lat="42.586500" lon="-8.948553">
        <ele>55.027</ele>
        <time>2017-05-06T15:32:28Z</time>
      </trkpt>
      <trkpt lat="42.586574" lon="-8.948481">
        <ele>52.008</ele>
        <time>2017-05-06T15:32:34Z</time>
      </trkpt>
      <trkpt lat="42.586619" lon="-8.948355">
        <ele>55.038</ele>
        <time>2017-05-06T15:32:42Z</time>
      </trkpt>
      <trkpt lat="42.586644" lon="-8.948233">
        <ele>57.024</ele>
        <time>2017-05-06T15:32:48Z</time>
      </trkpt>
      <trkpt lat="42.586655" lon="-8.948111">
        <ele>57.053</ele>
        <time>2017-05-06T15:32:54Z</time>
      </trkpt>
      <trkpt lat="42.586628" lon="-8.947993">
        <ele>57.057</ele>
        <time>2017-05-06T15:33:00Z</time>
      </trkpt>
      <trkpt lat="42.586562" lon="-8.947890">
        <ele>54.043</ele>
        <time>2017-05-06T15:33:09Z</time>
      </trkpt>
      <trkpt lat="42.586512" lon="-8.947776">
        <ele>56.082</ele>
        <time>2017-05-06T15:33:37Z</time>
      </trkpt>
      <trkpt lat="42.586493" lon="-8.947654">
        <ele>56.092</ele>
        <time>2017-05-06T15:33:45Z</time>
      </trkpt>
      <trkpt lat="42.586463" lon="-8.947535">
        <ele>58.086</ele>
        <time>2017-05-06T15:33:51Z</time>
      </trkpt>
      <trkpt lat="42.586434" lon="-8.947416">
        <ele>60.014</ele>
        <time>2017-05-06T15:33:59Z</time>
      </trkpt>
      <trkpt lat="42.586417" lon="-8.947295">
        <ele>60.054</ele>
        <time>2017-05-06T15:34:05Z</time>
      </trkpt>
      <trkpt lat="42.586412" lon="-8.947168">
        <ele>57.009</ele>
        <time>2017-05-06T15:34:11Z</time>
      </trkpt>
      <trkpt lat="42.586407" lon="-8.947045">
        <ele>60.008</ele>
        <time>2017-05-06T15:34:17Z</time>
      </trkpt>
      <trkpt lat="42.586403" lon="-8.946907">
        <ele>63.052</ele>
        <time>2017-05-06T15:34:24Z</time>
      </trkpt>
      <trkpt lat="42.586380" lon="-8.946787">
        <ele>63.028</ele>
        <time>2017-05-06T15:34:30Z</time>
      </trkpt>
      <trkpt lat="42.586326" lon="-8.946686">
        <ele>64.067</ele>
        <time>2017-05-06T15:34:37Z</time>
      </trkpt>
      <trkpt lat="42.586265" lon="-8.946585">
        <ele>61.021</ele>
        <time>2017-05-06T15:34:46Z</time>
      </trkpt>
      <trkpt lat="42.586208" lon="-8.946488">
        <ele>61.027</ele>
        <time>2017-05-06T15:34:54Z</time>
      </trkpt>
      <trkpt lat="42.586146" lon="-8.946386">
        <ele>61.016</ele>
        <time>2017-05-06T15:35:01Z</time>
      </trkpt>
      <trkpt lat="42.586091" lon="-8.946262">
        <ele>61.096</ele>
        <time>2017-05-06T15:35:09Z</time>
      </trkpt>
      <trkpt lat="42.586061" lon="-8.946136">
        <ele>60.080</ele>
        <time>2017-05-06T15:35:16Z</time>
      </trkpt>
      <trkpt lat="42.586024" lon="-8.946021">
        <ele>61.041</ele>
        <time>2017-05-06T15:35:24Z</time>
      </trkpt>
      <trkpt lat="42.585984" lon="-8.945891">
        <ele>61.081</ele>
        <time>2017-05-06T15:35:30Z</time>
      </trkpt>
      <trkpt lat="42.585965" lon="-8.945761">
        <ele>61.009</ele>
        <time>2017-05-06T15:35:37Z</time>
      </trkpt>
      <trkpt lat="42.585938" lon="-8.945628">
        <ele>61.008</ele>
        <time>2017-05-06T15:35:44Z</time>
      </trkpt>
      <trkpt lat="42.585911" lon="-8.945487">
        <ele>60.035</ele>
        <time>2017-05-06T15:35:51Z</time>
      </trkpt>
      <trkpt lat="42.585889" lon="-8.945354">
        <ele>60.051</ele>
        <time>2017-05-06T15:35:58Z</time>
      </trkpt>
      <trkpt lat="42.585856" lon="-8.945241">
        <ele>60.050</ele>
        <time>2017-05-06T15:36:05Z</time>
      </trkpt>
      <trkpt lat="42.585812" lon="-8.945122">
        <ele>61.094</ele>
        <time>2017-05-06T15:36:12Z</time>
      </trkpt>
      <trkpt lat="42.585795" lon="-8.944998">
        <ele>61.040</ele>
        <time>2017-05-06T15:36:18Z</time>
      </trkpt>
      <trkpt lat="42.585790" lon="-8.944875">
        <ele>60.099</ele>
        <time>2017-05-06T15:36:25Z</time>
      </trkpt>
      <trkpt lat="42.585775" lon="-8.944740">
        <ele>61.069</ele>
        <time>2017-05-06T15:36:31Z</time>
      </trkpt>
      <trkpt lat="42.585744" lon="-8.944604">
        <ele>61.013</ele>
        <time>2017-05-06T15:36:39Z</time>
      </trkpt>
      <trkpt lat="42.585707" lon="-8.944484">
        <ele>60.097</ele>
        <time>2017-05-06T15:36:47Z</time>
      </trkpt>
      <trkpt lat="42.585677" lon="-8.944352">
        <ele>61.023</ele>
        <time>2017-05-06T15:36:53Z</time>
      </trkpt>
      <trkpt lat="42.585647" lon="-8.944203">
        <ele>59.025</ele>
        <time>2017-05-06T15:37:00Z</time>
      </trkpt>
      <trkpt lat="42.585628" lon="-8.944080">
        <ele>58.008</ele>
        <time>2017-05-06T15:37:06Z</time>
      </trkpt>
      <trkpt lat="42.585604" lon="-8.943961">
        <ele>58.010</ele>
        <time>2017-05-06T15:37:12Z</time>
      </trkpt>
      <trkpt lat="42.585565" lon="-8.943838">
        <ele>58.066</ele>
        <time>2017-05-06T15:37:19Z</time>
      </trkpt>
      <trkpt lat="42.585502" lon="-8.943730">
        <ele>58.065</ele>
        <time>2017-05-06T15:37:26Z</time>
      </trkpt>
      <trkpt lat="42.585430" lon="-8.943652">
        <ele>57.079</ele>
        <time>2017-05-06T15:37:32Z</time>
      </trkpt>
      <trkpt lat="42.585358" lon="-8.943574">
        <ele>57.085</ele>
        <time>2017-05-06T15:37:38Z</time>
      </trkpt>
      <trkpt lat="42.585294" lon="-8.943484">
        <ele>58.024</ele>
        <time>2017-05-06T15:37:44Z</time>
      </trkpt>
      <trkpt lat="42.585228" lon="-8.943401">
        <ele>56.094</ele>
        <time>2017-05-06T15:37:50Z</time>
      </trkpt>
      <trkpt lat="42.585152" lon="-8.943321">
        <ele>57.068</ele>
        <time>2017-05-06T15:37:56Z</time>
      </trkpt>
      <trkpt lat="42.585085" lon="-8.943222">
        <ele>56.045</ele>
        <time>2017-05-06T15:38:02Z</time>
      </trkpt>
      <trkpt lat="42.585023" lon="-8.943086">
        <ele>56.047</ele>
        <time>2017-05-06T15:38:10Z</time>
      </trkpt>
      <trkpt lat="42.585009" lon="-8.942961">
        <ele>56.011</ele>
        <time>2017-05-06T15:38:16Z</time>
      </trkpt>
      <trkpt lat="42.585012" lon="-8.942798">
        <ele>57.008</ele>
        <time>2017-05-06T15:38:24Z</time>
      </trkpt>
      <trkpt lat="42.585032" lon="-8.942663">
        <ele>59.015</ele>
        <time>2017-05-06T15:38:32Z</time>
      </trkpt>
      <trkpt lat="42.585054" lon="-8.942545">
        <ele>60.021</ele>
        <time>2017-05-06T15:38:38Z</time>
      </trkpt>
      <trkpt lat="42.585086" lon="-8.942401">
        <ele>62.050</ele>
        <time>2017-05-06T15:38:45Z</time>
      </trkpt>
      <trkpt lat="42.585085" lon="-8.942264">
        <ele>62.024</ele>
        <time>2017-05-06T15:38:52Z</time>
      </trkpt>
      <trkpt lat="42.585066" lon="-8.942138">
        <ele>64.090</ele>
        <time>2017-05-06T15:39:00Z</time>
      </trkpt>
      <trkpt lat="42.585065" lon="-8.942013">
        <ele>65.029</ele>
        <time>2017-05-06T15:39:10Z</time>
      </trkpt>
      <trkpt lat="42.585117" lon="-8.941908">
        <ele>66.069</ele>
        <time>2017-05-06T15:39:18Z</time>
      </trkpt>
      <trkpt lat="42.585120" lon="-8.941774">
        <ele>66.073</ele>
        <time>2017-05-06T15:39:25Z</time>
      </trkpt>
      <trkpt lat="42.585047" lon="-8.941684">
        <ele>66.057</ele>
        <time>2017-05-06T15:39:53Z</time>
      </trkpt>
      <trkpt lat="42.584949" lon="-8.941636">
        <ele>66.000</ele>
        <time>2017-05-06T15:40:00Z</time>
      </trkpt>
      <trkpt lat="42.584855" lon="-8.941605">
        <ele>65.020</ele>
        <time>2017-05-06T15:40:06Z</time>
      </trkpt>
      <trkpt lat="42.584764" lon="-8.941565">
        <ele>65.008</ele>
        <time>2017-05-06T15:40:12Z</time>
      </trkpt>
      <trkpt lat="42.584679" lon="-8.941514">
        <ele>65.076</ele>
        <time>2017-05-06T15:40:19Z</time>
      </trkpt>
      <trkpt lat="42.584582" lon="-8.941452">
        <ele>64.012</ele>
        <time>2017-05-06T15:40:26Z</time>
      </trkpt>
      <trkpt lat="42.584492" lon="-8.941404">
        <ele>63.011</ele>
        <time>2017-05-06T15:40:33Z</time>
      </trkpt>
      <trkpt lat="42.584397" lon="-8.941372">
        <ele>63.095</ele>
        <time>2017-05-06T15:40:39Z</time>
      </trkpt>
      <trkpt lat="42.584308" lon="-8.941340">
        <ele>62.061</ele>
        <time>2017-05-06T15:40:45Z</time>
      </trkpt>
      <trkpt lat="42.584225" lon="-8.941289">
        <ele>61.030</ele>
        <time>2017-05-06T15:40:51Z</time>
      </trkpt>
      <trkpt lat="42.584149" lon="-8.941214">
        <ele>62.040</ele>
        <time>2017-05-06T15:40:57Z</time>
      </trkpt>
      <trkpt lat="42.584068" lon="-8.941125">
        <ele>64.034</ele>
        <time>2017-05-06T15:41:04Z</time>
      </trkpt>
      <trkpt lat="42.583982" lon="-8.941048">
        <ele>63.033</ele>
        <time>2017-05-06T15:41:11Z</time>
      </trkpt>
      <trkpt lat="42.583912" lon="-8.940967">
        <ele>63.023</ele>
        <time>2017-05-06T15:41:17Z</time>
      </trkpt>
      <trkpt lat="42.583834" lon="-8.940874">
        <ele>63.015</ele>
        <time>2017-05-06T15:41:24Z</time>
      </trkpt>
      <trkpt lat="42.583755" lon="-8.940797">
        <ele>62.008</ele>
        <time>2017-05-06T15:41:31Z</time>
      </trkpt>
      <trkpt lat="42.583671" lon="-8.940719">
        <ele>64.094</ele>
        <time>2017-05-06T15:41:39Z</time>
      </trkpt>
      <trkpt lat="42.583586" lon="-8.940656">
        <ele>67.050</ele>
        <time>2017-05-06T15:41:47Z</time>
      </trkpt>
      <trkpt lat="42.583507" lon="-8.940582">
        <ele>69.079</ele>
        <time>2017-05-06T15:41:54Z</time>
      </trkpt>
      <trkpt lat="42.583417" lon="-8.940524">
        <ele>71.093</ele>
        <time>2017-05-06T15:42:04Z</time>
      </trkpt>
      <trkpt lat="42.583374" lon="-8.940415">
        <ele>73.069</ele>
        <time>2017-05-06T15:42:11Z</time>
      </trkpt>
      <trkpt lat="42.583342" lon="-8.940276">
        <ele>73.088</ele>
        <time>2017-05-06T15:42:18Z</time>
      </trkpt>
      <trkpt lat="42.583344" lon="-8.940150">
        <ele>72.028</ele>
        <time>2017-05-06T15:42:24Z</time>
      </trkpt>
      <trkpt lat="42.583372" lon="-8.940026">
        <ele>71.022</ele>
        <time>2017-05-06T15:42:31Z</time>
      </trkpt>
      <trkpt lat="42.583393" lon="-8.939888">
        <ele>68.014</ele>
        <time>2017-05-06T15:42:38Z</time>
      </trkpt>
      <trkpt lat="42.583462" lon="-8.939795">
        <ele>65.054</ele>
        <time>2017-05-06T15:42:44Z</time>
      </trkpt>
      <trkpt lat="42.583543" lon="-8.939708">
        <ele>64.009</ele>
        <time>2017-05-06T15:42:54Z</time>
      </trkpt>
      <trkpt lat="42.583619" lon="-8.939615">
        <ele>66.008</ele>
        <time>2017-05-06T15:43:02Z</time>
      </trkpt>
      <trkpt lat="42.583693" lon="-8.939530">
        <ele>68.072</ele>
        <time>2017-05-06T15:43:07Z</time>
      </trkpt>
      <trkpt lat="42.583783" lon="-8.939564">
        <ele>70.098</ele>
        <time>2017-05-06T15:43:12Z</time>
      </trkpt>
      <trkpt lat="42.583873" lon="-8.939502">
        <ele>73.077</ele>
        <time>2017-05-06T15:43:18Z</time>
      </trkpt>
      <trkpt lat="42.583911" lon="-8.939388">
        <ele>74.061</ele>
        <time>2017-05-06T15:43:22Z</time>
      </trkpt>
      <trkpt lat="42.583947" lon="-8.939263">
        <ele>75.067</ele>
        <time>2017-05-06T15:43:29Z</time>
      </trkpt>
      <trkpt lat="42.583963" lon="-8.939126">
        <ele>73.026</ele>
        <time>2017-05-06T15:43:36Z</time>
      </trkpt>
      <trkpt lat="42.584010" lon="-8.938998">
        <ele>69.046</ele>
        <time>2017-05-06T15:43:44Z</time>
      </trkpt>
      <trkpt lat="42.584069" lon="-8.938895">
        <ele>66.080</ele>
        <time>2017-05-06T15:43:50Z</time>
      </trkpt>
      <trkpt lat="42.584134" lon="-8.938805">
        <ele>63.097</ele>
        <time>2017-05-06T15:43:56Z</time>
      </trkpt>
      <trkpt lat="42.584203" lon="-8.938722">
        <ele>62.023</ele>
        <time>2017-05-06T15:44:02Z</time>
      </trkpt>
      <trkpt lat="42.584304" lon="-8.938681">
        <ele>62.025</ele>
        <time>2017-05-06T15:44:08Z</time>
      </trkpt>
      <trkpt lat="42.584387" lon="-8.938631">
        <ele>60.008</ele>
        <time>2017-05-06T15:44:21Z</time>
      </trkpt>
      <trkpt lat="42.584463" lon="-8.938556">
        <ele>61.020</ele>
        <time>2017-05-06T15:44:28Z</time>
      </trkpt>
      <trkpt lat="42.584531" lon="-8.938458">
        <ele>61.036</ele>
        <time>2017-05-06T15:44:35Z</time>
      </trkpt>
      <trkpt lat="42.584606" lon="-8.938360">
        <ele>61.035</ele>
        <time>2017-05-06T15:44:42Z</time>
      </trkpt>
      <trkpt lat="42.584667" lon="-8.938254">
        <ele>62.039</ele>
        <time>2017-05-06T15:44:49Z</time>
      </trkpt>
      <trkpt lat="42.584710" lon="-8.938128">
        <ele>62.015</ele>
        <time>2017-05-06T15:45:07Z</time>
      </trkpt>
      <trkpt lat="42.584770" lon="-8.938023">
        <ele>62.064</ele>
        <time>2017-05-06T15:45:13Z</time>
      </trkpt>
      <trkpt lat="42.584816" lon="-8.937907">
        <ele>62.044</ele>
        <time>2017-05-06T15:45:19Z</time>
      </trkpt>
      <trkpt lat="42.584850" lon="-8.937792">
        <ele>63.078</ele>
        <time>2017-05-06T15:45:25Z</time>
      </trkpt>
      <trkpt lat="42.584880" lon="-8.937671">
        <ele>63.063</ele>
        <time>2017-05-06T15:45:31Z</time>
      </trkpt>
      <trkpt lat="42.584896" lon="-8.937548">
        <ele>63.044</ele>
        <time>2017-05-06T15:45:37Z</time>
      </trkpt>
      <trkpt lat="42.584909" lon="-8.937422">
        <ele>62.018</ele>
        <time>2017-05-06T15:45:44Z</time>
      </trkpt>
      <trkpt lat="42.584925" lon="-8.937285">
        <ele>62.008</ele>
        <time>2017-05-06T15:45:51Z</time>
      </trkpt>
      <trkpt lat="42.584936" lon="-8.937140">
        <ele>62.037</ele>
        <time>2017-05-06T15:45:58Z</time>
      </trkpt>
      <trkpt lat="42.584907" lon="-8.937024">
        <ele>60.033</ele>
        <time>2017-05-06T15:46:04Z</time>
      </trkpt>
      <trkpt lat="42.584888" lon="-8.936904">
        <ele>59.052</ele>
        <time>2017-05-06T15:46:10Z</time>
      </trkpt>
      <trkpt lat="42.584891" lon="-8.936770">
        <ele>59.026</ele>
        <time>2017-05-06T15:46:17Z</time>
      </trkpt>
      <trkpt lat="42.584923" lon="-8.936645">
        <ele>58.072</ele>
        <time>2017-05-06T15:46:24Z</time>
      </trkpt>
      <trkpt lat="42.584965" lon="-8.936521">
        <ele>59.091</ele>
        <time>2017-05-06T15:46:32Z</time>
      </trkpt>
      <trkpt lat="42.584986" lon="-8.936388">
        <ele>60.031</ele>
        <time>2017-05-06T15:46:40Z</time>
      </trkpt>
      <trkpt lat="42.584928" lon="-8.936275">
        <ele>60.055</ele>
        <time>2017-05-06T15:46:47Z</time>
      </trkpt>
      <trkpt lat="42.584887" lon="-8.936149">
        <ele>60.088</ele>
        <time>2017-05-06T15:46:54Z</time>
      </trkpt>
      <trkpt lat="42.584873" lon="-8.936016">
        <ele>61.024</ele>
        <time>2017-05-06T15:47:02Z</time>
      </trkpt>
      <trkpt lat="42.584848" lon="-8.935882">
        <ele>61.026</ele>
        <time>2017-05-06T15:47:09Z</time>
      </trkpt>
      <trkpt lat="42.584828" lon="-8.935754">
        <ele>62.008</ele>
        <time>2017-05-06T15:47:16Z</time>
      </trkpt>
      <trkpt lat="42.584806" lon="-8.935615">
        <ele>61.099</ele>
        <time>2017-05-06T15:47:23Z</time>
      </trkpt>
      <trkpt lat="42.584764" lon="-8.935497">
        <ele>60.025</ele>
        <time>2017-05-06T15:47:29Z</time>
      </trkpt>
      <trkpt lat="42.584706" lon="-8.935377">
        <ele>60.094</ele>
        <time>2017-05-06T15:47:36Z</time>
      </trkpt>
      <trkpt lat="42.584646" lon="-8.935265">
        <ele>59.038</ele>
        <time>2017-05-06T15:47:43Z</time>
      </trkpt>
      <trkpt lat="42.584592" lon="-8.935147">
        <ele>58.014</ele>
        <time>2017-05-06T15:47:50Z</time>
      </trkpt>
      <trkpt lat="42.584523" lon="-8.935047">
        <ele>57.043</ele>
        <time>2017-05-06T15:47:57Z</time>
      </trkpt>
      <trkpt lat="42.584471" lon="-8.934947">
        <ele>57.063</ele>
        <time>2017-05-06T15:48:04Z</time>
      </trkpt>
      <trkpt lat="42.584421" lon="-8.934821">
        <ele>57.057</ele>
        <time>2017-05-06T15:48:11Z</time>
      </trkpt>
      <trkpt lat="42.584370" lon="-8.934696">
        <ele>58.069</ele>
        <time>2017-05-06T15:48:18Z</time>
      </trkpt>
      <trkpt lat="42.584320" lon="-8.934592">
        <ele>58.004</ele>
        <time>2017-05-06T15:48:23Z</time>
      </trkpt>
      <trkpt lat="42.584259" lon="-8.934500">
        <ele>59.024</ele>
        <time>2017-05-06T15:48:29Z</time>
      </trkpt>
      <trkpt lat="42.584206" lon="-8.934390">
        <ele>57.008</ele>
        <time>2017-05-06T15:48:35Z</time>
      </trkpt>
      <trkpt lat="42.584168" lon="-8.934259">
        <ele>59.047</ele>
        <time>2017-05-06T15:48:43Z</time>
      </trkpt>
      <trkpt lat="42.584126" lon="-8.934133">
        <ele>59.083</ele>
        <time>2017-05-06T15:48:50Z</time>
      </trkpt>
      <trkpt lat="42.584081" lon="-8.934027">
        <ele>59.022</ele>
        <time>2017-05-06T15:48:56Z</time>
      </trkpt>
      <trkpt lat="42.584059" lon="-8.933894">
        <ele>60.076</ele>
        <time>2017-05-06T15:49:04Z</time>
      </trkpt>
      <trkpt lat="42.584123" lon="-8.933778">
        <ele>64.032</ele>
        <time>2017-05-06T15:49:12Z</time>
      </trkpt>
      <trkpt lat="42.584175" lon="-8.933661">
        <ele>66.021</ele>
        <time>2017-05-06T15:49:22Z</time>
      </trkpt>
      <trkpt lat="42.584213" lon="-8.933532">
        <ele>66.091</ele>
        <time>2017-05-06T15:49:32Z</time>
      </trkpt>
      <trkpt lat="42.584242" lon="-8.933414">
        <ele>65.035</ele>
        <time>2017-05-06T15:49:38Z</time>
      </trkpt>
      <trkpt lat="42.584264" lon="-8.933284">
        <ele>65.067</ele>
        <time>2017-05-06T15:49:44Z</time>
      </trkpt>
      <trkpt lat="42.584268" lon="-8.933144">
        <ele>68.081</ele>
        <time>2017-05-06T15:49:51Z</time>
      </trkpt>
      <trkpt lat="42.584311" lon="-8.933035">
        <ele>67.019</ele>
        <time>2017-05-06T15:49:56Z</time>
      </trkpt>
      <trkpt lat="42.584421" lon="-8.932989">
        <ele>62.008</ele>
        <time>2017-05-06T15:50:06Z</time>
      </trkpt>
      <trkpt lat="42.584521" lon="-8.932991">
        <ele>65.097</ele>
        <time>2017-05-06T15:50:16Z</time>
      </trkpt>
      <trkpt lat="42.584624" lon="-8.932977">
        <ele>64.023</ele>
        <time>2017-05-06T15:50:22Z</time>
      </trkpt>
      <trkpt lat="42.584714" lon="-8.933035">
        <ele>58.062</ele>
        <time>2017-05-06T15:50:27Z</time>
      </trkpt>
      <trkpt lat="42.584810" lon="-8.933037">
        <ele>61.086</ele>
        <time>2017-05-06T15:50:35Z</time>
      </trkpt>
      <trkpt lat="42.584905" lon="-8.933062">
        <ele>64.022</ele>
        <time>2017-05-06T15:50:42Z</time>
      </trkpt>
      <trkpt lat="42.584998" lon="-8.933087">
        <ele>63.061</ele>
        <time>2017-05-06T15:50:47Z</time>
      </trkpt>
      <trkpt lat="42.585095" lon="-8.933078">
        <ele>63.081</ele>
        <time>2017-05-06T15:50:54Z</time>
      </trkpt>
      <trkpt lat="42.585194" lon="-8.933074">
        <ele>62.035</ele>
        <time>2017-05-06T15:51:00Z</time>
      </trkpt>
      <trkpt lat="42.585284" lon="-8.933069">
        <ele>62.081</ele>
        <time>2017-05-06T15:51:10Z</time>
      </trkpt>
      <trkpt lat="42.585389" lon="-8.933085">
        <ele>61.061</ele>
        <time>2017-05-06T15:51:16Z</time>
      </trkpt>
      <trkpt lat="42.585477" lon="-8.933112">
        <ele>60.017</ele>
        <time>2017-05-06T15:51:21Z</time>
      </trkpt>
      <trkpt lat="42.585573" lon="-8.933135">
        <ele>60.008</ele>
        <time>2017-05-06T15:51:27Z</time>
      </trkpt>
      <trkpt lat="42.585667" lon="-8.933147">
        <ele>62.029</ele>
        <time>2017-05-06T15:51:34Z</time>
      </trkpt>
      <trkpt lat="42.585765" lon="-8.933124">
        <ele>63.085</ele>
        <time>2017-05-06T15:51:41Z</time>
      </trkpt>
      <trkpt lat="42.585873" lon="-8.933084">
        <ele>62.014</ele>
        <time>2017-05-06T15:51:49Z</time>
      </trkpt>
      <trkpt lat="42.585948" lon="-8.933005">
        <ele>63.058</ele>
        <time>2017-05-06T15:51:57Z</time>
      </trkpt>
      <trkpt lat="42.585948" lon="-8.933005">
        <ele>63.064</ele>
        <time>2017-05-06T15:51:57Z</time>
      </trkpt>
      <trkpt lat="42.586030" lon="-8.932919">
        <ele>63.063</ele>
        <time>2017-05-06T15:52:05Z</time>
      </trkpt>
      <trkpt lat="42.586092" lon="-8.932830">
        <ele>63.063</ele>
        <time>2017-05-06T15:52:11Z</time>
      </trkpt>
      <trkpt lat="42.586169" lon="-8.932748">
        <ele>63.077</ele>
        <time>2017-05-06T15:52:17Z</time>
      </trkpt>
      <trkpt lat="42.586244" lon="-8.932664">
        <ele>62.011</ele>
        <time>2017-05-06T15:52:24Z</time>
      </trkpt>
      <trkpt lat="42.586322" lon="-8.932578">
        <ele>62.021</ele>
        <time>2017-05-06T15:52:30Z</time>
      </trkpt>
      <trkpt lat="42.586397" lon="-8.932491">
        <ele>63.003</ele>
        <time>2017-05-06T15:52:37Z</time>
      </trkpt>
      <trkpt lat="42.586476" lon="-8.932407">
        <ele>62.008</ele>
        <time>2017-05-06T15:52:42Z</time>
      </trkpt>
      <trkpt lat="42.586540" lon="-8.932321">
        <ele>63.062</ele>
        <time>2017-05-06T15:52:48Z</time>
      </trkpt>
      <trkpt lat="42.586607" lon="-8.932239">
        <ele>63.048</ele>
        <time>2017-05-06T15:52:54Z</time>
      </trkpt>
      <trkpt lat="42.586676" lon="-8.932152">
        <ele>63.037</ele>
        <time>2017-05-06T15:53:01Z</time>
      </trkpt>
      <trkpt lat="42.586740" lon="-8.932065">
        <ele>63.021</ele>
        <time>2017-05-06T15:53:07Z</time>
      </trkpt>
      <trkpt lat="42.586814" lon="-8.931960">
        <ele>63.027</ele>
        <time>2017-05-06T15:53:14Z</time>
      </trkpt>
      <trkpt lat="42.586870" lon="-8.931837">
        <ele>63.026</ele>
        <time>2017-05-06T15:53:21Z</time>
      </trkpt>
      <trkpt lat="42.586920" lon="-8.931734">
        <ele>63.076</ele>
        <time>2017-05-06T15:53:27Z</time>
      </trkpt>
      <trkpt lat="42.586970" lon="-8.931624">
        <ele>63.040</ele>
        <time>2017-05-06T15:53:33Z</time>
      </trkpt>
      <trkpt lat="42.587024" lon="-8.931507">
        <ele>63.074</ele>
        <time>2017-05-06T15:53:39Z</time>
      </trkpt>
      <trkpt lat="42.587078" lon="-8.931394">
        <ele>62.056</ele>
        <time>2017-05-06T15:53:45Z</time>
      </trkpt>
      <trkpt lat="42.587113" lon="-8.931265">
        <ele>62.021</ele>
        <time>2017-05-06T15:53:52Z</time>
      </trkpt>
      <trkpt lat="42.587163" lon="-8.931149">
        <ele>62.008</ele>
        <time>2017-05-06T15:53:58Z</time>
      </trkpt>
      <trkpt lat="42.587209" lon="-8.931031">
        <ele>63.068</ele>
        <time>2017-05-06T15:54:04Z</time>
      </trkpt>
      <trkpt lat="42.587250" lon="-8.930916">
        <ele>64.024</ele>
        <time>2017-05-06T15:54:09Z</time>
      </trkpt>
      <trkpt lat="42.587284" lon="-8.930802">
        <ele>62.053</ele>
        <time>2017-05-06T15:54:14Z</time>
      </trkpt>
      <trkpt lat="42.587326" lon="-8.930651">
        <ele>62.067</ele>
        <time>2017-05-06T15:54:21Z</time>
      </trkpt>
      <trkpt lat="42.587366" lon="-8.930524">
        <ele>62.043</ele>
        <time>2017-05-06T15:54:27Z</time>
      </trkpt>
      <trkpt lat="42.587422" lon="-8.930387">
        <ele>61.092</ele>
        <time>2017-05-06T15:54:34Z</time>
      </trkpt>
      <trkpt lat="42.587465" lon="-8.930271">
        <ele>62.012</ele>
        <time>2017-05-06T15:54:41Z</time>
      </trkpt>
      <trkpt lat="42.587494" lon="-8.930155">
        <ele>62.056</ele>
        <time>2017-05-06T15:54:47Z</time>
      </trkpt>
      <trkpt lat="42.587471" lon="-8.930016">
        <ele>65.011</ele>
        <time>2017-05-06T15:54:55Z</time>
      </trkpt>
      <trkpt lat="42.587476" lon="-8.929873">
        <ele>64.021</ele>
        <time>2017-05-06T15:55:01Z</time>
      </trkpt>
      <trkpt lat="42.587482" lon="-8.929739">
        <ele>64.003</ele>
        <time>2017-05-06T15:55:07Z</time>
      </trkpt>
      <trkpt lat="42.587486" lon="-8.929580">
        <ele>62.008</ele>
        <time>2017-05-06T15:55:14Z</time>
      </trkpt>
      <trkpt lat="42.587486" lon="-8.929456">
        <ele>62.052</ele>
        <time>2017-05-06T15:55:20Z</time>
      </trkpt>
      <trkpt lat="42.587481" lon="-8.929316">
        <ele>61.048</ele>
        <time>2017-05-06T15:55:27Z</time>
      </trkpt>
      <trkpt lat="42.587478" lon="-8.929181">
        <ele>61.027</ele>
        <time>2017-05-06T15:55:34Z</time>
      </trkpt>
      <trkpt lat="42.587486" lon="-8.929052">
        <ele>60.021</ele>
        <time>2017-05-06T15:55:40Z</time>
      </trkpt>
      <trkpt lat="42.587487" lon="-8.928921">
        <ele>61.097</ele>
        <time>2017-05-06T15:55:45Z</time>
      </trkpt>
      <trkpt lat="42.587494" lon="-8.928793">
        <ele>60.016</ele>
        <time>2017-05-06T15:55:51Z</time>
      </trkpt>
      <trkpt lat="42.587506" lon="-8.928657">
        <ele>61.046</ele>
        <time>2017-05-06T15:55:57Z</time>
      </trkpt>
      <trkpt lat="42.587514" lon="-8.928500">
        <ele>60.090</ele>
        <time>2017-05-06T15:56:04Z</time>
      </trkpt>
      <trkpt lat="42.587520" lon="-8.928367">
        <ele>59.085</ele>
        <time>2017-05-06T15:56:11Z</time>
      </trkpt>
      <trkpt lat="42.587528" lon="-8.928240">
        <ele>60.089</ele>
        <time>2017-05-06T15:56:18Z</time>
      </trkpt>
      <trkpt lat="42.587538" lon="-8.928114">
        <ele>59.017</ele>
        <time>2017-05-06T15:56:24Z</time>
      </trkpt>
      <trkpt lat="42.587550" lon="-8.927984">
        <ele>62.008</ele>
        <time>2017-05-06T16:04:19Z</time>
      </trkpt>
      <trkpt lat="42.587526" lon="-8.927861">
        <ele>66.039</ele>
        <time>2017-05-06T16:04:31Z</time>
      </trkpt>
      <trkpt lat="42.587528" lon="-8.927717">
        <ele>68.095</ele>
        <time>2017-05-06T16:04:38Z</time>
      </trkpt>
      <trkpt lat="42.587510" lon="-8.927590">
        <ele>67.064</ele>
        <time>2017-05-06T16:04:45Z</time>
      </trkpt>
      <trkpt lat="42.587504" lon="-8.927447">
        <ele>66.068</ele>
        <time>2017-05-06T16:04:52Z</time>
      </trkpt>
      <trkpt lat="42.587496" lon="-8.927309">
        <ele>66.024</ele>
        <time>2017-05-06T16:04:59Z</time>
      </trkpt>
      <trkpt lat="42.587446" lon="-8.927196">
        <ele>64.043</ele>
        <time>2017-05-06T16:05:08Z</time>
      </trkpt>
      <trkpt lat="42.587360" lon="-8.927145">
        <ele>64.023</ele>
        <time>2017-05-06T16:05:16Z</time>
      </trkpt>
      <trkpt lat="42.587266" lon="-8.927101">
        <ele>62.077</ele>
        <time>2017-05-06T16:05:23Z</time>
      </trkpt>
      <trkpt lat="42.587172" lon="-8.927048">
        <ele>61.031</ele>
        <time>2017-05-06T16:05:30Z</time>
      </trkpt>
      <trkpt lat="42.587091" lon="-8.926988">
        <ele>61.061</ele>
        <time>2017-05-06T16:05:35Z</time>
      </trkpt>
      <trkpt lat="42.587059" lon="-8.926854">
        <ele>62.007</ele>
        <time>2017-05-06T16:05:43Z</time>
      </trkpt>
      <trkpt lat="42.587104" lon="-8.926746">
        <ele>64.008</ele>
        <time>2017-05-06T16:05:50Z</time>
      </trkpt>
      <trkpt lat="42.587168" lon="-8.926652">
        <ele>65.074</ele>
        <time>2017-05-06T16:05:57Z</time>
      </trkpt>
      <trkpt lat="42.587221" lon="-8.926549">
        <ele>67.090</ele>
        <time>2017-05-06T16:06:04Z</time>
      </trkpt>
      <trkpt lat="42.587237" lon="-8.926414">
        <ele>68.039</ele>
        <time>2017-05-06T16:06:12Z</time>
      </trkpt>
      <trkpt lat="42.587239" lon="-8.926288">
        <ele>69.043</ele>
        <time>2017-05-06T16:06:19Z</time>
      </trkpt>
      <trkpt lat="42.587247" lon="-8.926156">
        <ele>68.089</ele>
        <time>2017-05-06T16:06:25Z</time>
      </trkpt>
      <trkpt lat="42.587232" lon="-8.926031">
        <ele>70.068</ele>
        <time>2017-05-06T16:06:32Z</time>
      </trkpt>
      <trkpt lat="42.587221" lon="-8.925899">
        <ele>69.038</ele>
        <time>2017-05-06T16:06:39Z</time>
      </trkpt>
      <trkpt lat="42.587214" lon="-8.925771">
        <ele>70.022</ele>
        <time>2017-05-06T16:06:45Z</time>
      </trkpt>
      <trkpt lat="42.587190" lon="-8.925633">
        <ele>70.026</ele>
        <time>2017-05-06T16:06:52Z</time>
      </trkpt>
      <trkpt lat="42.587173" lon="-8.925500">
        <ele>68.047</ele>
        <time>2017-05-06T16:06:58Z</time>
      </trkpt>
      <trkpt lat="42.587146" lon="-8.925375">
        <ele>68.011</ele>
        <time>2017-05-06T16:07:04Z</time>
      </trkpt>
      <trkpt lat="42.587104" lon="-8.925258">
        <ele>69.008</ele>
        <time>2017-05-06T16:07:11Z</time>
      </trkpt>
      <trkpt lat="42.587064" lon="-8.925137">
        <ele>68.063</ele>
        <time>2017-05-06T16:07:18Z</time>
      </trkpt>
      <trkpt lat="42.587024" lon="-8.925000">
        <ele>68.049</ele>
        <time>2017-05-06T16:07:26Z</time>
      </trkpt>
      <trkpt lat="42.586983" lon="-8.924885">
        <ele>69.088</ele>
        <time>2017-05-06T16:07:34Z</time>
      </trkpt>
      <trkpt lat="42.586934" lon="-8.924767">
        <ele>71.082</ele>
        <time>2017-05-06T16:07:41Z</time>
      </trkpt>
      <trkpt lat="42.586900" lon="-8.924649">
        <ele>73.058</ele>
        <time>2017-05-06T16:07:48Z</time>
      </trkpt>
      <trkpt lat="42.586866" lon="-8.924525">
        <ele>75.087</ele>
        <time>2017-05-06T16:07:54Z</time>
      </trkpt>
      <trkpt lat="42.586847" lon="-8.924392">
        <ele>76.047</ele>
        <time>2017-05-06T16:08:02Z</time>
      </trkpt>
      <trkpt lat="42.586843" lon="-8.924258">
        <ele>75.091</ele>
        <time>2017-05-06T16:08:09Z</time>
      </trkpt>
      <trkpt lat="42.586857" lon="-8.924124">
        <ele>75.027</ele>
        <time>2017-05-06T16:08:16Z</time>
      </trkpt>
      <trkpt lat="42.586867" lon="-8.924002">
        <ele>73.068</ele>
        <time>2017-05-06T16:08:21Z</time>
      </trkpt>
      <trkpt lat="42.586871" lon="-8.923874">
        <ele>76.014</ele>
        <time>2017-05-06T16:08:28Z</time>
      </trkpt>
      <trkpt lat="42.586868" lon="-8.923749">
        <ele>78.008</ele>
        <time>2017-05-06T16:08:35Z</time>
      </trkpt>
      <trkpt lat="42.586856" lon="-8.923619">
        <ele>79.063</ele>
        <time>2017-05-06T16:08:43Z</time>
      </trkpt>
      <trkpt lat="42.586830" lon="-8.923490">
        <ele>80.079</ele>
        <time>2017-05-06T16:08:51Z</time>
      </trkpt>
      <trkpt lat="42.586809" lon="-8.923372">
        <ele>82.018</ele>
        <time>2017-05-06T16:08:58Z</time>
      </trkpt>
      <trkpt lat="42.586792" lon="-8.923241">
        <ele>86.042</ele>
        <time>2017-05-06T16:09:05Z</time>
      </trkpt>
      <trkpt lat="42.586761" lon="-8.923108">
        <ele>89.078</ele>
        <time>2017-05-06T16:09:12Z</time>
      </trkpt>
      <trkpt lat="42.586764" lon="-8.922980">
        <ele>85.077</ele>
        <time>2017-05-06T16:09:17Z</time>
      </trkpt>
      <trkpt lat="42.586773" lon="-8.922847">
        <ele>86.047</ele>
        <time>2017-05-06T16:09:25Z</time>
      </trkpt>
      <trkpt lat="42.586773" lon="-8.922711">
        <ele>83.031</ele>
        <time>2017-05-06T16:09:31Z</time>
      </trkpt>
      <trkpt lat="42.586775" lon="-8.922574">
        <ele>83.068</ele>
        <time>2017-05-06T16:09:38Z</time>
      </trkpt>
      <trkpt lat="42.586785" lon="-8.922451">
        <ele>83.042</ele>
        <time>2017-05-06T16:09:46Z</time>
      </trkpt>
      <trkpt lat="42.586827" lon="-8.922342">
        <ele>81.026</ele>
        <time>2017-05-06T16:09:52Z</time>
      </trkpt>
      <trkpt lat="42.586906" lon="-8.922258">
        <ele>79.008</ele>
        <time>2017-05-06T16:10:00Z</time>
      </trkpt>
      <trkpt lat="42.586980" lon="-8.922162">
        <ele>77.047</ele>
        <time>2017-05-06T16:10:07Z</time>
      </trkpt>
      <trkpt lat="42.587040" lon="-8.922068">
        <ele>77.083</ele>
        <time>2017-05-06T16:10:14Z</time>
      </trkpt>
      <trkpt lat="42.587095" lon="-8.921954">
        <ele>78.072</ele>
        <time>2017-05-06T16:10:22Z</time>
      </trkpt>
      <trkpt lat="42.587147" lon="-8.921840">
        <ele>79.076</ele>
        <time>2017-05-06T16:10:30Z</time>
      </trkpt>
      <trkpt lat="42.587204" lon="-8.921737">
        <ele>76.092</ele>
        <time>2017-05-06T16:10:38Z</time>
      </trkpt>
      <trkpt lat="42.587231" lon="-8.921601">
        <ele>76.011</ele>
        <time>2017-05-06T16:10:46Z</time>
      </trkpt>
      <trkpt lat="42.587259" lon="-8.921481">
        <ele>77.061</ele>
        <time>2017-05-06T16:10:53Z</time>
      </trkpt>
      <trkpt lat="42.587316" lon="-8.921374">
        <ele>78.085</ele>
        <time>2017-05-06T16:11:00Z</time>
      </trkpt>
      <trkpt lat="42.587309" lon="-8.921240">
        <ele>78.084</ele>
        <time>2017-05-06T16:11:09Z</time>
      </trkpt>
      <trkpt lat="42.587277" lon="-8.921125">
        <ele>74.007</ele>
        <time>2017-05-06T16:11:16Z</time>
      </trkpt>
      <trkpt lat="42.587226" lon="-8.921016">
        <ele>73.017</ele>
        <time>2017-05-06T16:11:23Z</time>
      </trkpt>
      <trkpt lat="42.587174" lon="-8.920908">
        <ele>73.008</ele>
        <time>2017-05-06T16:11:31Z</time>
      </trkpt>
      <trkpt lat="42.587258" lon="-8.920973">
        <ele>70.049</ele>
        <time>2017-05-06T16:12:56Z</time>
      </trkpt>
      <trkpt lat="42.587310" lon="-8.921082">
        <ele>69.035</ele>
        <time>2017-05-06T16:13:05Z</time>
      </trkpt>
      <trkpt lat="42.587362" lon="-8.921188">
        <ele>69.094</ele>
        <time>2017-05-06T16:13:12Z</time>
      </trkpt>
      <trkpt lat="42.587440" lon="-8.921256">
        <ele>68.038</ele>
        <time>2017-05-06T16:13:20Z</time>
      </trkpt>
      <trkpt lat="42.587531" lon="-8.921288">
        <ele>69.014</ele>
        <time>2017-05-06T16:13:30Z</time>
      </trkpt>
      <trkpt lat="42.587602" lon="-8.921371">
        <ele>70.043</ele>
        <time>2017-05-06T16:13:42Z</time>
      </trkpt>
      <trkpt lat="42.587632" lon="-8.921488">
        <ele>69.063</ele>
        <time>2017-05-06T16:13:49Z</time>
      </trkpt>
      <trkpt lat="42.587712" lon="-8.921552">
        <ele>75.017</ele>
        <time>2017-05-06T16:13:58Z</time>
      </trkpt>
      <trkpt lat="42.587777" lon="-8.921638">
        <ele>74.041</ele>
        <time>2017-05-06T16:14:03Z</time>
      </trkpt>
      <trkpt lat="42.587844" lon="-8.921729">
        <ele>76.081</ele>
        <time>2017-05-06T16:14:11Z</time>
      </trkpt>
      <trkpt lat="42.587911" lon="-8.921824">
        <ele>75.009</ele>
        <time>2017-05-06T16:14:22Z</time>
      </trkpt>
      <trkpt lat="42.587951" lon="-8.921950">
        <ele>74.008</ele>
        <time>2017-05-06T16:14:27Z</time>
      </trkpt>
      <trkpt lat="42.588005" lon="-8.922055">
        <ele>75.015</ele>
        <time>2017-05-06T16:14:34Z</time>
      </trkpt>
      <trkpt lat="42.588082" lon="-8.922131">
        <ele>77.091</ele>
        <time>2017-05-06T16:14:43Z</time>
      </trkpt>
      <trkpt lat="42.588155" lon="-8.922217">
        <ele>75.090</ele>
        <time>2017-05-06T16:14:53Z</time>
      </trkpt>
      <trkpt lat="42.588240" lon="-8.922334">
        <ele>74.074</ele>
        <time>2017-05-06T16:15:00Z</time>
      </trkpt>
      <trkpt lat="42.588310" lon="-8.922432">
        <ele>74.050</ele>
        <time>2017-05-06T16:15:07Z</time>
      </trkpt>
      <trkpt lat="42.588389" lon="-8.922518">
        <ele>74.089</ele>
        <time>2017-05-06T16:15:14Z</time>
      </trkpt>
      <trkpt lat="42.588435" lon="-8.922633">
        <ele>75.089</ele>
        <time>2017-05-06T16:15:22Z</time>
      </trkpt>
      <trkpt lat="42.588472" lon="-8.922759">
        <ele>76.033</ele>
        <time>2017-05-06T16:15:30Z</time>
      </trkpt>
      <trkpt lat="42.588517" lon="-8.922872">
        <ele>76.013</ele>
        <time>2017-05-06T16:15:40Z</time>
      </trkpt>
      <trkpt lat="42.588583" lon="-8.922987">
        <ele>81.043</ele>
        <time>2017-05-06T16:15:54Z</time>
      </trkpt>
      <trkpt lat="42.588592" lon="-8.923127">
        <ele>83.007</ele>
        <time>2017-05-06T16:16:02Z</time>
      </trkpt>
      <trkpt lat="42.588649" lon="-8.923228">
        <ele>82.008</ele>
        <time>2017-05-06T16:16:07Z</time>
      </trkpt>
      <trkpt lat="42.588668" lon="-8.923358">
        <ele>82.042</ele>
        <time>2017-05-06T16:16:14Z</time>
      </trkpt>
      <trkpt lat="42.588728" lon="-8.923493">
        <ele>78.048</ele>
        <time>2017-05-06T16:16:21Z</time>
      </trkpt>
      <trkpt lat="42.588653" lon="-8.923382">
        <ele>80.077</ele>
        <time>2017-05-06T16:16:47Z</time>
      </trkpt>
      <trkpt lat="42.588623" lon="-8.923263">
        <ele>80.051</ele>
        <time>2017-05-06T16:16:54Z</time>
      </trkpt>
      <trkpt lat="42.588598" lon="-8.923117">
        <ele>79.057</ele>
        <time>2017-05-06T16:17:02Z</time>
      </trkpt>
      <trkpt lat="42.588581" lon="-8.922989">
        <ele>77.016</ele>
        <time>2017-05-06T16:17:09Z</time>
      </trkpt>
      <trkpt lat="42.588615" lon="-8.922858">
        <ele>76.056</ele>
        <time>2017-05-06T16:17:17Z</time>
      </trkpt>
      <trkpt lat="42.588596" lon="-8.922735">
        <ele>82.010</ele>
        <time>2017-05-06T16:17:27Z</time>
      </trkpt>
      <trkpt lat="42.588623" lon="-8.922612">
        <ele>80.098</ele>
        <time>2017-05-06T16:17:35Z</time>
      </trkpt>
      <trkpt lat="42.588575" lon="-8.922502">
        <ele>88.015</ele>
        <time>2017-05-06T16:17:44Z</time>
      </trkpt>
      <trkpt lat="42.588576" lon="-8.922322">
        <ele>77.026</ele>
        <time>2017-05-06T16:17:51Z</time>
      </trkpt>
      <trkpt lat="42.588646" lon="-8.922414">
        <ele>70.008</ele>
        <time>2017-05-06T16:18:36Z</time>
      </trkpt>
      <trkpt lat="42.588627" lon="-8.922538">
        <ele>70.010</ele>
        <time>2017-05-06T16:18:52Z</time>
      </trkpt>
      <trkpt lat="42.588638" lon="-8.922660">
        <ele>69.096</ele>
        <time>2017-05-06T16:19:02Z</time>
      </trkpt>
      <trkpt lat="42.588642" lon="-8.922796">
        <ele>76.025</ele>
        <time>2017-05-06T16:19:13Z</time>
      </trkpt>
      <trkpt lat="42.588712" lon="-8.922880">
        <ele>77.029</ele>
        <time>2017-05-06T16:19:35Z</time>
      </trkpt>
      <trkpt lat="42.588804" lon="-8.922886">
        <ele>75.075</ele>
        <time>2017-05-06T16:19:39Z</time>
      </trkpt>
      <trkpt lat="42.588906" lon="-8.922896">
        <ele>76.084</ele>
        <time>2017-05-06T16:19:48Z</time>
      </trkpt>
      <trkpt lat="42.589010" lon="-8.922913">
        <ele>83.084</ele>
        <time>2017-05-06T16:19:58Z</time>
      </trkpt>
      <trkpt lat="42.589095" lon="-8.922863">
        <ele>81.088</ele>
        <time>2017-05-06T16:20:05Z</time>
      </trkpt>
      <trkpt lat="42.589194" lon="-8.922864">
        <ele>86.043</ele>
        <time>2017-05-06T16:20:12Z</time>
      </trkpt>
      <trkpt lat="42.589290" lon="-8.922882">
        <ele>84.064</ele>
        <time>2017-05-06T16:20:19Z</time>
      </trkpt>
      <trkpt lat="42.589386" lon="-8.922905">
        <ele>84.010</ele>
        <time>2017-05-06T16:20:26Z</time>
      </trkpt>
      <trkpt lat="42.589485" lon="-8.922911">
        <ele>82.008</ele>
        <time>2017-05-06T16:20:30Z</time>
      </trkpt>
      <trkpt lat="42.589581" lon="-8.922925">
        <ele>81.015</ele>
        <time>2017-05-06T16:20:35Z</time>
      </trkpt>
      <trkpt lat="42.589679" lon="-8.922947">
        <ele>82.031</ele>
        <time>2017-05-06T16:20:40Z</time>
      </trkpt>
      <trkpt lat="42.589732" lon="-8.923055">
        <ele>77.020</ele>
        <time>2017-05-06T16:20:45Z</time>
      </trkpt>
      <trkpt lat="42.589764" lon="-8.923178">
        <ele>76.034</ele>
        <time>2017-05-06T16:20:52Z</time>
      </trkpt>
      <trkpt lat="42.589822" lon="-8.923076">
        <ele>80.060</ele>
        <time>2017-05-06T16:21:02Z</time>
      </trkpt>
      <trkpt lat="42.589853" lon="-8.922957">
        <ele>87.049</ele>
        <time>2017-05-06T16:21:10Z</time>
      </trkpt>
      <trkpt lat="42.589904" lon="-8.922852">
        <ele>87.099</ele>
        <time>2017-05-06T16:21:17Z</time>
      </trkpt>
      <trkpt lat="42.589971" lon="-8.922767">
        <ele>85.023</ele>
        <time>2017-05-06T16:21:23Z</time>
      </trkpt>
      <trkpt lat="42.590034" lon="-8.922658">
        <ele>81.056</ele>
        <time>2017-05-06T16:21:30Z</time>
      </trkpt>
      <trkpt lat="42.590088" lon="-8.922548">
        <ele>77.059</ele>
        <time>2017-05-06T16:21:37Z</time>
      </trkpt>
      <trkpt lat="42.590164" lon="-8.922464">
        <ele>75.014</ele>
        <time>2017-05-06T16:21:44Z</time>
      </trkpt>
      <trkpt lat="42.590240" lon="-8.922394">
        <ele>74.008</ele>
        <time>2017-05-06T16:21:51Z</time>
      </trkpt>
      <trkpt lat="42.590327" lon="-8.922317">
        <ele>74.086</ele>
        <time>2017-05-06T16:21:59Z</time>
      </trkpt>
      <trkpt lat="42.590400" lon="-8.922243">
        <ele>74.082</ele>
        <time>2017-05-06T16:22:07Z</time>
      </trkpt>
      <trkpt lat="42.590454" lon="-8.922145">
        <ele>78.081</ele>
        <time>2017-05-06T16:22:15Z</time>
      </trkpt>
      <trkpt lat="42.590506" lon="-8.922042">
        <ele>77.075</ele>
        <time>2017-05-06T16:22:22Z</time>
      </trkpt>
      <trkpt lat="42.590562" lon="-8.921896">
        <ele>74.071</ele>
        <time>2017-05-06T16:22:30Z</time>
      </trkpt>
      <trkpt lat="42.590567" lon="-8.921771">
        <ele>78.050</ele>
        <time>2017-05-06T16:22:39Z</time>
      </trkpt>
      <trkpt lat="42.590579" lon="-8.921643">
        <ele>74.040</ele>
        <time>2017-05-06T16:22:46Z</time>
      </trkpt>
      <trkpt lat="42.590634" lon="-8.921493">
        <ele>73.044</ele>
        <time>2017-05-06T16:22:53Z</time>
      </trkpt>
      <trkpt lat="42.590676" lon="-8.921364">
        <ele>73.034</ele>
        <time>2017-05-06T16:22:59Z</time>
      </trkpt>
      <trkpt lat="42.590704" lon="-8.921237">
        <ele>74.055</ele>
        <time>2017-05-06T16:23:06Z</time>
      </trkpt>
      <trkpt lat="42.590716" lon="-8.921100">
        <ele>76.010</ele>
        <time>2017-05-06T16:23:12Z</time>
      </trkpt>
      <trkpt lat="42.590796" lon="-8.921039">
        <ele>76.008</ele>
        <time>2017-05-06T16:23:18Z</time>
      </trkpt>
      <trkpt lat="42.590843" lon="-8.920932">
        <ele>75.014</ele>
        <time>2017-05-06T16:23:24Z</time>
      </trkpt>
      <trkpt lat="42.590926" lon="-8.920852">
        <ele>67.050</ele>
        <time>2017-05-06T16:23:30Z</time>
      </trkpt>
      <trkpt lat="42.591015" lon="-8.920827">
        <ele>66.059</ele>
        <time>2017-05-06T16:23:36Z</time>
      </trkpt>
      <trkpt lat="42.591110" lon="-8.920833">
        <ele>66.073</ele>
        <time>2017-05-06T16:23:42Z</time>
      </trkpt>
      <trkpt lat="42.591212" lon="-8.920790">
        <ele>71.079</ele>
        <time>2017-05-06T16:23:51Z</time>
      </trkpt>
      <trkpt lat="42.591318" lon="-8.920727">
        <ele>72.028</ele>
        <time>2017-05-06T16:24:00Z</time>
      </trkpt>
      <trkpt lat="42.591414" lon="-8.920716">
        <ele>68.048</ele>
        <time>2017-05-06T16:24:06Z</time>
      </trkpt>
      <trkpt lat="42.591513" lon="-8.920741">
        <ele>66.042</ele>
        <time>2017-05-06T16:24:13Z</time>
      </trkpt>
      <trkpt lat="42.591607" lon="-8.920723">
        <ele>66.026</ele>
        <time>2017-05-06T16:24:25Z</time>
      </trkpt>
      <trkpt lat="42.591688" lon="-8.920658">
        <ele>67.047</ele>
        <time>2017-05-06T16:24:41Z</time>
      </trkpt>
      <trkpt lat="42.591784" lon="-8.920650">
        <ele>66.011</ele>
        <time>2017-05-06T16:24:49Z</time>
      </trkpt>
      <trkpt lat="42.591882" lon="-8.920680">
        <ele>64.008</ele>
        <time>2017-05-06T16:25:00Z</time>
      </trkpt>
      <trkpt lat="42.591973" lon="-8.920676">
        <ele>64.043</ele>
        <time>2017-05-06T16:25:10Z</time>
      </trkpt>
      <trkpt lat="42.592072" lon="-8.920679">
        <ele>65.049</ele>
        <time>2017-05-06T16:25:18Z</time>
      </trkpt>
      <trkpt lat="42.592163" lon="-8.920685">
        <ele>65.018</ele>
        <time>2017-05-06T16:25:26Z</time>
      </trkpt>
      <trkpt lat="42.592255" lon="-8.920729">
        <ele>63.062</ele>
        <time>2017-05-06T16:25:36Z</time>
      </trkpt>
      <trkpt lat="42.592345" lon="-8.920774">
        <ele>62.038</ele>
        <time>2017-05-06T16:25:43Z</time>
      </trkpt>
      <trkpt lat="42.592430" lon="-8.920824">
        <ele>62.097</ele>
        <time>2017-05-06T16:25:49Z</time>
      </trkpt>
      <trkpt lat="42.592526" lon="-8.920843">
        <ele>63.067</ele>
        <time>2017-05-06T16:25:57Z</time>
      </trkpt>
      <trkpt lat="42.592637" lon="-8.920839">
        <ele>62.051</ele>
        <time>2017-05-06T16:26:07Z</time>
      </trkpt>
      <trkpt lat="42.592726" lon="-8.920876">
        <ele>58.038</ele>
        <time>2017-05-06T16:26:23Z</time>
      </trkpt>
      <trkpt lat="42.592820" lon="-8.920908">
        <ele>60.070</ele>
        <time>2017-05-06T16:26:34Z</time>
      </trkpt>
      <trkpt lat="42.592909" lon="-8.920951">
        <ele>60.017</ele>
        <time>2017-05-06T16:26:44Z</time>
      </trkpt>
      <trkpt lat="42.592999" lon="-8.920967">
        <ele>60.008</ele>
        <time>2017-05-06T16:26:54Z</time>
      </trkpt>
      <trkpt lat="42.593095" lon="-8.920954">
        <ele>60.054</ele>
        <time>2017-05-06T16:27:02Z</time>
      </trkpt>
      <trkpt lat="42.593173" lon="-8.921027">
        <ele>58.030</ele>
        <time>2017-05-06T16:27:14Z</time>
      </trkpt>
      <trkpt lat="42.593208" lon="-8.921143">
        <ele>60.069</ele>
        <time>2017-05-06T16:27:26Z</time>
      </trkpt>
      <trkpt lat="42.593311" lon="-8.921138">
        <ele>70.073</ele>
        <time>2017-05-06T16:27:41Z</time>
      </trkpt>
      <trkpt lat="42.593425" lon="-8.921103">
        <ele>74.099</ele>
        <time>2017-05-06T16:27:56Z</time>
      </trkpt>
      <trkpt lat="42.593516" lon="-8.921046">
        <ele>82.038</ele>
        <time>2017-05-06T16:28:08Z</time>
      </trkpt>
      <trkpt lat="42.593597" lon="-8.921103">
        <ele>81.068</ele>
        <time>2017-05-06T16:28:13Z</time>
      </trkpt>
      <trkpt lat="42.593686" lon="-8.921178">
        <ele>78.052</ele>
        <time>2017-05-06T16:28:18Z</time>
      </trkpt>
      <trkpt lat="42.593765" lon="-8.921249">
        <ele>74.051</ele>
        <time>2017-05-06T16:28:41Z</time>
      </trkpt>
      <trkpt lat="42.593867" lon="-8.921306">
        <ele>75.001</ele>
        <time>2017-05-06T16:28:46Z</time>
      </trkpt>
      <trkpt lat="42.593906" lon="-8.921432">
        <ele>75.011</ele>
        <time>2017-05-06T16:28:53Z</time>
      </trkpt>
      <trkpt lat="42.593954" lon="-8.921547">
        <ele>74.008</ele>
        <time>2017-05-06T16:28:59Z</time>
      </trkpt>
      <trkpt lat="42.593994" lon="-8.921664">
        <ele>71.066</ele>
        <time>2017-05-06T16:29:07Z</time>
      </trkpt>
      <trkpt lat="42.594043" lon="-8.921775">
        <ele>70.032</ele>
        <time>2017-05-06T16:29:21Z</time>
      </trkpt>
      <trkpt lat="42.594130" lon="-8.921875">
        <ele>73.041</ele>
        <time>2017-05-06T16:29:29Z</time>
      </trkpt>
      <trkpt lat="42.594196" lon="-8.921959">
        <ele>73.075</ele>
        <time>2017-05-06T16:29:34Z</time>
      </trkpt>
      <trkpt lat="42.594264" lon="-8.922057">
        <ele>73.021</ele>
        <time>2017-05-06T16:29:40Z</time>
      </trkpt>
      <trkpt lat="42.594338" lon="-8.922143">
        <ele>75.030</ele>
        <time>2017-05-06T16:29:53Z</time>
      </trkpt>
      <trkpt lat="42.594412" lon="-8.922239">
        <ele>74.080</ele>
        <time>2017-05-06T16:29:58Z</time>
      </trkpt>
      <trkpt lat="42.594488" lon="-8.922313">
        <ele>76.014</ele>
        <time>2017-05-06T16:30:05Z</time>
      </trkpt>
      <trkpt lat="42.594575" lon="-8.922385">
        <ele>76.059</ele>
        <time>2017-05-06T16:30:13Z</time>
      </trkpt>
      <trkpt lat="42.594645" lon="-8.922481">
        <ele>74.003</ele>
        <time>2017-05-06T16:30:18Z</time>
      </trkpt>
      <trkpt lat="42.594713" lon="-8.922576">
        <ele>72.023</ele>
        <time>2017-05-06T16:30:24Z</time>
      </trkpt>
      <trkpt lat="42.594781" lon="-8.922660">
        <ele>72.008</ele>
        <time>2017-05-06T16:30:31Z</time>
      </trkpt>
      <trkpt lat="42.594846" lon="-8.922763">
        <ele>74.026</ele>
        <time>2017-05-06T16:30:44Z</time>
      </trkpt>
      <trkpt lat="42.594917" lon="-8.922839">
        <ele>76.032</ele>
        <time>2017-05-06T16:30:52Z</time>
      </trkpt>
      <trkpt lat="42.595033" lon="-8.922909">
        <ele>77.091</ele>
        <time>2017-05-06T16:31:04Z</time>
      </trkpt>
      <trkpt lat="42.595122" lon="-8.922977">
        <ele>75.075</ele>
        <time>2017-05-06T16:31:09Z</time>
      </trkpt>
      <trkpt lat="42.595203" lon="-8.923050">
        <ele>73.091</ele>
        <time>2017-05-06T16:31:13Z</time>
      </trkpt>
      <trkpt lat="42.595285" lon="-8.923133">
        <ele>69.020</ele>
        <time>2017-05-06T16:31:20Z</time>
      </trkpt>
      <trkpt lat="42.595379" lon="-8.923169">
        <ele>71.070</ele>
        <time>2017-05-06T16:31:41Z</time>
      </trkpt>
      <trkpt lat="42.595473" lon="-8.923227">
        <ele>69.074</ele>
        <time>2017-05-06T16:31:43Z</time>
      </trkpt>
      <trkpt lat="42.595563" lon="-8.923258">
        <ele>70.067</ele>
        <time>2017-05-06T16:31:47Z</time>
      </trkpt>
      <trkpt lat="42.595638" lon="-8.923352">
        <ele>67.081</ele>
        <time>2017-05-06T16:31:53Z</time>
      </trkpt>
      <trkpt lat="42.595665" lon="-8.923475">
        <ele>64.019</ele>
        <time>2017-05-06T16:31:57Z</time>
      </trkpt>
      <trkpt lat="42.595686" lon="-8.923606">
        <ele>65.008</ele>
        <time>2017-05-06T16:32:05Z</time>
      </trkpt>
      <trkpt lat="42.595712" lon="-8.923728">
        <ele>68.017</ele>
        <time>2017-05-06T16:32:15Z</time>
      </trkpt>
      <trkpt lat="42.595640" lon="-8.923850">
        <ele>70.093</ele>
        <time>2017-05-06T16:32:24Z</time>
      </trkpt>
      <trkpt lat="42.595643" lon="-8.923976">
        <ele>75.042</ele>
        <time>2017-05-06T16:32:33Z</time>
      </trkpt>
      <trkpt lat="42.595608" lon="-8.924102">
        <ele>75.016</ele>
        <time>2017-05-06T16:32:41Z</time>
      </trkpt>
      <trkpt lat="42.595542" lon="-8.924195">
        <ele>78.092</ele>
        <time>2017-05-06T16:32:48Z</time>
      </trkpt>
      <trkpt lat="42.595531" lon="-8.924332">
        <ele>79.051</ele>
        <time>2017-05-06T16:32:57Z</time>
      </trkpt>
      <trkpt lat="42.595573" lon="-8.924463">
        <ele>76.041</ele>
        <time>2017-05-06T16:33:06Z</time>
      </trkpt>
      <trkpt lat="42.595473" lon="-8.924493">
        <ele>80.095</ele>
        <time>2017-05-06T16:33:10Z</time>
      </trkpt>
      <trkpt lat="42.595394" lon="-8.924592">
        <ele>79.076</ele>
        <time>2017-05-06T16:33:16Z</time>
      </trkpt>
      <trkpt lat="42.595343" lon="-8.924706">
        <ele>74.090</ele>
        <time>2017-05-06T16:33:22Z</time>
      </trkpt>
      <trkpt lat="42.595268" lon="-8.924788">
        <ele>77.019</ele>
        <time>2017-05-06T16:33:28Z</time>
      </trkpt>
      <trkpt lat="42.595202" lon="-8.924888">
        <ele>78.008</ele>
        <time>2017-05-06T16:33:35Z</time>
      </trkpt>
      <trkpt lat="42.595144" lon="-8.924993">
        <ele>79.028</ele>
        <time>2017-05-06T16:33:42Z</time>
      </trkpt>
      <trkpt lat="42.595117" lon="-8.925129">
        <ele>83.094</ele>
        <time>2017-05-06T16:33:53Z</time>
      </trkpt>
      <trkpt lat="42.595146" lon="-8.925249">
        <ele>81.063</ele>
        <time>2017-05-06T16:33:58Z</time>
      </trkpt>
      <trkpt lat="42.595110" lon="-8.925374">
        <ele>84.057</ele>
        <time>2017-05-06T16:34:04Z</time>
      </trkpt>
      <trkpt lat="42.595108" lon="-8.925512">
        <ele>85.023</ele>
        <time>2017-05-06T16:34:11Z</time>
      </trkpt>
      <trkpt lat="42.595078" lon="-8.925641">
        <ele>81.022</ele>
        <time>2017-05-06T16:34:18Z</time>
      </trkpt>
      <trkpt lat="42.595084" lon="-8.925784">
        <ele>78.062</ele>
        <time>2017-05-06T16:34:25Z</time>
      </trkpt>
      <trkpt lat="42.595075" lon="-8.925924">
        <ele>78.036</ele>
        <time>2017-05-06T16:34:32Z</time>
      </trkpt>
      <trkpt lat="42.595059" lon="-8.926060">
        <ele>81.078</ele>
        <time>2017-05-06T16:34:39Z</time>
      </trkpt>
      <trkpt lat="42.595006" lon="-8.926169">
        <ele>82.033</ele>
        <time>2017-05-06T16:34:46Z</time>
      </trkpt>
      <trkpt lat="42.594959" lon="-8.926284">
        <ele>82.026</ele>
        <time>2017-05-06T16:34:53Z</time>
      </trkpt>
      <trkpt lat="42.594907" lon="-8.926405">
        <ele>83.008</ele>
        <time>2017-05-06T16:35:00Z</time>
      </trkpt>
      <trkpt lat="42.594847" lon="-8.926512">
        <ele>84.038</ele>
        <time>2017-05-06T16:35:07Z</time>
      </trkpt>
      <trkpt lat="42.594761" lon="-8.926583">
        <ele>84.014</ele>
        <time>2017-05-06T16:35:14Z</time>
      </trkpt>
      <trkpt lat="42.594668" lon="-8.926570">
        <ele>84.043</ele>
        <time>2017-05-06T16:35:21Z</time>
      </trkpt>
      <trkpt lat="42.594576" lon="-8.926571">
        <ele>81.037</ele>
        <time>2017-05-06T16:35:27Z</time>
      </trkpt>
      <trkpt lat="42.594487" lon="-8.926549">
        <ele>84.023</ele>
        <time>2017-05-06T16:35:37Z</time>
      </trkpt>
      <trkpt lat="42.594406" lon="-8.926494">
        <ele>86.032</ele>
        <time>2017-05-06T16:35:44Z</time>
      </trkpt>
      <trkpt lat="42.594304" lon="-8.926471">
        <ele>84.032</ele>
        <time>2017-05-06T16:35:52Z</time>
      </trkpt>
      <trkpt lat="42.594212" lon="-8.926467">
        <ele>86.056</ele>
        <time>2017-05-06T16:35:59Z</time>
      </trkpt>
      <trkpt lat="42.594136" lon="-8.926550">
        <ele>88.076</ele>
        <time>2017-05-06T16:36:08Z</time>
      </trkpt>
      <trkpt lat="42.594082" lon="-8.926662">
        <ele>88.090</ele>
        <time>2017-05-06T16:36:15Z</time>
      </trkpt>
      <trkpt lat="42.593993" lon="-8.926736">
        <ele>86.019</ele>
        <time>2017-05-06T16:36:23Z</time>
      </trkpt>
      <trkpt lat="42.593907" lon="-8.926791">
        <ele>84.008</ele>
        <time>2017-05-06T16:36:28Z</time>
      </trkpt>
      <trkpt lat="42.593836" lon="-8.926866">
        <ele>91.018</ele>
        <time>2017-05-06T16:36:35Z</time>
      </trkpt>
      <trkpt lat="42.593728" lon="-8.926920">
        <ele>90.014</ele>
        <time>2017-05-06T16:36:42Z</time>
      </trkpt>
      <trkpt lat="42.593639" lon="-8.926957">
        <ele>92.063</ele>
        <time>2017-05-06T16:36:49Z</time>
      </trkpt>
      <trkpt lat="42.593539" lon="-8.926974">
        <ele>94.017</ele>
        <time>2017-05-06T16:36:57Z</time>
      </trkpt>
      <trkpt lat="42.593435" lon="-8.926980">
        <ele>93.043</ele>
        <time>2017-05-06T16:37:03Z</time>
      </trkpt>
      <trkpt lat="42.593349" lon="-8.927022">
        <ele>94.092</ele>
        <time>2017-05-06T16:37:09Z</time>
      </trkpt>
      <trkpt lat="42.593324" lon="-8.927155">
        <ele>95.062</ele>
        <time>2017-05-06T16:37:17Z</time>
      </trkpt>
      <trkpt lat="42.593281" lon="-8.927270">
        <ele>97.016</ele>
        <time>2017-05-06T16:37:24Z</time>
      </trkpt>
      <trkpt lat="42.593215" lon="-8.927369">
        <ele>98.041</ele>
        <time>2017-05-06T16:37:31Z</time>
      </trkpt>
      <trkpt lat="42.593139" lon="-8.927453">
        <ele>103.081</ele>
        <time>2017-05-06T16:37:41Z</time>
      </trkpt>
      <trkpt lat="42.593107" lon="-8.927572">
        <ele>104.009</ele>
        <time>2017-05-06T16:37:52Z</time>
      </trkpt>
      <trkpt lat="42.593107" lon="-8.927572">
        <ele>104.008</ele>
        <time>2017-05-06T16:37:52Z</time>
      </trkpt>
      <trkpt lat="42.593147" lon="-8.927695">
        <ele>104.085</ele>
        <time>2017-05-06T16:37:59Z</time>
      </trkpt>
      <trkpt lat="42.593175" lon="-8.927827">
        <ele>105.071</ele>
        <time>2017-05-06T16:38:06Z</time>
      </trkpt>
      <trkpt lat="42.593212" lon="-8.927965">
        <ele>104.010</ele>
        <time>2017-05-06T16:38:13Z</time>
      </trkpt>
      <trkpt lat="42.593194" lon="-8.928088">
        <ele>99.094</ele>
        <time>2017-05-06T16:38:19Z</time>
      </trkpt>
      <trkpt lat="42.593249" lon="-8.928202">
        <ele>99.020</ele>
        <time>2017-05-06T16:38:29Z</time>
      </trkpt>
      <trkpt lat="42.593326" lon="-8.928273">
        <ele>99.069</ele>
        <time>2017-05-06T16:38:38Z</time>
      </trkpt>
      <trkpt lat="42.593416" lon="-8.928343">
        <ele>98.069</ele>
        <time>2017-05-06T16:38:53Z</time>
      </trkpt>
      <trkpt lat="42.593493" lon="-8.928432">
        <ele>97.043</ele>
        <time>2017-05-06T16:39:01Z</time>
      </trkpt>
      <trkpt lat="42.593591" lon="-8.928525">
        <ele>99.042</ele>
        <time>2017-05-06T16:39:08Z</time>
      </trkpt>
      <trkpt lat="42.593643" lon="-8.928633">
        <ele>98.022</ele>
        <time>2017-05-06T16:39:17Z</time>
      </trkpt>
      <trkpt lat="42.593738" lon="-8.928682">
        <ele>96.014</ele>
        <time>2017-05-06T16:39:27Z</time>
      </trkpt>
      <trkpt lat="42.593843" lon="-8.928697">
        <ele>94.008</ele>
        <time>2017-05-06T16:39:34Z</time>
      </trkpt>
      <trkpt lat="42.593941" lon="-8.928688">
        <ele>94.035</ele>
        <time>2017-05-06T16:39:41Z</time>
      </trkpt>
      <trkpt lat="42.594041" lon="-8.928694">
        <ele>92.091</ele>
        <time>2017-05-06T16:39:49Z</time>
      </trkpt>
      <trkpt lat="42.594128" lon="-8.928736">
        <ele>89.080</ele>
        <time>2017-05-06T16:40:10Z</time>
      </trkpt>
      <trkpt lat="42.594132" lon="-8.928867">
        <ele>90.034</ele>
        <time>2017-05-06T16:40:35Z</time>
      </trkpt>
      <trkpt lat="42.594124" lon="-8.929007">
        <ele>91.060</ele>
        <time>2017-05-06T16:40:42Z</time>
      </trkpt>
      <trkpt lat="42.594100" lon="-8.929126">
        <ele>92.099</ele>
        <time>2017-05-06T16:40:48Z</time>
      </trkpt>
      <trkpt lat="42.594099" lon="-8.929278">
        <ele>92.039</ele>
        <time>2017-05-06T16:40:56Z</time>
      </trkpt>
      <trkpt lat="42.594095" lon="-8.929405">
        <ele>93.063</ele>
        <time>2017-05-06T16:41:04Z</time>
      </trkpt>
      <trkpt lat="42.594094" lon="-8.929541">
        <ele>94.067</ele>
        <time>2017-05-06T16:41:11Z</time>
      </trkpt>
      <trkpt lat="42.594081" lon="-8.929671">
        <ele>94.081</ele>
        <time>2017-05-06T16:41:17Z</time>
      </trkpt>
      <trkpt lat="42.594063" lon="-8.929792">
        <ele>94.019</ele>
        <time>2017-05-06T16:41:24Z</time>
      </trkpt>
      <trkpt lat="42.594032" lon="-8.929917">
        <ele>94.008</ele>
        <time>2017-05-06T16:41:32Z</time>
      </trkpt>
      <trkpt lat="42.593973" lon="-8.930023">
        <ele>93.087</ele>
        <time>2017-05-06T16:41:40Z</time>
      </trkpt>
      <trkpt lat="42.593952" lon="-8.930164">
        <ele>93.083</ele>
        <time>2017-05-06T16:41:47Z</time>
      </trkpt>
      <trkpt lat="42.593978" lon="-8.930293">
        <ele>94.072</ele>
        <time>2017-05-06T16:41:54Z</time>
      </trkpt>
      <trkpt lat="42.594027" lon="-8.930414">
        <ele>94.046</ele>
        <time>2017-05-06T16:41:59Z</time>
      </trkpt>
      <trkpt lat="42.594076" lon="-8.930520">
        <ele>94.062</ele>
        <time>2017-05-06T16:42:05Z</time>
      </trkpt>
      <trkpt lat="42.594144" lon="-8.930629">
        <ele>95.061</ele>
        <time>2017-05-06T16:42:13Z</time>
      </trkpt>
      <trkpt lat="42.594217" lon="-8.930707">
        <ele>96.081</ele>
        <time>2017-05-06T16:42:19Z</time>
      </trkpt>
      <trkpt lat="42.594289" lon="-8.930807">
        <ele>94.085</ele>
        <time>2017-05-06T16:42:26Z</time>
      </trkpt>
      <trkpt lat="42.594348" lon="-8.930908">
        <ele>94.081</ele>
        <time>2017-05-06T16:42:32Z</time>
      </trkpt>
      <trkpt lat="42.594417" lon="-8.931005">
        <ele>94.061</ele>
        <time>2017-05-06T16:42:39Z</time>
      </trkpt>
      <trkpt lat="42.594477" lon="-8.931122">
        <ele>92.017</ele>
        <time>2017-05-06T16:42:47Z</time>
      </trkpt>
      <trkpt lat="42.594544" lon="-8.931211">
        <ele>91.008</ele>
        <time>2017-05-06T16:42:53Z</time>
      </trkpt>
      <trkpt lat="42.594606" lon="-8.931309">
        <ele>92.059</ele>
        <time>2017-05-06T16:43:00Z</time>
      </trkpt>
      <trkpt lat="42.594660" lon="-8.931430">
        <ele>89.015</ele>
        <time>2017-05-06T16:43:09Z</time>
      </trkpt>
      <trkpt lat="42.594740" lon="-8.931488">
        <ele>92.094</ele>
        <time>2017-05-06T16:43:18Z</time>
      </trkpt>
      <trkpt lat="42.594827" lon="-8.931430">
        <ele>94.078</ele>
        <time>2017-05-06T16:43:26Z</time>
      </trkpt>
      <trkpt lat="42.594916" lon="-8.931365">
        <ele>90.014</ele>
        <time>2017-05-06T16:43:32Z</time>
      </trkpt>
      <trkpt lat="42.595020" lon="-8.931294">
        <ele>87.063</ele>
        <time>2017-05-06T16:43:39Z</time>
      </trkpt>
      <trkpt lat="42.595102" lon="-8.931236">
        <ele>85.083</ele>
        <time>2017-05-06T16:43:45Z</time>
      </trkpt>
      <trkpt lat="42.595194" lon="-8.931168">
        <ele>83.097</ele>
        <time>2017-05-06T16:43:52Z</time>
      </trkpt>
      <trkpt lat="42.595285" lon="-8.931111">
        <ele>80.041</ele>
        <time>2017-05-06T16:43:59Z</time>
      </trkpt>
      <trkpt lat="42.595367" lon="-8.931040">
        <ele>80.081</ele>
        <time>2017-05-06T16:44:07Z</time>
      </trkpt>
      <trkpt lat="42.595432" lon="-8.930941">
        <ele>79.009</ele>
        <time>2017-05-06T16:44:14Z</time>
      </trkpt>
      <trkpt lat="42.595492" lon="-8.930845">
        <ele>80.008</ele>
        <time>2017-05-06T16:44:21Z</time>
      </trkpt>
      <trkpt lat="42.595569" lon="-8.930729">
        <ele>78.095</ele>
        <time>2017-05-06T16:44:29Z</time>
      </trkpt>
      <trkpt lat="42.595629" lon="-8.930628">
        <ele>79.061</ele>
        <time>2017-05-06T16:44:36Z</time>
      </trkpt>
      <trkpt lat="42.595699" lon="-8.930534">
        <ele>77.070</ele>
        <time>2017-05-06T16:44:44Z</time>
      </trkpt>
      <trkpt lat="42.595752" lon="-8.930425">
        <ele>77.074</ele>
        <time>2017-05-06T16:44:51Z</time>
      </trkpt>
      <trkpt lat="42.595803" lon="-8.930308">
        <ele>77.060</ele>
        <time>2017-05-06T16:44:58Z</time>
      </trkpt>
      <trkpt lat="42.595855" lon="-8.930204">
        <ele>76.059</ele>
        <time>2017-05-06T16:45:03Z</time>
      </trkpt>
      <trkpt lat="42.595894" lon="-8.930089">
        <ele>77.069</ele>
        <time>2017-05-06T16:45:10Z</time>
      </trkpt>
      <trkpt lat="42.595942" lon="-8.929964">
        <ele>77.043</ele>
        <time>2017-05-06T16:45:18Z</time>
      </trkpt>
      <trkpt lat="42.595993" lon="-8.929848">
        <ele>76.067</ele>
        <time>2017-05-06T16:45:26Z</time>
      </trkpt>
      <trkpt lat="42.596040" lon="-8.929742">
        <ele>76.081</ele>
        <time>2017-05-06T16:45:33Z</time>
      </trkpt>
      <trkpt lat="42.596120" lon="-8.929688">
        <ele>74.019</ele>
        <time>2017-05-06T16:45:40Z</time>
      </trkpt>
      <trkpt lat="42.596209" lon="-8.929608">
        <ele>70.008</ele>
        <time>2017-05-06T16:45:55Z</time>
      </trkpt>
      <trkpt lat="42.596292" lon="-8.929549">
        <ele>68.097</ele>
        <time>2017-05-06T16:46:04Z</time>
      </trkpt>
      <trkpt lat="42.596381" lon="-8.929530">
        <ele>66.033</ele>
        <time>2017-05-06T16:46:11Z</time>
      </trkpt>
      <trkpt lat="42.596449" lon="-8.929430">
        <ele>66.032</ele>
        <time>2017-05-06T16:46:18Z</time>
      </trkpt>
      <trkpt lat="42.596524" lon="-8.929337">
        <ele>64.046</ele>
        <time>2017-05-06T16:46:25Z</time>
      </trkpt>
      <trkpt lat="42.596597" lon="-8.929262">
        <ele>63.062</ele>
        <time>2017-05-06T16:46:31Z</time>
      </trkpt>
      <trkpt lat="42.596674" lon="-8.929180">
        <ele>62.061</ele>
        <time>2017-05-06T16:46:38Z</time>
      </trkpt>
      <trkpt lat="42.596749" lon="-8.929110">
        <ele>62.021</ele>
        <time>2017-05-06T16:46:45Z</time>
      </trkpt>
      <trkpt lat="42.596815" lon="-8.929027">
        <ele>64.065</ele>
        <time>2017-05-06T16:46:53Z</time>
      </trkpt>
      <trkpt lat="42.596895" lon="-8.928949">
        <ele>61.058</ele>
        <time>2017-05-06T16:47:06Z</time>
      </trkpt>
      <trkpt lat="42.596931" lon="-8.928808">
        <ele>57.052</ele>
        <time>2017-05-06T16:47:18Z</time>
      </trkpt>
      <trkpt lat="42.596948" lon="-8.928930">
        <ele>57.017</ele>
        <time>2017-05-06T16:47:41Z</time>
      </trkpt>
      <trkpt lat="42.596889" lon="-8.929034">
        <ele>58.008</ele>
        <time>2017-05-06T16:48:00Z</time>
      </trkpt>
      <trkpt lat="42.596802" lon="-8.929092">
        <ele>58.076</ele>
        <time>2017-05-06T16:48:08Z</time>
      </trkpt>
      <trkpt lat="42.596724" lon="-8.929168">
        <ele>59.032</ele>
        <time>2017-05-06T16:48:16Z</time>
      </trkpt>
      <trkpt lat="42.596659" lon="-8.929257">
        <ele>61.041</ele>
        <time>2017-05-06T16:48:32Z</time>
      </trkpt>
      <trkpt lat="42.596581" lon="-8.929329">
        <ele>61.045</ele>
        <time>2017-05-06T16:48:39Z</time>
      </trkpt>
      <trkpt lat="42.596515" lon="-8.929417">
        <ele>61.061</ele>
        <time>2017-05-06T16:48:46Z</time>
      </trkpt>
      <trkpt lat="42.596443" lon="-8.929522">
        <ele>61.010</ele>
        <time>2017-05-06T16:48:54Z</time>
      </trkpt>
      <trkpt lat="42.596347" lon="-8.929561">
        <ele>61.020</ele>
        <time>2017-05-06T16:49:02Z</time>
      </trkpt>
      <trkpt lat="42.596290" lon="-8.929659">
        <ele>65.014</ele>
        <time>2017-05-06T16:49:15Z</time>
      </trkpt>
      <trkpt lat="42.596289" lon="-8.929782">
        <ele>64.043</ele>
        <time>2017-05-06T16:49:25Z</time>
      </trkpt>
      <trkpt lat="42.596291" lon="-8.929905">
        <ele>64.064</ele>
        <time>2017-05-06T16:49:31Z</time>
      </trkpt>
      <trkpt lat="42.596300" lon="-8.930043">
        <ele>63.010</ele>
        <time>2017-05-06T16:49:37Z</time>
      </trkpt>
      <trkpt lat="42.596308" lon="-8.930181">
        <ele>62.008</ele>
        <time>2017-05-06T16:49:44Z</time>
      </trkpt>
      <trkpt lat="42.596318" lon="-8.930317">
        <ele>63.055</ele>
        <time>2017-05-06T16:49:51Z</time>
      </trkpt>
      <trkpt lat="42.596333" lon="-8.930453">
        <ele>63.051</ele>
        <time>2017-05-06T16:49:58Z</time>
      </trkpt>
      <trkpt lat="42.596348" lon="-8.930594">
        <ele>63.010</ele>
        <time>2017-05-06T16:50:05Z</time>
      </trkpt>
      <trkpt lat="42.596372" lon="-8.930722">
        <ele>63.054</ele>
        <time>2017-05-06T16:50:12Z</time>
      </trkpt>
      <trkpt lat="42.596402" lon="-8.930842">
        <ele>63.090</ele>
        <time>2017-05-06T16:50:18Z</time>
      </trkpt>
      <trkpt lat="42.596433" lon="-8.930971">
        <ele>63.039</ele>
        <time>2017-05-06T16:50:25Z</time>
      </trkpt>
      <trkpt lat="42.596467" lon="-8.931097">
        <ele>64.089</ele>
        <time>2017-05-06T16:50:33Z</time>
      </trkpt>
      <trkpt lat="42.596485" lon="-8.931232">
        <ele>64.023</ele>
        <time>2017-05-06T16:50:40Z</time>
      </trkpt>
      <trkpt lat="42.596513" lon="-8.931357">
        <ele>64.078</ele>
        <time>2017-05-06T16:50:45Z</time>
      </trkpt>
      <trkpt lat="42.596537" lon="-8.931475">
        <ele>64.033</ele>
        <time>2017-05-06T16:50:51Z</time>
      </trkpt>
      <trkpt lat="42.596547" lon="-8.931613">
        <ele>64.026</ele>
        <time>2017-05-06T16:50:58Z</time>
      </trkpt>
      <trkpt lat="42.596554" lon="-8.931753">
        <ele>63.008</ele>
        <time>2017-05-06T16:51:05Z</time>
      </trkpt>
      <trkpt lat="42.596541" lon="-8.931874">
        <ele>62.048</ele>
        <time>2017-05-06T16:51:11Z</time>
      </trkpt>
      <trkpt lat="42.596514" lon="-8.932011">
        <ele>63.074</ele>
        <time>2017-05-06T16:51:19Z</time>
      </trkpt>
      <trkpt lat="42.596489" lon="-8.932146">
        <ele>64.063</ele>
        <time>2017-05-06T16:51:27Z</time>
      </trkpt>
      <trkpt lat="42.596441" lon="-8.932265">
        <ele>63.057</ele>
        <time>2017-05-06T16:51:33Z</time>
      </trkpt>
      <trkpt lat="42.596411" lon="-8.932387">
        <ele>60.043</ele>
        <time>2017-05-06T16:51:39Z</time>
      </trkpt>
      <trkpt lat="42.596398" lon="-8.932524">
        <ele>63.092</ele>
        <time>2017-05-06T16:51:47Z</time>
      </trkpt>
      <trkpt lat="42.596403" lon="-8.932648">
        <ele>67.052</ele>
        <time>2017-05-06T16:51:55Z</time>
      </trkpt>
      <trkpt lat="42.596400" lon="-8.932781">
        <ele>65.016</ele>
        <time>2017-05-06T16:52:02Z</time>
      </trkpt>
      <trkpt lat="42.596399" lon="-8.932904">
        <ele>65.086</ele>
        <time>2017-05-06T16:52:08Z</time>
      </trkpt>
      <trkpt lat="42.596405" lon="-8.933039">
        <ele>66.060</ele>
        <time>2017-05-06T16:52:15Z</time>
      </trkpt>
      <trkpt lat="42.596414" lon="-8.933173">
        <ele>62.026</ele>
        <time>2017-05-06T16:52:23Z</time>
      </trkpt>
      <trkpt lat="42.596472" lon="-8.933267">
        <ele>63.008</ele>
        <time>2017-05-06T16:52:30Z</time>
      </trkpt>
      <trkpt lat="42.596580" lon="-8.933253">
        <ele>73.099</ele>
        <time>2017-05-06T16:52:55Z</time>
      </trkpt>
      <trkpt lat="42.596671" lon="-8.933316">
        <ele>71.085</ele>
        <time>2017-05-06T16:53:02Z</time>
      </trkpt>
      <trkpt lat="42.596746" lon="-8.933394">
        <ele>70.064</ele>
        <time>2017-05-06T16:53:11Z</time>
      </trkpt>
      <trkpt lat="42.596827" lon="-8.933468">
        <ele>69.058</ele>
        <time>2017-05-06T16:53:17Z</time>
      </trkpt>
      <trkpt lat="42.596921" lon="-8.933492">
        <ele>69.064</ele>
        <time>2017-05-06T16:53:24Z</time>
      </trkpt>
      <trkpt lat="42.596996" lon="-8.933572">
        <ele>67.013</ele>
        <time>2017-05-06T16:53:31Z</time>
      </trkpt>
      <trkpt lat="42.597083" lon="-8.933636">
        <ele>67.023</ele>
        <time>2017-05-06T16:53:40Z</time>
      </trkpt>
      <trkpt lat="42.597176" lon="-8.933588">
        <ele>65.027</ele>
        <time>2017-05-06T16:53:47Z</time>
      </trkpt>
      <trkpt lat="42.597272" lon="-8.933550">
        <ele>62.027</ele>
        <time>2017-05-06T16:54:04Z</time>
      </trkpt>
      <trkpt lat="42.597368" lon="-8.933499">
        <ele>62.068</ele>
        <time>2017-05-06T16:54:11Z</time>
      </trkpt>
      <trkpt lat="42.597458" lon="-8.933447">
        <ele>61.014</ele>
        <time>2017-05-06T16:54:17Z</time>
      </trkpt>
      <trkpt lat="42.597546" lon="-8.933380">
        <ele>62.008</ele>
        <time>2017-05-06T16:54:24Z</time>
      </trkpt>
      <trkpt lat="42.597630" lon="-8.933329">
        <ele>61.043</ele>
        <time>2017-05-06T16:54:30Z</time>
      </trkpt>
      <trkpt lat="42.597724" lon="-8.933265">
        <ele>60.059</ele>
        <time>2017-05-06T16:54:37Z</time>
      </trkpt>
      <trkpt lat="42.597807" lon="-8.933203">
        <ele>59.068</ele>
        <time>2017-05-06T16:54:43Z</time>
      </trkpt>
      <trkpt lat="42.597898" lon="-8.933134">
        <ele>59.092</ele>
        <time>2017-05-06T16:54:51Z</time>
      </trkpt>
      <trkpt lat="42.597992" lon="-8.933072">
        <ele>58.028</ele>
        <time>2017-05-06T16:54:58Z</time>
      </trkpt>
      <trkpt lat="42.598076" lon="-8.933000">
        <ele>58.027</ele>
        <time>2017-05-06T16:55:05Z</time>
      </trkpt>
      <trkpt lat="42.598170" lon="-8.932949">
        <ele>58.077</ele>
        <time>2017-05-06T16:55:11Z</time>
      </trkpt>
      <trkpt lat="42.598241" lon="-8.933046">
        <ele>59.081</ele>
        <time>2017-05-06T16:55:19Z</time>
      </trkpt>
      <trkpt lat="42.598328" lon="-8.933084">
        <ele>60.071</ele>
        <time>2017-05-06T16:55:27Z</time>
      </trkpt>
      <trkpt lat="42.598395" lon="-8.933169">
        <ele>61.041</ele>
        <time>2017-05-06T16:55:38Z</time>
      </trkpt>
      <trkpt lat="42.598477" lon="-8.933252">
        <ele>61.015</ele>
        <time>2017-05-06T16:55:50Z</time>
      </trkpt>
      <trkpt lat="42.598561" lon="-8.933326">
        <ele>61.008</ele>
        <time>2017-05-06T16:55:57Z</time>
      </trkpt>
      <trkpt lat="42.598633" lon="-8.933406">
        <ele>62.088</ele>
        <time>2017-05-06T16:56:03Z</time>
      </trkpt>
      <trkpt lat="42.598713" lon="-8.933480">
        <ele>64.034</ele>
        <time>2017-05-06T16:56:10Z</time>
      </trkpt>
      <trkpt lat="42.598792" lon="-8.933564">
        <ele>64.043</ele>
        <time>2017-05-06T16:56:17Z</time>
      </trkpt>
      <trkpt lat="42.598868" lon="-8.933654">
        <ele>65.067</ele>
        <time>2017-05-06T16:56:24Z</time>
      </trkpt>
      <trkpt lat="42.598950" lon="-8.933733">
        <ele>64.023</ele>
        <time>2017-05-06T16:56:31Z</time>
      </trkpt>
      <trkpt lat="42.599041" lon="-8.933809">
        <ele>65.062</ele>
        <time>2017-05-06T16:56:39Z</time>
      </trkpt>
      <trkpt lat="42.599116" lon="-8.933890">
        <ele>66.072</ele>
        <time>2017-05-06T16:56:46Z</time>
      </trkpt>
      <trkpt lat="42.599202" lon="-8.933974">
        <ele>65.066</ele>
        <time>2017-05-06T16:56:54Z</time>
      </trkpt>
      <trkpt lat="42.599286" lon="-8.934052">
        <ele>63.071</ele>
        <time>2017-05-06T16:57:01Z</time>
      </trkpt>
      <trkpt lat="42.599377" lon="-8.934131">
        <ele>64.041</ele>
        <time>2017-05-06T16:57:08Z</time>
      </trkpt>
      <trkpt lat="42.599452" lon="-8.934208">
        <ele>63.015</ele>
        <time>2017-05-06T16:57:14Z</time>
      </trkpt>
      <trkpt lat="42.599531" lon="-8.934285">
        <ele>63.008</ele>
        <time>2017-05-06T16:57:21Z</time>
      </trkpt>
      <trkpt lat="42.599610" lon="-8.934364">
        <ele>64.078</ele>
        <time>2017-05-06T16:57:28Z</time>
      </trkpt>
      <trkpt lat="42.599695" lon="-8.934446">
        <ele>64.084</ele>
        <time>2017-05-06T16:57:35Z</time>
      </trkpt>
      <trkpt lat="42.599773" lon="-8.934522">
        <ele>63.033</ele>
        <time>2017-05-06T16:57:42Z</time>
      </trkpt>
      <trkpt lat="42.599845" lon="-8.934596">
        <ele>65.037</ele>
        <time>2017-05-06T16:57:49Z</time>
      </trkpt>
      <trkpt lat="42.599918" lon="-8.934673">
        <ele>66.043</ele>
        <time>2017-05-06T16:57:56Z</time>
      </trkpt>
      <trkpt lat="42.599995" lon="-8.934753">
        <ele>67.042</ele>
        <time>2017-05-06T16:58:03Z</time>
      </trkpt>
      <trkpt lat="42.600079" lon="-8.934818">
        <ele>68.052</ele>
        <time>2017-05-06T16:58:10Z</time>
      </trkpt>
      <trkpt lat="42.600158" lon="-8.934891">
        <ele>69.096</ele>
        <time>2017-05-06T16:58:17Z</time>
      </trkpt>
      <trkpt lat="42.600234" lon="-8.934986">
        <ele>69.098</ele>
        <time>2017-05-06T16:58:24Z</time>
      </trkpt>
      <trkpt lat="42.600331" lon="-8.935066">
        <ele>71.015</ele>
        <time>2017-05-06T16:58:33Z</time>
      </trkpt>
      <trkpt lat="42.600410" lon="-8.935153">
        <ele>72.026</ele>
        <time>2017-05-06T16:58:41Z</time>
      </trkpt>
      <trkpt lat="42.600490" lon="-8.935235">
        <ele>72.008</ele>
        <time>2017-05-06T16:58:48Z</time>
      </trkpt>
      <trkpt lat="42.600574" lon="-8.935312">
        <ele>69.040</ele>
        <time>2017-05-06T16:58:54Z</time>
      </trkpt>
      <trkpt lat="42.600656" lon="-8.935394">
        <ele>69.096</ele>
        <time>2017-05-06T16:59:02Z</time>
      </trkpt>
      <trkpt lat="42.600740" lon="-8.935473">
        <ele>69.065</ele>
        <time>2017-05-06T16:59:08Z</time>
      </trkpt>
      <trkpt lat="42.600821" lon="-8.935561">
        <ele>69.029</ele>
        <time>2017-05-06T16:59:16Z</time>
      </trkpt>
      <trkpt lat="42.600907" lon="-8.935629">
        <ele>68.015</ele>
        <time>2017-05-06T16:59:23Z</time>
      </trkpt>
      <trkpt lat="42.600989" lon="-8.935707">
        <ele>72.064</ele>
        <time>2017-05-06T16:59:31Z</time>
      </trkpt>
      <trkpt lat="42.601066" lon="-8.935788">
        <ele>67.024</ele>
        <time>2017-05-06T16:59:36Z</time>
      </trkpt>
      <trkpt lat="42.601157" lon="-8.935865">
        <ele>68.038</ele>
        <time>2017-05-06T16:59:44Z</time>
      </trkpt>
      <trkpt lat="42.601242" lon="-8.935916">
        <ele>70.083</ele>
        <time>2017-05-06T16:59:51Z</time>
      </trkpt>
      <trkpt lat="42.601335" lon="-8.935965">
        <ele>72.025</ele>
        <time>2017-05-06T16:59:59Z</time>
      </trkpt>
      <trkpt lat="42.601427" lon="-8.936001">
        <ele>72.017</ele>
        <time>2017-05-06T17:00:06Z</time>
      </trkpt>
      <trkpt lat="42.601515" lon="-8.936026">
        <ele>71.008</ele>
        <time>2017-05-06T17:00:12Z</time>
      </trkpt>
      <trkpt lat="42.601608" lon="-8.936063">
        <ele>72.089</ele>
        <time>2017-05-06T17:00:19Z</time>
      </trkpt>
      <trkpt lat="42.601707" lon="-8.936103">
        <ele>73.055</ele>
        <time>2017-05-06T17:00:26Z</time>
      </trkpt>
      <trkpt lat="42.601796" lon="-8.936161">
        <ele>72.024</ele>
        <time>2017-05-06T17:00:33Z</time>
      </trkpt>
      <trkpt lat="42.601885" lon="-8.936221">
        <ele>70.018</ele>
        <time>2017-05-06T17:00:39Z</time>
      </trkpt>
      <trkpt lat="42.601967" lon="-8.936273">
        <ele>70.094</ele>
        <time>2017-05-06T17:00:45Z</time>
      </trkpt>
      <trkpt lat="42.602065" lon="-8.936323">
        <ele>68.013</ele>
        <time>2017-05-06T17:00:52Z</time>
      </trkpt>
      <trkpt lat="42.602151" lon="-8.936387">
        <ele>67.093</ele>
        <time>2017-05-06T17:00:59Z</time>
      </trkpt>
      <trkpt lat="42.602241" lon="-8.936447">
        <ele>68.057</ele>
        <time>2017-05-06T17:01:06Z</time>
      </trkpt>
      <trkpt lat="42.602320" lon="-8.936507">
        <ele>68.035</ele>
        <time>2017-05-06T17:01:13Z</time>
      </trkpt>
      <trkpt lat="42.602405" lon="-8.936546">
        <ele>69.086</ele>
        <time>2017-05-06T17:01:20Z</time>
      </trkpt>
      <trkpt lat="42.602508" lon="-8.936605">
        <ele>68.014</ele>
        <time>2017-05-06T17:01:28Z</time>
      </trkpt>
      <trkpt lat="42.602619" lon="-8.936672">
        <ele>65.008</ele>
        <time>2017-05-06T17:01:36Z</time>
      </trkpt>
      <trkpt lat="42.602714" lon="-8.936733">
        <ele>61.074</ele>
        <time>2017-05-06T17:01:42Z</time>
      </trkpt>
      <trkpt lat="42.602800" lon="-8.936799">
        <ele>65.030</ele>
        <time>2017-05-06T17:01:50Z</time>
      </trkpt>
      <trkpt lat="42.602891" lon="-8.936826">
        <ele>69.099</ele>
        <time>2017-05-06T17:01:58Z</time>
      </trkpt>
      <trkpt lat="42.602978" lon="-8.936875">
        <ele>69.053</ele>
        <time>2017-05-06T17:02:04Z</time>
      </trkpt>
      <trkpt lat="42.603068" lon="-8.936916">
        <ele>70.029</ele>
        <time>2017-05-06T17:02:11Z</time>
      </trkpt>
      <trkpt lat="42.603157" lon="-8.936941">
        <ele>72.028</ele>
        <time>2017-05-06T17:02:18Z</time>
      </trkpt>
      <trkpt lat="42.603250" lon="-8.936981">
        <ele>72.078</ele>
        <time>2017-05-06T17:02:25Z</time>
      </trkpt>
      <trkpt lat="42.603349" lon="-8.936989">
        <ele>71.022</ele>
        <time>2017-05-06T17:02:32Z</time>
      </trkpt>
      <trkpt lat="42.603442" lon="-8.937001">
        <ele>71.031</ele>
        <time>2017-05-06T17:02:38Z</time>
      </trkpt>
      <trkpt lat="42.603545" lon="-8.937029">
        <ele>70.061</ele>
        <time>2017-05-06T17:02:45Z</time>
      </trkpt>
      <trkpt lat="42.603639" lon="-8.937050">
        <ele>71.007</ele>
        <time>2017-05-06T17:02:52Z</time>
      </trkpt>
      <trkpt lat="42.603733" lon="-8.937081">
        <ele>72.008</ele>
        <time>2017-05-06T17:02:59Z</time>
      </trkpt>
      <trkpt lat="42.603834" lon="-8.937098">
        <ele>71.024</ele>
        <time>2017-05-06T17:03:06Z</time>
      </trkpt>
      <trkpt lat="42.603931" lon="-8.937116">
        <ele>76.070</ele>
        <time>2017-05-06T17:03:15Z</time>
      </trkpt>
      <trkpt lat="42.604031" lon="-8.937112">
        <ele>79.099</ele>
        <time>2017-05-06T17:03:23Z</time>
      </trkpt>
      <trkpt lat="42.604134" lon="-8.937132">
        <ele>78.083</ele>
        <time>2017-05-06T17:03:30Z</time>
      </trkpt>
      <trkpt lat="42.604236" lon="-8.937155">
        <ele>78.029</ele>
        <time>2017-05-06T17:03:37Z</time>
      </trkpt>
      <trkpt lat="42.604323" lon="-8.937188">
        <ele>79.058</ele>
        <time>2017-05-06T17:03:44Z</time>
      </trkpt>
      <trkpt lat="42.604418" lon="-8.937209">
        <ele>79.048</ele>
        <time>2017-05-06T17:03:50Z</time>
      </trkpt>
      <trkpt lat="42.604519" lon="-8.937237">
        <ele>78.092</ele>
        <time>2017-05-06T17:03:57Z</time>
      </trkpt>
      <trkpt lat="42.604610" lon="-8.937264">
        <ele>79.023</ele>
        <time>2017-05-06T17:04:05Z</time>
      </trkpt>
      <trkpt lat="42.604705" lon="-8.937286">
        <ele>80.083</ele>
        <time>2017-05-06T17:04:12Z</time>
      </trkpt>
      <trkpt lat="42.604793" lon="-8.937313">
        <ele>79.011</ele>
        <time>2017-05-06T17:04:18Z</time>
      </trkpt>
      <trkpt lat="42.604885" lon="-8.937332">
        <ele>77.008</ele>
        <time>2017-05-06T17:04:24Z</time>
      </trkpt>
      <trkpt lat="42.604986" lon="-8.937358">
        <ele>74.013</ele>
        <time>2017-05-06T17:04:29Z</time>
      </trkpt>
      <trkpt lat="42.605043" lon="-8.937453">
        <ele>71.089</ele>
        <time>2017-05-06T17:04:36Z</time>
      </trkpt>
      <trkpt lat="42.605057" lon="-8.937596">
        <ele>70.058</ele>
        <time>2017-05-06T17:04:44Z</time>
      </trkpt>
      <trkpt lat="42.605088" lon="-8.937716">
        <ele>67.082</ele>
        <time>2017-05-06T17:04:50Z</time>
      </trkpt>
      <trkpt lat="42.605180" lon="-8.937776">
        <ele>68.058</ele>
        <time>2017-05-06T17:04:57Z</time>
      </trkpt>
      <trkpt lat="42.605188" lon="-8.937899">
        <ele>70.087</ele>
        <time>2017-05-06T17:05:05Z</time>
      </trkpt>
      <trkpt lat="42.605193" lon="-8.938026">
        <ele>67.057</ele>
        <time>2017-05-06T17:05:16Z</time>
      </trkpt>
      <trkpt lat="42.605262" lon="-8.938108">
        <ele>66.051</ele>
        <time>2017-05-06T17:05:27Z</time>
      </trkpt>
      <trkpt lat="42.605312" lon="-8.938211">
        <ele>67.067</ele>
        <time>2017-05-06T17:05:44Z</time>
      </trkpt>
    </trkseg>
  </trk>
</gpx>
